<?xml version="1.0" encoding="UTF-8"?>
<gpx version="1.1" creator="2bulu-scraper" xmlns="http://www.topografix.com/GPX/1/1">
  <metadata><name>峨眉山市雷洞坪～金顶～雷洞坪～万年寺～清音阁～一线天～五显岗（金顶、半山AB线完整版）</name><desc>source: 2bulu.com trackId=84999887; exported 2026-09-01T16:16:59.071Z</desc>
    <bounds minlat="29.5226099" minlon="103.2839663" maxlat="29.6041566" maxlon="103.4057381"/>
    <link href="https://www.2bulu.com/track/t-k7gBVuR8VBrp%252FR2KBg5Tzw%253D%253D.htm"><text>2bulu 源页面</text></link>
  </metadata>
  <wpt lat="29.5808067" lon="103.4380188"><ele>491</ele><name>
        </name></wpt>
  <wpt lat="29.5396719" lon="103.3323793"><ele>2402</ele><name>
        </name></wpt>
  <wpt lat="29.5376668" lon="103.3337259"><ele>2427</ele><name>
        </name></wpt>
  <wpt lat="29.5375894" lon="103.3337775"><ele>2427</ele><name>
        </name></wpt>
  <wpt lat="29.5353734" lon="103.3335461"><ele>2476</ele><name>
        </name></wpt>
  <wpt lat="29.5348642" lon="103.3330486"><ele>2499</ele><name>
        </name></wpt>
  <wpt lat="29.5349281" lon="103.3336044"><ele>2482</ele><name>
        </name></wpt>
  <wpt lat="29.5250496" lon="103.3348667"><ele>2988</ele><name>
        </name></wpt>
  <wpt lat="29.5239608" lon="103.3353306"><ele>2998</ele><name>
        </name></wpt>
  <wpt lat="29.5245878" lon="103.336013"><ele>3008</ele><name>
        </name></wpt>
  <wpt lat="29.5242672" lon="103.3363495"><ele>3058</ele><name>
        </name></wpt>
  <wpt lat="29.5241397" lon="103.3364429"><ele>3022</ele><name>
        </name></wpt>
  <wpt lat="29.5233926" lon="103.336366"><ele>3032</ele><name>
        </name></wpt>
  <wpt lat="29.5230802" lon="103.3360181"><ele>3029</ele><name>
        </name></wpt>
  <wpt lat="29.5227636" lon="103.3350202"><ele>3012</ele><name>
        </name></wpt>
  <wpt lat="29.5226099" lon="103.3350412"><ele>3011</ele><name>
        </name></wpt>
  <wpt lat="29.5226737" lon="103.3349028"><ele>3009</ele><name>
        </name></wpt>
  <wpt lat="29.5228259" lon="103.3365324"><ele>3036</ele><name>
        </name></wpt>
  <wpt lat="29.5228289" lon="103.3370437"><ele>3045</ele><name>
        </name></wpt>
  <wpt lat="29.5306744" lon="103.3327176"><ele>2767</ele><name>
        </name></wpt>
  <wpt lat="29.5360986" lon="103.3342301"><ele>2462</ele><name>
        </name></wpt>
  <wpt lat="29.5360986" lon="103.3342301"><ele>2462</ele><name>
        </name></wpt>
  <wpt lat="29.5389351" lon="103.3330614"><ele>2420</ele><name>
        </name></wpt>
  <wpt lat="29.5943713" lon="103.3757922"><ele>778</ele><name>
        </name></wpt>
  <wpt lat="29.5866957" lon="103.3797381"><ele>882</ele><name>
        </name></wpt>
  <wpt lat="29.5822904" lon="103.382091"><ele>949</ele><name>
        </name></wpt>
  <wpt lat="29.5819685" lon="103.3825801"><ele>954</ele><name>
        </name></wpt>
  <wpt lat="29.5813256" lon="103.3829098"><ele>969</ele><name>
        </name></wpt>
  <wpt lat="29.5816756" lon="103.3843001"><ele>928</ele><name>
        </name></wpt>
  <wpt lat="29.5814592" lon="103.3843421"><ele>929</ele><name>
        </name></wpt>
  <wpt lat="29.5783978" lon="103.3889313"><ele>787</ele><name>
        </name></wpt>
  <wpt lat="29.5783707" lon="103.3890778"><ele>782</ele><name>
        </name></wpt>
  <wpt lat="29.5784783" lon="103.3897134"><ele>783</ele><name>
        </name></wpt>
  <wpt lat="29.5776066" lon="103.3910676"><ele>765</ele><name>
        </name></wpt>
  <wpt lat="29.5772514" lon="103.3909485"><ele>751</ele><name>
        </name></wpt>
  <wpt lat="29.5766672" lon="103.3919252"><ele>736</ele><name>
        </name></wpt>
  <wpt lat="29.5743465" lon="103.3922076"><ele>663</ele><name>
        </name></wpt>
  <wpt lat="29.5742196" lon="103.3922955"><ele>646</ele><name>
        </name></wpt>
  <wpt lat="29.5741066" lon="103.39207"><ele>659</ele><name>
        </name></wpt>
  <wpt lat="29.57127" lon="103.3917138"><ele>674</ele><name>
        </name></wpt>
  <wpt lat="29.5703579" lon="103.3913276"><ele>686</ele><name>
        </name></wpt>
  <wpt lat="29.5701048" lon="103.3910827"><ele>691</ele><name>
        </name></wpt>
  <wpt lat="29.5694483" lon="103.3910087"><ele>680</ele><name>
        </name></wpt>
  <wpt lat="29.5693488" lon="103.3909814"><ele>676</ele><name>
        </name></wpt>
  <wpt lat="29.5690708" lon="103.3909225"><ele>833</ele><name>
        </name></wpt>
  <wpt lat="29.5686569" lon="103.3912565"><ele>666</ele><name>
        </name></wpt>
  <wpt lat="29.5684767" lon="103.3909813"><ele>666</ele><name>
        </name></wpt>
  <wpt lat="29.5684305" lon="103.390946"><ele>685</ele><name>
        </name></wpt>
  <wpt lat="29.5685275" lon="103.390979"><ele>680</ele><name>
        </name></wpt>
  <wpt lat="29.5688593" lon="103.391194"><ele>678</ele><name>
        </name></wpt>
  <wpt lat="29.5688972" lon="103.3911896"><ele>796</ele><name>
        </name></wpt>
  <wpt lat="29.5745396" lon="103.3926573"><ele>648</ele><name>
        </name></wpt>
  <wpt lat="29.5745751" lon="103.3926142"><ele>645</ele><name>
        </name></wpt>
  <wpt lat="29.575748" lon="103.3929366"><ele>649</ele><name>
        </name></wpt>
  <wpt lat="29.5760084" lon="103.3934452"><ele>631</ele><name>
        </name></wpt>
  <wpt lat="29.5761689" lon="103.3967591"><ele>637</ele><name>
        </name></wpt>
  <wpt lat="29.5766556" lon="103.3995707"><ele>626</ele><name>
        </name></wpt>
  <wpt lat="29.5775099" lon="103.4001327"><ele>628</ele><name>
        </name></wpt>
  <wpt lat="29.5781609" lon="103.4036784"><ele>629</ele><name>
        </name></wpt>
  <wpt lat="29.578137" lon="103.4046014"><ele>630</ele><name>
        </name></wpt>
  <trk><name>峨眉山市雷洞坪～金顶～雷洞坪～万年寺～清音阁～一线天～五显岗（金顶、半山AB线完整版）</name>
      <trkseg>
        <trkpt lat="29.5402407" lon="103.331065"><ele>2402.32</ele><time>2026-05-28T19:33:07.000Z</time></trkpt>
        <trkpt lat="29.5401603" lon="103.331069"><ele>2402.32</ele><time>2026-05-28T19:33:39.000Z</time></trkpt>
        <trkpt lat="29.5400632" lon="103.3310723"><ele>2401.99</ele><time>2026-05-28T19:33:47.000Z</time></trkpt>
        <trkpt lat="29.5399601" lon="103.3310806"><ele>2402.04</ele><time>2026-05-28T19:33:57.000Z</time></trkpt>
        <trkpt lat="29.5398564" lon="103.3310917"><ele>2402.44</ele><time>2026-05-28T19:34:07.000Z</time></trkpt>
        <trkpt lat="29.5397544" lon="103.3311199"><ele>2402.81</ele><time>2026-05-28T19:34:21.000Z</time></trkpt>
        <trkpt lat="29.5396544" lon="103.3311424"><ele>2401.02</ele><time>2026-05-28T19:34:29.000Z</time></trkpt>
        <trkpt lat="29.5395689" lon="103.3311463"><ele>2399.61</ele><time>2026-05-28T19:34:37.000Z</time></trkpt>
        <trkpt lat="29.5394792" lon="103.331156"><ele>2397.96</ele><time>2026-05-28T19:34:55.000Z</time></trkpt>
        <trkpt lat="29.5393955" lon="103.3312124"><ele>2399.43</ele><time>2026-05-28T19:35:09.000Z</time></trkpt>
        <trkpt lat="29.539411" lon="103.3313173"><ele>2400.65</ele><time>2026-05-28T19:35:19.000Z</time></trkpt>
        <trkpt lat="29.5394608" lon="103.3314289"><ele>2399.62</ele><time>2026-05-28T19:35:27.000Z</time></trkpt>
        <trkpt lat="29.5395058" lon="103.3315388"><ele>2398.52</ele><time>2026-05-28T19:35:35.000Z</time></trkpt>
        <trkpt lat="29.5395586" lon="103.331652"><ele>2398.19</ele><time>2026-05-28T19:35:43.000Z</time></trkpt>
        <trkpt lat="29.5396229" lon="103.3317595"><ele>2398.07</ele><time>2026-05-28T19:35:51.000Z</time></trkpt>
        <trkpt lat="29.5396751" lon="103.3318577"><ele>2398.73</ele><time>2026-05-28T19:35:59.000Z</time></trkpt>
        <trkpt lat="29.5397145" lon="103.3319573"><ele>2399.48</ele><time>2026-05-28T19:36:07.000Z</time></trkpt>
        <trkpt lat="29.539746" lon="103.3320548"><ele>2398.45</ele><time>2026-05-28T19:36:15.000Z</time></trkpt>
        <trkpt lat="29.5397956" lon="103.3321484"><ele>2397.4</ele><time>2026-05-28T19:36:27.000Z</time></trkpt>
        <trkpt lat="29.5397557" lon="103.3322225"><ele>2396.79</ele><time>2026-05-28T19:36:47.000Z</time></trkpt>
        <trkpt lat="29.5397394" lon="103.3323167"><ele>2396.14</ele><time>2026-05-28T19:36:57.000Z</time></trkpt>
        <trkpt lat="29.5396719" lon="103.3323793"><ele>2398.46</ele><time>2026-05-28T19:37:11.000Z</time></trkpt>
        <trkpt lat="29.5396017" lon="103.3324495"><ele>2399.03</ele><time>2026-05-28T19:37:31.000Z</time></trkpt>
        <trkpt lat="29.5395182" lon="103.3325046"><ele>2400.24</ele><time>2026-05-28T19:37:47.000Z</time></trkpt>
        <trkpt lat="29.5394404" lon="103.3325647"><ele>2401.25</ele><time>2026-05-28T19:38:07.000Z</time></trkpt>
        <trkpt lat="29.5393695" lon="103.3326393"><ele>2403.78</ele><time>2026-05-28T19:38:23.000Z</time></trkpt>
        <trkpt lat="29.5392988" lon="103.3327162"><ele>2405.48</ele><time>2026-05-28T19:38:37.000Z</time></trkpt>
        <trkpt lat="29.539222" lon="103.3327845"><ele>2407.78</ele><time>2026-05-28T19:38:51.000Z</time></trkpt>
        <trkpt lat="29.5391333" lon="103.3328273"><ele>2410.47</ele><time>2026-05-28T19:39:03.000Z</time></trkpt>
        <trkpt lat="29.5390408" lon="103.3328893"><ele>2413.18</ele><time>2026-05-28T19:39:13.000Z</time></trkpt>
        <trkpt lat="29.5389526" lon="103.3329455"><ele>2414.29</ele><time>2026-05-28T19:39:23.000Z</time></trkpt>
        <trkpt lat="29.5388785" lon="103.3330112"><ele>2415.03</ele><time>2026-05-28T19:39:33.000Z</time></trkpt>
        <trkpt lat="29.5387865" lon="103.3330702"><ele>2416.19</ele><time>2026-05-28T19:39:43.000Z</time></trkpt>
        <trkpt lat="29.5386967" lon="103.3331035"><ele>2417.12</ele><time>2026-05-28T19:39:51.000Z</time></trkpt>
        <trkpt lat="29.5385997" lon="103.3331253"><ele>2417.99</ele><time>2026-05-28T19:40:01.000Z</time></trkpt>
        <trkpt lat="29.5385069" lon="103.3331385"><ele>2417.87</ele><time>2026-05-28T19:40:11.000Z</time></trkpt>
        <trkpt lat="29.538409" lon="103.3331438"><ele>2418.24</ele><time>2026-05-28T19:40:23.000Z</time></trkpt>
        <trkpt lat="29.5383018" lon="103.3331783"><ele>2419.26</ele><time>2026-05-28T19:41:45.000Z</time></trkpt>
        <trkpt lat="29.5382179" lon="103.3332655"><ele>2418.64</ele><time>2026-05-28T19:41:53.000Z</time></trkpt>
        <trkpt lat="29.5381352" lon="103.3333257"><ele>2418.83</ele><time>2026-05-28T19:42:01.000Z</time></trkpt>
        <trkpt lat="29.5380529" lon="103.3333809"><ele>2419.98</ele><time>2026-05-28T19:42:09.000Z</time></trkpt>
        <trkpt lat="29.537958" lon="103.3334199"><ele>2421.62</ele><time>2026-05-28T19:42:19.000Z</time></trkpt>
        <trkpt lat="29.5378667" lon="103.3334636"><ele>2422.58</ele><time>2026-05-28T19:42:29.000Z</time></trkpt>
        <trkpt lat="29.5377954" lon="103.3335451"><ele>2423.84</ele><time>2026-05-28T19:42:39.000Z</time></trkpt>
        <trkpt lat="29.5377254" lon="103.3336309"><ele>2424.45</ele><time>2026-05-28T19:42:51.000Z</time></trkpt>
        <trkpt lat="29.5376668" lon="103.3337259"><ele>2424.91</ele><time>2026-05-28T19:43:05.000Z</time></trkpt>
        <trkpt lat="29.5375894" lon="103.3337775"><ele>2426.78</ele><time>2026-05-28T19:43:19.000Z</time></trkpt>
        <trkpt lat="29.5374993" lon="103.3337719"><ele>2428.17</ele><time>2026-05-28T19:43:35.000Z</time></trkpt>
        <trkpt lat="29.5374035" lon="103.3337391"><ele>2429.79</ele><time>2026-05-28T19:43:45.000Z</time></trkpt>
        <trkpt lat="29.5373068" lon="103.3337651"><ele>2431.08</ele><time>2026-05-28T19:43:55.000Z</time></trkpt>
        <trkpt lat="29.5372504" lon="103.3338482"><ele>2434.18</ele><time>2026-05-28T19:44:05.000Z</time></trkpt>
        <trkpt lat="29.5372058" lon="103.3339464"><ele>2437.69</ele><time>2026-05-28T19:44:19.000Z</time></trkpt>
        <trkpt lat="29.5371748" lon="103.3340614"><ele>2438.45</ele><time>2026-05-28T19:44:31.000Z</time></trkpt>
        <trkpt lat="29.5371071" lon="103.3341285"><ele>2438.38</ele><time>2026-05-28T19:44:45.000Z</time></trkpt>
        <trkpt lat="29.537024" lon="103.3341685"><ele>2439.68</ele><time>2026-05-28T19:44:57.000Z</time></trkpt>
        <trkpt lat="29.5369359" lon="103.3342019"><ele>2440.65</ele><time>2026-05-28T19:45:11.000Z</time></trkpt>
        <trkpt lat="29.5368383" lon="103.3342117"><ele>2443.66</ele><time>2026-05-28T19:45:25.000Z</time></trkpt>
        <trkpt lat="29.5367434" lon="103.3342387"><ele>2445.08</ele><time>2026-05-28T19:45:39.000Z</time></trkpt>
        <trkpt lat="29.536651" lon="103.3342924"><ele>2447.97</ele><time>2026-05-28T19:45:57.000Z</time></trkpt>
        <trkpt lat="29.5365519" lon="103.3343077"><ele>2449.99</ele><time>2026-05-28T19:46:11.000Z</time></trkpt>
        <trkpt lat="29.5364589" lon="103.3343023"><ele>2450.78</ele><time>2026-05-28T19:46:37.000Z</time></trkpt>
        <trkpt lat="29.5363801" lon="103.3343413"><ele>2450.85</ele><time>2026-05-28T19:47:05.000Z</time></trkpt>
        <trkpt lat="29.536289" lon="103.3343524"><ele>2452.76</ele><time>2026-05-28T19:47:19.000Z</time></trkpt>
        <trkpt lat="29.5362045" lon="103.3343133"><ele>2453.76</ele><time>2026-05-28T19:47:33.000Z</time></trkpt>
        <trkpt lat="29.5361209" lon="103.3342641"><ele>2455.47</ele><time>2026-05-28T19:47:47.000Z</time></trkpt>
        <trkpt lat="29.5360404" lon="103.3341962"><ele>2456.49</ele><time>2026-05-28T19:48:05.000Z</time></trkpt>
        <trkpt lat="29.5359516" lon="103.3341366"><ele>2459.6</ele><time>2026-05-28T19:48:23.000Z</time></trkpt>
        <trkpt lat="29.5358654" lon="103.3340763"><ele>2461.64</ele><time>2026-05-28T19:48:53.000Z</time></trkpt>
        <trkpt lat="29.5357665" lon="103.3340284"><ele>2463.32</ele><time>2026-05-28T19:49:03.000Z</time></trkpt>
        <trkpt lat="29.5356746" lon="103.3339844"><ele>2465.79</ele><time>2026-05-28T19:49:11.000Z</time></trkpt>
        <trkpt lat="29.5356159" lon="103.3339005"><ele>2467.6</ele><time>2026-05-28T19:49:25.000Z</time></trkpt>
        <trkpt lat="29.5355622" lon="103.3338113"><ele>2468.9</ele><time>2026-05-28T19:49:43.000Z</time></trkpt>
        <trkpt lat="29.5354849" lon="103.3337396"><ele>2471.32</ele><time>2026-05-28T19:50:01.000Z</time></trkpt>
        <trkpt lat="29.5354241" lon="103.333652"><ele>2473.49</ele><time>2026-05-28T19:50:09.000Z</time></trkpt>
        <trkpt lat="29.5353734" lon="103.3335461"><ele>2474.58</ele><time>2026-05-28T19:50:19.000Z</time></trkpt>
        <trkpt lat="29.5353144" lon="103.3334602"><ele>2475.13</ele><time>2026-05-28T19:50:39.000Z</time></trkpt>
        <trkpt lat="29.5352767" lon="103.3333588"><ele>2476.2</ele><time>2026-05-28T19:50:55.000Z</time></trkpt>
        <trkpt lat="29.5352332" lon="103.3332579"><ele>2477.23</ele><time>2026-05-28T19:51:11.000Z</time></trkpt>
        <trkpt lat="29.5352033" lon="103.3331531"><ele>2479.38</ele><time>2026-05-28T19:51:39.000Z</time></trkpt>
        <trkpt lat="29.5351668" lon="103.3330535"><ele>2484.23</ele><time>2026-05-28T19:52:01.000Z</time></trkpt>
        <trkpt lat="29.5351277" lon="103.3329478"><ele>2487.61</ele><time>2026-05-28T19:52:17.000Z</time></trkpt>
        <trkpt lat="29.5350633" lon="103.332858"><ele>2490.51</ele><time>2026-05-28T19:52:31.000Z</time></trkpt>
        <trkpt lat="29.5349704" lon="103.3328508"><ele>2493.21</ele><time>2026-05-28T19:52:51.000Z</time></trkpt>
        <trkpt lat="29.5348712" lon="103.3328557"><ele>2494.32</ele><time>2026-05-28T19:53:19.000Z</time></trkpt>
        <trkpt lat="29.5348313" lon="103.3329463"><ele>2496.55</ele><time>2026-05-28T19:53:33.000Z</time></trkpt>
        <trkpt lat="29.5348642" lon="103.3330486"><ele>2496.91</ele><time>2026-05-28T19:53:43.000Z</time></trkpt>
        <trkpt lat="29.534952" lon="103.3330182"><ele>2497.06</ele><time>2026-05-28T19:53:55.000Z</time></trkpt>
        <trkpt lat="29.5350106" lon="103.3329415"><ele>2497.53</ele><time>2026-05-28T19:54:01.000Z</time></trkpt>
        <trkpt lat="29.5350452" lon="103.3330174"><ele>2497.89</ele><time>2026-05-28T19:54:15.000Z</time></trkpt>
        <trkpt lat="29.535057" lon="103.3331423"><ele>2498.11</ele><time>2026-05-28T19:54:19.000Z</time></trkpt>
        <trkpt lat="29.5350806" lon="103.3332597"><ele>2497</ele><time>2026-05-28T19:54:31.000Z</time></trkpt>
        <trkpt lat="29.5350447" lon="103.333363"><ele>2491.73</ele><time>2026-05-28T19:54:41.000Z</time></trkpt>
        <trkpt lat="29.5349866" lon="103.3334585"><ele>2486.6</ele><time>2026-05-28T19:54:53.000Z</time></trkpt>
        <trkpt lat="29.5349281" lon="103.3336044"><ele>2485.06</ele><time>2026-05-28T19:55:03.000Z</time></trkpt>
        <trkpt lat="29.5349777" lon="103.333658"><ele>2482.94</ele><time>2026-05-28T19:55:23.000Z</time></trkpt>
        <trkpt lat="29.5349798" lon="103.3335814"><ele>2483.37</ele><time>2026-05-28T19:56:17.000Z</time></trkpt>
        <trkpt lat="29.5349028" lon="103.3335101"><ele>2483.86</ele><time>2026-05-28T19:56:35.000Z</time></trkpt>
        <trkpt lat="29.5349976" lon="103.3334423"><ele>2492.41</ele><time>2026-05-28T19:56:41.000Z</time></trkpt>
        <trkpt lat="29.5349477" lon="103.333684"><ele>2499.17</ele><time>2026-05-28T19:58:10.000Z</time></trkpt>
        <trkpt lat="29.5348424" lon="103.3336144"><ele>2494.72</ele><time>2026-05-28T19:58:24.000Z</time></trkpt>
        <trkpt lat="29.5348456" lon="103.3337708"><ele>2491.54</ele><time>2026-05-28T19:58:44.000Z</time></trkpt>
        <trkpt lat="29.5349927" lon="103.3338514"><ele>2489.67</ele><time>2026-05-28T20:01:08.000Z</time></trkpt>
        <trkpt lat="29.5350363" lon="103.3339456"><ele>2495.52</ele><time>2026-05-28T20:01:12.000Z</time></trkpt>
        <trkpt lat="29.5350935" lon="103.3339463"><ele>2502.47</ele><time>2026-05-28T20:01:26.000Z</time></trkpt>
        <trkpt lat="29.5351052" lon="103.3339138"><ele>2503.55</ele><time>2026-05-28T20:01:32.000Z</time></trkpt>
        <trkpt lat="29.5354121" lon="103.3337073"><ele>2502.53</ele><time>2026-05-28T20:08:57.000Z</time></trkpt>
        <trkpt lat="29.5354831" lon="103.3335914"><ele>2504.76</ele><time>2026-05-28T20:09:01.000Z</time></trkpt>
        <trkpt lat="29.5350951" lon="103.3338913"><ele>2506.72</ele><time>2026-05-28T20:09:09.000Z</time></trkpt>
        <trkpt lat="29.5349218" lon="103.3339528"><ele>2513.28</ele><time>2026-05-28T20:09:13.000Z</time></trkpt>
        <trkpt lat="29.5347647" lon="103.3337068"><ele>2517.89</ele><time>2026-05-28T20:10:14.000Z</time></trkpt>
        <trkpt lat="29.5347494" lon="103.3337514"><ele>2519.84</ele><time>2026-05-28T20:10:26.000Z</time></trkpt>
        <trkpt lat="29.5346579" lon="103.3337363"><ele>2520.89</ele><time>2026-05-28T20:11:12.000Z</time></trkpt>
        <trkpt lat="29.5345296" lon="103.3337595"><ele>2515.38</ele><time>2026-05-28T20:11:16.000Z</time></trkpt>
        <trkpt lat="29.5343718" lon="103.3338137"><ele>2513.86</ele><time>2026-05-28T20:11:20.000Z</time></trkpt>
        <trkpt lat="29.5341892" lon="103.3338562"><ele>2513.85</ele><time>2026-05-28T20:11:24.000Z</time></trkpt>
        <trkpt lat="29.5340483" lon="103.3338805"><ele>2516.13</ele><time>2026-05-28T20:11:26.000Z</time></trkpt>
        <trkpt lat="29.5339089" lon="103.3338805"><ele>2518.42</ele><time>2026-05-28T20:11:28.000Z</time></trkpt>
        <trkpt lat="29.5337781" lon="103.3339045"><ele>2522.69</ele><time>2026-05-28T20:11:30.000Z</time></trkpt>
        <trkpt lat="29.5336378" lon="103.3339439"><ele>2527.62</ele><time>2026-05-28T20:11:32.000Z</time></trkpt>
        <trkpt lat="29.5334895" lon="103.3339889"><ele>2533.04</ele><time>2026-05-28T20:11:34.000Z</time></trkpt>
        <trkpt lat="29.5333348" lon="103.3340306"><ele>2538.8</ele><time>2026-05-28T20:11:36.000Z</time></trkpt>
        <trkpt lat="29.5331703" lon="103.3340788"><ele>2545.18</ele><time>2026-05-28T20:11:38.000Z</time></trkpt>
        <trkpt lat="29.5330025" lon="103.3341223"><ele>2551.4</ele><time>2026-05-28T20:11:40.000Z</time></trkpt>
        <trkpt lat="29.5328313" lon="103.3341659"><ele>2558.16</ele><time>2026-05-28T20:11:42.000Z</time></trkpt>
        <trkpt lat="29.532659" lon="103.334205"><ele>2565.32</ele><time>2026-05-28T20:11:44.000Z</time></trkpt>
        <trkpt lat="29.5324908" lon="103.3342474"><ele>2572.55</ele><time>2026-05-28T20:11:46.000Z</time></trkpt>
        <trkpt lat="29.5323215" lon="103.3342776"><ele>2579.87</ele><time>2026-05-28T20:11:48.000Z</time></trkpt>
        <trkpt lat="29.5321565" lon="103.3343223"><ele>2587.72</ele><time>2026-05-28T20:11:50.000Z</time></trkpt>
        <trkpt lat="29.5319898" lon="103.3343598"><ele>2595.73</ele><time>2026-05-28T20:11:52.000Z</time></trkpt>
        <trkpt lat="29.5318242" lon="103.3343951"><ele>2603.73</ele><time>2026-05-28T20:11:54.000Z</time></trkpt>
        <trkpt lat="29.5316593" lon="103.3344368"><ele>2611.81</ele><time>2026-05-28T20:11:56.000Z</time></trkpt>
        <trkpt lat="29.5314873" lon="103.3344785"><ele>2620.01</ele><time>2026-05-28T20:11:58.000Z</time></trkpt>
        <trkpt lat="29.5313208" lon="103.3345107"><ele>2627.97</ele><time>2026-05-28T20:12:00.000Z</time></trkpt>
        <trkpt lat="29.5311562" lon="103.3345442"><ele>2636.42</ele><time>2026-05-28T20:12:02.000Z</time></trkpt>
        <trkpt lat="29.5309918" lon="103.3345771"><ele>2645.03</ele><time>2026-05-28T20:12:04.000Z</time></trkpt>
        <trkpt lat="29.5308175" lon="103.3346156"><ele>2653.55</ele><time>2026-05-28T20:12:06.000Z</time></trkpt>
        <trkpt lat="29.5306488" lon="103.3346517"><ele>2661.77</ele><time>2026-05-28T20:12:08.000Z</time></trkpt>
        <trkpt lat="29.5304856" lon="103.3346936"><ele>2670.28</ele><time>2026-05-28T20:12:10.000Z</time></trkpt>
        <trkpt lat="29.5303221" lon="103.3347259"><ele>2678.74</ele><time>2026-05-28T20:12:12.000Z</time></trkpt>
        <trkpt lat="29.5301635" lon="103.3347688"><ele>2687.88</ele><time>2026-05-28T20:12:14.000Z</time></trkpt>
        <trkpt lat="29.5300022" lon="103.3348122"><ele>2697.01</ele><time>2026-05-28T20:12:16.000Z</time></trkpt>
        <trkpt lat="29.5298382" lon="103.3348595"><ele>2705.99</ele><time>2026-05-28T20:12:18.000Z</time></trkpt>
        <trkpt lat="29.5296735" lon="103.3349018"><ele>2715.02</ele><time>2026-05-28T20:12:20.000Z</time></trkpt>
        <trkpt lat="29.5295136" lon="103.3349424"><ele>2724.01</ele><time>2026-05-28T20:12:22.000Z</time></trkpt>
        <trkpt lat="29.5293523" lon="103.3349829"><ele>2732.85</ele><time>2026-05-28T20:12:24.000Z</time></trkpt>
        <trkpt lat="29.5291873" lon="103.3350235"><ele>2741.88</ele><time>2026-05-28T20:12:26.000Z</time></trkpt>
        <trkpt lat="29.5290223" lon="103.3350654"><ele>2750.96</ele><time>2026-05-28T20:12:28.000Z</time></trkpt>
        <trkpt lat="29.5288644" lon="103.3350966"><ele>2759.94</ele><time>2026-05-28T20:12:30.000Z</time></trkpt>
        <trkpt lat="29.5287031" lon="103.3351342"><ele>2769.18</ele><time>2026-05-28T20:12:32.000Z</time></trkpt>
        <trkpt lat="29.5285402" lon="103.3351732"><ele>2778.63</ele><time>2026-05-28T20:12:34.000Z</time></trkpt>
        <trkpt lat="29.5283794" lon="103.3352218"><ele>2788.09</ele><time>2026-05-28T20:12:36.000Z</time></trkpt>
        <trkpt lat="29.5282191" lon="103.3352564"><ele>2797.59</ele><time>2026-05-28T20:12:38.000Z</time></trkpt>
        <trkpt lat="29.5280595" lon="103.3352918"><ele>2807.02</ele><time>2026-05-28T20:12:40.000Z</time></trkpt>
        <trkpt lat="29.5278992" lon="103.3353206"><ele>2816.93</ele><time>2026-05-28T20:12:42.000Z</time></trkpt>
        <trkpt lat="29.5277424" lon="103.3353544"><ele>2826.83</ele><time>2026-05-28T20:12:44.000Z</time></trkpt>
        <trkpt lat="29.5275846" lon="103.3353852"><ele>2836.87</ele><time>2026-05-28T20:12:46.000Z</time></trkpt>
        <trkpt lat="29.5274286" lon="103.3354105"><ele>2847.01</ele><time>2026-05-28T20:12:48.000Z</time></trkpt>
        <trkpt lat="29.5272753" lon="103.3354369"><ele>2857.64</ele><time>2026-05-28T20:12:50.000Z</time></trkpt>
        <trkpt lat="29.5271262" lon="103.335472"><ele>2868.64</ele><time>2026-05-28T20:12:52.000Z</time></trkpt>
        <trkpt lat="29.526974" lon="103.335505"><ele>2879.44</ele><time>2026-05-28T20:12:54.000Z</time></trkpt>
        <trkpt lat="29.5268213" lon="103.3355454"><ele>2890.46</ele><time>2026-05-28T20:12:56.000Z</time></trkpt>
        <trkpt lat="29.5266709" lon="103.335571"><ele>2901.15</ele><time>2026-05-28T20:12:58.000Z</time></trkpt>
        <trkpt lat="29.5265349" lon="103.3355959"><ele>2912.06</ele><time>2026-05-28T20:13:00.000Z</time></trkpt>
        <trkpt lat="29.5264134" lon="103.3356123"><ele>2922.7</ele><time>2026-05-28T20:13:02.000Z</time></trkpt>
        <trkpt lat="29.5263022" lon="103.3356336"><ele>2932.8</ele><time>2026-05-28T20:13:04.000Z</time></trkpt>
        <trkpt lat="29.5262" lon="103.3356462"><ele>2942.02</ele><time>2026-05-28T20:13:06.000Z</time></trkpt>
        <trkpt lat="29.5261065" lon="103.3356597"><ele>2950.52</ele><time>2026-05-28T20:13:08.000Z</time></trkpt>
        <trkpt lat="29.5259831" lon="103.3356942"><ele>2958.12</ele><time>2026-05-28T20:13:12.000Z</time></trkpt>
        <trkpt lat="29.5258553" lon="103.3357439"><ele>2967.46</ele><time>2026-05-28T20:13:16.000Z</time></trkpt>
        <trkpt lat="29.5257509" lon="103.3357648"><ele>2975.86</ele><time>2026-05-28T20:13:22.000Z</time></trkpt>
        <trkpt lat="29.5256583" lon="103.3358015"><ele>2983.5</ele><time>2026-05-28T20:13:34.000Z</time></trkpt>
        <trkpt lat="29.5255685" lon="103.3357817"><ele>2991.28</ele><time>2026-05-28T20:14:40.000Z</time></trkpt>
        <trkpt lat="29.5254475" lon="103.335717"><ele>2996.58</ele><time>2026-05-28T20:14:44.000Z</time></trkpt>
        <trkpt lat="29.5253409" lon="103.3357006"><ele>2999.56</ele><time>2026-05-28T20:14:50.000Z</time></trkpt>
        <trkpt lat="29.5252642" lon="103.3356312"><ele>3003.27</ele><time>2026-05-28T20:14:58.000Z</time></trkpt>
        <trkpt lat="29.5251796" lon="103.3355923"><ele>3006.64</ele><time>2026-05-28T20:15:06.000Z</time></trkpt>
        <trkpt lat="29.5251622" lon="103.3354977"><ele>3008.25</ele><time>2026-05-28T20:15:24.000Z</time></trkpt>
        <trkpt lat="29.5252004" lon="103.3353988"><ele>3007.8</ele><time>2026-05-28T20:15:40.000Z</time></trkpt>
        <trkpt lat="29.5252668" lon="103.3352888"><ele>3005.37</ele><time>2026-05-28T20:15:56.000Z</time></trkpt>
        <trkpt lat="29.5253065" lon="103.3351762"><ele>3002.11</ele><time>2026-05-28T20:16:08.000Z</time></trkpt>
        <trkpt lat="29.5253144" lon="103.3350865"><ele>2997.7</ele><time>2026-05-28T20:16:22.000Z</time></trkpt>
        <trkpt lat="29.5252584" lon="103.3350168"><ele>2996.43</ele><time>2026-05-28T20:16:58.000Z</time></trkpt>
        <trkpt lat="29.5251839" lon="103.3349456"><ele>2996.94</ele><time>2026-05-28T20:17:10.000Z</time></trkpt>
        <trkpt lat="29.5251029" lon="103.3348726"><ele>2996.85</ele><time>2026-05-28T20:17:22.000Z</time></trkpt>
        <trkpt lat="29.5250496" lon="103.3348667"><ele>2995.28</ele><time>2026-05-28T20:17:40.000Z</time></trkpt>
        <trkpt lat="29.5249706" lon="103.3348191"><ele>2992.55</ele><time>2026-05-28T20:17:52.000Z</time></trkpt>
        <trkpt lat="29.5248685" lon="103.3347843"><ele>2989.96</ele><time>2026-05-28T20:18:00.000Z</time></trkpt>
        <trkpt lat="29.5247734" lon="103.3347514"><ele>2989.72</ele><time>2026-05-28T20:18:10.000Z</time></trkpt>
        <trkpt lat="29.5246788" lon="103.3347404"><ele>2988.62</ele><time>2026-05-28T20:18:22.000Z</time></trkpt>
        <trkpt lat="29.5245788" lon="103.3347564"><ele>2989.14</ele><time>2026-05-28T20:18:32.000Z</time></trkpt>
        <trkpt lat="29.5244726" lon="103.3348013"><ele>2992.63</ele><time>2026-05-28T20:18:42.000Z</time></trkpt>
        <trkpt lat="29.5243832" lon="103.3348646"><ele>2995.02</ele><time>2026-05-28T20:18:50.000Z</time></trkpt>
        <trkpt lat="29.5242971" lon="103.3349127"><ele>2995.28</ele><time>2026-05-28T20:18:58.000Z</time></trkpt>
        <trkpt lat="29.5242057" lon="103.3349398"><ele>2994.52</ele><time>2026-05-28T20:19:06.000Z</time></trkpt>
        <trkpt lat="29.5241069" lon="103.3349524"><ele>2994.29</ele><time>2026-05-28T20:19:14.000Z</time></trkpt>
        <trkpt lat="29.5240052" lon="103.334936"><ele>2993.49</ele><time>2026-05-28T20:19:22.000Z</time></trkpt>
        <trkpt lat="29.523906" lon="103.3348985"><ele>2992.89</ele><time>2026-05-28T20:19:32.000Z</time></trkpt>
        <trkpt lat="29.5238711" lon="103.3349725"><ele>2994.83</ele><time>2026-05-28T20:19:46.000Z</time></trkpt>
        <trkpt lat="29.5239001" lon="103.3350727"><ele>2999.29</ele><time>2026-05-28T20:19:58.000Z</time></trkpt>
        <trkpt lat="29.5239321" lon="103.3352003"><ele>3000.55</ele><time>2026-05-28T20:20:10.000Z</time></trkpt>
        <trkpt lat="29.5239608" lon="103.3353306"><ele>3000.2</ele><time>2026-05-28T20:20:20.000Z</time></trkpt>
        <trkpt lat="29.5240176" lon="103.3354255"><ele>2999.4</ele><time>2026-05-28T20:20:32.000Z</time></trkpt>
        <trkpt lat="29.5240816" lon="103.3355254"><ele>2997.18</ele><time>2026-05-28T20:20:44.000Z</time></trkpt>
        <trkpt lat="29.524143" lon="103.3356164"><ele>2997.86</ele><time>2026-05-28T20:20:52.000Z</time></trkpt>
        <trkpt lat="29.5242163" lon="103.3356897"><ele>2998.48</ele><time>2026-05-28T20:21:02.000Z</time></trkpt>
        <trkpt lat="29.5242852" lon="103.3357643"><ele>2999.71</ele><time>2026-05-28T20:21:16.000Z</time></trkpt>
        <trkpt lat="29.5243731" lon="103.33583"><ele>3002.23</ele><time>2026-05-28T20:21:28.000Z</time></trkpt>
        <trkpt lat="29.5244582" lon="103.3358814"><ele>3003.37</ele><time>2026-05-28T20:21:36.000Z</time></trkpt>
        <trkpt lat="29.5245438" lon="103.3359288"><ele>3003.95</ele><time>2026-05-28T20:21:46.000Z</time></trkpt>
        <trkpt lat="29.5245878" lon="103.336013"><ele>3004.89</ele><time>2026-05-28T20:22:04.000Z</time></trkpt>
        <trkpt lat="29.5245346" lon="103.3360838"><ele>3006.24</ele><time>2026-05-28T20:22:30.000Z</time></trkpt>
        <trkpt lat="29.5244489" lon="103.3361486"><ele>3006</ele><time>2026-05-28T20:22:46.000Z</time></trkpt>
        <trkpt lat="29.524365" lon="103.3362158"><ele>3006.49</ele><time>2026-05-28T20:23:02.000Z</time></trkpt>
        <trkpt lat="29.5242932" lon="103.3362909"><ele>3008.26</ele><time>2026-05-28T20:23:26.000Z</time></trkpt>
        <trkpt lat="29.524229" lon="103.3363793"><ele>3013.02</ele><time>2026-05-28T20:24:54.000Z</time></trkpt>
        <trkpt lat="29.5241517" lon="103.3364353"><ele>3016.01</ele><time>2026-05-28T20:25:12.000Z</time></trkpt>
        <trkpt lat="29.5241397" lon="103.3364429"><ele>3018.69</ele><time>2026-05-28T20:25:19.000Z</time></trkpt>
        <trkpt lat="29.5240422" lon="103.3364174"><ele>3020.11</ele><time>2026-05-28T20:26:44.000Z</time></trkpt>
        <trkpt lat="29.5239483" lon="103.3364388"><ele>3022.09</ele><time>2026-05-28T20:26:52.000Z</time></trkpt>
        <trkpt lat="29.5238567" lon="103.3364276"><ele>3024.32</ele><time>2026-05-28T20:27:04.000Z</time></trkpt>
        <trkpt lat="29.5237659" lon="103.3363957"><ele>3025.8</ele><time>2026-05-28T20:27:14.000Z</time></trkpt>
        <trkpt lat="29.5236803" lon="103.3363569"><ele>3027.09</ele><time>2026-05-28T20:27:28.000Z</time></trkpt>
        <trkpt lat="29.5235793" lon="103.3363423"><ele>3029.21</ele><time>2026-05-28T20:27:56.000Z</time></trkpt>
        <trkpt lat="29.5234746" lon="103.3363399"><ele>3030.62</ele><time>2026-05-28T20:28:22.000Z</time></trkpt>
        <trkpt lat="29.5233926" lon="103.336366"><ele>3030.68</ele><time>2026-05-28T20:28:32.000Z</time></trkpt>
        <trkpt lat="29.5232967" lon="103.3363769"><ele>3031.09</ele><time>2026-05-28T20:28:46.000Z</time></trkpt>
        <trkpt lat="29.5232864" lon="103.3363919"><ele>3031.26</ele><time>2026-05-28T20:29:04.000Z</time></trkpt>
        <trkpt lat="29.5232283" lon="103.3363739"><ele>3031.12</ele><time>2026-05-28T20:29:14.000Z</time></trkpt>
        <trkpt lat="29.5231646" lon="103.3362954"><ele>3029.77</ele><time>2026-05-28T20:29:22.000Z</time></trkpt>
        <trkpt lat="29.5231316" lon="103.3361721"><ele>3028.93</ele><time>2026-05-28T20:29:32.000Z</time></trkpt>
        <trkpt lat="29.5230952" lon="103.3360586"><ele>3028.6</ele><time>2026-05-28T20:29:41.000Z</time></trkpt>
        <trkpt lat="29.5230802" lon="103.3360181"><ele>3028.54</ele><time>2026-05-28T20:29:44.000Z</time></trkpt>
        <trkpt lat="29.5230206" lon="103.3359698"><ele>3028.64</ele><time>2026-05-28T20:30:08.000Z</time></trkpt>
        <trkpt lat="29.5229749" lon="103.3358966"><ele>3029.22</ele><time>2026-05-28T20:30:18.000Z</time></trkpt>
        <trkpt lat="29.5228889" lon="103.3358596"><ele>3029.27</ele><time>2026-05-28T20:30:50.000Z</time></trkpt>
        <trkpt lat="29.5228467" lon="103.3358002"><ele>3030.49</ele><time>2026-05-28T20:31:00.000Z</time></trkpt>
        <trkpt lat="29.5228145" lon="103.3357105"><ele>3030.09</ele><time>2026-05-28T20:31:56.000Z</time></trkpt>
        <trkpt lat="29.5228159" lon="103.3355971"><ele>3027.92</ele><time>2026-05-28T20:32:10.000Z</time></trkpt>
        <trkpt lat="29.5228181" lon="103.335484"><ele>3024.48</ele><time>2026-05-28T20:32:20.000Z</time></trkpt>
        <trkpt lat="29.5228227" lon="103.3353621"><ele>3021.61</ele><time>2026-05-28T20:32:30.000Z</time></trkpt>
        <trkpt lat="29.5227988" lon="103.3352882"><ele>3019.8</ele><time>2026-05-28T20:32:50.000Z</time></trkpt>
        <trkpt lat="29.5228002" lon="103.3351947"><ele>3019.2</ele><time>2026-05-28T20:33:08.000Z</time></trkpt>
        <trkpt lat="29.5227784" lon="103.3350815"><ele>3018.52</ele><time>2026-05-28T20:33:18.000Z</time></trkpt>
        <trkpt lat="29.522773" lon="103.3349678"><ele>3017.57</ele><time>2026-05-28T20:33:32.000Z</time></trkpt>
        <trkpt lat="29.5227636" lon="103.3350202"><ele>3015.29</ele><time>2026-05-28T20:34:10.000Z</time></trkpt>
        <trkpt lat="29.5226859" lon="103.3350285"><ele>3014.01</ele><time>2026-05-28T20:34:46.000Z</time></trkpt>
        <trkpt lat="29.5226099" lon="103.3350412"><ele>3012.56</ele><time>2026-05-28T20:34:54.000Z</time></trkpt>
        <trkpt lat="29.5226184" lon="103.334967"><ele>3012.08</ele><time>2026-05-28T20:35:06.000Z</time></trkpt>
        <trkpt lat="29.5226737" lon="103.3349028"><ele>3010.5</ele><time>2026-05-28T20:35:18.000Z</time></trkpt>
        <trkpt lat="29.5226907" lon="103.3349636"><ele>3010.41</ele><time>2026-05-28T20:35:42.000Z</time></trkpt>
        <trkpt lat="29.5226866" lon="103.3350705"><ele>3010.51</ele><time>2026-05-28T20:35:52.000Z</time></trkpt>
        <trkpt lat="29.5227053" lon="103.3351973"><ele>3011.4</ele><time>2026-05-28T20:36:02.000Z</time></trkpt>
        <trkpt lat="29.5227355" lon="103.3352885"><ele>3012.44</ele><time>2026-05-28T20:36:16.000Z</time></trkpt>
        <trkpt lat="29.5227247" lon="103.3353974"><ele>3012.87</ele><time>2026-05-28T20:38:46.000Z</time></trkpt>
        <trkpt lat="29.522737" lon="103.3355106"><ele>3016.46</ele><time>2026-05-28T20:39:10.000Z</time></trkpt>
        <trkpt lat="29.5227551" lon="103.3356214"><ele>3018.74</ele><time>2026-05-28T20:39:20.000Z</time></trkpt>
        <trkpt lat="29.5227747" lon="103.3357279"><ele>3020.42</ele><time>2026-05-28T20:39:30.000Z</time></trkpt>
        <trkpt lat="29.5227924" lon="103.3358365"><ele>3021.95</ele><time>2026-05-28T20:39:42.000Z</time></trkpt>
        <trkpt lat="29.522858" lon="103.3359098"><ele>3023.92</ele><time>2026-05-28T20:40:02.000Z</time></trkpt>
        <trkpt lat="29.5229543" lon="103.3359088"><ele>3025.94</ele><time>2026-05-28T20:40:10.000Z</time></trkpt>
        <trkpt lat="29.5229308" lon="103.3359563"><ele>3027.3</ele><time>2026-05-28T20:40:36.000Z</time></trkpt>
        <trkpt lat="29.522838" lon="103.3359593"><ele>3029.78</ele><time>2026-05-28T20:40:46.000Z</time></trkpt>
        <trkpt lat="29.5227488" lon="103.3360139"><ele>3031.39</ele><time>2026-05-28T20:40:56.000Z</time></trkpt>
        <trkpt lat="29.522708" lon="103.3361094"><ele>3032.75</ele><time>2026-05-28T20:41:04.000Z</time></trkpt>
        <trkpt lat="29.5226982" lon="103.3362243"><ele>3033.94</ele><time>2026-05-28T20:41:12.000Z</time></trkpt>
        <trkpt lat="29.5227018" lon="103.3363396"><ele>3034.34</ele><time>2026-05-28T20:41:20.000Z</time></trkpt>
        <trkpt lat="29.5227427" lon="103.3364575"><ele>3033.63</ele><time>2026-05-28T20:41:30.000Z</time></trkpt>
        <trkpt lat="29.5228259" lon="103.3365324"><ele>3033.72</ele><time>2026-05-28T20:41:42.000Z</time></trkpt>
        <trkpt lat="29.5229293" lon="103.3365254"><ele>3034.65</ele><time>2026-05-28T20:41:52.000Z</time></trkpt>
        <trkpt lat="29.5230462" lon="103.3365132"><ele>3034.03</ele><time>2026-05-28T20:42:00.000Z</time></trkpt>
        <trkpt lat="29.5231181" lon="103.336578"><ele>3033.08</ele><time>2026-05-28T20:42:08.000Z</time></trkpt>
        <trkpt lat="29.5231442" lon="103.3366954"><ele>3031.97</ele><time>2026-05-28T20:42:18.000Z</time></trkpt>
        <trkpt lat="29.523122" lon="103.3368078"><ele>3031.13</ele><time>2026-05-28T20:42:26.000Z</time></trkpt>
        <trkpt lat="29.5231" lon="103.336919"><ele>3029.81</ele><time>2026-05-28T20:42:32.000Z</time></trkpt>
        <trkpt lat="29.5230953" lon="103.3370363"><ele>3030.39</ele><time>2026-05-28T20:42:42.000Z</time></trkpt>
        <trkpt lat="29.5230951" lon="103.3371504"><ele>3032.28</ele><time>2026-05-28T20:42:54.000Z</time></trkpt>
        <trkpt lat="29.5230163" lon="103.3371807"><ele>3034.77</ele><time>2026-05-28T20:43:10.000Z</time></trkpt>
        <trkpt lat="29.5229193" lon="103.3371972"><ele>3038.39</ele><time>2026-05-28T20:43:22.000Z</time></trkpt>
        <trkpt lat="29.5228351" lon="103.3371709"><ele>3040.66</ele><time>2026-05-28T20:43:40.000Z</time></trkpt>
        <trkpt lat="29.5228296" lon="103.3370431"><ele>3043.49</ele><time>2026-05-28T20:45:02.000Z</time></trkpt>
        <trkpt lat="29.5228289" lon="103.3370437"><ele>3043.85</ele><time>2026-05-28T20:45:04.000Z</time></trkpt>
        <trkpt lat="29.5228711" lon="103.3371405"><ele>3043.83</ele><time>2026-05-28T20:45:20.000Z</time></trkpt>
        <trkpt lat="29.5229553" lon="103.3371902"><ele>3043.72</ele><time>2026-05-28T20:45:34.000Z</time></trkpt>
        <trkpt lat="29.5230563" lon="103.3371992"><ele>3042.78</ele><time>2026-05-28T20:45:46.000Z</time></trkpt>
        <trkpt lat="29.5231566" lon="103.3371372"><ele>3042.14</ele><time>2026-05-28T20:45:56.000Z</time></trkpt>
        <trkpt lat="29.5231809" lon="103.3370201"><ele>3040.83</ele><time>2026-05-28T20:46:06.000Z</time></trkpt>
        <trkpt lat="29.5231524" lon="103.3369073"><ele>3038.97</ele><time>2026-05-28T20:46:14.000Z</time></trkpt>
        <trkpt lat="29.5231203" lon="103.3367956"><ele>3036.73</ele><time>2026-05-28T20:46:22.000Z</time></trkpt>
        <trkpt lat="29.5231829" lon="103.3367118"><ele>3034.33</ele><time>2026-05-28T20:46:28.000Z</time></trkpt>
        <trkpt lat="29.5232423" lon="103.3366057"><ele>3031.34</ele><time>2026-05-28T20:46:38.000Z</time></trkpt>
        <trkpt lat="29.5233108" lon="103.3365079"><ele>3030.28</ele><time>2026-05-28T20:46:46.000Z</time></trkpt>
        <trkpt lat="29.523388" lon="103.3364418"><ele>3030.49</ele><time>2026-05-28T20:46:58.000Z</time></trkpt>
        <trkpt lat="29.5234267" lon="103.3363525"><ele>3030.81</ele><time>2026-05-28T20:47:08.000Z</time></trkpt>
        <trkpt lat="29.5235054" lon="103.3363759"><ele>3030.45</ele><time>2026-05-28T20:47:18.000Z</time></trkpt>
        <trkpt lat="29.523602" lon="103.3363704"><ele>3032.03</ele><time>2026-05-28T20:47:28.000Z</time></trkpt>
        <trkpt lat="29.5236962" lon="103.3364065"><ele>3033.2</ele><time>2026-05-28T20:47:40.000Z</time></trkpt>
        <trkpt lat="29.5237924" lon="103.3364266"><ele>3033.04</ele><time>2026-05-28T20:47:48.000Z</time></trkpt>
        <trkpt lat="29.5238834" lon="103.3364736"><ele>3032.92</ele><time>2026-05-28T20:47:56.000Z</time></trkpt>
        <trkpt lat="29.5239758" lon="103.3364815"><ele>3030.81</ele><time>2026-05-28T20:48:06.000Z</time></trkpt>
        <trkpt lat="29.5240689" lon="103.3364405"><ele>3027.38</ele><time>2026-05-28T20:48:18.000Z</time></trkpt>
        <trkpt lat="29.5241704" lon="103.3364123"><ele>3025.19</ele><time>2026-05-28T20:48:28.000Z</time></trkpt>
        <trkpt lat="29.5242669" lon="103.3363588"><ele>3023.46</ele><time>2026-05-28T20:48:38.000Z</time></trkpt>
        <trkpt lat="29.524357" lon="103.3363065"><ele>3021.1</ele><time>2026-05-28T20:48:50.000Z</time></trkpt>
        <trkpt lat="29.5244267" lon="103.3362304"><ele>3019.18</ele><time>2026-05-28T20:49:02.000Z</time></trkpt>
        <trkpt lat="29.5244946" lon="103.3361498"><ele>3017.71</ele><time>2026-05-28T20:49:18.000Z</time></trkpt>
        <trkpt lat="29.5245703" lon="103.3360804"><ele>3014.82</ele><time>2026-05-28T20:49:32.000Z</time></trkpt>
        <trkpt lat="29.5246382" lon="103.3359823"><ele>3010.93</ele><time>2026-05-28T20:49:42.000Z</time></trkpt>
        <trkpt lat="29.5245926" lon="103.3358851"><ele>3007.87</ele><time>2026-05-28T20:49:52.000Z</time></trkpt>
        <trkpt lat="29.524504" lon="103.3358121"><ele>3006.49</ele><time>2026-05-28T20:50:06.000Z</time></trkpt>
        <trkpt lat="29.5244067" lon="103.3357399"><ele>3005.22</ele><time>2026-05-28T20:50:20.000Z</time></trkpt>
        <trkpt lat="29.5243196" lon="103.3356665"><ele>3003.74</ele><time>2026-05-28T20:50:34.000Z</time></trkpt>
        <trkpt lat="29.5242412" lon="103.3355974"><ele>3001.02</ele><time>2026-05-28T20:50:48.000Z</time></trkpt>
        <trkpt lat="29.5241753" lon="103.3355103"><ele>3000.22</ele><time>2026-05-28T20:51:02.000Z</time></trkpt>
        <trkpt lat="29.5240903" lon="103.3354474"><ele>2999.35</ele><time>2026-05-28T20:51:14.000Z</time></trkpt>
        <trkpt lat="29.5240209" lon="103.3353773"><ele>2998.63</ele><time>2026-05-28T20:51:28.000Z</time></trkpt>
        <trkpt lat="29.5239634" lon="103.335287"><ele>2998.46</ele><time>2026-05-28T20:51:44.000Z</time></trkpt>
        <trkpt lat="29.5239615" lon="103.3352183"><ele>2997.05</ele><time>2026-05-28T20:52:02.000Z</time></trkpt>
        <trkpt lat="29.52399" lon="103.3351143"><ele>2997.56</ele><time>2026-05-28T20:53:18.000Z</time></trkpt>
        <trkpt lat="29.5239774" lon="103.3350056"><ele>3000.15</ele><time>2026-05-28T20:56:04.000Z</time></trkpt>
        <trkpt lat="29.5240777" lon="103.3349881"><ele>3000.13</ele><time>2026-05-28T20:56:30.000Z</time></trkpt>
        <trkpt lat="29.5241702" lon="103.334991"><ele>2998.92</ele><time>2026-05-28T20:56:38.000Z</time></trkpt>
        <trkpt lat="29.5242648" lon="103.3349802"><ele>2997.75</ele><time>2026-05-28T20:56:46.000Z</time></trkpt>
        <trkpt lat="29.524359" lon="103.3349589"><ele>2996.86</ele><time>2026-05-28T20:56:54.000Z</time></trkpt>
        <trkpt lat="29.5244562" lon="103.3349421"><ele>2995.68</ele><time>2026-05-28T20:57:00.000Z</time></trkpt>
        <trkpt lat="29.5245535" lon="103.3349225"><ele>2995.52</ele><time>2026-05-28T20:57:08.000Z</time></trkpt>
        <trkpt lat="29.5246478" lon="103.3349413"><ele>2995.01</ele><time>2026-05-28T20:57:16.000Z</time></trkpt>
        <trkpt lat="29.5247493" lon="103.3349672"><ele>2993.85</ele><time>2026-05-28T20:57:24.000Z</time></trkpt>
        <trkpt lat="29.5248095" lon="103.3350488"><ele>2993.49</ele><time>2026-05-28T20:57:34.000Z</time></trkpt>
        <trkpt lat="29.5248105" lon="103.3351147"><ele>2992.27</ele><time>2026-05-28T20:57:40.000Z</time></trkpt>
        <trkpt lat="29.5247108" lon="103.33517"><ele>2991.9</ele><time>2026-05-28T20:58:12.000Z</time></trkpt>
        <trkpt lat="29.5246484" lon="103.3355384"><ele>2987.36</ele><time>2026-05-28T20:58:20.000Z</time></trkpt>
        <trkpt lat="29.5245927" lon="103.3354041"><ele>2981.21</ele><time>2026-05-28T20:58:24.000Z</time></trkpt>
        <trkpt lat="29.5246967" lon="103.335159"><ele>2979.69</ele><time>2026-05-28T20:58:26.000Z</time></trkpt>
        <trkpt lat="29.5247551" lon="103.3349507"><ele>2982.72</ele><time>2026-05-28T20:58:30.000Z</time></trkpt>
        <trkpt lat="29.5247352" lon="103.334906"><ele>2987.78</ele><time>2026-05-28T20:58:40.000Z</time></trkpt>
        <trkpt lat="29.524665" lon="103.3348284"><ele>2992.36</ele><time>2026-05-28T20:59:40.000Z</time></trkpt>
        <trkpt lat="29.524676" lon="103.3347993"><ele>2993.62</ele><time>2026-05-28T20:59:44.000Z</time></trkpt>
        <trkpt lat="29.5247411" lon="103.3347464"><ele>2994.39</ele><time>2026-05-28T21:00:16.000Z</time></trkpt>
        <trkpt lat="29.5248257" lon="103.3347612"><ele>2994.99</ele><time>2026-05-28T21:00:32.000Z</time></trkpt>
        <trkpt lat="29.5249184" lon="103.3347888"><ele>2992.68</ele><time>2026-05-28T21:00:50.000Z</time></trkpt>
        <trkpt lat="29.5250222" lon="103.3348176"><ele>2990.55</ele><time>2026-05-28T21:01:00.000Z</time></trkpt>
        <trkpt lat="29.5251142" lon="103.3347898"><ele>2989.39</ele><time>2026-05-28T21:01:24.000Z</time></trkpt>
        <trkpt lat="29.5252075" lon="103.3347436"><ele>2987.2</ele><time>2026-05-28T21:01:36.000Z</time></trkpt>
        <trkpt lat="29.5253121" lon="103.3346984"><ele>2985.42</ele><time>2026-05-28T21:01:48.000Z</time></trkpt>
        <trkpt lat="29.5253877" lon="103.3346255"><ele>2983.72</ele><time>2026-05-28T21:01:58.000Z</time></trkpt>
        <trkpt lat="29.5254555" lon="103.3345419"><ele>2981.59</ele><time>2026-05-28T21:02:08.000Z</time></trkpt>
        <trkpt lat="29.5255081" lon="103.3344505"><ele>2979.1</ele><time>2026-05-28T21:02:18.000Z</time></trkpt>
        <trkpt lat="29.5255562" lon="103.3343552"><ele>2977.74</ele><time>2026-05-28T21:02:28.000Z</time></trkpt>
        <trkpt lat="29.5256215" lon="103.3342635"><ele>2975.44</ele><time>2026-05-28T21:02:38.000Z</time></trkpt>
        <trkpt lat="29.5256931" lon="103.3341697"><ele>2973.84</ele><time>2026-05-28T21:02:50.000Z</time></trkpt>
        <trkpt lat="29.5257649" lon="103.3340918"><ele>2971.13</ele><time>2026-05-28T21:03:00.000Z</time></trkpt>
        <trkpt lat="29.5258417" lon="103.3340273"><ele>2968.3</ele><time>2026-05-28T21:03:08.000Z</time></trkpt>
        <trkpt lat="29.5259296" lon="103.3339987"><ele>2965.82</ele><time>2026-05-28T21:03:18.000Z</time></trkpt>
        <trkpt lat="29.5260293" lon="103.3339925"><ele>2965.9</ele><time>2026-05-28T21:03:34.000Z</time></trkpt>
        <trkpt lat="29.5261243" lon="103.3339574"><ele>2966.3</ele><time>2026-05-28T21:03:42.000Z</time></trkpt>
        <trkpt lat="29.526227" lon="103.3339152"><ele>2965.52</ele><time>2026-05-28T21:03:50.000Z</time></trkpt>
        <trkpt lat="29.5263316" lon="103.3339294"><ele>2964.39</ele><time>2026-05-28T21:03:58.000Z</time></trkpt>
        <trkpt lat="29.5262996" lon="103.3339816"><ele>2962.95</ele><time>2026-05-28T21:04:12.000Z</time></trkpt>
        <trkpt lat="29.5262704" lon="103.3340849"><ele>2961.87</ele><time>2026-05-28T21:04:24.000Z</time></trkpt>
        <trkpt lat="29.5262748" lon="103.3342007"><ele>2961.03</ele><time>2026-05-28T21:04:34.000Z</time></trkpt>
        <trkpt lat="29.526237" lon="103.3341705"><ele>2960.4</ele><time>2026-05-28T21:04:42.000Z</time></trkpt>
        <trkpt lat="29.5261712" lon="103.3342085"><ele>2959.9</ele><time>2026-05-28T21:04:54.000Z</time></trkpt>
        <trkpt lat="29.5262261" lon="103.3342239"><ele>2959.36</ele><time>2026-05-28T21:05:06.000Z</time></trkpt>
        <trkpt lat="29.5263245" lon="103.3342065"><ele>2964.76</ele><time>2026-05-28T21:05:14.000Z</time></trkpt>
        <trkpt lat="29.5264377" lon="103.3342346"><ele>2968.18</ele><time>2026-05-28T21:05:28.000Z</time></trkpt>
        <trkpt lat="29.5264727" lon="103.3342728"><ele>2969.29</ele><time>2026-05-28T21:05:30.000Z</time></trkpt>
        <trkpt lat="29.5266936" lon="103.334191"><ele>2969.92</ele><time>2026-05-28T21:06:01.000Z</time></trkpt>
        <trkpt lat="29.5267946" lon="103.3341427"><ele>2964.4</ele><time>2026-05-28T21:06:03.000Z</time></trkpt>
        <trkpt lat="29.5269098" lon="103.3340965"><ele>2960.7</ele><time>2026-05-28T21:06:07.000Z</time></trkpt>
        <trkpt lat="29.5270243" lon="103.3340504"><ele>2954.4</ele><time>2026-05-28T21:06:11.000Z</time></trkpt>
        <trkpt lat="29.5271337" lon="103.3340075"><ele>2947.58</ele><time>2026-05-28T21:06:15.000Z</time></trkpt>
        <trkpt lat="29.5272408" lon="103.3339627"><ele>2940.17</ele><time>2026-05-28T21:06:19.000Z</time></trkpt>
        <trkpt lat="29.5273482" lon="103.3339188"><ele>2932.19</ele><time>2026-05-28T21:06:23.000Z</time></trkpt>
        <trkpt lat="29.527455" lon="103.3338791"><ele>2924.3</ele><time>2026-05-28T21:06:27.000Z</time></trkpt>
        <trkpt lat="29.5275606" lon="103.3338388"><ele>2916.69</ele><time>2026-05-28T21:06:31.000Z</time></trkpt>
        <trkpt lat="29.5276677" lon="103.3337981"><ele>2909.35</ele><time>2026-05-28T21:06:35.000Z</time></trkpt>
        <trkpt lat="29.5277763" lon="103.3337544"><ele>2902</ele><time>2026-05-28T21:06:39.000Z</time></trkpt>
        <trkpt lat="29.5278867" lon="103.3337129"><ele>2894.44</ele><time>2026-05-28T21:06:43.000Z</time></trkpt>
        <trkpt lat="29.5279989" lon="103.3336714"><ele>2886.73</ele><time>2026-05-28T21:06:47.000Z</time></trkpt>
        <trkpt lat="29.5281094" lon="103.3336301"><ele>2879.66</ele><time>2026-05-28T21:06:51.000Z</time></trkpt>
        <trkpt lat="29.5282218" lon="103.3335867"><ele>2872.91</ele><time>2026-05-28T21:06:55.000Z</time></trkpt>
        <trkpt lat="29.528336" lon="103.3335419"><ele>2866.57</ele><time>2026-05-28T21:06:59.000Z</time></trkpt>
        <trkpt lat="29.5284507" lon="103.3334983"><ele>2860.4</ele><time>2026-05-28T21:07:03.000Z</time></trkpt>
        <trkpt lat="29.5285664" lon="103.333455"><ele>2854.31</ele><time>2026-05-28T21:07:07.000Z</time></trkpt>
        <trkpt lat="29.528681" lon="103.3334134"><ele>2848.71</ele><time>2026-05-28T21:07:11.000Z</time></trkpt>
        <trkpt lat="29.5287953" lon="103.3333697"><ele>2842.85</ele><time>2026-05-28T21:07:15.000Z</time></trkpt>
        <trkpt lat="29.5289133" lon="103.3333268"><ele>2837.05</ele><time>2026-05-28T21:07:19.000Z</time></trkpt>
        <trkpt lat="29.5290317" lon="103.3332844"><ele>2831.48</ele><time>2026-05-28T21:07:23.000Z</time></trkpt>
        <trkpt lat="29.5291279" lon="103.3332265"><ele>2825.88</ele><time>2026-05-28T21:07:27.000Z</time></trkpt>
        <trkpt lat="29.5292274" lon="103.3331803"><ele>2820.5</ele><time>2026-05-28T21:07:31.000Z</time></trkpt>
        <trkpt lat="29.5293194" lon="103.3331674"><ele>2814.99</ele><time>2026-05-28T21:07:33.000Z</time></trkpt>
        <trkpt lat="29.5294443" lon="103.333146"><ele>2810.58</ele><time>2026-05-28T21:07:37.000Z</time></trkpt>
        <trkpt lat="29.5295725" lon="103.333116"><ele>2805.72</ele><time>2026-05-28T21:07:41.000Z</time></trkpt>
        <trkpt lat="29.5296976" lon="103.3330771"><ele>2800.47</ele><time>2026-05-28T21:07:45.000Z</time></trkpt>
        <trkpt lat="29.5298207" lon="103.3330313"><ele>2795.33</ele><time>2026-05-28T21:07:49.000Z</time></trkpt>
        <trkpt lat="29.5299443" lon="103.3329849"><ele>2790.45</ele><time>2026-05-28T21:07:53.000Z</time></trkpt>
        <trkpt lat="29.5300648" lon="103.332939"><ele>2785.79</ele><time>2026-05-28T21:07:57.000Z</time></trkpt>
        <trkpt lat="29.5301856" lon="103.3328945"><ele>2781.35</ele><time>2026-05-28T21:08:01.000Z</time></trkpt>
        <trkpt lat="29.5303075" lon="103.3328492"><ele>2777.13</ele><time>2026-05-28T21:08:05.000Z</time></trkpt>
        <trkpt lat="29.5304288" lon="103.3328036"><ele>2772.99</ele><time>2026-05-28T21:08:09.000Z</time></trkpt>
        <trkpt lat="29.530552" lon="103.3327573"><ele>2768.81</ele><time>2026-05-28T21:08:13.000Z</time></trkpt>
        <trkpt lat="29.5306744" lon="103.3327176"><ele>2764.84</ele><time>2026-05-28T21:08:17.000Z</time></trkpt>
        <trkpt lat="29.5307917" lon="103.3326748"><ele>2761.31</ele><time>2026-05-28T21:08:21.000Z</time></trkpt>
        <trkpt lat="29.5308982" lon="103.3326263"><ele>2758.31</ele><time>2026-05-28T21:08:25.000Z</time></trkpt>
        <trkpt lat="29.5310006" lon="103.3325854"><ele>2753.14</ele><time>2026-05-28T21:08:29.000Z</time></trkpt>
        <trkpt lat="29.5311056" lon="103.3325513"><ele>2746.38</ele><time>2026-05-28T21:08:33.000Z</time></trkpt>
        <trkpt lat="29.5312097" lon="103.3325148"><ele>2738.74</ele><time>2026-05-28T21:08:37.000Z</time></trkpt>
        <trkpt lat="29.5313157" lon="103.3324742"><ele>2730.99</ele><time>2026-05-28T21:08:41.000Z</time></trkpt>
        <trkpt lat="29.5314218" lon="103.3324336"><ele>2723.24</ele><time>2026-05-28T21:08:45.000Z</time></trkpt>
        <trkpt lat="29.5315248" lon="103.3324"><ele>2715.32</ele><time>2026-05-28T21:08:49.000Z</time></trkpt>
        <trkpt lat="29.5316239" lon="103.3323599"><ele>2707.13</ele><time>2026-05-28T21:08:53.000Z</time></trkpt>
        <trkpt lat="29.531724" lon="103.3323176"><ele>2698.71</ele><time>2026-05-28T21:08:57.000Z</time></trkpt>
        <trkpt lat="29.5318265" lon="103.3322779"><ele>2690.5</ele><time>2026-05-28T21:09:01.000Z</time></trkpt>
        <trkpt lat="29.5319292" lon="103.3322377"><ele>2682.48</ele><time>2026-05-28T21:09:05.000Z</time></trkpt>
        <trkpt lat="29.5320326" lon="103.3321964"><ele>2674.7</ele><time>2026-05-28T21:09:09.000Z</time></trkpt>
        <trkpt lat="29.5321345" lon="103.3321545"><ele>2666.99</ele><time>2026-05-28T21:09:13.000Z</time></trkpt>
        <trkpt lat="29.5322391" lon="103.3321143"><ele>2659.36</ele><time>2026-05-28T21:09:17.000Z</time></trkpt>
        <trkpt lat="29.5323484" lon="103.3320753"><ele>2651.7</ele><time>2026-05-28T21:09:22.000Z</time></trkpt>
        <trkpt lat="29.5324586" lon="103.3320357"><ele>2644.28</ele><time>2026-05-28T21:09:25.000Z</time></trkpt>
        <trkpt lat="29.532565" lon="103.3319966"><ele>2637.14</ele><time>2026-05-28T21:09:29.000Z</time></trkpt>
        <trkpt lat="29.5326722" lon="103.3319588"><ele>2630.03</ele><time>2026-05-28T21:09:33.000Z</time></trkpt>
        <trkpt lat="29.5327819" lon="103.331924"><ele>2622.27</ele><time>2026-05-28T21:09:37.000Z</time></trkpt>
        <trkpt lat="29.5328893" lon="103.3318768"><ele>2614.46</ele><time>2026-05-28T21:09:41.000Z</time></trkpt>
        <trkpt lat="29.5329984" lon="103.3318361"><ele>2606.69</ele><time>2026-05-28T21:09:45.000Z</time></trkpt>
        <trkpt lat="29.5331087" lon="103.331796"><ele>2599.15</ele><time>2026-05-28T21:09:49.000Z</time></trkpt>
        <trkpt lat="29.5332199" lon="103.3317547"><ele>2591.97</ele><time>2026-05-28T21:09:53.000Z</time></trkpt>
        <trkpt lat="29.5333314" lon="103.331714"><ele>2584.81</ele><time>2026-05-28T21:09:57.000Z</time></trkpt>
        <trkpt lat="29.533444" lon="103.3316726"><ele>2577.47</ele><time>2026-05-28T21:10:01.000Z</time></trkpt>
        <trkpt lat="29.5335585" lon="103.3316338"><ele>2570.2</ele><time>2026-05-28T21:10:05.000Z</time></trkpt>
        <trkpt lat="29.5336719" lon="103.3315922"><ele>2563.09</ele><time>2026-05-28T21:10:09.000Z</time></trkpt>
        <trkpt lat="29.5337861" lon="103.3315483"><ele>2556.04</ele><time>2026-05-28T21:10:13.000Z</time></trkpt>
        <trkpt lat="29.5338876" lon="103.3315076"><ele>2549.43</ele><time>2026-05-28T21:10:17.000Z</time></trkpt>
        <trkpt lat="29.5339866" lon="103.3314707"><ele>2541.98</ele><time>2026-05-28T21:10:21.000Z</time></trkpt>
        <trkpt lat="29.5340876" lon="103.3314355"><ele>2533.85</ele><time>2026-05-28T21:10:25.000Z</time></trkpt>
        <trkpt lat="29.5341871" lon="103.3314004"><ele>2525.52</ele><time>2026-05-28T21:10:29.000Z</time></trkpt>
        <trkpt lat="29.5342904" lon="103.3313686"><ele>2517.28</ele><time>2026-05-28T21:10:33.000Z</time></trkpt>
        <trkpt lat="29.5343985" lon="103.3313319"><ele>2511.1</ele><time>2026-05-28T21:10:43.000Z</time></trkpt>
        <trkpt lat="29.5344974" lon="103.3312816"><ele>2503.99</ele><time>2026-05-28T21:10:59.000Z</time></trkpt>
        <trkpt lat="29.53451" lon="103.3311821"><ele>2503.07</ele><time>2026-05-28T21:11:11.000Z</time></trkpt>
        <trkpt lat="29.5344677" lon="103.3313548"><ele>2502.66</ele><time>2026-05-28T21:12:11.000Z</time></trkpt>
        <trkpt lat="29.5344622" lon="103.3314585"><ele>2500.45</ele><time>2026-05-28T21:12:19.000Z</time></trkpt>
        <trkpt lat="29.5345385" lon="103.3314828"><ele>2499.85</ele><time>2026-05-28T21:12:31.000Z</time></trkpt>
        <trkpt lat="29.5346167" lon="103.3314411"><ele>2500.57</ele><time>2026-05-28T21:12:43.000Z</time></trkpt>
        <trkpt lat="29.5346932" lon="103.3313641"><ele>2499.45</ele><time>2026-05-28T21:12:59.000Z</time></trkpt>
        <trkpt lat="29.5347833" lon="103.3313599"><ele>2496.56</ele><time>2026-05-28T21:13:11.000Z</time></trkpt>
        <trkpt lat="29.5348687" lon="103.3314047"><ele>2491.94</ele><time>2026-05-28T21:13:19.000Z</time></trkpt>
        <trkpt lat="29.534937" lon="103.3314957"><ele>2488.47</ele><time>2026-05-28T21:13:31.000Z</time></trkpt>
        <trkpt lat="29.534966" lon="103.3316063"><ele>2487.77</ele><time>2026-05-28T21:13:41.000Z</time></trkpt>
        <trkpt lat="29.5349841" lon="103.3317315"><ele>2486.96</ele><time>2026-05-28T21:13:51.000Z</time></trkpt>
        <trkpt lat="29.5349885" lon="103.3318624"><ele>2485.7</ele><time>2026-05-28T21:14:01.000Z</time></trkpt>
        <trkpt lat="29.5350101" lon="103.3319898"><ele>2484.88</ele><time>2026-05-28T21:14:11.000Z</time></trkpt>
        <trkpt lat="29.5350287" lon="103.3321132"><ele>2484.37</ele><time>2026-05-28T21:14:21.000Z</time></trkpt>
        <trkpt lat="29.5350291" lon="103.3322273"><ele>2483.93</ele><time>2026-05-28T21:14:29.000Z</time></trkpt>
        <trkpt lat="29.5350356" lon="103.3323438"><ele>2481.77</ele><time>2026-05-28T21:14:41.000Z</time></trkpt>
        <trkpt lat="29.5350437" lon="103.3324573"><ele>2481.01</ele><time>2026-05-28T21:14:47.000Z</time></trkpt>
        <trkpt lat="29.5350545" lon="103.332566"><ele>2479.92</ele><time>2026-05-28T21:14:53.000Z</time></trkpt>
        <trkpt lat="29.5350793" lon="103.3326859"><ele>2479.14</ele><time>2026-05-28T21:14:59.000Z</time></trkpt>
        <trkpt lat="29.5351438" lon="103.332777"><ele>2477.82</ele><time>2026-05-28T21:15:05.000Z</time></trkpt>
        <trkpt lat="29.5352194" lon="103.3328607"><ele>2477.4</ele><time>2026-05-28T21:15:13.000Z</time></trkpt>
        <trkpt lat="29.5353072" lon="103.3329453"><ele>2477.05</ele><time>2026-05-28T21:15:19.000Z</time></trkpt>
        <trkpt lat="29.5353873" lon="103.33304"><ele>2476.57</ele><time>2026-05-28T21:15:27.000Z</time></trkpt>
        <trkpt lat="29.5354311" lon="103.3331602"><ele>2475.61</ele><time>2026-05-28T21:15:35.000Z</time></trkpt>
        <trkpt lat="29.5354404" lon="103.3332918"><ele>2475.05</ele><time>2026-05-28T21:15:43.000Z</time></trkpt>
        <trkpt lat="29.5354311" lon="103.333425"><ele>2473.64</ele><time>2026-05-28T21:15:51.000Z</time></trkpt>
        <trkpt lat="29.5354304" lon="103.3335393"><ele>2473.64</ele><time>2026-05-28T21:15:59.000Z</time></trkpt>
        <trkpt lat="29.5354417" lon="103.3336577"><ele>2475.47</ele><time>2026-05-28T21:16:07.000Z</time></trkpt>
        <trkpt lat="29.5355083" lon="103.3337586"><ele>2474.62</ele><time>2026-05-28T21:16:15.000Z</time></trkpt>
        <trkpt lat="29.5355759" lon="103.3338608"><ele>2473.47</ele><time>2026-05-28T21:16:23.000Z</time></trkpt>
        <trkpt lat="29.5356272" lon="103.3339651"><ele>2474.86</ele><time>2026-05-28T21:16:37.000Z</time></trkpt>
        <trkpt lat="29.5357127" lon="103.3340376"><ele>2473.65</ele><time>2026-05-28T21:16:47.000Z</time></trkpt>
        <trkpt lat="29.5358115" lon="103.334098"><ele>2472.26</ele><time>2026-05-28T21:16:55.000Z</time></trkpt>
        <trkpt lat="29.535911" lon="103.3341467"><ele>2471.38</ele><time>2026-05-28T21:17:05.000Z</time></trkpt>
        <trkpt lat="29.5359975" lon="103.334194"><ele>2470.42</ele><time>2026-05-28T21:17:13.000Z</time></trkpt>
        <trkpt lat="29.5360986" lon="103.3342301"><ele>2468.62</ele><time>2026-05-28T21:17:25.000Z</time></trkpt>
        <trkpt lat="29.5361892" lon="103.3342844"><ele>2466.31</ele><time>2026-05-28T21:17:41.000Z</time></trkpt>
        <trkpt lat="29.5362811" lon="103.334348"><ele>2463.57</ele><time>2026-05-28T21:17:55.000Z</time></trkpt>
        <trkpt lat="29.5363903" lon="103.3343885"><ele>2460.67</ele><time>2026-05-28T21:18:05.000Z</time></trkpt>
        <trkpt lat="29.5364855" lon="103.3343631"><ele>2458.38</ele><time>2026-05-28T21:18:17.000Z</time></trkpt>
        <trkpt lat="29.5365866" lon="103.3343441"><ele>2455.24</ele><time>2026-05-28T21:18:27.000Z</time></trkpt>
        <trkpt lat="29.5366946" lon="103.3343536"><ele>2453.95</ele><time>2026-05-28T21:18:37.000Z</time></trkpt>
        <trkpt lat="29.5367921" lon="103.3343446"><ele>2454.11</ele><time>2026-05-28T21:18:45.000Z</time></trkpt>
        <trkpt lat="29.5368812" lon="103.3343105"><ele>2453.73</ele><time>2026-05-28T21:18:55.000Z</time></trkpt>
        <trkpt lat="29.53697" lon="103.3342639"><ele>2452.42</ele><time>2026-05-28T21:19:07.000Z</time></trkpt>
        <trkpt lat="29.5370677" lon="103.3342184"><ele>2449.32</ele><time>2026-05-28T21:19:15.000Z</time></trkpt>
        <trkpt lat="29.5371632" lon="103.3341717"><ele>2447.63</ele><time>2026-05-28T21:19:23.000Z</time></trkpt>
        <trkpt lat="29.5372465" lon="103.3340962"><ele>2446.42</ele><time>2026-05-28T21:19:35.000Z</time></trkpt>
        <trkpt lat="29.5373068" lon="103.333996"><ele>2442.09</ele><time>2026-05-28T21:19:45.000Z</time></trkpt>
        <trkpt lat="29.5373571" lon="103.3338864"><ele>2438.8</ele><time>2026-05-28T21:19:53.000Z</time></trkpt>
        <trkpt lat="29.5374123" lon="103.3337835"><ele>2437.27</ele><time>2026-05-28T21:20:05.000Z</time></trkpt>
        <trkpt lat="29.5375154" lon="103.3337266"><ele>2435.38</ele><time>2026-05-28T21:20:15.000Z</time></trkpt>
        <trkpt lat="29.5376217" lon="103.3337195"><ele>2431.91</ele><time>2026-05-28T21:20:23.000Z</time></trkpt>
        <trkpt lat="29.5377189" lon="103.3337061"><ele>2429.66</ele><time>2026-05-28T21:20:31.000Z</time></trkpt>
        <trkpt lat="29.5377908" lon="103.3336353"><ele>2428.44</ele><time>2026-05-28T21:20:41.000Z</time></trkpt>
        <trkpt lat="29.5378616" lon="103.3335472"><ele>2426.66</ele><time>2026-05-28T21:20:49.000Z</time></trkpt>
        <trkpt lat="29.537955" lon="103.3334839"><ele>2424.69</ele><time>2026-05-28T21:20:59.000Z</time></trkpt>
        <trkpt lat="29.5380589" lon="103.3334328"><ele>2423.91</ele><time>2026-05-28T21:21:07.000Z</time></trkpt>
        <trkpt lat="29.5381577" lon="103.3333895"><ele>2423.03</ele><time>2026-05-28T21:21:13.000Z</time></trkpt>
        <trkpt lat="29.5382498" lon="103.3333328"><ele>2422.06</ele><time>2026-05-28T21:21:21.000Z</time></trkpt>
        <trkpt lat="29.5383443" lon="103.33327"><ele>2421.27</ele><time>2026-05-28T21:21:29.000Z</time></trkpt>
        <trkpt lat="29.5384392" lon="103.3332171"><ele>2419</ele><time>2026-05-28T21:21:37.000Z</time></trkpt>
        <trkpt lat="29.5385337" lon="103.3331916"><ele>2418.14</ele><time>2026-05-28T21:21:45.000Z</time></trkpt>
        <trkpt lat="29.5386384" lon="103.3331729"><ele>2417.59</ele><time>2026-05-28T21:21:55.000Z</time></trkpt>
        <trkpt lat="29.5387508" lon="103.3331516"><ele>2418.32</ele><time>2026-05-28T21:22:05.000Z</time></trkpt>
        <trkpt lat="29.5388433" lon="103.3331007"><ele>2418.61</ele><time>2026-05-28T21:22:15.000Z</time></trkpt>
        <trkpt lat="29.5389351" lon="103.3330614"><ele>2418.92</ele><time>2026-05-28T21:22:29.000Z</time></trkpt>
        <trkpt lat="29.5390308" lon="103.3330102"><ele>2419.29</ele><time>2026-05-28T21:22:39.000Z</time></trkpt>
        <trkpt lat="29.5391182" lon="103.332936"><ele>2418.49</ele><time>2026-05-28T21:22:49.000Z</time></trkpt>
        <trkpt lat="29.539198" lon="103.3328649"><ele>2418.68</ele><time>2026-05-28T21:22:57.000Z</time></trkpt>
        <trkpt lat="29.5392803" lon="103.3327969"><ele>2417.42</ele><time>2026-05-28T21:23:05.000Z</time></trkpt>
        <trkpt lat="29.5393675" lon="103.3327349"><ele>2415.85</ele><time>2026-05-28T21:23:13.000Z</time></trkpt>
        <trkpt lat="29.5394459" lon="103.3326692"><ele>2414.01</ele><time>2026-05-28T21:23:21.000Z</time></trkpt>
        <trkpt lat="29.5395091" lon="103.3325815"><ele>2412.29</ele><time>2026-05-28T21:23:31.000Z</time></trkpt>
        <trkpt lat="29.5395879" lon="103.3325128"><ele>2410.97</ele><time>2026-05-28T21:23:43.000Z</time></trkpt>
        <trkpt lat="29.5396641" lon="103.3324468"><ele>2409.83</ele><time>2026-05-28T21:23:53.000Z</time></trkpt>
        <trkpt lat="29.5397546" lon="103.3323872"><ele>2408.15</ele><time>2026-05-28T21:24:05.000Z</time></trkpt>
        <trkpt lat="29.5398249" lon="103.3323097"><ele>2405.46</ele><time>2026-05-28T21:24:17.000Z</time></trkpt>
        <trkpt lat="29.5398554" lon="103.3322131"><ele>2404.26</ele><time>2026-05-28T21:24:35.000Z</time></trkpt>
        <trkpt lat="29.5398474" lon="103.3321056"><ele>2400.68</ele><time>2026-05-28T21:24:51.000Z</time></trkpt>
        <trkpt lat="29.539779" lon="103.332031"><ele>2399.12</ele><time>2026-05-28T21:24:59.000Z</time></trkpt>
        <trkpt lat="29.5397268" lon="103.3319418"><ele>2398.32</ele><time>2026-05-28T21:25:09.000Z</time></trkpt>
        <trkpt lat="29.5397586" lon="103.3319795"><ele>2397.62</ele><time>2026-05-28T21:25:19.000Z</time></trkpt>
        <trkpt lat="29.5398131" lon="103.3320818"><ele>2397.82</ele><time>2026-05-28T21:25:29.000Z</time></trkpt>
        <trkpt lat="29.5398594" lon="103.3321947"><ele>2397.71</ele><time>2026-05-28T21:25:41.000Z</time></trkpt>
        <trkpt lat="29.5399467" lon="103.3322122"><ele>2398.11</ele><time>2026-05-28T21:25:49.000Z</time></trkpt>
        <trkpt lat="29.5400472" lon="103.3321767"><ele>2397.61</ele><time>2026-05-28T21:25:59.000Z</time></trkpt>
        <trkpt lat="29.5401563" lon="103.3321422"><ele>2399.28</ele><time>2026-05-28T21:26:09.000Z</time></trkpt>
        <trkpt lat="29.5402561" lon="103.3320775"><ele>2400.47</ele><time>2026-05-28T21:26:19.000Z</time></trkpt>
        <trkpt lat="29.5403273" lon="103.3319859"><ele>2401.12</ele><time>2026-05-28T21:26:29.000Z</time></trkpt>
        <trkpt lat="29.5404026" lon="103.3319183"><ele>2400.96</ele><time>2026-05-28T21:26:37.000Z</time></trkpt>
        <trkpt lat="29.5404922" lon="103.3318601"><ele>2401.57</ele><time>2026-05-28T21:26:45.000Z</time></trkpt>
        <trkpt lat="29.5405865" lon="103.3317958"><ele>2401.39</ele><time>2026-05-28T21:26:53.000Z</time></trkpt>
        <trkpt lat="29.5406747" lon="103.331735"><ele>2400.66</ele><time>2026-05-28T21:27:01.000Z</time></trkpt>
        <trkpt lat="29.5407722" lon="103.3317209"><ele>2400.41</ele><time>2026-05-28T21:27:09.000Z</time></trkpt>
        <trkpt lat="29.5408822" lon="103.3317399"><ele>2401.03</ele><time>2026-05-28T21:27:19.000Z</time></trkpt>
        <trkpt lat="29.5409899" lon="103.331791"><ele>2399.92</ele><time>2026-05-28T21:27:27.000Z</time></trkpt>
        <trkpt lat="29.5410931" lon="103.3318072"><ele>2396.38</ele><time>2026-05-28T21:27:35.000Z</time></trkpt>
        <trkpt lat="29.5411887" lon="103.331801"><ele>2393.78</ele><time>2026-05-28T21:27:49.000Z</time></trkpt>
        <trkpt lat="29.5412916" lon="103.3317825"><ele>2395.28</ele><time>2026-05-28T21:28:03.000Z</time></trkpt>
        <trkpt lat="29.5413952" lon="103.3317539"><ele>2394.71</ele><time>2026-05-28T21:28:13.000Z</time></trkpt>
        <trkpt lat="29.5415004" lon="103.3317441"><ele>2394.53</ele><time>2026-05-28T21:28:21.000Z</time></trkpt>
        <trkpt lat="29.5416058" lon="103.3317215"><ele>2392.56</ele><time>2026-05-28T21:28:29.000Z</time></trkpt>
        <trkpt lat="29.5417108" lon="103.3317029"><ele>2390.69</ele><time>2026-05-28T21:28:37.000Z</time></trkpt>
        <trkpt lat="29.5418117" lon="103.3316857"><ele>2389.51</ele><time>2026-05-28T21:28:45.000Z</time></trkpt>
        <trkpt lat="29.5418679" lon="103.3317517"><ele>2388.16</ele><time>2026-05-28T21:28:55.000Z</time></trkpt>
        <trkpt lat="29.5418223" lon="103.3318481"><ele>2388.18</ele><time>2026-05-28T21:29:05.000Z</time></trkpt>
        <trkpt lat="29.5417908" lon="103.3319713"><ele>2388.78</ele><time>2026-05-28T21:29:11.000Z</time></trkpt>
        <trkpt lat="29.5418444" lon="103.3320617"><ele>2387.32</ele><time>2026-05-28T21:29:27.000Z</time></trkpt>
        <trkpt lat="29.5419504" lon="103.3320992"><ele>2388.02</ele><time>2026-05-28T21:29:35.000Z</time></trkpt>
        <trkpt lat="29.5420574" lon="103.3320835"><ele>2387.03</ele><time>2026-05-28T21:29:41.000Z</time></trkpt>
        <trkpt lat="29.5420726" lon="103.3319866"><ele>2387.43</ele><time>2026-05-28T21:29:47.000Z</time></trkpt>
        <trkpt lat="29.5420394" lon="103.3318641"><ele>2387.57</ele><time>2026-05-28T21:29:53.000Z</time></trkpt>
        <trkpt lat="29.5420025" lon="103.3317353"><ele>2388.9</ele><time>2026-05-28T21:29:59.000Z</time></trkpt>
        <trkpt lat="29.5419895" lon="103.3316813"><ele>2390.06</ele><time>2026-05-28T21:30:07.000Z</time></trkpt>
        <trkpt lat="29.5421172" lon="103.3316155"><ele>2389.67</ele><time>2026-05-28T21:32:05.000Z</time></trkpt>
        <trkpt lat="29.5421954" lon="103.3315493"><ele>2392.55</ele><time>2026-05-28T21:32:07.000Z</time></trkpt>
        <trkpt lat="29.5422594" lon="103.3314676"><ele>2394.59</ele><time>2026-05-28T21:32:09.000Z</time></trkpt>
        <trkpt lat="29.542317" lon="103.3313774"><ele>2395.81</ele><time>2026-05-28T21:32:11.000Z</time></trkpt>
        <trkpt lat="29.5423856" lon="103.3312251"><ele>2396.36</ele><time>2026-05-28T21:32:15.000Z</time></trkpt>
        <trkpt lat="29.5424443" lon="103.3310985"><ele>2396.54</ele><time>2026-05-28T21:32:17.000Z</time></trkpt>
        <trkpt lat="29.5424727" lon="103.3309816"><ele>2396.49</ele><time>2026-05-28T21:32:19.000Z</time></trkpt>
        <trkpt lat="29.5425176" lon="103.3308836"><ele>2396.54</ele><time>2026-05-28T21:32:21.000Z</time></trkpt>
        <trkpt lat="29.5426375" lon="103.3308161"><ele>2396.7</ele><time>2026-05-28T21:32:23.000Z</time></trkpt>
        <trkpt lat="29.5427403" lon="103.3307395"><ele>2396.51</ele><time>2026-05-28T21:32:25.000Z</time></trkpt>
        <trkpt lat="29.5428351" lon="103.3306817"><ele>2396.85</ele><time>2026-05-28T21:32:27.000Z</time></trkpt>
        <trkpt lat="29.5429442" lon="103.3306265"><ele>2395.21</ele><time>2026-05-28T21:32:29.000Z</time></trkpt>
        <trkpt lat="29.5431008" lon="103.3305791"><ele>2394.86</ele><time>2026-05-28T21:32:31.000Z</time></trkpt>
        <trkpt lat="29.5432216" lon="103.3305099"><ele>2395.44</ele><time>2026-05-28T21:32:33.000Z</time></trkpt>
        <trkpt lat="29.5433599" lon="103.3304876"><ele>2395.85</ele><time>2026-05-28T21:32:37.000Z</time></trkpt>
        <trkpt lat="29.5435051" lon="103.330344"><ele>2396.97</ele><time>2026-05-28T21:32:41.000Z</time></trkpt>
        <trkpt lat="29.5436387" lon="103.330172"><ele>2397.1</ele><time>2026-05-28T21:32:45.000Z</time></trkpt>
        <trkpt lat="29.5437823" lon="103.3300356"><ele>2396.74</ele><time>2026-05-28T21:32:47.000Z</time></trkpt>
        <trkpt lat="29.5438545" lon="103.3299321"><ele>2396.18</ele><time>2026-05-28T21:32:49.000Z</time></trkpt>
        <trkpt lat="29.5440179" lon="103.3298434"><ele>2395.61</ele><time>2026-05-28T21:32:51.000Z</time></trkpt>
        <trkpt lat="29.5441357" lon="103.3298519"><ele>2395</ele><time>2026-05-28T21:32:53.000Z</time></trkpt>
        <trkpt lat="29.5443015" lon="103.3298666"><ele>2394.45</ele><time>2026-05-28T21:32:55.000Z</time></trkpt>
        <trkpt lat="29.5444727" lon="103.3299446"><ele>2394.09</ele><time>2026-05-28T21:32:57.000Z</time></trkpt>
        <trkpt lat="29.5445867" lon="103.329996"><ele>2391.26</ele><time>2026-05-28T21:32:59.000Z</time></trkpt>
        <trkpt lat="29.5446982" lon="103.3300008"><ele>2389.77</ele><time>2026-05-28T21:33:01.000Z</time></trkpt>
        <trkpt lat="29.5448215" lon="103.3299824"><ele>2388.42</ele><time>2026-05-28T21:33:03.000Z</time></trkpt>
        <trkpt lat="29.5449466" lon="103.3299627"><ele>2387.6</ele><time>2026-05-28T21:33:05.000Z</time></trkpt>
        <trkpt lat="29.5450658" lon="103.3299748"><ele>2387.19</ele><time>2026-05-28T21:33:07.000Z</time></trkpt>
        <trkpt lat="29.5452042" lon="103.3299761"><ele>2386.14</ele><time>2026-05-28T21:33:09.000Z</time></trkpt>
        <trkpt lat="29.5453356" lon="103.3299732"><ele>2385.54</ele><time>2026-05-28T21:33:11.000Z</time></trkpt>
        <trkpt lat="29.5454721" lon="103.3299631"><ele>2385.1</ele><time>2026-05-28T21:33:13.000Z</time></trkpt>
        <trkpt lat="29.5456169" lon="103.330007"><ele>2384.88</ele><time>2026-05-28T21:33:15.000Z</time></trkpt>
        <trkpt lat="29.5457846" lon="103.3300594"><ele>2384.43</ele><time>2026-05-28T21:33:17.000Z</time></trkpt>
        <trkpt lat="29.5459347" lon="103.3300853"><ele>2382.15</ele><time>2026-05-28T21:33:19.000Z</time></trkpt>
        <trkpt lat="29.5460891" lon="103.3301157"><ele>2380.04</ele><time>2026-05-28T21:33:21.000Z</time></trkpt>
        <trkpt lat="29.5462342" lon="103.3301358"><ele>2379.33</ele><time>2026-05-28T21:33:23.000Z</time></trkpt>
        <trkpt lat="29.5463735" lon="103.3301762"><ele>2379</ele><time>2026-05-28T21:33:25.000Z</time></trkpt>
        <trkpt lat="29.5464853" lon="103.3302501"><ele>2378.74</ele><time>2026-05-28T21:33:27.000Z</time></trkpt>
        <trkpt lat="29.5466122" lon="103.3302783"><ele>2378.44</ele><time>2026-05-28T21:33:29.000Z</time></trkpt>
        <trkpt lat="29.5467324" lon="103.3302683"><ele>2378.23</ele><time>2026-05-28T21:33:31.000Z</time></trkpt>
        <trkpt lat="29.5468981" lon="103.3302413"><ele>2378.28</ele><time>2026-05-28T21:33:33.000Z</time></trkpt>
        <trkpt lat="29.547018" lon="103.3301837"><ele>2378.19</ele><time>2026-05-28T21:33:35.000Z</time></trkpt>
        <trkpt lat="29.5471124" lon="103.3300736"><ele>2378.2</ele><time>2026-05-28T21:33:37.000Z</time></trkpt>
        <trkpt lat="29.547186" lon="103.3299394"><ele>2378.22</ele><time>2026-05-28T21:33:39.000Z</time></trkpt>
        <trkpt lat="29.5472619" lon="103.3297493"><ele>2378.15</ele><time>2026-05-28T21:33:41.000Z</time></trkpt>
        <trkpt lat="29.5473208" lon="103.3295324"><ele>2378.19</ele><time>2026-05-28T21:33:43.000Z</time></trkpt>
        <trkpt lat="29.5473454" lon="103.3293514"><ele>2378.07</ele><time>2026-05-28T21:33:45.000Z</time></trkpt>
        <trkpt lat="29.5474092" lon="103.3291445"><ele>2378.26</ele><time>2026-05-28T21:33:49.000Z</time></trkpt>
        <trkpt lat="29.547457" lon="103.3287205"><ele>2378.28</ele><time>2026-05-28T21:33:51.000Z</time></trkpt>
        <trkpt lat="29.5474728" lon="103.3284687"><ele>2378.91</ele><time>2026-05-28T21:33:53.000Z</time></trkpt>
        <trkpt lat="29.5474193" lon="103.328325"><ele>2379.16</ele><time>2026-05-28T21:33:57.000Z</time></trkpt>
        <trkpt lat="29.5472934" lon="103.328245"><ele>2378.99</ele><time>2026-05-28T21:34:03.000Z</time></trkpt>
        <trkpt lat="29.5469465" lon="103.327957"><ele>2378.93</ele><time>2026-05-28T21:34:05.000Z</time></trkpt>
        <trkpt lat="29.5466606" lon="103.3277997"><ele>2376.96</ele><time>2026-05-28T21:34:07.000Z</time></trkpt>
        <trkpt lat="29.5465687" lon="103.3276857"><ele>2374.17</ele><time>2026-05-28T21:34:09.000Z</time></trkpt>
        <trkpt lat="29.546566" lon="103.3275669"><ele>2372.11</ele><time>2026-05-28T21:34:11.000Z</time></trkpt>
        <trkpt lat="29.5465814" lon="103.3274039"><ele>2371.14</ele><time>2026-05-28T21:34:13.000Z</time></trkpt>
        <trkpt lat="29.5465299" lon="103.3272694"><ele>2370.15</ele><time>2026-05-28T21:34:15.000Z</time></trkpt>
        <trkpt lat="29.5463784" lon="103.3271129"><ele>2368.9</ele><time>2026-05-28T21:34:17.000Z</time></trkpt>
        <trkpt lat="29.546231" lon="103.3269648"><ele>2367.16</ele><time>2026-05-28T21:34:19.000Z</time></trkpt>
        <trkpt lat="29.5460755" lon="103.3268497"><ele>2363.61</ele><time>2026-05-28T21:34:21.000Z</time></trkpt>
        <trkpt lat="29.5459199" lon="103.3267757"><ele>2361.36</ele><time>2026-05-28T21:34:23.000Z</time></trkpt>
        <trkpt lat="29.5457724" lon="103.3267368"><ele>2359.27</ele><time>2026-05-28T21:34:25.000Z</time></trkpt>
        <trkpt lat="29.5456561" lon="103.3266774"><ele>2357.98</ele><time>2026-05-28T21:34:28.000Z</time></trkpt>
        <trkpt lat="29.5455458" lon="103.3266112"><ele>2357.37</ele><time>2026-05-28T21:34:29.000Z</time></trkpt>
        <trkpt lat="29.5455303" lon="103.3263919"><ele>2357.07</ele><time>2026-05-28T21:34:33.000Z</time></trkpt>
        <trkpt lat="29.5455162" lon="103.3262045"><ele>2354.93</ele><time>2026-05-28T21:34:35.000Z</time></trkpt>
        <trkpt lat="29.545465" lon="103.3260634"><ele>2352.48</ele><time>2026-05-28T21:34:37.000Z</time></trkpt>
        <trkpt lat="29.5453979" lon="103.325918"><ele>2348.19</ele><time>2026-05-28T21:34:39.000Z</time></trkpt>
        <trkpt lat="29.5453079" lon="103.3258174"><ele>2345.55</ele><time>2026-05-28T21:34:41.000Z</time></trkpt>
        <trkpt lat="29.5452046" lon="103.3257307"><ele>2343.71</ele><time>2026-05-28T21:34:43.000Z</time></trkpt>
        <trkpt lat="29.5450967" lon="103.3256408"><ele>2342.65</ele><time>2026-05-28T21:34:45.000Z</time></trkpt>
        <trkpt lat="29.5450111" lon="103.3255771"><ele>2341.8</ele><time>2026-05-28T21:34:47.000Z</time></trkpt>
        <trkpt lat="29.5448734" lon="103.3254907"><ele>2341.4</ele><time>2026-05-28T21:34:49.000Z</time></trkpt>
        <trkpt lat="29.5446748" lon="103.3254105"><ele>2340.96</ele><time>2026-05-28T21:34:51.000Z</time></trkpt>
        <trkpt lat="29.5445173" lon="103.3252949"><ele>2339.41</ele><time>2026-05-28T21:34:53.000Z</time></trkpt>
        <trkpt lat="29.5443773" lon="103.3251935"><ele>2337.74</ele><time>2026-05-28T21:34:55.000Z</time></trkpt>
        <trkpt lat="29.5442795" lon="103.3251009"><ele>2336.81</ele><time>2026-05-28T21:34:57.000Z</time></trkpt>
        <trkpt lat="29.544131" lon="103.3250252"><ele>2336.43</ele><time>2026-05-28T21:34:59.000Z</time></trkpt>
        <trkpt lat="29.5439531" lon="103.3249329"><ele>2335.67</ele><time>2026-05-28T21:35:01.000Z</time></trkpt>
        <trkpt lat="29.5438139" lon="103.3248105"><ele>2334.29</ele><time>2026-05-28T21:35:03.000Z</time></trkpt>
        <trkpt lat="29.5437064" lon="103.3246995"><ele>2332.36</ele><time>2026-05-28T21:35:05.000Z</time></trkpt>
        <trkpt lat="29.5436225" lon="103.3246208"><ele>2331.17</ele><time>2026-05-28T21:35:07.000Z</time></trkpt>
        <trkpt lat="29.5435485" lon="103.3245413"><ele>2329.94</ele><time>2026-05-28T21:35:09.000Z</time></trkpt>
        <trkpt lat="29.5434523" lon="103.3244598"><ele>2328.85</ele><time>2026-05-28T21:35:11.000Z</time></trkpt>
        <trkpt lat="29.5433667" lon="103.3243802"><ele>2328.29</ele><time>2026-05-28T21:35:13.000Z</time></trkpt>
        <trkpt lat="29.5432724" lon="103.3242982"><ele>2328.1</ele><time>2026-05-28T21:35:15.000Z</time></trkpt>
        <trkpt lat="29.5431712" lon="103.3242348"><ele>2327.6</ele><time>2026-05-28T21:35:17.000Z</time></trkpt>
        <trkpt lat="29.5430432" lon="103.324194"><ele>2327.15</ele><time>2026-05-28T21:35:21.000Z</time></trkpt>
        <trkpt lat="29.5428992" lon="103.3242262"><ele>2325.7</ele><time>2026-05-28T21:35:23.000Z</time></trkpt>
        <trkpt lat="29.5427413" lon="103.3243006"><ele>2325.08</ele><time>2026-05-28T21:35:25.000Z</time></trkpt>
        <trkpt lat="29.5425998" lon="103.324376"><ele>2324.51</ele><time>2026-05-28T21:35:27.000Z</time></trkpt>
        <trkpt lat="29.5424678" lon="103.3244404"><ele>2323.94</ele><time>2026-05-28T21:35:29.000Z</time></trkpt>
        <trkpt lat="29.5423016" lon="103.3245195"><ele>2323.69</ele><time>2026-05-28T21:35:31.000Z</time></trkpt>
        <trkpt lat="29.5421498" lon="103.3245773"><ele>2322.28</ele><time>2026-05-28T21:35:33.000Z</time></trkpt>
        <trkpt lat="29.5420092" lon="103.3246156"><ele>2321.26</ele><time>2026-05-28T21:35:35.000Z</time></trkpt>
        <trkpt lat="29.5418963" lon="103.324593"><ele>2320.66</ele><time>2026-05-28T21:35:37.000Z</time></trkpt>
        <trkpt lat="29.5417734" lon="103.3245886"><ele>2320.25</ele><time>2026-05-28T21:35:39.000Z</time></trkpt>
        <trkpt lat="29.5416905" lon="103.3244839"><ele>2319.48</ele><time>2026-05-28T21:35:43.000Z</time></trkpt>
        <trkpt lat="29.5416894" lon="103.3243586"><ele>2317.27</ele><time>2026-05-28T21:35:45.000Z</time></trkpt>
        <trkpt lat="29.5417324" lon="103.324216"><ele>2315.19</ele><time>2026-05-28T21:35:47.000Z</time></trkpt>
        <trkpt lat="29.5417738" lon="103.3240654"><ele>2312.78</ele><time>2026-05-28T21:35:49.000Z</time></trkpt>
        <trkpt lat="29.5417744" lon="103.3239391"><ele>2311.33</ele><time>2026-05-28T21:35:51.000Z</time></trkpt>
        <trkpt lat="29.5417342" lon="103.3238314"><ele>2310.35</ele><time>2026-05-28T21:35:53.000Z</time></trkpt>
        <trkpt lat="29.5417093" lon="103.3236239"><ele>2309.57</ele><time>2026-05-28T21:35:55.000Z</time></trkpt>
        <trkpt lat="29.5416347" lon="103.323422"><ele>2308.91</ele><time>2026-05-28T21:35:57.000Z</time></trkpt>
        <trkpt lat="29.5415265" lon="103.3231166"><ele>2307.97</ele><time>2026-05-28T21:35:59.000Z</time></trkpt>
        <trkpt lat="29.5414335" lon="103.3228881"><ele>2305.28</ele><time>2026-05-28T21:36:01.000Z</time></trkpt>
        <trkpt lat="29.5413603" lon="103.322668"><ele>2302.24</ele><time>2026-05-28T21:36:03.000Z</time></trkpt>
        <trkpt lat="29.5412863" lon="103.3224866"><ele>2302.14</ele><time>2026-05-28T21:36:05.000Z</time></trkpt>
        <trkpt lat="29.5412208" lon="103.322317"><ele>2301.22</ele><time>2026-05-28T21:36:07.000Z</time></trkpt>
        <trkpt lat="29.5411007" lon="103.3220574"><ele>2300.69</ele><time>2026-05-28T21:36:11.000Z</time></trkpt>
        <trkpt lat="29.5410109" lon="103.3219122"><ele>2300.38</ele><time>2026-05-28T21:36:13.000Z</time></trkpt>
        <trkpt lat="29.5407455" lon="103.3219878"><ele>2300.15</ele><time>2026-05-28T21:36:15.000Z</time></trkpt>
        <trkpt lat="29.5405993" lon="103.3223508"><ele>2298.78</ele><time>2026-05-28T21:36:17.000Z</time></trkpt>
        <trkpt lat="29.5404989" lon="103.3225537"><ele>2298.23</ele><time>2026-05-28T21:36:19.000Z</time></trkpt>
        <trkpt lat="29.540413" lon="103.3226212"><ele>2298.09</ele><time>2026-05-28T21:36:21.000Z</time></trkpt>
        <trkpt lat="29.5403595" lon="103.3227418"><ele>2298.17</ele><time>2026-05-28T21:36:23.000Z</time></trkpt>
        <trkpt lat="29.5402851" lon="103.3227953"><ele>2298.29</ele><time>2026-05-28T21:36:27.000Z</time></trkpt>
        <trkpt lat="29.5402397" lon="103.3226947"><ele>2298.42</ele><time>2026-05-28T21:36:33.000Z</time></trkpt>
        <trkpt lat="29.5402109" lon="103.3225244"><ele>2298.45</ele><time>2026-05-28T21:36:37.000Z</time></trkpt>
        <trkpt lat="29.5401172" lon="103.3223691"><ele>2297.79</ele><time>2026-05-28T21:36:41.000Z</time></trkpt>
        <trkpt lat="29.5398797" lon="103.3223595"><ele>2297.3</ele><time>2026-05-28T21:36:43.000Z</time></trkpt>
        <trkpt lat="29.5397281" lon="103.3223437"><ele>2297.11</ele><time>2026-05-28T21:36:45.000Z</time></trkpt>
        <trkpt lat="29.5396628" lon="103.3222658"><ele>2296.55</ele><time>2026-05-28T21:36:47.000Z</time></trkpt>
        <trkpt lat="29.5396433" lon="103.3221363"><ele>2296.43</ele><time>2026-05-28T21:36:49.000Z</time></trkpt>
        <trkpt lat="29.5396593" lon="103.3219361"><ele>2296.27</ele><time>2026-05-28T21:36:51.000Z</time></trkpt>
        <trkpt lat="29.539665" lon="103.3217243"><ele>2295.44</ele><time>2026-05-28T21:36:53.000Z</time></trkpt>
        <trkpt lat="29.5397052" lon="103.3214532"><ele>2294.7</ele><time>2026-05-28T21:36:55.000Z</time></trkpt>
        <trkpt lat="29.5396743" lon="103.3212331"><ele>2295.13</ele><time>2026-05-28T21:36:57.000Z</time></trkpt>
        <trkpt lat="29.539639" lon="103.3210102"><ele>2294.54</ele><time>2026-05-28T21:36:59.000Z</time></trkpt>
        <trkpt lat="29.5396515" lon="103.3207884"><ele>2294.33</ele><time>2026-05-28T21:37:01.000Z</time></trkpt>
        <trkpt lat="29.5396703" lon="103.3205337"><ele>2294.36</ele><time>2026-05-28T21:37:03.000Z</time></trkpt>
        <trkpt lat="29.5396735" lon="103.3202716"><ele>2292.83</ele><time>2026-05-28T21:37:05.000Z</time></trkpt>
        <trkpt lat="29.5396962" lon="103.3199787"><ele>2291.46</ele><time>2026-05-28T21:37:07.000Z</time></trkpt>
        <trkpt lat="29.5397055" lon="103.3197432"><ele>2288.41</ele><time>2026-05-28T21:37:09.000Z</time></trkpt>
        <trkpt lat="29.5397141" lon="103.3195636"><ele>2285.5</ele><time>2026-05-28T21:37:11.000Z</time></trkpt>
        <trkpt lat="29.5396999" lon="103.3193859"><ele>2284.94</ele><time>2026-05-28T21:37:13.000Z</time></trkpt>
        <trkpt lat="29.539677" lon="103.3191983"><ele>2283.81</ele><time>2026-05-28T21:37:15.000Z</time></trkpt>
        <trkpt lat="29.5396671" lon="103.3190751"><ele>2283.12</ele><time>2026-05-28T21:37:17.000Z</time></trkpt>
        <trkpt lat="29.5396417" lon="103.3189098"><ele>2282.09</ele><time>2026-05-28T21:37:19.000Z</time></trkpt>
        <trkpt lat="29.5396549" lon="103.3187945"><ele>2278.89</ele><time>2026-05-28T21:37:21.000Z</time></trkpt>
        <trkpt lat="29.5397417" lon="103.3187739"><ele>2276.8</ele><time>2026-05-28T21:37:25.000Z</time></trkpt>
        <trkpt lat="29.5397268" lon="103.3188794"><ele>2275.41</ele><time>2026-05-28T21:37:27.000Z</time></trkpt>
        <trkpt lat="29.5396926" lon="103.3190009"><ele>2275.13</ele><time>2026-05-28T21:37:29.000Z</time></trkpt>
        <trkpt lat="29.5396191" lon="103.3191999"><ele>2274.91</ele><time>2026-05-28T21:37:31.000Z</time></trkpt>
        <trkpt lat="29.5396521" lon="103.3194881"><ele>2275.16</ele><time>2026-05-28T21:37:33.000Z</time></trkpt>
        <trkpt lat="29.5400153" lon="103.3202539"><ele>2274.83</ele><time>2026-05-28T21:37:40.000Z</time></trkpt>
        <trkpt lat="29.5402539" lon="103.3206792"><ele>2274.8</ele><time>2026-05-28T21:37:42.000Z</time></trkpt>
        <trkpt lat="29.5404058" lon="103.320911"><ele>2274.13</ele><time>2026-05-28T21:37:44.000Z</time></trkpt>
        <trkpt lat="29.5405072" lon="103.3210376"><ele>2274.05</ele><time>2026-05-28T21:37:46.000Z</time></trkpt>
        <trkpt lat="29.5415477" lon="103.3210626"><ele>2274.05</ele><time>2026-05-28T21:38:04.000Z</time></trkpt>
        <trkpt lat="29.5421103" lon="103.3211554"><ele>2274</ele><time>2026-05-28T21:38:06.000Z</time></trkpt>
        <trkpt lat="29.5424188" lon="103.3212618"><ele>2273.22</ele><time>2026-05-28T21:38:08.000Z</time></trkpt>
        <trkpt lat="29.5425904" lon="103.3212814"><ele>2270.55</ele><time>2026-05-28T21:38:10.000Z</time></trkpt>
        <trkpt lat="29.5427279" lon="103.3212099"><ele>2268.36</ele><time>2026-05-28T21:38:12.000Z</time></trkpt>
        <trkpt lat="29.5428557" lon="103.3211309"><ele>2266.43</ele><time>2026-05-28T21:38:14.000Z</time></trkpt>
        <trkpt lat="29.5429534" lon="103.3210701"><ele>2265.28</ele><time>2026-05-28T21:38:16.000Z</time></trkpt>
        <trkpt lat="29.5430594" lon="103.3210248"><ele>2264.01</ele><time>2026-05-28T21:38:18.000Z</time></trkpt>
        <trkpt lat="29.543193" lon="103.3210525"><ele>2263.31</ele><time>2026-05-28T21:38:20.000Z</time></trkpt>
        <trkpt lat="29.5434576" lon="103.321106"><ele>2262.5</ele><time>2026-05-28T21:38:22.000Z</time></trkpt>
        <trkpt lat="29.5437589" lon="103.3212655"><ele>2261.27</ele><time>2026-05-28T21:38:24.000Z</time></trkpt>
        <trkpt lat="29.5439581" lon="103.3214022"><ele>2259.31</ele><time>2026-05-28T21:38:26.000Z</time></trkpt>
        <trkpt lat="29.5440836" lon="103.3214758"><ele>2254.63</ele><time>2026-05-28T21:38:28.000Z</time></trkpt>
        <trkpt lat="29.544555" lon="103.3212942"><ele>2252.27</ele><time>2026-05-28T21:38:35.000Z</time></trkpt>
        <trkpt lat="29.5448332" lon="103.3211495"><ele>2249.97</ele><time>2026-05-28T21:38:37.000Z</time></trkpt>
        <trkpt lat="29.5450296" lon="103.3210785"><ele>2248.14</ele><time>2026-05-28T21:38:39.000Z</time></trkpt>
        <trkpt lat="29.5451889" lon="103.321085"><ele>2246.82</ele><time>2026-05-28T21:38:41.000Z</time></trkpt>
        <trkpt lat="29.545338" lon="103.3210887"><ele>2246.21</ele><time>2026-05-28T21:38:43.000Z</time></trkpt>
        <trkpt lat="29.5454861" lon="103.3211399"><ele>2245.87</ele><time>2026-05-28T21:38:45.000Z</time></trkpt>
        <trkpt lat="29.5456206" lon="103.3211381"><ele>2245.42</ele><time>2026-05-28T21:38:47.000Z</time></trkpt>
        <trkpt lat="29.5457372" lon="103.321086"><ele>2245.35</ele><time>2026-05-28T21:38:49.000Z</time></trkpt>
        <trkpt lat="29.5459155" lon="103.3209711"><ele>2246.13</ele><time>2026-05-28T21:38:51.000Z</time></trkpt>
        <trkpt lat="29.5461193" lon="103.3208575"><ele>2246.03</ele><time>2026-05-28T21:38:53.000Z</time></trkpt>
        <trkpt lat="29.5463651" lon="103.3208297"><ele>2246.1</ele><time>2026-05-28T21:38:55.000Z</time></trkpt>
        <trkpt lat="29.5467155" lon="103.3208238"><ele>2245.55</ele><time>2026-05-28T21:38:57.000Z</time></trkpt>
        <trkpt lat="29.5469644" lon="103.3208301"><ele>2244.47</ele><time>2026-05-28T21:38:59.000Z</time></trkpt>
        <trkpt lat="29.5472129" lon="103.3207743"><ele>2243.61</ele><time>2026-05-28T21:39:01.000Z</time></trkpt>
        <trkpt lat="29.5474012" lon="103.320819"><ele>2242.59</ele><time>2026-05-28T21:39:03.000Z</time></trkpt>
        <trkpt lat="29.5475877" lon="103.3208265"><ele>2241.46</ele><time>2026-05-28T21:39:05.000Z</time></trkpt>
        <trkpt lat="29.5477952" lon="103.3207885"><ele>2240.86</ele><time>2026-05-28T21:39:07.000Z</time></trkpt>
        <trkpt lat="29.547966" lon="103.3207806"><ele>2239.69</ele><time>2026-05-28T21:39:09.000Z</time></trkpt>
        <trkpt lat="29.5481991" lon="103.3206949"><ele>2237.02</ele><time>2026-05-28T21:39:11.000Z</time></trkpt>
        <trkpt lat="29.5484089" lon="103.3206125"><ele>2232.11</ele><time>2026-05-28T21:39:13.000Z</time></trkpt>
        <trkpt lat="29.5485847" lon="103.3205566"><ele>2228.16</ele><time>2026-05-28T21:39:15.000Z</time></trkpt>
        <trkpt lat="29.5487573" lon="103.3205511"><ele>2224.86</ele><time>2026-05-28T21:39:17.000Z</time></trkpt>
        <trkpt lat="29.5489394" lon="103.3205516"><ele>2222.54</ele><time>2026-05-28T21:39:19.000Z</time></trkpt>
        <trkpt lat="29.5491108" lon="103.3206307"><ele>2220.73</ele><time>2026-05-28T21:39:21.000Z</time></trkpt>
        <trkpt lat="29.5492924" lon="103.3206985"><ele>2217.8</ele><time>2026-05-28T21:39:23.000Z</time></trkpt>
        <trkpt lat="29.5494963" lon="103.3207626"><ele>2216.08</ele><time>2026-05-28T21:39:25.000Z</time></trkpt>
        <trkpt lat="29.5496531" lon="103.3207785"><ele>2215</ele><time>2026-05-28T21:39:27.000Z</time></trkpt>
        <trkpt lat="29.5498211" lon="103.3207979"><ele>2214.21</ele><time>2026-05-28T21:39:29.000Z</time></trkpt>
        <trkpt lat="29.549993" lon="103.3208165"><ele>2213.74</ele><time>2026-05-28T21:39:31.000Z</time></trkpt>
        <trkpt lat="29.5501684" lon="103.3208506"><ele>2213.42</ele><time>2026-05-28T21:39:33.000Z</time></trkpt>
        <trkpt lat="29.5503496" lon="103.3207922"><ele>2213.28</ele><time>2026-05-28T21:39:35.000Z</time></trkpt>
        <trkpt lat="29.5506119" lon="103.3205819"><ele>2213.29</ele><time>2026-05-28T21:39:37.000Z</time></trkpt>
        <trkpt lat="29.5507957" lon="103.3203724"><ele>2213.23</ele><time>2026-05-28T21:39:39.000Z</time></trkpt>
        <trkpt lat="29.5510079" lon="103.3203296"><ele>2212.38</ele><time>2026-05-28T21:39:41.000Z</time></trkpt>
        <trkpt lat="29.5511555" lon="103.3204308"><ele>2211.96</ele><time>2026-05-28T21:39:43.000Z</time></trkpt>
        <trkpt lat="29.5513119" lon="103.3205287"><ele>2210.47</ele><time>2026-05-28T21:39:45.000Z</time></trkpt>
        <trkpt lat="29.551458" lon="103.3206077"><ele>2209.52</ele><time>2026-05-28T21:39:47.000Z</time></trkpt>
        <trkpt lat="29.5516081" lon="103.320689"><ele>2209.5</ele><time>2026-05-28T21:39:49.000Z</time></trkpt>
        <trkpt lat="29.5517618" lon="103.320766"><ele>2209.13</ele><time>2026-05-28T21:39:51.000Z</time></trkpt>
        <trkpt lat="29.5519556" lon="103.3209086"><ele>2208.86</ele><time>2026-05-28T21:39:53.000Z</time></trkpt>
        <trkpt lat="29.5521827" lon="103.3211837"><ele>2208.64</ele><time>2026-05-28T21:39:55.000Z</time></trkpt>
        <trkpt lat="29.5524628" lon="103.3215278"><ele>2208.6</ele><time>2026-05-28T21:39:57.000Z</time></trkpt>
        <trkpt lat="29.5527047" lon="103.321767"><ele>2208.09</ele><time>2026-05-28T21:39:59.000Z</time></trkpt>
        <trkpt lat="29.5530106" lon="103.3219537"><ele>2207.87</ele><time>2026-05-28T21:40:01.000Z</time></trkpt>
        <trkpt lat="29.5533292" lon="103.3219312"><ele>2207.77</ele><time>2026-05-28T21:40:03.000Z</time></trkpt>
        <trkpt lat="29.5533292" lon="103.3217466"><ele>2207.04</ele><time>2026-05-28T21:40:05.000Z</time></trkpt>
        <trkpt lat="29.5530491" lon="103.3214631"><ele>2206.02</ele><time>2026-05-28T21:40:07.000Z</time></trkpt>
        <trkpt lat="29.553092" lon="103.3213297"><ele>2202.28</ele><time>2026-05-28T21:40:09.000Z</time></trkpt>
        <trkpt lat="29.5530157" lon="103.3211409"><ele>2201.06</ele><time>2026-05-28T21:40:15.000Z</time></trkpt>
        <trkpt lat="29.5528626" lon="103.3210476"><ele>2199.04</ele><time>2026-05-28T21:40:17.000Z</time></trkpt>
        <trkpt lat="29.5526859" lon="103.320955"><ele>2196.72</ele><time>2026-05-28T21:40:19.000Z</time></trkpt>
        <trkpt lat="29.5525231" lon="103.3208427"><ele>2194.31</ele><time>2026-05-28T21:40:21.000Z</time></trkpt>
        <trkpt lat="29.5523339" lon="103.3206163"><ele>2192.02</ele><time>2026-05-28T21:40:23.000Z</time></trkpt>
        <trkpt lat="29.5522284" lon="103.3203704"><ele>2187.97</ele><time>2026-05-28T21:40:25.000Z</time></trkpt>
        <trkpt lat="29.5521802" lon="103.3201712"><ele>2184.48</ele><time>2026-05-28T21:40:27.000Z</time></trkpt>
        <trkpt lat="29.5521465" lon="103.3199725"><ele>2181.31</ele><time>2026-05-28T21:40:29.000Z</time></trkpt>
        <trkpt lat="29.5521505" lon="103.319802"><ele>2179.03</ele><time>2026-05-28T21:40:31.000Z</time></trkpt>
        <trkpt lat="29.5521354" lon="103.3196289"><ele>2177.24</ele><time>2026-05-28T21:40:33.000Z</time></trkpt>
        <trkpt lat="29.5520176" lon="103.319387"><ele>2176.22</ele><time>2026-05-28T21:40:35.000Z</time></trkpt>
        <trkpt lat="29.5519207" lon="103.319197"><ele>2175.29</ele><time>2026-05-28T21:40:37.000Z</time></trkpt>
        <trkpt lat="29.5518181" lon="103.3190803"><ele>2174.93</ele><time>2026-05-28T21:40:39.000Z</time></trkpt>
        <trkpt lat="29.5516527" lon="103.3191775"><ele>2174.78</ele><time>2026-05-28T21:40:41.000Z</time></trkpt>
        <trkpt lat="29.551355" lon="103.3192101"><ele>2174.15</ele><time>2026-05-28T21:40:45.000Z</time></trkpt>
        <trkpt lat="29.5511608" lon="103.3191923"><ele>2174.57</ele><time>2026-05-28T21:40:47.000Z</time></trkpt>
        <trkpt lat="29.5510306" lon="103.3191602"><ele>2174.82</ele><time>2026-05-28T21:40:49.000Z</time></trkpt>
        <trkpt lat="29.5507958" lon="103.3189527"><ele>2175.09</ele><time>2026-05-28T21:40:51.000Z</time></trkpt>
        <trkpt lat="29.5505506" lon="103.3187255"><ele>2175.57</ele><time>2026-05-28T21:40:53.000Z</time></trkpt>
        <trkpt lat="29.5503981" lon="103.3185095"><ele>2175.63</ele><time>2026-05-28T21:40:55.000Z</time></trkpt>
        <trkpt lat="29.5502598" lon="103.3183152"><ele>2176.15</ele><time>2026-05-28T21:40:57.000Z</time></trkpt>
        <trkpt lat="29.5501007" lon="103.3181773"><ele>2176.41</ele><time>2026-05-28T21:40:59.000Z</time></trkpt>
        <trkpt lat="29.5499277" lon="103.3180837"><ele>2176.39</ele><time>2026-05-28T21:41:01.000Z</time></trkpt>
        <trkpt lat="29.5496907" lon="103.3180151"><ele>2176.45</ele><time>2026-05-28T21:41:03.000Z</time></trkpt>
        <trkpt lat="29.549505" lon="103.3179148"><ele>2176.5</ele><time>2026-05-28T21:41:05.000Z</time></trkpt>
        <trkpt lat="29.5493311" lon="103.3178336"><ele>2176.53</ele><time>2026-05-28T21:41:07.000Z</time></trkpt>
        <trkpt lat="29.5477253" lon="103.3168164"><ele>2176.53</ele><time>2026-05-28T21:41:33.000Z</time></trkpt>
        <trkpt lat="29.5470646" lon="103.3163522"><ele>2172.03</ele><time>2026-05-28T21:41:35.000Z</time></trkpt>
        <trkpt lat="29.5468302" lon="103.3161452"><ele>2169.39</ele><time>2026-05-28T21:41:37.000Z</time></trkpt>
        <trkpt lat="29.5467537" lon="103.3159837"><ele>2167.85</ele><time>2026-05-28T21:41:39.000Z</time></trkpt>
        <trkpt lat="29.5466063" lon="103.31581"><ele>2166.77</ele><time>2026-05-28T21:41:41.000Z</time></trkpt>
        <trkpt lat="29.5464606" lon="103.3156684"><ele>2165.14</ele><time>2026-05-28T21:41:43.000Z</time></trkpt>
        <trkpt lat="29.5463211" lon="103.3155279"><ele>2163.95</ele><time>2026-05-28T21:41:45.000Z</time></trkpt>
        <trkpt lat="29.5461758" lon="103.3154143"><ele>2163.25</ele><time>2026-05-28T21:41:47.000Z</time></trkpt>
        <trkpt lat="29.545962" lon="103.3155227"><ele>2163.21</ele><time>2026-05-28T21:41:49.000Z</time></trkpt>
        <trkpt lat="29.5457946" lon="103.3155402"><ele>2161.74</ele><time>2026-05-28T21:41:51.000Z</time></trkpt>
        <trkpt lat="29.5456399" lon="103.3154548"><ele>2160.42</ele><time>2026-05-28T21:41:53.000Z</time></trkpt>
        <trkpt lat="29.5454944" lon="103.3152967"><ele>2158.18</ele><time>2026-05-28T21:41:55.000Z</time></trkpt>
        <trkpt lat="29.5453193" lon="103.3152168"><ele>2157.03</ele><time>2026-05-28T21:41:59.000Z</time></trkpt>
        <trkpt lat="29.5451625" lon="103.3152412"><ele>2156.96</ele><time>2026-05-28T21:42:01.000Z</time></trkpt>
        <trkpt lat="29.5450421" lon="103.315259"><ele>2155.5</ele><time>2026-05-28T21:42:03.000Z</time></trkpt>
        <trkpt lat="29.5448186" lon="103.315296"><ele>2153.52</ele><time>2026-05-28T21:42:05.000Z</time></trkpt>
        <trkpt lat="29.5448652" lon="103.3153281"><ele>2151.56</ele><time>2026-05-28T21:42:09.000Z</time></trkpt>
        <trkpt lat="29.5450672" lon="103.3153527"><ele>2151.62</ele><time>2026-05-28T21:42:11.000Z</time></trkpt>
        <trkpt lat="29.546092" lon="103.3151058"><ele>2151.17</ele><time>2026-05-28T21:42:26.000Z</time></trkpt>
        <trkpt lat="29.5467922" lon="103.315056"><ele>2146.25</ele><time>2026-05-28T21:42:28.000Z</time></trkpt>
        <trkpt lat="29.5470828" lon="103.3151221"><ele>2141.56</ele><time>2026-05-28T21:42:30.000Z</time></trkpt>
        <trkpt lat="29.5473204" lon="103.3151855"><ele>2137.14</ele><time>2026-05-28T21:42:32.000Z</time></trkpt>
        <trkpt lat="29.5475154" lon="103.3152106"><ele>2131.26</ele><time>2026-05-28T21:42:34.000Z</time></trkpt>
        <trkpt lat="29.5476633" lon="103.3151805"><ele>2127.05</ele><time>2026-05-28T21:42:36.000Z</time></trkpt>
        <trkpt lat="29.5478084" lon="103.3150942"><ele>2124.21</ele><time>2026-05-28T21:42:38.000Z</time></trkpt>
        <trkpt lat="29.5479492" lon="103.3150591"><ele>2122</ele><time>2026-05-28T21:42:40.000Z</time></trkpt>
        <trkpt lat="29.5481158" lon="103.3150378"><ele>2118.88</ele><time>2026-05-28T21:42:42.000Z</time></trkpt>
        <trkpt lat="29.5483206" lon="103.3150261"><ele>2117.16</ele><time>2026-05-28T21:42:44.000Z</time></trkpt>
        <trkpt lat="29.54852" lon="103.3150914"><ele>2116.18</ele><time>2026-05-28T21:42:46.000Z</time></trkpt>
        <trkpt lat="29.5486665" lon="103.315143"><ele>2115.22</ele><time>2026-05-28T21:42:48.000Z</time></trkpt>
        <trkpt lat="29.5488107" lon="103.3151838"><ele>2114.29</ele><time>2026-05-28T21:42:50.000Z</time></trkpt>
        <trkpt lat="29.5490061" lon="103.3151595"><ele>2113.58</ele><time>2026-05-28T21:42:52.000Z</time></trkpt>
        <trkpt lat="29.5492047" lon="103.3151005"><ele>2112.2</ele><time>2026-05-28T21:42:54.000Z</time></trkpt>
        <trkpt lat="29.5493782" lon="103.3150281"><ele>2111.66</ele><time>2026-05-28T21:42:56.000Z</time></trkpt>
        <trkpt lat="29.5495542" lon="103.3150011"><ele>2111.61</ele><time>2026-05-28T21:42:58.000Z</time></trkpt>
        <trkpt lat="29.5497302" lon="103.3149856"><ele>2111.1</ele><time>2026-05-28T21:43:00.000Z</time></trkpt>
        <trkpt lat="29.5499196" lon="103.3150146"><ele>2109.8</ele><time>2026-05-28T21:43:02.000Z</time></trkpt>
        <trkpt lat="29.5500994" lon="103.3150457"><ele>2108.1</ele><time>2026-05-28T21:43:04.000Z</time></trkpt>
        <trkpt lat="29.5502605" lon="103.3150921"><ele>2106.86</ele><time>2026-05-28T21:43:06.000Z</time></trkpt>
        <trkpt lat="29.5504581" lon="103.3151831"><ele>2106.08</ele><time>2026-05-28T21:43:08.000Z</time></trkpt>
        <trkpt lat="29.5506082" lon="103.3153355"><ele>2106.21</ele><time>2026-05-28T21:43:10.000Z</time></trkpt>
        <trkpt lat="29.5508725" lon="103.3155508"><ele>2105.26</ele><time>2026-05-28T21:43:12.000Z</time></trkpt>
        <trkpt lat="29.5510741" lon="103.3155448"><ele>2101.28</ele><time>2026-05-28T21:43:14.000Z</time></trkpt>
        <trkpt lat="29.5512517" lon="103.3154714"><ele>2097.23</ele><time>2026-05-28T21:43:16.000Z</time></trkpt>
        <trkpt lat="29.5514496" lon="103.315389"><ele>2091.45</ele><time>2026-05-28T21:43:18.000Z</time></trkpt>
        <trkpt lat="29.5516434" lon="103.3153508"><ele>2086.86</ele><time>2026-05-28T21:43:20.000Z</time></trkpt>
        <trkpt lat="29.5518363" lon="103.3153569"><ele>2084.37</ele><time>2026-05-28T21:43:22.000Z</time></trkpt>
        <trkpt lat="29.5520262" lon="103.3154449"><ele>2081.91</ele><time>2026-05-28T21:43:24.000Z</time></trkpt>
        <trkpt lat="29.5522019" lon="103.3155321"><ele>2079.89</ele><time>2026-05-28T21:43:26.000Z</time></trkpt>
        <trkpt lat="29.5523788" lon="103.3155614"><ele>2078.36</ele><time>2026-05-28T21:43:28.000Z</time></trkpt>
        <trkpt lat="29.5525442" lon="103.3155411"><ele>2076.83</ele><time>2026-05-28T21:43:30.000Z</time></trkpt>
        <trkpt lat="29.5526953" lon="103.3155104"><ele>2075.33</ele><time>2026-05-28T21:43:32.000Z</time></trkpt>
        <trkpt lat="29.5528386" lon="103.3155117"><ele>2074.29</ele><time>2026-05-28T21:43:34.000Z</time></trkpt>
        <trkpt lat="29.5529961" lon="103.3155714"><ele>2073.64</ele><time>2026-05-28T21:43:36.000Z</time></trkpt>
        <trkpt lat="29.5531571" lon="103.3156166"><ele>2073.13</ele><time>2026-05-28T21:43:38.000Z</time></trkpt>
        <trkpt lat="29.5533134" lon="103.3157113"><ele>2072.77</ele><time>2026-05-28T21:43:40.000Z</time></trkpt>
        <trkpt lat="29.5534389" lon="103.3157265"><ele>2072.66</ele><time>2026-05-28T21:43:42.000Z</time></trkpt>
        <trkpt lat="29.5535859" lon="103.3157563"><ele>2072.15</ele><time>2026-05-28T21:43:44.000Z</time></trkpt>
        <trkpt lat="29.553709" lon="103.3157738"><ele>2071.88</ele><time>2026-05-28T21:43:46.000Z</time></trkpt>
        <trkpt lat="29.5538601" lon="103.3157949"><ele>2071.58</ele><time>2026-05-28T21:43:48.000Z</time></trkpt>
        <trkpt lat="29.5540885" lon="103.3157885"><ele>2070.97</ele><time>2026-05-28T21:43:50.000Z</time></trkpt>
        <trkpt lat="29.5542962" lon="103.3158574"><ele>2070.91</ele><time>2026-05-28T21:43:52.000Z</time></trkpt>
        <trkpt lat="29.5544496" lon="103.3158908"><ele>2071.27</ele><time>2026-05-28T21:43:54.000Z</time></trkpt>
        <trkpt lat="29.5546741" lon="103.3158223"><ele>2070.98</ele><time>2026-05-28T21:43:56.000Z</time></trkpt>
        <trkpt lat="29.5548113" lon="103.3156662"><ele>2071.17</ele><time>2026-05-28T21:43:58.000Z</time></trkpt>
        <trkpt lat="29.5549628" lon="103.3154558"><ele>2071.7</ele><time>2026-05-28T21:44:00.000Z</time></trkpt>
        <trkpt lat="29.5551128" lon="103.3153061"><ele>2071.71</ele><time>2026-05-28T21:44:02.000Z</time></trkpt>
        <trkpt lat="29.5552807" lon="103.315206"><ele>2071.6</ele><time>2026-05-28T21:44:04.000Z</time></trkpt>
        <trkpt lat="29.5554704" lon="103.3151774"><ele>2071.16</ele><time>2026-05-28T21:44:06.000Z</time></trkpt>
        <trkpt lat="29.555661" lon="103.315258"><ele>2070.64</ele><time>2026-05-28T21:44:08.000Z</time></trkpt>
        <trkpt lat="29.5558119" lon="103.3153021"><ele>2070.25</ele><time>2026-05-28T21:44:10.000Z</time></trkpt>
        <trkpt lat="29.5559438" lon="103.3153637"><ele>2069.69</ele><time>2026-05-28T21:44:12.000Z</time></trkpt>
        <trkpt lat="29.556098" lon="103.3154043"><ele>2069.71</ele><time>2026-05-28T21:44:14.000Z</time></trkpt>
        <trkpt lat="29.5563051" lon="103.3155143"><ele>2069.63</ele><time>2026-05-28T21:44:16.000Z</time></trkpt>
        <trkpt lat="29.5562464" lon="103.3157537"><ele>2069.44</ele><time>2026-05-28T21:44:18.000Z</time></trkpt>
        <trkpt lat="29.5565039" lon="103.3159783"><ele>2069.72</ele><time>2026-05-28T21:44:20.000Z</time></trkpt>
        <trkpt lat="29.5566947" lon="103.3161354"><ele>2068.04</ele><time>2026-05-28T21:44:22.000Z</time></trkpt>
        <trkpt lat="29.556908" lon="103.3163129"><ele>2062.97</ele><time>2026-05-28T21:44:24.000Z</time></trkpt>
        <trkpt lat="29.5570772" lon="103.3164152"><ele>2058.73</ele><time>2026-05-28T21:44:26.000Z</time></trkpt>
        <trkpt lat="29.5572076" lon="103.3164818"><ele>2054.99</ele><time>2026-05-28T21:44:28.000Z</time></trkpt>
        <trkpt lat="29.5573049" lon="103.3164788"><ele>2052.74</ele><time>2026-05-28T21:44:30.000Z</time></trkpt>
        <trkpt lat="29.5573201" lon="103.3163347"><ele>2050.87</ele><time>2026-05-28T21:44:32.000Z</time></trkpt>
        <trkpt lat="29.5571328" lon="103.3161408"><ele>2050.47</ele><time>2026-05-28T21:44:36.000Z</time></trkpt>
        <trkpt lat="29.5569512" lon="103.3160384"><ele>2050.28</ele><time>2026-05-28T21:44:38.000Z</time></trkpt>
        <trkpt lat="29.5567665" lon="103.3158831"><ele>2050.11</ele><time>2026-05-28T21:44:40.000Z</time></trkpt>
        <trkpt lat="29.5566703" lon="103.3156753"><ele>2049.78</ele><time>2026-05-28T21:44:42.000Z</time></trkpt>
        <trkpt lat="29.5565836" lon="103.3154789"><ele>2047.65</ele><time>2026-05-28T21:44:44.000Z</time></trkpt>
        <trkpt lat="29.5564874" lon="103.3152809"><ele>2046.17</ele><time>2026-05-28T21:44:46.000Z</time></trkpt>
        <trkpt lat="29.5563815" lon="103.3150607"><ele>2045.12</ele><time>2026-05-28T21:44:48.000Z</time></trkpt>
        <trkpt lat="29.5562424" lon="103.3148697"><ele>2043.16</ele><time>2026-05-28T21:44:50.000Z</time></trkpt>
        <trkpt lat="29.5561053" lon="103.3146978"><ele>2041.44</ele><time>2026-05-28T21:44:52.000Z</time></trkpt>
        <trkpt lat="29.555998" lon="103.3145945"><ele>2040.05</ele><time>2026-05-28T21:44:54.000Z</time></trkpt>
        <trkpt lat="29.5559021" lon="103.3145546"><ele>2039.35</ele><time>2026-05-28T21:44:56.000Z</time></trkpt>
        <trkpt lat="29.5557447" lon="103.3145186"><ele>2038.95</ele><time>2026-05-28T21:44:58.000Z</time></trkpt>
        <trkpt lat="29.5555864" lon="103.3144836"><ele>2038.43</ele><time>2026-05-28T21:45:00.000Z</time></trkpt>
        <trkpt lat="29.5554057" lon="103.3144086"><ele>2038.21</ele><time>2026-05-28T21:45:02.000Z</time></trkpt>
        <trkpt lat="29.5545249" lon="103.314016"><ele>2037.95</ele><time>2026-05-28T21:45:16.000Z</time></trkpt>
        <trkpt lat="29.5540815" lon="103.3137926"><ele>2036.97</ele><time>2026-05-28T21:45:18.000Z</time></trkpt>
        <trkpt lat="29.5538497" lon="103.3136574"><ele>2036.33</ele><time>2026-05-28T21:45:20.000Z</time></trkpt>
        <trkpt lat="29.5528491" lon="103.3131104"><ele>2036.13</ele><time>2026-05-28T21:45:35.000Z</time></trkpt>
        <trkpt lat="29.5523803" lon="103.312888"><ele>2032.68</ele><time>2026-05-28T21:45:37.000Z</time></trkpt>
        <trkpt lat="29.552016" lon="103.3127449"><ele>2030.82</ele><time>2026-05-28T21:45:39.000Z</time></trkpt>
        <trkpt lat="29.5518834" lon="103.3126621"><ele>2029.82</ele><time>2026-05-28T21:45:41.000Z</time></trkpt>
        <trkpt lat="29.5517862" lon="103.3125761"><ele>2029.14</ele><time>2026-05-28T21:45:43.000Z</time></trkpt>
        <trkpt lat="29.5517065" lon="103.3124518"><ele>2028</ele><time>2026-05-28T21:45:45.000Z</time></trkpt>
        <trkpt lat="29.5517222" lon="103.3123236"><ele>2026.87</ele><time>2026-05-28T21:45:47.000Z</time></trkpt>
        <trkpt lat="29.5516082" lon="103.3122416"><ele>2025.69</ele><time>2026-05-28T21:45:49.000Z</time></trkpt>
        <trkpt lat="29.5512852" lon="103.3120646"><ele>2024.66</ele><time>2026-05-28T21:45:51.000Z</time></trkpt>
        <trkpt lat="29.5510162" lon="103.3119421"><ele>2021.13</ele><time>2026-05-28T21:45:53.000Z</time></trkpt>
        <trkpt lat="29.5508151" lon="103.3118299"><ele>2017.29</ele><time>2026-05-28T21:45:55.000Z</time></trkpt>
        <trkpt lat="29.5506613" lon="103.3117238"><ele>2014.38</ele><time>2026-05-28T21:45:57.000Z</time></trkpt>
        <trkpt lat="29.5505075" lon="103.3116201"><ele>2012.47</ele><time>2026-05-28T21:45:59.000Z</time></trkpt>
        <trkpt lat="29.550305" lon="103.3115784"><ele>2011.31</ele><time>2026-05-28T21:46:01.000Z</time></trkpt>
        <trkpt lat="29.5500793" lon="103.3114914"><ele>2010.56</ele><time>2026-05-28T21:46:03.000Z</time></trkpt>
        <trkpt lat="29.5499054" lon="103.3114157"><ele>2010.24</ele><time>2026-05-28T21:46:05.000Z</time></trkpt>
        <trkpt lat="29.5497892" lon="103.3111622"><ele>2010.02</ele><time>2026-05-28T21:46:07.000Z</time></trkpt>
        <trkpt lat="29.5496058" lon="103.3110403"><ele>2008.35</ele><time>2026-05-28T21:46:09.000Z</time></trkpt>
        <trkpt lat="29.5494775" lon="103.3109436"><ele>2007.5</ele><time>2026-05-28T21:46:11.000Z</time></trkpt>
        <trkpt lat="29.548421" lon="103.3109624"><ele>2006.89</ele><time>2026-05-28T21:46:25.000Z</time></trkpt>
        <trkpt lat="29.5479387" lon="103.3110295"><ele>2004.64</ele><time>2026-05-28T21:46:27.000Z</time></trkpt>
        <trkpt lat="29.5477006" lon="103.3110042"><ele>2002.95</ele><time>2026-05-28T21:46:31.000Z</time></trkpt>
        <trkpt lat="29.5475812" lon="103.3109581"><ele>2000.36</ele><time>2026-05-28T21:46:33.000Z</time></trkpt>
        <trkpt lat="29.5474435" lon="103.3108961"><ele>1998.26</ele><time>2026-05-28T21:46:35.000Z</time></trkpt>
        <trkpt lat="29.5473355" lon="103.3108375"><ele>1996.13</ele><time>2026-05-28T21:46:37.000Z</time></trkpt>
        <trkpt lat="29.5471996" lon="103.3107772"><ele>1994.81</ele><time>2026-05-28T21:46:39.000Z</time></trkpt>
        <trkpt lat="29.5470915" lon="103.3107094"><ele>1994.03</ele><time>2026-05-28T21:46:41.000Z</time></trkpt>
        <trkpt lat="29.5468545" lon="103.3106433"><ele>1993.67</ele><time>2026-05-28T21:46:43.000Z</time></trkpt>
        <trkpt lat="29.5466446" lon="103.3105859"><ele>1992.8</ele><time>2026-05-28T21:46:45.000Z</time></trkpt>
        <trkpt lat="29.546488" lon="103.3105373"><ele>1992.14</ele><time>2026-05-28T21:46:47.000Z</time></trkpt>
        <trkpt lat="29.5463001" lon="103.3104276"><ele>1991.56</ele><time>2026-05-28T21:46:49.000Z</time></trkpt>
        <trkpt lat="29.5461969" lon="103.3103183"><ele>1991.38</ele><time>2026-05-28T21:46:51.000Z</time></trkpt>
        <trkpt lat="29.5459733" lon="103.3104303"><ele>1990.37</ele><time>2026-05-28T21:46:53.000Z</time></trkpt>
        <trkpt lat="29.5458784" lon="103.3105679"><ele>1989.68</ele><time>2026-05-28T21:46:55.000Z</time></trkpt>
        <trkpt lat="29.5463954" lon="103.3105643"><ele>1988.53</ele><time>2026-05-28T21:47:06.000Z</time></trkpt>
        <trkpt lat="29.546706" lon="103.3105658"><ele>1988.7</ele><time>2026-05-28T21:47:08.000Z</time></trkpt>
        <trkpt lat="29.5469312" lon="103.3105155"><ele>1988.66</ele><time>2026-05-28T21:47:10.000Z</time></trkpt>
        <trkpt lat="29.5470732" lon="103.3105486"><ele>1987.92</ele><time>2026-05-28T21:47:12.000Z</time></trkpt>
        <trkpt lat="29.5471689" lon="103.3105063"><ele>1987.16</ele><time>2026-05-28T21:47:14.000Z</time></trkpt>
        <trkpt lat="29.5472822" lon="103.3103047"><ele>1986.27</ele><time>2026-05-28T21:47:18.000Z</time></trkpt>
        <trkpt lat="29.5473617" lon="103.3101309"><ele>1983.85</ele><time>2026-05-28T21:47:20.000Z</time></trkpt>
        <trkpt lat="29.5474442" lon="103.3100018"><ele>1979.62</ele><time>2026-05-28T21:47:44.000Z</time></trkpt>
        <trkpt lat="29.5475401" lon="103.3099678"><ele>1969.28</ele><time>2026-05-28T21:47:46.000Z</time></trkpt>
        <trkpt lat="29.5476988" lon="103.3099608"><ele>1963.19</ele><time>2026-05-28T21:47:50.000Z</time></trkpt>
        <trkpt lat="29.5479666" lon="103.3100174"><ele>1958.84</ele><time>2026-05-28T21:47:54.000Z</time></trkpt>
        <trkpt lat="29.5481777" lon="103.3100638"><ele>1956.59</ele><time>2026-05-28T21:47:56.000Z</time></trkpt>
        <trkpt lat="29.5484554" lon="103.309978"><ele>1956.04</ele><time>2026-05-28T21:47:58.000Z</time></trkpt>
        <trkpt lat="29.5486676" lon="103.3096869"><ele>1955.84</ele><time>2026-05-28T21:48:00.000Z</time></trkpt>
        <trkpt lat="29.5488418" lon="103.3094643"><ele>1955.49</ele><time>2026-05-28T21:48:02.000Z</time></trkpt>
        <trkpt lat="29.5490105" lon="103.309338"><ele>1955.29</ele><time>2026-05-28T21:48:04.000Z</time></trkpt>
        <trkpt lat="29.5491837" lon="103.3093939"><ele>1955.14</ele><time>2026-05-28T21:48:06.000Z</time></trkpt>
        <trkpt lat="29.5493395" lon="103.3094168"><ele>1954.56</ele><time>2026-05-28T21:48:08.000Z</time></trkpt>
        <trkpt lat="29.5496168" lon="103.3093473"><ele>1954.44</ele><time>2026-05-28T21:48:10.000Z</time></trkpt>
        <trkpt lat="29.5498317" lon="103.309264"><ele>1952.88</ele><time>2026-05-28T21:48:12.000Z</time></trkpt>
        <trkpt lat="29.5500192" lon="103.3091853"><ele>1950.27</ele><time>2026-05-28T21:48:14.000Z</time></trkpt>
        <trkpt lat="29.5501776" lon="103.3091171"><ele>1948.09</ele><time>2026-05-28T21:48:16.000Z</time></trkpt>
        <trkpt lat="29.5503723" lon="103.3090365"><ele>1946.85</ele><time>2026-05-28T21:48:18.000Z</time></trkpt>
        <trkpt lat="29.5505574" lon="103.3089607"><ele>1945.23</ele><time>2026-05-28T21:48:20.000Z</time></trkpt>
        <trkpt lat="29.5507336" lon="103.3089251"><ele>1943.01</ele><time>2026-05-28T21:48:22.000Z</time></trkpt>
        <trkpt lat="29.5509223" lon="103.3089222"><ele>1940.96</ele><time>2026-05-28T21:48:24.000Z</time></trkpt>
        <trkpt lat="29.5511043" lon="103.3089064"><ele>1939.43</ele><time>2026-05-28T21:48:26.000Z</time></trkpt>
        <trkpt lat="29.5512956" lon="103.3088666"><ele>1938.41</ele><time>2026-05-28T21:48:28.000Z</time></trkpt>
        <trkpt lat="29.5515008" lon="103.3088273"><ele>1937.36</ele><time>2026-05-28T21:48:30.000Z</time></trkpt>
        <trkpt lat="29.5517719" lon="103.3087773"><ele>1936.73</ele><time>2026-05-28T21:48:32.000Z</time></trkpt>
        <trkpt lat="29.552004" lon="103.308718"><ele>1934.18</ele><time>2026-05-28T21:48:34.000Z</time></trkpt>
        <trkpt lat="29.5522077" lon="103.3086572"><ele>1932.6</ele><time>2026-05-28T21:48:36.000Z</time></trkpt>
        <trkpt lat="29.5523756" lon="103.3085955"><ele>1931.72</ele><time>2026-05-28T21:48:38.000Z</time></trkpt>
        <trkpt lat="29.5525251" lon="103.3085022"><ele>1931.13</ele><time>2026-05-28T21:48:40.000Z</time></trkpt>
        <trkpt lat="29.5526957" lon="103.3084065"><ele>1930.81</ele><time>2026-05-28T21:48:42.000Z</time></trkpt>
        <trkpt lat="29.5528569" lon="103.3084029"><ele>1930.6</ele><time>2026-05-28T21:48:44.000Z</time></trkpt>
        <trkpt lat="29.55296" lon="103.3084723"><ele>1930.66</ele><time>2026-05-28T21:48:46.000Z</time></trkpt>
        <trkpt lat="29.5530971" lon="103.3084905"><ele>1930.19</ele><time>2026-05-28T21:48:48.000Z</time></trkpt>
        <trkpt lat="29.5532672" lon="103.3084707"><ele>1930.52</ele><time>2026-05-28T21:48:50.000Z</time></trkpt>
        <trkpt lat="29.5534697" lon="103.3084386"><ele>1930.55</ele><time>2026-05-28T21:48:52.000Z</time></trkpt>
        <trkpt lat="29.5536697" lon="103.3084061"><ele>1930.34</ele><time>2026-05-28T21:48:54.000Z</time></trkpt>
        <trkpt lat="29.5538671" lon="103.3083802"><ele>1930.22</ele><time>2026-05-28T21:48:56.000Z</time></trkpt>
        <trkpt lat="29.5540207" lon="103.308339"><ele>1930.11</ele><time>2026-05-28T21:48:58.000Z</time></trkpt>
        <trkpt lat="29.5542174" lon="103.3082597"><ele>1929.76</ele><time>2026-05-28T21:49:00.000Z</time></trkpt>
        <trkpt lat="29.5544404" lon="103.3081952"><ele>1929.77</ele><time>2026-05-28T21:49:02.000Z</time></trkpt>
        <trkpt lat="29.5546242" lon="103.3082059"><ele>1929.04</ele><time>2026-05-28T21:49:04.000Z</time></trkpt>
        <trkpt lat="29.5548507" lon="103.3082001"><ele>1927.82</ele><time>2026-05-28T21:49:06.000Z</time></trkpt>
        <trkpt lat="29.5550097" lon="103.3081298"><ele>1926.74</ele><time>2026-05-28T21:49:08.000Z</time></trkpt>
        <trkpt lat="29.5552282" lon="103.3081251"><ele>1926.51</ele><time>2026-05-28T21:49:10.000Z</time></trkpt>
        <trkpt lat="29.5554339" lon="103.3081112"><ele>1926.22</ele><time>2026-05-28T21:49:12.000Z</time></trkpt>
        <trkpt lat="29.5555984" lon="103.3081051"><ele>1926.08</ele><time>2026-05-28T21:49:14.000Z</time></trkpt>
        <trkpt lat="29.5554699" lon="103.3081699"><ele>1925.55</ele><time>2026-05-28T21:49:16.000Z</time></trkpt>
        <trkpt lat="29.5557762" lon="103.308225"><ele>1924.08</ele><time>2026-05-28T21:49:18.000Z</time></trkpt>
        <trkpt lat="29.5560832" lon="103.3082187"><ele>1921.74</ele><time>2026-05-28T21:49:20.000Z</time></trkpt>
        <trkpt lat="29.556282" lon="103.3082024"><ele>1918.51</ele><time>2026-05-28T21:49:22.000Z</time></trkpt>
        <trkpt lat="29.5564392" lon="103.3081621"><ele>1915.15</ele><time>2026-05-28T21:49:24.000Z</time></trkpt>
        <trkpt lat="29.5565963" lon="103.308094"><ele>1912.39</ele><time>2026-05-28T21:49:26.000Z</time></trkpt>
        <trkpt lat="29.5567544" lon="103.3080527"><ele>1910.72</ele><time>2026-05-28T21:49:28.000Z</time></trkpt>
        <trkpt lat="29.5569325" lon="103.3080361"><ele>1909.66</ele><time>2026-05-28T21:49:30.000Z</time></trkpt>
        <trkpt lat="29.5571409" lon="103.308075"><ele>1908.63</ele><time>2026-05-28T21:49:32.000Z</time></trkpt>
        <trkpt lat="29.5572955" lon="103.3080381"><ele>1907.79</ele><time>2026-05-28T21:49:34.000Z</time></trkpt>
        <trkpt lat="29.5574196" lon="103.307909"><ele>1906.94</ele><time>2026-05-28T21:49:36.000Z</time></trkpt>
        <trkpt lat="29.5576817" lon="103.3078246"><ele>1905.93</ele><time>2026-05-28T21:49:38.000Z</time></trkpt>
        <trkpt lat="29.5579371" lon="103.3078112"><ele>1905.52</ele><time>2026-05-28T21:49:40.000Z</time></trkpt>
        <trkpt lat="29.5587121" lon="103.3072955"><ele>1905.22</ele><time>2026-05-28T21:49:52.000Z</time></trkpt>
        <trkpt lat="29.5590712" lon="103.3070387"><ele>1904.2</ele><time>2026-05-28T21:49:54.000Z</time></trkpt>
        <trkpt lat="29.5592245" lon="103.3069411"><ele>1903.83</ele><time>2026-05-28T21:49:56.000Z</time></trkpt>
        <trkpt lat="29.5592887" lon="103.3070075"><ele>1903.74</ele><time>2026-05-28T21:49:58.000Z</time></trkpt>
        <trkpt lat="29.5594138" lon="103.3069921"><ele>1902.88</ele><time>2026-05-28T21:50:00.000Z</time></trkpt>
        <trkpt lat="29.5595619" lon="103.3069838"><ele>1902.88</ele><time>2026-05-28T21:50:02.000Z</time></trkpt>
        <trkpt lat="29.559723" lon="103.3069467"><ele>1902.5</ele><time>2026-05-28T21:50:04.000Z</time></trkpt>
        <trkpt lat="29.5598306" lon="103.3068971"><ele>1902.4</ele><time>2026-05-28T21:50:06.000Z</time></trkpt>
        <trkpt lat="29.5600329" lon="103.3073166"><ele>1902.35</ele><time>2026-05-28T21:50:08.000Z</time></trkpt>
        <trkpt lat="29.5602956" lon="103.3075706"><ele>1901.22</ele><time>2026-05-28T21:50:10.000Z</time></trkpt>
        <trkpt lat="29.560503" lon="103.3077281"><ele>1900.08</ele><time>2026-05-28T21:50:12.000Z</time></trkpt>
        <trkpt lat="29.5606675" lon="103.3078593"><ele>1898.94</ele><time>2026-05-28T21:50:14.000Z</time></trkpt>
        <trkpt lat="29.5607871" lon="103.3079841"><ele>1898.23</ele><time>2026-05-28T21:50:16.000Z</time></trkpt>
        <trkpt lat="29.560914" lon="103.3080969"><ele>1897.47</ele><time>2026-05-28T21:50:18.000Z</time></trkpt>
        <trkpt lat="29.5609951" lon="103.3082754"><ele>1896.93</ele><time>2026-05-28T21:50:20.000Z</time></trkpt>
        <trkpt lat="29.5611049" lon="103.3084428"><ele>1896.5</ele><time>2026-05-28T21:50:22.000Z</time></trkpt>
        <trkpt lat="29.5612271" lon="103.3085929"><ele>1896.25</ele><time>2026-05-28T21:50:24.000Z</time></trkpt>
        <trkpt lat="29.561387" lon="103.3087437"><ele>1896.12</ele><time>2026-05-28T21:50:26.000Z</time></trkpt>
        <trkpt lat="29.5612808" lon="103.3085491"><ele>1896.03</ele><time>2026-05-28T21:50:28.000Z</time></trkpt>
        <trkpt lat="29.5613621" lon="103.3084429"><ele>1895.84</ele><time>2026-05-28T21:50:30.000Z</time></trkpt>
        <trkpt lat="29.5613137" lon="103.3083158"><ele>1894.47</ele><time>2026-05-28T21:50:32.000Z</time></trkpt>
        <trkpt lat="29.561247" lon="103.3080914"><ele>1893.03</ele><time>2026-05-28T21:50:34.000Z</time></trkpt>
        <trkpt lat="29.5613259" lon="103.3078777"><ele>1890.68</ele><time>2026-05-28T21:50:36.000Z</time></trkpt>
        <trkpt lat="29.5613724" lon="103.3076955"><ele>1888.15</ele><time>2026-05-28T21:50:38.000Z</time></trkpt>
        <trkpt lat="29.56117" lon="103.3073891"><ele>1886.21</ele><time>2026-05-28T21:50:40.000Z</time></trkpt>
        <trkpt lat="29.5608238" lon="103.306994"><ele>1884.01</ele><time>2026-05-28T21:50:42.000Z</time></trkpt>
        <trkpt lat="29.5606125" lon="103.3067332"><ele>1881.65</ele><time>2026-05-28T21:50:44.000Z</time></trkpt>
        <trkpt lat="29.5604758" lon="103.3065548"><ele>1879.4</ele><time>2026-05-28T21:50:46.000Z</time></trkpt>
        <trkpt lat="29.5603596" lon="103.3063863"><ele>1878.29</ele><time>2026-05-28T21:50:48.000Z</time></trkpt>
        <trkpt lat="29.5599931" lon="103.3052293"><ele>1877.74</ele><time>2026-05-28T21:51:00.000Z</time></trkpt>
        <trkpt lat="29.556679" lon="103.3032275"><ele>1877.47</ele><time>2026-05-28T21:51:53.000Z</time></trkpt>
        <trkpt lat="29.5554277" lon="103.3025127"><ele>1875.37</ele><time>2026-05-28T21:51:55.000Z</time></trkpt>
        <trkpt lat="29.5550131" lon="103.3024293"><ele>1874.09</ele><time>2026-05-28T21:51:57.000Z</time></trkpt>
        <trkpt lat="29.5549082" lon="103.3024885"><ele>1873.29</ele><time>2026-05-28T21:51:59.000Z</time></trkpt>
        <trkpt lat="29.5547947" lon="103.302557"><ele>1872.61</ele><time>2026-05-28T21:52:01.000Z</time></trkpt>
        <trkpt lat="29.5547446" lon="103.3025358"><ele>1871.57</ele><time>2026-05-28T21:52:03.000Z</time></trkpt>
        <trkpt lat="29.5552045" lon="103.3023202"><ele>1871.07</ele><time>2026-05-28T21:52:05.000Z</time></trkpt>
        <trkpt lat="29.5555941" lon="103.302302"><ele>1869.28</ele><time>2026-05-28T21:52:07.000Z</time></trkpt>
        <trkpt lat="29.5557979" lon="103.3023815"><ele>1867.76</ele><time>2026-05-28T21:52:09.000Z</time></trkpt>
        <trkpt lat="29.5559739" lon="103.3024261"><ele>1861.28</ele><time>2026-05-28T21:52:11.000Z</time></trkpt>
        <trkpt lat="29.5578601" lon="103.3019509"><ele>1857.59</ele><time>2026-05-28T21:52:39.000Z</time></trkpt>
        <trkpt lat="29.561482" lon="103.3018012"><ele>1853.83</ele><time>2026-05-28T21:53:17.000Z</time></trkpt>
        <trkpt lat="29.5628225" lon="103.3017577"><ele>1844.11</ele><time>2026-05-28T21:53:19.000Z</time></trkpt>
        <trkpt lat="29.5632129" lon="103.3016637"><ele>1838.07</ele><time>2026-05-28T21:53:21.000Z</time></trkpt>
        <trkpt lat="29.5632204" lon="103.301729"><ele>1834.55</ele><time>2026-05-28T21:53:23.000Z</time></trkpt>
        <trkpt lat="29.5631144" lon="103.3019931"><ele>1826.59</ele><time>2026-05-28T21:53:25.000Z</time></trkpt>
        <trkpt lat="29.5630438" lon="103.3020264"><ele>1805.89</ele><time>2026-05-28T21:53:27.000Z</time></trkpt>
        <trkpt lat="29.5630805" lon="103.3020979"><ele>1789.21</ele><time>2026-05-28T21:53:29.000Z</time></trkpt>
        <trkpt lat="29.5632018" lon="103.3022006"><ele>1775.22</ele><time>2026-05-28T21:53:31.000Z</time></trkpt>
        <trkpt lat="29.5633311" lon="103.3023593"><ele>1765.56</ele><time>2026-05-28T21:53:33.000Z</time></trkpt>
        <trkpt lat="29.5634634" lon="103.3025383"><ele>1757.94</ele><time>2026-05-28T21:53:35.000Z</time></trkpt>
        <trkpt lat="29.5635925" lon="103.302727"><ele>1753.78</ele><time>2026-05-28T21:53:37.000Z</time></trkpt>
        <trkpt lat="29.5637726" lon="103.3029019"><ele>1750.52</ele><time>2026-05-28T21:53:39.000Z</time></trkpt>
        <trkpt lat="29.5639033" lon="103.3030249"><ele>1745.11</ele><time>2026-05-28T21:53:41.000Z</time></trkpt>
        <trkpt lat="29.5640219" lon="103.3031718"><ele>1740.65</ele><time>2026-05-28T21:53:43.000Z</time></trkpt>
        <trkpt lat="29.5641169" lon="103.3033079"><ele>1736</ele><time>2026-05-28T21:53:45.000Z</time></trkpt>
        <trkpt lat="29.564199" lon="103.3033707"><ele>1733.51</ele><time>2026-05-28T21:53:47.000Z</time></trkpt>
        <trkpt lat="29.5643013" lon="103.303352"><ele>1732.08</ele><time>2026-05-28T21:53:49.000Z</time></trkpt>
        <trkpt lat="29.5643098" lon="103.3030632"><ele>1731.52</ele><time>2026-05-28T21:53:53.000Z</time></trkpt>
        <trkpt lat="29.5641922" lon="103.302789"><ele>1731.74</ele><time>2026-05-28T21:53:55.000Z</time></trkpt>
        <trkpt lat="29.5640619" lon="103.3025438"><ele>1732.2</ele><time>2026-05-28T21:53:57.000Z</time></trkpt>
        <trkpt lat="29.5639326" lon="103.3023502"><ele>1731.16</ele><time>2026-05-28T21:53:59.000Z</time></trkpt>
        <trkpt lat="29.5638095" lon="103.3021798"><ele>1730.75</ele><time>2026-05-28T21:54:01.000Z</time></trkpt>
        <trkpt lat="29.5636922" lon="103.3020192"><ele>1730.47</ele><time>2026-05-28T21:54:03.000Z</time></trkpt>
        <trkpt lat="29.563596" lon="103.3017148"><ele>1730.3</ele><time>2026-05-28T21:54:07.000Z</time></trkpt>
        <trkpt lat="29.5635047" lon="103.3015473"><ele>1730.24</ele><time>2026-05-28T21:54:09.000Z</time></trkpt>
        <trkpt lat="29.5634611" lon="103.301378"><ele>1730.34</ele><time>2026-05-28T21:54:11.000Z</time></trkpt>
        <trkpt lat="29.5635474" lon="103.301091"><ele>1730.41</ele><time>2026-05-28T21:54:13.000Z</time></trkpt>
        <trkpt lat="29.5634753" lon="103.3008844"><ele>1729.53</ele><time>2026-05-28T21:54:15.000Z</time></trkpt>
        <trkpt lat="29.563383" lon="103.3007172"><ele>1728.89</ele><time>2026-05-28T21:54:17.000Z</time></trkpt>
        <trkpt lat="29.5632092" lon="103.3004756"><ele>1728.53</ele><time>2026-05-28T21:54:19.000Z</time></trkpt>
        <trkpt lat="29.5629214" lon="103.300342"><ele>1728.35</ele><time>2026-05-28T21:54:21.000Z</time></trkpt>
        <trkpt lat="29.562672" lon="103.3002599"><ele>1727.6</ele><time>2026-05-28T21:54:23.000Z</time></trkpt>
        <trkpt lat="29.5624958" lon="103.3001605"><ele>1727.23</ele><time>2026-05-28T21:54:25.000Z</time></trkpt>
        <trkpt lat="29.5623553" lon="103.3000009"><ele>1727.06</ele><time>2026-05-28T21:54:27.000Z</time></trkpt>
        <trkpt lat="29.5622526" lon="103.2998191"><ele>1726.54</ele><time>2026-05-28T21:54:29.000Z</time></trkpt>
        <trkpt lat="29.562109" lon="103.29966"><ele>1726.18</ele><time>2026-05-28T21:54:31.000Z</time></trkpt>
        <trkpt lat="29.5620109" lon="103.299527"><ele>1725.97</ele><time>2026-05-28T21:54:33.000Z</time></trkpt>
        <trkpt lat="29.5618612" lon="103.2993949"><ele>1725.88</ele><time>2026-05-28T21:54:35.000Z</time></trkpt>
        <trkpt lat="29.5616792" lon="103.2992539"><ele>1725.69</ele><time>2026-05-28T21:54:37.000Z</time></trkpt>
        <trkpt lat="29.5616317" lon="103.2994422"><ele>1725.21</ele><time>2026-05-28T21:54:39.000Z</time></trkpt>
        <trkpt lat="29.5611628" lon="103.2996897"><ele>1724.5</ele><time>2026-05-28T21:54:43.000Z</time></trkpt>
        <trkpt lat="29.5608233" lon="103.2995749"><ele>1723.4</ele><time>2026-05-28T21:54:45.000Z</time></trkpt>
        <trkpt lat="29.5605829" lon="103.2995429"><ele>1722.47</ele><time>2026-05-28T21:54:47.000Z</time></trkpt>
        <trkpt lat="29.5604402" lon="103.2994501"><ele>1721.08</ele><time>2026-05-28T21:54:49.000Z</time></trkpt>
        <trkpt lat="29.5603203" lon="103.2993376"><ele>1720.09</ele><time>2026-05-28T21:54:51.000Z</time></trkpt>
        <trkpt lat="29.5602434" lon="103.2992207"><ele>1719.36</ele><time>2026-05-28T21:54:53.000Z</time></trkpt>
        <trkpt lat="29.5602545" lon="103.2990903"><ele>1719.06</ele><time>2026-05-28T21:54:57.000Z</time></trkpt>
        <trkpt lat="29.5603322" lon="103.2989875"><ele>1718.77</ele><time>2026-05-28T21:54:59.000Z</time></trkpt>
        <trkpt lat="29.5604383" lon="103.2991007"><ele>1717.66</ele><time>2026-05-28T21:55:01.000Z</time></trkpt>
        <trkpt lat="29.5605584" lon="103.2992245"><ele>1716.67</ele><time>2026-05-28T21:55:03.000Z</time></trkpt>
        <trkpt lat="29.560627" lon="103.2994017"><ele>1715.08</ele><time>2026-05-28T21:55:05.000Z</time></trkpt>
        <trkpt lat="29.5607135" lon="103.2995564"><ele>1713.8</ele><time>2026-05-28T21:55:07.000Z</time></trkpt>
        <trkpt lat="29.5608396" lon="103.2997057"><ele>1713.02</ele><time>2026-05-28T21:55:09.000Z</time></trkpt>
        <trkpt lat="29.5611353" lon="103.29974"><ele>1712.71</ele><time>2026-05-28T21:55:11.000Z</time></trkpt>
        <trkpt lat="29.5612934" lon="103.2996179"><ele>1712.69</ele><time>2026-05-28T21:55:13.000Z</time></trkpt>
        <trkpt lat="29.5614159" lon="103.2993389"><ele>1712.65</ele><time>2026-05-28T21:55:15.000Z</time></trkpt>
        <trkpt lat="29.5615937" lon="103.2991146"><ele>1712.03</ele><time>2026-05-28T21:55:17.000Z</time></trkpt>
        <trkpt lat="29.5617825" lon="103.2989687"><ele>1711.96</ele><time>2026-05-28T21:55:19.000Z</time></trkpt>
        <trkpt lat="29.5619727" lon="103.2988229"><ele>1711.67</ele><time>2026-05-28T21:55:21.000Z</time></trkpt>
        <trkpt lat="29.5624669" lon="103.2986526"><ele>1711.75</ele><time>2026-05-28T21:55:27.000Z</time></trkpt>
        <trkpt lat="29.5628122" lon="103.2986548"><ele>1712.4</ele><time>2026-05-28T21:55:29.000Z</time></trkpt>
        <trkpt lat="29.5630658" lon="103.2987441"><ele>1712.62</ele><time>2026-05-28T21:55:31.000Z</time></trkpt>
        <trkpt lat="29.5632417" lon="103.2987587"><ele>1712.92</ele><time>2026-05-28T21:55:33.000Z</time></trkpt>
        <trkpt lat="29.5634079" lon="103.2987299"><ele>1712.72</ele><time>2026-05-28T21:55:35.000Z</time></trkpt>
        <trkpt lat="29.5635977" lon="103.2987333"><ele>1711.95</ele><time>2026-05-28T21:55:37.000Z</time></trkpt>
        <trkpt lat="29.5637767" lon="103.2987807"><ele>1711.56</ele><time>2026-05-28T21:55:39.000Z</time></trkpt>
        <trkpt lat="29.563936" lon="103.2988531"><ele>1711.13</ele><time>2026-05-28T21:55:41.000Z</time></trkpt>
        <trkpt lat="29.5640858" lon="103.2990237"><ele>1710.84</ele><time>2026-05-28T21:55:43.000Z</time></trkpt>
        <trkpt lat="29.5642358" lon="103.2991569"><ele>1709.8</ele><time>2026-05-28T21:55:45.000Z</time></trkpt>
        <trkpt lat="29.5644647" lon="103.2991898"><ele>1708.8</ele><time>2026-05-28T21:55:47.000Z</time></trkpt>
        <trkpt lat="29.5646957" lon="103.2991637"><ele>1706.63</ele><time>2026-05-28T21:55:49.000Z</time></trkpt>
        <trkpt lat="29.5652535" lon="103.2994883"><ele>1704.1</ele><time>2026-05-28T21:55:57.000Z</time></trkpt>
        <trkpt lat="29.5655555" lon="103.2996291"><ele>1701.21</ele><time>2026-05-28T21:55:59.000Z</time></trkpt>
        <trkpt lat="29.5657575" lon="103.2997406"><ele>1696.65</ele><time>2026-05-28T21:56:01.000Z</time></trkpt>
        <trkpt lat="29.5659284" lon="103.2997833"><ele>1693.26</ele><time>2026-05-28T21:56:03.000Z</time></trkpt>
        <trkpt lat="29.5660187" lon="103.2997453"><ele>1690.97</ele><time>2026-05-28T21:56:05.000Z</time></trkpt>
        <trkpt lat="29.5659423" lon="103.2996213"><ele>1688.88</ele><time>2026-05-28T21:56:11.000Z</time></trkpt>
        <trkpt lat="29.5657432" lon="103.2993788"><ele>1685.15</ele><time>2026-05-28T21:56:13.000Z</time></trkpt>
        <trkpt lat="29.5655792" lon="103.2992081"><ele>1681.05</ele><time>2026-05-28T21:56:15.000Z</time></trkpt>
        <trkpt lat="29.5654938" lon="103.2990322"><ele>1677.41</ele><time>2026-05-28T21:56:17.000Z</time></trkpt>
        <trkpt lat="29.5654755" lon="103.2988677"><ele>1673.01</ele><time>2026-05-28T21:56:19.000Z</time></trkpt>
        <trkpt lat="29.5654824" lon="103.298686"><ele>1670.49</ele><time>2026-05-28T21:56:21.000Z</time></trkpt>
        <trkpt lat="29.5654999" lon="103.2984803"><ele>1669</ele><time>2026-05-28T21:56:23.000Z</time></trkpt>
        <trkpt lat="29.5655154" lon="103.2982158"><ele>1667.94</ele><time>2026-05-28T21:56:25.000Z</time></trkpt>
        <trkpt lat="29.5654953" lon="103.298052"><ele>1667.58</ele><time>2026-05-28T21:56:27.000Z</time></trkpt>
        <trkpt lat="29.5654595" lon="103.2978891"><ele>1667.22</ele><time>2026-05-28T21:56:29.000Z</time></trkpt>
        <trkpt lat="29.565349" lon="103.2977369"><ele>1667.01</ele><time>2026-05-28T21:56:31.000Z</time></trkpt>
        <trkpt lat="29.5652196" lon="103.2976163"><ele>1666.83</ele><time>2026-05-28T21:56:33.000Z</time></trkpt>
        <trkpt lat="29.5650799" lon="103.2975392"><ele>1666.92</ele><time>2026-05-28T21:56:35.000Z</time></trkpt>
        <trkpt lat="29.5648345" lon="103.2974952"><ele>1666.78</ele><time>2026-05-28T21:56:37.000Z</time></trkpt>
        <trkpt lat="29.5646168" lon="103.2974683"><ele>1666.44</ele><time>2026-05-28T21:56:39.000Z</time></trkpt>
        <trkpt lat="29.5644209" lon="103.2974422"><ele>1666.12</ele><time>2026-05-28T21:56:41.000Z</time></trkpt>
        <trkpt lat="29.5642936" lon="103.297379"><ele>1665.56</ele><time>2026-05-28T21:56:43.000Z</time></trkpt>
        <trkpt lat="29.5641086" lon="103.2973577"><ele>1665.54</ele><time>2026-05-28T21:56:45.000Z</time></trkpt>
        <trkpt lat="29.5639419" lon="103.2972346"><ele>1665.18</ele><time>2026-05-28T21:56:47.000Z</time></trkpt>
        <trkpt lat="29.5640378" lon="103.2971308"><ele>1663.98</ele><time>2026-05-28T21:56:51.000Z</time></trkpt>
        <trkpt lat="29.5642081" lon="103.2971136"><ele>1659.13</ele><time>2026-05-28T21:56:53.000Z</time></trkpt>
        <trkpt lat="29.5644195" lon="103.2971016"><ele>1656.31</ele><time>2026-05-28T21:56:55.000Z</time></trkpt>
        <trkpt lat="29.5646499" lon="103.2971241"><ele>1654.88</ele><time>2026-05-28T21:56:57.000Z</time></trkpt>
        <trkpt lat="29.5648304" lon="103.2969908"><ele>1653.92</ele><time>2026-05-28T21:56:59.000Z</time></trkpt>
        <trkpt lat="29.564994" lon="103.2969803"><ele>1651.96</ele><time>2026-05-28T21:57:01.000Z</time></trkpt>
        <trkpt lat="29.5651702" lon="103.2969901"><ele>1649.89</ele><time>2026-05-28T21:57:03.000Z</time></trkpt>
        <trkpt lat="29.565373" lon="103.2970136"><ele>1649.62</ele><time>2026-05-28T21:57:05.000Z</time></trkpt>
        <trkpt lat="29.565581" lon="103.2970283"><ele>1649.23</ele><time>2026-05-28T21:57:07.000Z</time></trkpt>
        <trkpt lat="29.5657961" lon="103.2970561"><ele>1648.84</ele><time>2026-05-28T21:57:09.000Z</time></trkpt>
        <trkpt lat="29.5660041" lon="103.2970576"><ele>1648.42</ele><time>2026-05-28T21:57:11.000Z</time></trkpt>
        <trkpt lat="29.5662001" lon="103.2970865"><ele>1647.61</ele><time>2026-05-28T21:57:13.000Z</time></trkpt>
        <trkpt lat="29.5664094" lon="103.2970446"><ele>1646.65</ele><time>2026-05-28T21:57:15.000Z</time></trkpt>
        <trkpt lat="29.5665651" lon="103.2971337"><ele>1644.68</ele><time>2026-05-28T21:57:17.000Z</time></trkpt>
        <trkpt lat="29.5666848" lon="103.2972782"><ele>1641.93</ele><time>2026-05-28T21:57:19.000Z</time></trkpt>
        <trkpt lat="29.5668152" lon="103.2974828"><ele>1640.25</ele><time>2026-05-28T21:57:21.000Z</time></trkpt>
        <trkpt lat="29.566953" lon="103.2976997"><ele>1638.34</ele><time>2026-05-28T21:57:23.000Z</time></trkpt>
        <trkpt lat="29.5671535" lon="103.2978452"><ele>1637.43</ele><time>2026-05-28T21:57:25.000Z</time></trkpt>
        <trkpt lat="29.5671931" lon="103.298"><ele>1632.21</ele><time>2026-05-28T21:57:27.000Z</time></trkpt>
        <trkpt lat="29.5671828" lon="103.2982042"><ele>1627.25</ele><time>2026-05-28T21:57:29.000Z</time></trkpt>
        <trkpt lat="29.5671762" lon="103.298415"><ele>1622.83</ele><time>2026-05-28T21:57:31.000Z</time></trkpt>
        <trkpt lat="29.5671735" lon="103.2985661"><ele>1619.55</ele><time>2026-05-28T21:57:33.000Z</time></trkpt>
        <trkpt lat="29.5672067" lon="103.2986944"><ele>1617.9</ele><time>2026-05-28T21:57:37.000Z</time></trkpt>
        <trkpt lat="29.5672519" lon="103.2986022"><ele>1617.02</ele><time>2026-05-28T21:57:39.000Z</time></trkpt>
        <trkpt lat="29.5673916" lon="103.2983226"><ele>1616.57</ele><time>2026-05-28T21:57:41.000Z</time></trkpt>
        <trkpt lat="29.5675382" lon="103.2980132"><ele>1615.87</ele><time>2026-05-28T21:57:43.000Z</time></trkpt>
        <trkpt lat="29.5676477" lon="103.297801"><ele>1616.42</ele><time>2026-05-28T21:57:45.000Z</time></trkpt>
        <trkpt lat="29.5677551" lon="103.2977234"><ele>1614.91</ele><time>2026-05-28T21:57:47.000Z</time></trkpt>
        <trkpt lat="29.5678918" lon="103.2977276"><ele>1614.27</ele><time>2026-05-28T21:57:49.000Z</time></trkpt>
        <trkpt lat="29.5681318" lon="103.2977618"><ele>1613.78</ele><time>2026-05-28T21:57:51.000Z</time></trkpt>
        <trkpt lat="29.5683808" lon="103.2977514"><ele>1613.71</ele><time>2026-05-28T21:57:53.000Z</time></trkpt>
        <trkpt lat="29.5685882" lon="103.2977168"><ele>1613.51</ele><time>2026-05-28T21:57:55.000Z</time></trkpt>
        <trkpt lat="29.5687744" lon="103.2976701"><ele>1613.45</ele><time>2026-05-28T21:57:57.000Z</time></trkpt>
        <trkpt lat="29.5690124" lon="103.2977273"><ele>1613.3</ele><time>2026-05-28T21:57:59.000Z</time></trkpt>
        <trkpt lat="29.5692173" lon="103.29775"><ele>1612.07</ele><time>2026-05-28T21:58:01.000Z</time></trkpt>
        <trkpt lat="29.569395" lon="103.2977373"><ele>1611.27</ele><time>2026-05-28T21:58:03.000Z</time></trkpt>
        <trkpt lat="29.5695934" lon="103.2977472"><ele>1610.74</ele><time>2026-05-28T21:58:05.000Z</time></trkpt>
        <trkpt lat="29.5697553" lon="103.2977017"><ele>1608.21</ele><time>2026-05-28T21:58:07.000Z</time></trkpt>
        <trkpt lat="29.569928" lon="103.2976232"><ele>1605.16</ele><time>2026-05-28T21:58:09.000Z</time></trkpt>
        <trkpt lat="29.570114" lon="103.2975586"><ele>1602.62</ele><time>2026-05-28T21:58:11.000Z</time></trkpt>
        <trkpt lat="29.5702995" lon="103.2975504"><ele>1600.45</ele><time>2026-05-28T21:58:13.000Z</time></trkpt>
        <trkpt lat="29.570461" lon="103.2975673"><ele>1599</ele><time>2026-05-28T21:58:15.000Z</time></trkpt>
        <trkpt lat="29.5705903" lon="103.2976995"><ele>1596.89</ele><time>2026-05-28T21:58:17.000Z</time></trkpt>
        <trkpt lat="29.5706933" lon="103.2978991"><ele>1595.69</ele><time>2026-05-28T21:58:19.000Z</time></trkpt>
        <trkpt lat="29.5707473" lon="103.2980331"><ele>1594.7</ele><time>2026-05-28T21:58:21.000Z</time></trkpt>
        <trkpt lat="29.5707929" lon="103.2981321"><ele>1591.62</ele><time>2026-05-28T21:58:23.000Z</time></trkpt>
        <trkpt lat="29.5709343" lon="103.2981724"><ele>1593.29</ele><time>2026-05-28T21:58:27.000Z</time></trkpt>
        <trkpt lat="29.5709414" lon="103.2980408"><ele>1593.69</ele><time>2026-05-28T21:58:31.000Z</time></trkpt>
        <trkpt lat="29.5708052" lon="103.2976186"><ele>1595.1</ele><time>2026-05-28T21:58:35.000Z</time></trkpt>
        <trkpt lat="29.5702092" lon="103.2970552"><ele>1596.09</ele><time>2026-05-28T21:58:43.000Z</time></trkpt>
        <trkpt lat="29.5698977" lon="103.2967988"><ele>1595.89</ele><time>2026-05-28T21:58:45.000Z</time></trkpt>
        <trkpt lat="29.5697447" lon="103.2966468"><ele>1594.36</ele><time>2026-05-28T21:58:47.000Z</time></trkpt>
        <trkpt lat="29.5696455" lon="103.2964664"><ele>1593.02</ele><time>2026-05-28T21:58:49.000Z</time></trkpt>
        <trkpt lat="29.5695787" lon="103.296306"><ele>1592.04</ele><time>2026-05-28T21:58:51.000Z</time></trkpt>
        <trkpt lat="29.5694735" lon="103.2961369"><ele>1591.25</ele><time>2026-05-28T21:58:53.000Z</time></trkpt>
        <trkpt lat="29.5693577" lon="103.2960093"><ele>1590.82</ele><time>2026-05-28T21:58:55.000Z</time></trkpt>
        <trkpt lat="29.5691742" lon="103.2959012"><ele>1590.46</ele><time>2026-05-28T21:58:57.000Z</time></trkpt>
        <trkpt lat="29.5689875" lon="103.2958025"><ele>1589.57</ele><time>2026-05-28T21:58:59.000Z</time></trkpt>
        <trkpt lat="29.568848" lon="103.2957293"><ele>1587.97</ele><time>2026-05-28T21:59:01.000Z</time></trkpt>
        <trkpt lat="29.5687783" lon="103.2955409"><ele>1586.17</ele><time>2026-05-28T21:59:03.000Z</time></trkpt>
        <trkpt lat="29.5687952" lon="103.2953717"><ele>1584.12</ele><time>2026-05-28T21:59:05.000Z</time></trkpt>
        <trkpt lat="29.5688801" lon="103.2952596"><ele>1581.31</ele><time>2026-05-28T21:59:07.000Z</time></trkpt>
        <trkpt lat="29.569043" lon="103.2951593"><ele>1579.36</ele><time>2026-05-28T21:59:09.000Z</time></trkpt>
        <trkpt lat="29.569234" lon="103.2950878"><ele>1578.02</ele><time>2026-05-28T21:59:11.000Z</time></trkpt>
        <trkpt lat="29.5694254" lon="103.2950209"><ele>1576.84</ele><time>2026-05-28T21:59:13.000Z</time></trkpt>
        <trkpt lat="29.5696172" lon="103.2949749"><ele>1576.08</ele><time>2026-05-28T21:59:15.000Z</time></trkpt>
        <trkpt lat="29.5697839" lon="103.2949415"><ele>1575.17</ele><time>2026-05-28T21:59:17.000Z</time></trkpt>
        <trkpt lat="29.5699579" lon="103.294915"><ele>1574.53</ele><time>2026-05-28T21:59:19.000Z</time></trkpt>
        <trkpt lat="29.57016" lon="103.2949037"><ele>1574.2</ele><time>2026-05-28T21:59:21.000Z</time></trkpt>
        <trkpt lat="29.5704002" lon="103.2948872"><ele>1574.05</ele><time>2026-05-28T21:59:23.000Z</time></trkpt>
        <trkpt lat="29.5707122" lon="103.2948932"><ele>1574.09</ele><time>2026-05-28T21:59:25.000Z</time></trkpt>
        <trkpt lat="29.5709511" lon="103.2948514"><ele>1574.22</ele><time>2026-05-28T21:59:27.000Z</time></trkpt>
        <trkpt lat="29.571143" lon="103.2948088"><ele>1574.3</ele><time>2026-05-28T21:59:29.000Z</time></trkpt>
        <trkpt lat="29.57131" lon="103.2947277"><ele>1574.25</ele><time>2026-05-28T21:59:31.000Z</time></trkpt>
        <trkpt lat="29.5715249" lon="103.2947138"><ele>1574.09</ele><time>2026-05-28T21:59:33.000Z</time></trkpt>
        <trkpt lat="29.571731" lon="103.2946317"><ele>1571.34</ele><time>2026-05-28T21:59:35.000Z</time></trkpt>
        <trkpt lat="29.5719123" lon="103.2945598"><ele>1569.64</ele><time>2026-05-28T21:59:37.000Z</time></trkpt>
        <trkpt lat="29.572114" lon="103.2944914"><ele>1568.62</ele><time>2026-05-28T21:59:39.000Z</time></trkpt>
        <trkpt lat="29.5722389" lon="103.2944743"><ele>1568.25</ele><time>2026-05-28T21:59:41.000Z</time></trkpt>
        <trkpt lat="29.572346" lon="103.2944866"><ele>1567.91</ele><time>2026-05-28T21:59:43.000Z</time></trkpt>
        <trkpt lat="29.5724733" lon="103.2944656"><ele>1567.64</ele><time>2026-05-28T21:59:45.000Z</time></trkpt>
        <trkpt lat="29.5726045" lon="103.2944363"><ele>1567.51</ele><time>2026-05-28T21:59:47.000Z</time></trkpt>
        <trkpt lat="29.5727764" lon="103.2944249"><ele>1567.47</ele><time>2026-05-28T21:59:49.000Z</time></trkpt>
        <trkpt lat="29.5730671" lon="103.2943891"><ele>1567.59</ele><time>2026-05-28T21:59:51.000Z</time></trkpt>
        <trkpt lat="29.5732994" lon="103.2944266"><ele>1567.49</ele><time>2026-05-28T21:59:53.000Z</time></trkpt>
        <trkpt lat="29.5734945" lon="103.294503"><ele>1567.87</ele><time>2026-05-28T21:59:55.000Z</time></trkpt>
        <trkpt lat="29.5736133" lon="103.2945868"><ele>1565.9</ele><time>2026-05-28T21:59:57.000Z</time></trkpt>
        <trkpt lat="29.5737301" lon="103.2947137"><ele>1562.5</ele><time>2026-05-28T21:59:59.000Z</time></trkpt>
        <trkpt lat="29.5738298" lon="103.2948345"><ele>1559.96</ele><time>2026-05-28T22:00:01.000Z</time></trkpt>
        <trkpt lat="29.5739691" lon="103.294931"><ele>1557.94</ele><time>2026-05-28T22:00:03.000Z</time></trkpt>
        <trkpt lat="29.5741233" lon="103.2949145"><ele>1557.03</ele><time>2026-05-28T22:00:07.000Z</time></trkpt>
        <trkpt lat="29.5742119" lon="103.2947925"><ele>1554.61</ele><time>2026-05-28T22:00:11.000Z</time></trkpt>
        <trkpt lat="29.5742235" lon="103.2946138"><ele>1552.1</ele><time>2026-05-28T22:00:13.000Z</time></trkpt>
        <trkpt lat="29.5741859" lon="103.2944744"><ele>1550.35</ele><time>2026-05-28T22:00:15.000Z</time></trkpt>
        <trkpt lat="29.5741137" lon="103.2941706"><ele>1549.36</ele><time>2026-05-28T22:00:19.000Z</time></trkpt>
        <trkpt lat="29.5740454" lon="103.2936592"><ele>1548.73</ele><time>2026-05-28T22:00:21.000Z</time></trkpt>
        <trkpt lat="29.5739482" lon="103.2933217"><ele>1548.88</ele><time>2026-05-28T22:00:23.000Z</time></trkpt>
        <trkpt lat="29.573843" lon="103.293166"><ele>1548.66</ele><time>2026-05-28T22:00:25.000Z</time></trkpt>
        <trkpt lat="29.5738782" lon="103.293114"><ele>1545.29</ele><time>2026-05-28T22:00:27.000Z</time></trkpt>
        <trkpt lat="29.5739749" lon="103.2931315"><ele>1541.99</ele><time>2026-05-28T22:00:29.000Z</time></trkpt>
        <trkpt lat="29.5740905" lon="103.2931703"><ele>1540.14</ele><time>2026-05-28T22:00:31.000Z</time></trkpt>
        <trkpt lat="29.5742525" lon="103.2932124"><ele>1538.98</ele><time>2026-05-28T22:00:33.000Z</time></trkpt>
        <trkpt lat="29.5744608" lon="103.2932214"><ele>1538.33</ele><time>2026-05-28T22:00:35.000Z</time></trkpt>
        <trkpt lat="29.5746545" lon="103.2932127"><ele>1537.3</ele><time>2026-05-28T22:00:37.000Z</time></trkpt>
        <trkpt lat="29.5748014" lon="103.2931772"><ele>1536.81</ele><time>2026-05-28T22:00:39.000Z</time></trkpt>
        <trkpt lat="29.5749961" lon="103.2930546"><ele>1535.77</ele><time>2026-05-28T22:00:41.000Z</time></trkpt>
        <trkpt lat="29.5751392" lon="103.2929171"><ele>1535.44</ele><time>2026-05-28T22:00:43.000Z</time></trkpt>
        <trkpt lat="29.5752732" lon="103.2928433"><ele>1534.97</ele><time>2026-05-28T22:00:45.000Z</time></trkpt>
        <trkpt lat="29.5754598" lon="103.2927031"><ele>1534.75</ele><time>2026-05-28T22:00:47.000Z</time></trkpt>
        <trkpt lat="29.5756994" lon="103.292649"><ele>1533.87</ele><time>2026-05-28T22:00:49.000Z</time></trkpt>
        <trkpt lat="29.5758618" lon="103.2926982"><ele>1532.97</ele><time>2026-05-28T22:00:51.000Z</time></trkpt>
        <trkpt lat="29.5759639" lon="103.2927628"><ele>1532.36</ele><time>2026-05-28T22:00:53.000Z</time></trkpt>
        <trkpt lat="29.5760722" lon="103.2928408"><ele>1532.13</ele><time>2026-05-28T22:00:55.000Z</time></trkpt>
        <trkpt lat="29.5762537" lon="103.2929709"><ele>1532.01</ele><time>2026-05-28T22:00:57.000Z</time></trkpt>
        <trkpt lat="29.5764351" lon="103.2930114"><ele>1531.67</ele><time>2026-05-28T22:00:59.000Z</time></trkpt>
        <trkpt lat="29.5767156" lon="103.2928877"><ele>1531.44</ele><time>2026-05-28T22:01:01.000Z</time></trkpt>
        <trkpt lat="29.5769351" lon="103.292849"><ele>1530.42</ele><time>2026-05-28T22:01:03.000Z</time></trkpt>
        <trkpt lat="29.577109" lon="103.2927696"><ele>1529.83</ele><time>2026-05-28T22:01:05.000Z</time></trkpt>
        <trkpt lat="29.5772828" lon="103.2927444"><ele>1528.91</ele><time>2026-05-28T22:01:07.000Z</time></trkpt>
        <trkpt lat="29.5774053" lon="103.2927213"><ele>1528.5</ele><time>2026-05-28T22:01:09.000Z</time></trkpt>
        <trkpt lat="29.5775173" lon="103.2926385"><ele>1528.31</ele><time>2026-05-28T22:01:11.000Z</time></trkpt>
        <trkpt lat="29.5776374" lon="103.2924723"><ele>1527.28</ele><time>2026-05-28T22:01:13.000Z</time></trkpt>
        <trkpt lat="29.5777239" lon="103.2923078"><ele>1526.23</ele><time>2026-05-28T22:01:17.000Z</time></trkpt>
        <trkpt lat="29.5777329" lon="103.292178"><ele>1523.96</ele><time>2026-05-28T22:01:19.000Z</time></trkpt>
        <trkpt lat="29.5777161" lon="103.2920114"><ele>1522.7</ele><time>2026-05-28T22:01:21.000Z</time></trkpt>
        <trkpt lat="29.5775505" lon="103.2915825"><ele>1521.78</ele><time>2026-05-28T22:01:25.000Z</time></trkpt>
        <trkpt lat="29.5774727" lon="103.2913323"><ele>1520.66</ele><time>2026-05-28T22:01:27.000Z</time></trkpt>
        <trkpt lat="29.577416" lon="103.2910852"><ele>1519.55</ele><time>2026-05-28T22:01:29.000Z</time></trkpt>
        <trkpt lat="29.5773353" lon="103.2908266"><ele>1518.76</ele><time>2026-05-28T22:01:31.000Z</time></trkpt>
        <trkpt lat="29.5772553" lon="103.2906114"><ele>1518.87</ele><time>2026-05-28T22:01:33.000Z</time></trkpt>
        <trkpt lat="29.5771992" lon="103.2904026"><ele>1518.76</ele><time>2026-05-28T22:01:35.000Z</time></trkpt>
        <trkpt lat="29.5771316" lon="103.2902268"><ele>1518.2</ele><time>2026-05-28T22:01:37.000Z</time></trkpt>
        <trkpt lat="29.5770138" lon="103.2900694"><ele>1517.69</ele><time>2026-05-28T22:01:39.000Z</time></trkpt>
        <trkpt lat="29.576892" lon="103.2899436"><ele>1516.99</ele><time>2026-05-28T22:01:41.000Z</time></trkpt>
        <trkpt lat="29.5767622" lon="103.2898091"><ele>1516.12</ele><time>2026-05-28T22:01:43.000Z</time></trkpt>
        <trkpt lat="29.5766138" lon="103.2896577"><ele>1515.63</ele><time>2026-05-28T22:01:45.000Z</time></trkpt>
        <trkpt lat="29.5764776" lon="103.2895471"><ele>1515.35</ele><time>2026-05-28T22:01:47.000Z</time></trkpt>
        <trkpt lat="29.5763725" lon="103.2894982"><ele>1515.1</ele><time>2026-05-28T22:01:49.000Z</time></trkpt>
        <trkpt lat="29.5760624" lon="103.2892903"><ele>1514.63</ele><time>2026-05-28T22:01:51.000Z</time></trkpt>
        <trkpt lat="29.575851" lon="103.2891268"><ele>1514.15</ele><time>2026-05-28T22:01:53.000Z</time></trkpt>
        <trkpt lat="29.575688" lon="103.2890544"><ele>1513.87</ele><time>2026-05-28T22:01:55.000Z</time></trkpt>
        <trkpt lat="29.5755436" lon="103.2890537"><ele>1513.52</ele><time>2026-05-28T22:01:57.000Z</time></trkpt>
        <trkpt lat="29.5756351" lon="103.2890997"><ele>1510.31</ele><time>2026-05-28T22:02:03.000Z</time></trkpt>
        <trkpt lat="29.5765662" lon="103.2894579"><ele>1502.45</ele><time>2026-05-28T22:02:25.000Z</time></trkpt>
        <trkpt lat="29.5770114" lon="103.2897325"><ele>1497.47</ele><time>2026-05-28T22:02:27.000Z</time></trkpt>
        <trkpt lat="29.5770453" lon="103.2898568"><ele>1495.09</ele><time>2026-05-28T22:02:31.000Z</time></trkpt>
        <trkpt lat="29.5774915" lon="103.2898978"><ele>1493.49</ele><time>2026-05-28T22:02:33.000Z</time></trkpt>
        <trkpt lat="29.5777398" lon="103.2899113"><ele>1493.81</ele><time>2026-05-28T22:02:35.000Z</time></trkpt>
        <trkpt lat="29.5780976" lon="103.2898707"><ele>1494.98</ele><time>2026-05-28T22:02:37.000Z</time></trkpt>
        <trkpt lat="29.5782676" lon="103.2899207"><ele>1496.06</ele><time>2026-05-28T22:02:39.000Z</time></trkpt>
        <trkpt lat="29.5784483" lon="103.2899957"><ele>1497.51</ele><time>2026-05-28T22:02:41.000Z</time></trkpt>
        <trkpt lat="29.5786187" lon="103.2901354"><ele>1499.1</ele><time>2026-05-28T22:02:43.000Z</time></trkpt>
        <trkpt lat="29.5789361" lon="103.2905169"><ele>1500.24</ele><time>2026-05-28T22:02:45.000Z</time></trkpt>
        <trkpt lat="29.5790644" lon="103.2908557"><ele>1494.26</ele><time>2026-05-28T22:02:47.000Z</time></trkpt>
        <trkpt lat="29.5791196" lon="103.2912635"><ele>1487.59</ele><time>2026-05-28T22:02:49.000Z</time></trkpt>
        <trkpt lat="29.5791416" lon="103.2915606"><ele>1476.24</ele><time>2026-05-28T22:02:51.000Z</time></trkpt>
        <trkpt lat="29.5791347" lon="103.291338"><ele>1467.56</ele><time>2026-05-28T22:03:01.000Z</time></trkpt>
        <trkpt lat="29.5791561" lon="103.2911261"><ele>1458.1</ele><time>2026-05-28T22:03:03.000Z</time></trkpt>
        <trkpt lat="29.5791363" lon="103.2908992"><ele>1450.52</ele><time>2026-05-28T22:03:05.000Z</time></trkpt>
        <trkpt lat="29.5790779" lon="103.2906916"><ele>1445.84</ele><time>2026-05-28T22:03:07.000Z</time></trkpt>
        <trkpt lat="29.5790046" lon="103.2905378"><ele>1442.68</ele><time>2026-05-28T22:03:09.000Z</time></trkpt>
        <trkpt lat="29.5789172" lon="103.2903984"><ele>1440.22</ele><time>2026-05-28T22:03:11.000Z</time></trkpt>
        <trkpt lat="29.5788154" lon="103.2901816"><ele>1438.64</ele><time>2026-05-28T22:03:15.000Z</time></trkpt>
        <trkpt lat="29.578738" lon="103.2900131"><ele>1436.27</ele><time>2026-05-28T22:03:17.000Z</time></trkpt>
        <trkpt lat="29.5785874" lon="103.2898625"><ele>1434.15</ele><time>2026-05-28T22:03:19.000Z</time></trkpt>
        <trkpt lat="29.5783982" lon="103.2896961"><ele>1432.27</ele><time>2026-05-28T22:03:21.000Z</time></trkpt>
        <trkpt lat="29.5782416" lon="103.2895341"><ele>1430.2</ele><time>2026-05-28T22:03:23.000Z</time></trkpt>
        <trkpt lat="29.5781346" lon="103.2893838"><ele>1430.4</ele><time>2026-05-28T22:03:25.000Z</time></trkpt>
        <trkpt lat="29.5780631" lon="103.2892428"><ele>1430.46</ele><time>2026-05-28T22:03:27.000Z</time></trkpt>
        <trkpt lat="29.577983" lon="103.289113"><ele>1430.35</ele><time>2026-05-28T22:03:29.000Z</time></trkpt>
        <trkpt lat="29.5778361" lon="103.2889174"><ele>1430.4</ele><time>2026-05-28T22:03:31.000Z</time></trkpt>
        <trkpt lat="29.5777074" lon="103.288698"><ele>1428.59</ele><time>2026-05-28T22:03:33.000Z</time></trkpt>
        <trkpt lat="29.5774832" lon="103.288481"><ele>1427.41</ele><time>2026-05-28T22:03:35.000Z</time></trkpt>
        <trkpt lat="29.577382" lon="103.2882454"><ele>1422.64</ele><time>2026-05-28T22:03:37.000Z</time></trkpt>
        <trkpt lat="29.5773195" lon="103.2880889"><ele>1420.19</ele><time>2026-05-28T22:03:39.000Z</time></trkpt>
        <trkpt lat="29.5772167" lon="103.2879988"><ele>1418.9</ele><time>2026-05-28T22:03:41.000Z</time></trkpt>
        <trkpt lat="29.5771139" lon="103.2879163"><ele>1418.09</ele><time>2026-05-28T22:03:43.000Z</time></trkpt>
        <trkpt lat="29.5769408" lon="103.2878272"><ele>1417.49</ele><time>2026-05-28T22:03:45.000Z</time></trkpt>
        <trkpt lat="29.5767755" lon="103.287704"><ele>1417.43</ele><time>2026-05-28T22:03:47.000Z</time></trkpt>
        <trkpt lat="29.5766466" lon="103.2876389"><ele>1417.28</ele><time>2026-05-28T22:03:49.000Z</time></trkpt>
        <trkpt lat="29.5764525" lon="103.2875019"><ele>1417</ele><time>2026-05-28T22:03:51.000Z</time></trkpt>
        <trkpt lat="29.5763399" lon="103.2874008"><ele>1417.13</ele><time>2026-05-28T22:03:53.000Z</time></trkpt>
        <trkpt lat="29.5761594" lon="103.2872279"><ele>1417.28</ele><time>2026-05-28T22:03:55.000Z</time></trkpt>
        <trkpt lat="29.576024" lon="103.2869973"><ele>1416.88</ele><time>2026-05-28T22:03:57.000Z</time></trkpt>
        <trkpt lat="29.5758786" lon="103.2868111"><ele>1416.88</ele><time>2026-05-28T22:03:59.000Z</time></trkpt>
        <trkpt lat="29.5757221" lon="103.2866682"><ele>1416.93</ele><time>2026-05-28T22:04:01.000Z</time></trkpt>
        <trkpt lat="29.5755658" lon="103.2865497"><ele>1417.02</ele><time>2026-05-28T22:04:03.000Z</time></trkpt>
        <trkpt lat="29.5754392" lon="103.2864994"><ele>1416.83</ele><time>2026-05-28T22:04:05.000Z</time></trkpt>
        <trkpt lat="29.5752202" lon="103.286182"><ele>1416.3</ele><time>2026-05-28T22:04:07.000Z</time></trkpt>
        <trkpt lat="29.5751317" lon="103.2859603"><ele>1410.67</ele><time>2026-05-28T22:04:09.000Z</time></trkpt>
        <trkpt lat="29.5750128" lon="103.2857847"><ele>1407.18</ele><time>2026-05-28T22:04:11.000Z</time></trkpt>
        <trkpt lat="29.5748927" lon="103.2856287"><ele>1405.36</ele><time>2026-05-28T22:04:13.000Z</time></trkpt>
        <trkpt lat="29.5747735" lon="103.285476"><ele>1404.45</ele><time>2026-05-28T22:04:15.000Z</time></trkpt>
        <trkpt lat="29.5746179" lon="103.2853152"><ele>1403.78</ele><time>2026-05-28T22:04:17.000Z</time></trkpt>
        <trkpt lat="29.5744736" lon="103.2851231"><ele>1403.02</ele><time>2026-05-28T22:04:19.000Z</time></trkpt>
        <trkpt lat="29.57433" lon="103.284982"><ele>1401.75</ele><time>2026-05-28T22:04:21.000Z</time></trkpt>
        <trkpt lat="29.5742307" lon="103.2848728"><ele>1400.57</ele><time>2026-05-28T22:04:23.000Z</time></trkpt>
        <trkpt lat="29.5740766" lon="103.284719"><ele>1399.93</ele><time>2026-05-28T22:04:25.000Z</time></trkpt>
        <trkpt lat="29.5738976" lon="103.2845756"><ele>1400.22</ele><time>2026-05-28T22:04:27.000Z</time></trkpt>
        <trkpt lat="29.5737465" lon="103.2844195"><ele>1400.26</ele><time>2026-05-28T22:04:29.000Z</time></trkpt>
        <trkpt lat="29.5735578" lon="103.2843061"><ele>1399.65</ele><time>2026-05-28T22:04:31.000Z</time></trkpt>
        <trkpt lat="29.5732058" lon="103.2841784"><ele>1397.71</ele><time>2026-05-28T22:04:33.000Z</time></trkpt>
        <trkpt lat="29.5730041" lon="103.2841308"><ele>1388.96</ele><time>2026-05-28T22:04:35.000Z</time></trkpt>
        <trkpt lat="29.5729344" lon="103.2840452"><ele>1383.81</ele><time>2026-05-28T22:04:37.000Z</time></trkpt>
        <trkpt lat="29.5729844" lon="103.2839663"><ele>1380.66</ele><time>2026-05-28T22:04:39.000Z</time></trkpt>
        <trkpt lat="29.573182" lon="103.284037"><ele>1377.57</ele><time>2026-05-28T22:04:43.000Z</time></trkpt>
        <trkpt lat="29.5733704" lon="103.2841404"><ele>1375.81</ele><time>2026-05-28T22:04:45.000Z</time></trkpt>
        <trkpt lat="29.5735472" lon="103.2842493"><ele>1373.9</ele><time>2026-05-28T22:04:47.000Z</time></trkpt>
        <trkpt lat="29.5737317" lon="103.2843479"><ele>1372.6</ele><time>2026-05-28T22:04:49.000Z</time></trkpt>
        <trkpt lat="29.5738978" lon="103.2844274"><ele>1371.74</ele><time>2026-05-28T22:04:51.000Z</time></trkpt>
        <trkpt lat="29.5740762" lon="103.2845029"><ele>1370.91</ele><time>2026-05-28T22:04:53.000Z</time></trkpt>
        <trkpt lat="29.5742695" lon="103.2846072"><ele>1370.37</ele><time>2026-05-28T22:04:55.000Z</time></trkpt>
        <trkpt lat="29.5745605" lon="103.2847655"><ele>1370.18</ele><time>2026-05-28T22:04:57.000Z</time></trkpt>
        <trkpt lat="29.5747619" lon="103.2848596"><ele>1369.96</ele><time>2026-05-28T22:04:59.000Z</time></trkpt>
        <trkpt lat="29.574971" lon="103.2849412"><ele>1369.6</ele><time>2026-05-28T22:05:01.000Z</time></trkpt>
        <trkpt lat="29.5751993" lon="103.2849958"><ele>1369.4</ele><time>2026-05-28T22:05:03.000Z</time></trkpt>
        <trkpt lat="29.5754143" lon="103.2850753"><ele>1369.15</ele><time>2026-05-28T22:05:05.000Z</time></trkpt>
        <trkpt lat="29.5755638" lon="103.2851654"><ele>1369.19</ele><time>2026-05-28T22:05:07.000Z</time></trkpt>
        <trkpt lat="29.5755827" lon="103.2853078"><ele>1369.3</ele><time>2026-05-28T22:05:09.000Z</time></trkpt>
        <trkpt lat="29.5756507" lon="103.2854826"><ele>1369.34</ele><time>2026-05-28T22:05:11.000Z</time></trkpt>
        <trkpt lat="29.5757436" lon="103.2855786"><ele>1368.75</ele><time>2026-05-28T22:05:13.000Z</time></trkpt>
        <trkpt lat="29.5759184" lon="103.2856724"><ele>1368.07</ele><time>2026-05-28T22:05:15.000Z</time></trkpt>
        <trkpt lat="29.5761722" lon="103.2857756"><ele>1367.39</ele><time>2026-05-28T22:05:17.000Z</time></trkpt>
        <trkpt lat="29.5763817" lon="103.2858682"><ele>1366.97</ele><time>2026-05-28T22:05:19.000Z</time></trkpt>
        <trkpt lat="29.5766253" lon="103.2859643"><ele>1366.71</ele><time>2026-05-28T22:05:21.000Z</time></trkpt>
        <trkpt lat="29.5767886" lon="103.2860873"><ele>1366.69</ele><time>2026-05-28T22:05:23.000Z</time></trkpt>
        <trkpt lat="29.5768565" lon="103.2862465"><ele>1366.48</ele><time>2026-05-28T22:05:25.000Z</time></trkpt>
        <trkpt lat="29.5769172" lon="103.2864001"><ele>1366.17</ele><time>2026-05-28T22:05:27.000Z</time></trkpt>
        <trkpt lat="29.577012" lon="103.2865561"><ele>1365.28</ele><time>2026-05-28T22:05:29.000Z</time></trkpt>
        <trkpt lat="29.5771666" lon="103.2866976"><ele>1364.6</ele><time>2026-05-28T22:05:31.000Z</time></trkpt>
        <trkpt lat="29.5773306" lon="103.2867607"><ele>1363.98</ele><time>2026-05-28T22:05:33.000Z</time></trkpt>
        <trkpt lat="29.5775463" lon="103.2867741"><ele>1363.58</ele><time>2026-05-28T22:05:35.000Z</time></trkpt>
        <trkpt lat="29.577667" lon="103.2868519"><ele>1363.54</ele><time>2026-05-28T22:05:37.000Z</time></trkpt>
        <trkpt lat="29.5778485" lon="103.2868778"><ele>1363.17</ele><time>2026-05-28T22:05:39.000Z</time></trkpt>
        <trkpt lat="29.5780324" lon="103.2870984"><ele>1362.47</ele><time>2026-05-28T22:05:43.000Z</time></trkpt>
        <trkpt lat="29.5781301" lon="103.2873521"><ele>1357.94</ele><time>2026-05-28T22:05:45.000Z</time></trkpt>
        <trkpt lat="29.5783545" lon="103.2875949"><ele>1356.13</ele><time>2026-05-28T22:05:49.000Z</time></trkpt>
        <trkpt lat="29.5785812" lon="103.2877382"><ele>1354.23</ele><time>2026-05-28T22:05:51.000Z</time></trkpt>
        <trkpt lat="29.5787628" lon="103.2878576"><ele>1353.08</ele><time>2026-05-28T22:05:53.000Z</time></trkpt>
        <trkpt lat="29.5789232" lon="103.2879761"><ele>1352.23</ele><time>2026-05-28T22:05:55.000Z</time></trkpt>
        <trkpt lat="29.5790756" lon="103.2881082"><ele>1351.48</ele><time>2026-05-28T22:05:57.000Z</time></trkpt>
        <trkpt lat="29.5792144" lon="103.2882174"><ele>1351.32</ele><time>2026-05-28T22:05:59.000Z</time></trkpt>
        <trkpt lat="29.5793555" lon="103.2883065"><ele>1351.1</ele><time>2026-05-28T22:06:01.000Z</time></trkpt>
        <trkpt lat="29.5794939" lon="103.2883959"><ele>1351.02</ele><time>2026-05-28T22:06:03.000Z</time></trkpt>
        <trkpt lat="29.5796345" lon="103.288507"><ele>1350.99</ele><time>2026-05-28T22:06:05.000Z</time></trkpt>
        <trkpt lat="29.579791" lon="103.2885966"><ele>1351.18</ele><time>2026-05-28T22:06:07.000Z</time></trkpt>
        <trkpt lat="29.5799134" lon="103.2886632"><ele>1351.16</ele><time>2026-05-28T22:06:09.000Z</time></trkpt>
        <trkpt lat="29.5801275" lon="103.2888492"><ele>1351.25</ele><time>2026-05-28T22:06:15.000Z</time></trkpt>
        <trkpt lat="29.5803657" lon="103.2888794"><ele>1351.58</ele><time>2026-05-28T22:06:17.000Z</time></trkpt>
        <trkpt lat="29.5805907" lon="103.2888949"><ele>1351.92</ele><time>2026-05-28T22:06:19.000Z</time></trkpt>
        <trkpt lat="29.5807559" lon="103.2889266"><ele>1352.25</ele><time>2026-05-28T22:06:21.000Z</time></trkpt>
        <trkpt lat="29.580909" lon="103.2889927"><ele>1352.43</ele><time>2026-05-28T22:06:23.000Z</time></trkpt>
        <trkpt lat="29.5810222" lon="103.2890643"><ele>1352.44</ele><time>2026-05-28T22:06:25.000Z</time></trkpt>
        <trkpt lat="29.5811537" lon="103.2890997"><ele>1352.46</ele><time>2026-05-28T22:06:27.000Z</time></trkpt>
        <trkpt lat="29.5813427" lon="103.2891991"><ele>1352.42</ele><time>2026-05-28T22:06:29.000Z</time></trkpt>
        <trkpt lat="29.5815759" lon="103.2895993"><ele>1351.69</ele><time>2026-05-28T22:06:31.000Z</time></trkpt>
        <trkpt lat="29.5818683" lon="103.2897401"><ele>1349.3</ele><time>2026-05-28T22:06:33.000Z</time></trkpt>
        <trkpt lat="29.5821776" lon="103.2897074"><ele>1345.87</ele><time>2026-05-28T22:06:35.000Z</time></trkpt>
        <trkpt lat="29.5823824" lon="103.2897449"><ele>1341.11</ele><time>2026-05-28T22:06:37.000Z</time></trkpt>
        <trkpt lat="29.5824965" lon="103.2898311"><ele>1338.36</ele><time>2026-05-28T22:06:39.000Z</time></trkpt>
        <trkpt lat="29.582539" lon="103.2899406"><ele>1335.59</ele><time>2026-05-28T22:06:41.000Z</time></trkpt>
        <trkpt lat="29.5825813" lon="103.2900347"><ele>1330.2</ele><time>2026-05-28T22:06:45.000Z</time></trkpt>
        <trkpt lat="29.5826769" lon="103.2899797"><ele>1327.01</ele><time>2026-05-28T22:06:47.000Z</time></trkpt>
        <trkpt lat="29.5828615" lon="103.2898413"><ele>1324.38</ele><time>2026-05-28T22:06:49.000Z</time></trkpt>
        <trkpt lat="29.5829709" lon="103.2897068"><ele>1320.85</ele><time>2026-05-28T22:06:51.000Z</time></trkpt>
        <trkpt lat="29.5830526" lon="103.2895991"><ele>1318.47</ele><time>2026-05-28T22:06:53.000Z</time></trkpt>
        <trkpt lat="29.5831188" lon="103.2894911"><ele>1315</ele><time>2026-05-28T22:07:05.000Z</time></trkpt>
        <trkpt lat="29.5831432" lon="103.2893791"><ele>1306.4</ele><time>2026-05-28T22:07:07.000Z</time></trkpt>
        <trkpt lat="29.5831629" lon="103.2892177"><ele>1300.88</ele><time>2026-05-28T22:07:09.000Z</time></trkpt>
        <trkpt lat="29.5831856" lon="103.289036"><ele>1296.92</ele><time>2026-05-28T22:07:11.000Z</time></trkpt>
        <trkpt lat="29.5831943" lon="103.2888424"><ele>1295.1</ele><time>2026-05-28T22:07:13.000Z</time></trkpt>
        <trkpt lat="29.5832129" lon="103.2886524"><ele>1293.95</ele><time>2026-05-28T22:07:15.000Z</time></trkpt>
        <trkpt lat="29.5832764" lon="103.2885203"><ele>1293.84</ele><time>2026-05-28T22:07:17.000Z</time></trkpt>
        <trkpt lat="29.5834546" lon="103.2884957"><ele>1294.23</ele><time>2026-05-28T22:07:21.000Z</time></trkpt>
        <trkpt lat="29.5836533" lon="103.2885377"><ele>1294.83</ele><time>2026-05-28T22:07:23.000Z</time></trkpt>
        <trkpt lat="29.5838558" lon="103.2886407"><ele>1295.19</ele><time>2026-05-28T22:07:25.000Z</time></trkpt>
        <trkpt lat="29.5840163" lon="103.2888134"><ele>1295.04</ele><time>2026-05-28T22:07:27.000Z</time></trkpt>
        <trkpt lat="29.5841565" lon="103.2889815"><ele>1295.29</ele><time>2026-05-28T22:07:29.000Z</time></trkpt>
        <trkpt lat="29.5842871" lon="103.289151"><ele>1295.37</ele><time>2026-05-28T22:07:31.000Z</time></trkpt>
        <trkpt lat="29.5844238" lon="103.2892698"><ele>1295.2</ele><time>2026-05-28T22:07:33.000Z</time></trkpt>
        <trkpt lat="29.5845637" lon="103.2893347"><ele>1295.1</ele><time>2026-05-28T22:07:35.000Z</time></trkpt>
        <trkpt lat="29.5847116" lon="103.2893337"><ele>1294.88</ele><time>2026-05-28T22:07:37.000Z</time></trkpt>
        <trkpt lat="29.5849679" lon="103.2892578"><ele>1294.62</ele><time>2026-05-28T22:07:39.000Z</time></trkpt>
        <trkpt lat="29.5851692" lon="103.2892149"><ele>1294.66</ele><time>2026-05-28T22:07:41.000Z</time></trkpt>
        <trkpt lat="29.5853492" lon="103.289207"><ele>1294.81</ele><time>2026-05-28T22:07:43.000Z</time></trkpt>
        <trkpt lat="29.5855198" lon="103.2892003"><ele>1294.79</ele><time>2026-05-28T22:07:45.000Z</time></trkpt>
        <trkpt lat="29.585698" lon="103.2892602"><ele>1294.61</ele><time>2026-05-28T22:07:47.000Z</time></trkpt>
        <trkpt lat="29.5858856" lon="103.2893464"><ele>1294.12</ele><time>2026-05-28T22:07:49.000Z</time></trkpt>
        <trkpt lat="29.5860881" lon="103.2894403"><ele>1293.33</ele><time>2026-05-28T22:07:51.000Z</time></trkpt>
        <trkpt lat="29.5862732" lon="103.2895045"><ele>1292.31</ele><time>2026-05-28T22:07:53.000Z</time></trkpt>
        <trkpt lat="29.5864707" lon="103.2895617"><ele>1291.21</ele><time>2026-05-28T22:07:55.000Z</time></trkpt>
        <trkpt lat="29.5866308" lon="103.2896074"><ele>1290.35</ele><time>2026-05-28T22:07:57.000Z</time></trkpt>
        <trkpt lat="29.586816" lon="103.2896305"><ele>1290.03</ele><time>2026-05-28T22:07:59.000Z</time></trkpt>
        <trkpt lat="29.5869837" lon="103.2895996"><ele>1289.95</ele><time>2026-05-28T22:08:01.000Z</time></trkpt>
        <trkpt lat="29.5871228" lon="103.2895323"><ele>1289.76</ele><time>2026-05-28T22:08:03.000Z</time></trkpt>
        <trkpt lat="29.5872536" lon="103.2893599"><ele>1289.66</ele><time>2026-05-28T22:08:05.000Z</time></trkpt>
        <trkpt lat="29.5873787" lon="103.2891628"><ele>1288.24</ele><time>2026-05-28T22:08:07.000Z</time></trkpt>
        <trkpt lat="29.5874922" lon="103.2889737"><ele>1287.47</ele><time>2026-05-28T22:08:09.000Z</time></trkpt>
        <trkpt lat="29.5876037" lon="103.2887886"><ele>1286.28</ele><time>2026-05-28T22:08:11.000Z</time></trkpt>
        <trkpt lat="29.5877105" lon="103.288599"><ele>1284.01</ele><time>2026-05-28T22:08:13.000Z</time></trkpt>
        <trkpt lat="29.5878238" lon="103.2884108"><ele>1281.49</ele><time>2026-05-28T22:08:15.000Z</time></trkpt>
        <trkpt lat="29.5879265" lon="103.2882296"><ele>1278.97</ele><time>2026-05-28T22:08:17.000Z</time></trkpt>
        <trkpt lat="29.5880334" lon="103.2880622"><ele>1278.26</ele><time>2026-05-28T22:08:19.000Z</time></trkpt>
        <trkpt lat="29.5881471" lon="103.2878887"><ele>1278.8</ele><time>2026-05-28T22:08:21.000Z</time></trkpt>
        <trkpt lat="29.5882678" lon="103.2877389"><ele>1278.64</ele><time>2026-05-28T22:08:23.000Z</time></trkpt>
        <trkpt lat="29.5883935" lon="103.2875874"><ele>1278.46</ele><time>2026-05-28T22:08:25.000Z</time></trkpt>
        <trkpt lat="29.5885162" lon="103.2874435"><ele>1278.43</ele><time>2026-05-28T22:08:27.000Z</time></trkpt>
        <trkpt lat="29.5886332" lon="103.2873"><ele>1278.29</ele><time>2026-05-28T22:08:29.000Z</time></trkpt>
        <trkpt lat="29.5887697" lon="103.2871172"><ele>1278.18</ele><time>2026-05-28T22:08:31.000Z</time></trkpt>
        <trkpt lat="29.5889168" lon="103.2869318"><ele>1277.82</ele><time>2026-05-28T22:08:33.000Z</time></trkpt>
        <trkpt lat="29.589052" lon="103.2867364"><ele>1277.99</ele><time>2026-05-28T22:08:35.000Z</time></trkpt>
        <trkpt lat="29.5891804" lon="103.2866114"><ele>1277.71</ele><time>2026-05-28T22:08:37.000Z</time></trkpt>
        <trkpt lat="29.5892666" lon="103.286433"><ele>1277.84</ele><time>2026-05-28T22:08:39.000Z</time></trkpt>
        <trkpt lat="29.5893007" lon="103.2862684"><ele>1277.95</ele><time>2026-05-28T22:08:41.000Z</time></trkpt>
        <trkpt lat="29.5893295" lon="103.2860501"><ele>1277.79</ele><time>2026-05-28T22:08:43.000Z</time></trkpt>
        <trkpt lat="29.5893461" lon="103.2858474"><ele>1277.76</ele><time>2026-05-28T22:08:45.000Z</time></trkpt>
        <trkpt lat="29.5894315" lon="103.2857094"><ele>1277.96</ele><time>2026-05-28T22:08:49.000Z</time></trkpt>
        <trkpt lat="29.5895656" lon="103.2856286"><ele>1277.94</ele><time>2026-05-28T22:08:51.000Z</time></trkpt>
        <trkpt lat="29.5897635" lon="103.2856959"><ele>1277.26</ele><time>2026-05-28T22:08:53.000Z</time></trkpt>
        <trkpt lat="29.5899216" lon="103.2858315"><ele>1276.96</ele><time>2026-05-28T22:08:55.000Z</time></trkpt>
        <trkpt lat="29.5900498" lon="103.2859646"><ele>1276.74</ele><time>2026-05-28T22:08:57.000Z</time></trkpt>
        <trkpt lat="29.5902878" lon="103.28622"><ele>1276.79</ele><time>2026-05-28T22:08:59.000Z</time></trkpt>
        <trkpt lat="29.5904686" lon="103.2864084"><ele>1274.61</ele><time>2026-05-28T22:09:01.000Z</time></trkpt>
        <trkpt lat="29.5906201" lon="103.2865272"><ele>1273.41</ele><time>2026-05-28T22:09:03.000Z</time></trkpt>
        <trkpt lat="29.5907986" lon="103.286602"><ele>1272.63</ele><time>2026-05-28T22:09:05.000Z</time></trkpt>
        <trkpt lat="29.5910005" lon="103.2866882"><ele>1272.54</ele><time>2026-05-28T22:09:07.000Z</time></trkpt>
        <trkpt lat="29.5912081" lon="103.2867697"><ele>1273.65</ele><time>2026-05-28T22:09:09.000Z</time></trkpt>
        <trkpt lat="29.5913609" lon="103.2868491"><ele>1274.44</ele><time>2026-05-28T22:09:11.000Z</time></trkpt>
        <trkpt lat="29.5915406" lon="103.2869279"><ele>1274.81</ele><time>2026-05-28T22:09:13.000Z</time></trkpt>
        <trkpt lat="29.591695" lon="103.2870343"><ele>1275.04</ele><time>2026-05-28T22:09:15.000Z</time></trkpt>
        <trkpt lat="29.5918409" lon="103.2871307"><ele>1274.64</ele><time>2026-05-28T22:09:17.000Z</time></trkpt>
        <trkpt lat="29.59201" lon="103.2872285"><ele>1275.78</ele><time>2026-05-28T22:09:19.000Z</time></trkpt>
        <trkpt lat="29.5921825" lon="103.2873414"><ele>1276.92</ele><time>2026-05-28T22:09:21.000Z</time></trkpt>
        <trkpt lat="29.5923446" lon="103.2874564"><ele>1276.42</ele><time>2026-05-28T22:09:23.000Z</time></trkpt>
        <trkpt lat="29.5924841" lon="103.2875708"><ele>1276.15</ele><time>2026-05-28T22:09:25.000Z</time></trkpt>
        <trkpt lat="29.5926353" lon="103.28768"><ele>1275.37</ele><time>2026-05-28T22:09:27.000Z</time></trkpt>
        <trkpt lat="29.5927235" lon="103.2877878"><ele>1275.06</ele><time>2026-05-28T22:09:29.000Z</time></trkpt>
        <trkpt lat="29.5928206" lon="103.2879379"><ele>1275.14</ele><time>2026-05-28T22:09:31.000Z</time></trkpt>
        <trkpt lat="29.5929435" lon="103.2881108"><ele>1275.38</ele><time>2026-05-28T22:09:33.000Z</time></trkpt>
        <trkpt lat="29.5930145" lon="103.2883385"><ele>1274.15</ele><time>2026-05-28T22:09:35.000Z</time></trkpt>
        <trkpt lat="29.5930516" lon="103.2885551"><ele>1273.5</ele><time>2026-05-28T22:09:37.000Z</time></trkpt>
        <trkpt lat="29.5930681" lon="103.2887446"><ele>1272.81</ele><time>2026-05-28T22:09:39.000Z</time></trkpt>
        <trkpt lat="29.5930752" lon="103.2889312"><ele>1272.19</ele><time>2026-05-28T22:09:41.000Z</time></trkpt>
        <trkpt lat="29.5930907" lon="103.2891475"><ele>1272.18</ele><time>2026-05-28T22:09:43.000Z</time></trkpt>
        <trkpt lat="29.5930988" lon="103.2893707"><ele>1271.53</ele><time>2026-05-28T22:09:45.000Z</time></trkpt>
        <trkpt lat="29.593146" lon="103.2896081"><ele>1272.07</ele><time>2026-05-28T22:09:47.000Z</time></trkpt>
        <trkpt lat="29.5932266" lon="103.2898266"><ele>1271.57</ele><time>2026-05-28T22:09:49.000Z</time></trkpt>
        <trkpt lat="29.5933504" lon="103.2900263"><ele>1270.54</ele><time>2026-05-28T22:09:51.000Z</time></trkpt>
        <trkpt lat="29.5934794" lon="103.2902355"><ele>1270.43</ele><time>2026-05-28T22:09:53.000Z</time></trkpt>
        <trkpt lat="29.5936103" lon="103.2904182"><ele>1270.37</ele><time>2026-05-28T22:09:55.000Z</time></trkpt>
        <trkpt lat="29.5937257" lon="103.2905755"><ele>1270.93</ele><time>2026-05-28T22:09:57.000Z</time></trkpt>
        <trkpt lat="29.59385" lon="103.2907218"><ele>1271.87</ele><time>2026-05-28T22:09:59.000Z</time></trkpt>
        <trkpt lat="29.5940314" lon="103.2908662"><ele>1272.84</ele><time>2026-05-28T22:10:01.000Z</time></trkpt>
        <trkpt lat="29.5941836" lon="103.2910299"><ele>1271.63</ele><time>2026-05-28T22:10:03.000Z</time></trkpt>
        <trkpt lat="29.5943322" lon="103.2911761"><ele>1270.78</ele><time>2026-05-28T22:10:05.000Z</time></trkpt>
        <trkpt lat="29.5944791" lon="103.2913087"><ele>1271.49</ele><time>2026-05-28T22:10:07.000Z</time></trkpt>
        <trkpt lat="29.5946587" lon="103.2913913"><ele>1271.55</ele><time>2026-05-28T22:10:09.000Z</time></trkpt>
        <trkpt lat="29.5948508" lon="103.2914295"><ele>1272.26</ele><time>2026-05-28T22:10:11.000Z</time></trkpt>
        <trkpt lat="29.5950472" lon="103.2914388"><ele>1273.67</ele><time>2026-05-28T22:10:13.000Z</time></trkpt>
        <trkpt lat="29.5952451" lon="103.2914354"><ele>1273.99</ele><time>2026-05-28T22:10:15.000Z</time></trkpt>
        <trkpt lat="29.5954362" lon="103.2914398"><ele>1274.16</ele><time>2026-05-28T22:10:17.000Z</time></trkpt>
        <trkpt lat="29.5956312" lon="103.29145"><ele>1274.42</ele><time>2026-05-28T22:10:19.000Z</time></trkpt>
        <trkpt lat="29.5958202" lon="103.2914749"><ele>1274.29</ele><time>2026-05-28T22:10:21.000Z</time></trkpt>
        <trkpt lat="29.5960012" lon="103.2914986"><ele>1273.54</ele><time>2026-05-28T22:10:23.000Z</time></trkpt>
        <trkpt lat="29.5961805" lon="103.2915206"><ele>1272.87</ele><time>2026-05-28T22:10:25.000Z</time></trkpt>
        <trkpt lat="29.5963666" lon="103.2915707"><ele>1272.37</ele><time>2026-05-28T22:10:27.000Z</time></trkpt>
        <trkpt lat="29.5965217" lon="103.2916717"><ele>1273.08</ele><time>2026-05-28T22:10:29.000Z</time></trkpt>
        <trkpt lat="29.5966504" lon="103.2918432"><ele>1273.33</ele><time>2026-05-28T22:10:31.000Z</time></trkpt>
        <trkpt lat="29.5967511" lon="103.292039"><ele>1273.6</ele><time>2026-05-28T22:10:33.000Z</time></trkpt>
        <trkpt lat="29.5968564" lon="103.2922357"><ele>1272.99</ele><time>2026-05-28T22:10:35.000Z</time></trkpt>
        <trkpt lat="29.5969801" lon="103.2924613"><ele>1272.38</ele><time>2026-05-28T22:10:37.000Z</time></trkpt>
        <trkpt lat="29.5970965" lon="103.2926951"><ele>1272.69</ele><time>2026-05-28T22:10:39.000Z</time></trkpt>
        <trkpt lat="29.5972709" lon="103.2928663"><ele>1273.64</ele><time>2026-05-28T22:10:41.000Z</time></trkpt>
        <trkpt lat="29.5974432" lon="103.292984"><ele>1274.29</ele><time>2026-05-28T22:10:43.000Z</time></trkpt>
        <trkpt lat="29.5975864" lon="103.2930293"><ele>1273.68</ele><time>2026-05-28T22:10:45.000Z</time></trkpt>
        <trkpt lat="29.597789" lon="103.2930591"><ele>1272.12</ele><time>2026-05-28T22:10:47.000Z</time></trkpt>
        <trkpt lat="29.5979532" lon="103.2930951"><ele>1271.41</ele><time>2026-05-28T22:10:49.000Z</time></trkpt>
        <trkpt lat="29.5981158" lon="103.2931163"><ele>1271.47</ele><time>2026-05-28T22:10:51.000Z</time></trkpt>
        <trkpt lat="29.5983008" lon="103.2931326"><ele>1274.03</ele><time>2026-05-28T22:10:53.000Z</time></trkpt>
        <trkpt lat="29.5984981" lon="103.2931599"><ele>1276.99</ele><time>2026-05-28T22:10:55.000Z</time></trkpt>
        <trkpt lat="29.5986984" lon="103.2931761"><ele>1280.36</ele><time>2026-05-28T22:10:57.000Z</time></trkpt>
        <trkpt lat="29.598892" lon="103.2931692"><ele>1283.44</ele><time>2026-05-28T22:10:59.000Z</time></trkpt>
        <trkpt lat="29.5990566" lon="103.2930902"><ele>1285.54</ele><time>2026-05-28T22:11:01.000Z</time></trkpt>
        <trkpt lat="29.5991606" lon="103.2929816"><ele>1286.94</ele><time>2026-05-28T22:11:03.000Z</time></trkpt>
        <trkpt lat="29.5992559" lon="103.2928116"><ele>1287.74</ele><time>2026-05-28T22:11:05.000Z</time></trkpt>
        <trkpt lat="29.5992593" lon="103.2925729"><ele>1288.1</ele><time>2026-05-28T22:11:07.000Z</time></trkpt>
        <trkpt lat="29.5992448" lon="103.2923233"><ele>1288.67</ele><time>2026-05-28T22:11:09.000Z</time></trkpt>
        <trkpt lat="29.5992835" lon="103.2921418"><ele>1290.32</ele><time>2026-05-28T22:11:11.000Z</time></trkpt>
        <trkpt lat="29.5993694" lon="103.2919489"><ele>1292.08</ele><time>2026-05-28T22:11:13.000Z</time></trkpt>
        <trkpt lat="29.5995084" lon="103.2917758"><ele>1292.98</ele><time>2026-05-28T22:11:15.000Z</time></trkpt>
        <trkpt lat="29.5996601" lon="103.2916213"><ele>1294.7</ele><time>2026-05-28T22:11:17.000Z</time></trkpt>
        <trkpt lat="29.5998117" lon="103.2914852"><ele>1298.69</ele><time>2026-05-28T22:11:19.000Z</time></trkpt>
        <trkpt lat="29.599965" lon="103.2914147"><ele>1302.03</ele><time>2026-05-28T22:11:21.000Z</time></trkpt>
        <trkpt lat="29.6000912" lon="103.2914615"><ele>1304.83</ele><time>2026-05-28T22:11:23.000Z</time></trkpt>
        <trkpt lat="29.6001565" lon="103.2915688"><ele>1306.9</ele><time>2026-05-28T22:11:25.000Z</time></trkpt>
        <trkpt lat="29.6000636" lon="103.2917899"><ele>1308.16</ele><time>2026-05-28T22:11:29.000Z</time></trkpt>
        <trkpt lat="29.5999361" lon="103.2920046"><ele>1308.09</ele><time>2026-05-28T22:11:31.000Z</time></trkpt>
        <trkpt lat="29.5998353" lon="103.2922214"><ele>1308.35</ele><time>2026-05-28T22:11:33.000Z</time></trkpt>
        <trkpt lat="29.5997316" lon="103.2924976"><ele>1308.42</ele><time>2026-05-28T22:11:35.000Z</time></trkpt>
        <trkpt lat="29.5999235" lon="103.2928623"><ele>1309.08</ele><time>2026-05-28T22:11:44.000Z</time></trkpt>
        <trkpt lat="29.5999894" lon="103.2930536"><ele>1308.85</ele><time>2026-05-28T22:11:46.000Z</time></trkpt>
        <trkpt lat="29.5998668" lon="103.2932456"><ele>1308.08</ele><time>2026-05-28T22:11:48.000Z</time></trkpt>
        <trkpt lat="29.5997124" lon="103.293423"><ele>1310.18</ele><time>2026-05-28T22:11:50.000Z</time></trkpt>
        <trkpt lat="29.5995643" lon="103.293545"><ele>1313.25</ele><time>2026-05-28T22:11:52.000Z</time></trkpt>
        <trkpt lat="29.5994462" lon="103.2937369"><ele>1314.98</ele><time>2026-05-28T22:11:54.000Z</time></trkpt>
        <trkpt lat="29.5993453" lon="103.2939398"><ele>1316.85</ele><time>2026-05-28T22:11:56.000Z</time></trkpt>
        <trkpt lat="29.5992926" lon="103.2941674"><ele>1318.31</ele><time>2026-05-28T22:11:58.000Z</time></trkpt>
        <trkpt lat="29.5992873" lon="103.2944169"><ele>1318.96</ele><time>2026-05-28T22:12:00.000Z</time></trkpt>
        <trkpt lat="29.5992657" lon="103.2946155"><ele>1319</ele><time>2026-05-28T22:12:02.000Z</time></trkpt>
        <trkpt lat="29.599202" lon="103.2948905"><ele>1320.42</ele><time>2026-05-28T22:12:04.000Z</time></trkpt>
        <trkpt lat="29.5990972" lon="103.2950779"><ele>1321.83</ele><time>2026-05-28T22:12:06.000Z</time></trkpt>
        <trkpt lat="29.5989624" lon="103.2952457"><ele>1323.48</ele><time>2026-05-28T22:12:08.000Z</time></trkpt>
        <trkpt lat="29.5988133" lon="103.2954076"><ele>1324.44</ele><time>2026-05-28T22:12:10.000Z</time></trkpt>
        <trkpt lat="29.5986866" lon="103.2955777"><ele>1325.62</ele><time>2026-05-28T22:12:12.000Z</time></trkpt>
        <trkpt lat="29.5985854" lon="103.2957782"><ele>1327.36</ele><time>2026-05-28T22:12:14.000Z</time></trkpt>
        <trkpt lat="29.5985216" lon="103.2959916"><ele>1328.6</ele><time>2026-05-28T22:12:16.000Z</time></trkpt>
        <trkpt lat="29.5984829" lon="103.2961894"><ele>1329.91</ele><time>2026-05-28T22:12:18.000Z</time></trkpt>
        <trkpt lat="29.5984471" lon="103.2963998"><ele>1331.53</ele><time>2026-05-28T22:12:20.000Z</time></trkpt>
        <trkpt lat="29.5984097" lon="103.2966432"><ele>1333.04</ele><time>2026-05-28T22:12:22.000Z</time></trkpt>
        <trkpt lat="29.5983839" lon="103.296872"><ele>1334.03</ele><time>2026-05-28T22:12:24.000Z</time></trkpt>
        <trkpt lat="29.5983451" lon="103.2971022"><ele>1335.55</ele><time>2026-05-28T22:12:26.000Z</time></trkpt>
        <trkpt lat="29.5982975" lon="103.2973262"><ele>1336.93</ele><time>2026-05-28T22:12:28.000Z</time></trkpt>
        <trkpt lat="29.5982351" lon="103.2975858"><ele>1338.9</ele><time>2026-05-28T22:12:30.000Z</time></trkpt>
        <trkpt lat="29.598189" lon="103.2978819"><ele>1340.99</ele><time>2026-05-28T22:12:34.000Z</time></trkpt>
        <trkpt lat="29.5981585" lon="103.2981062"><ele>1343.7</ele><time>2026-05-28T22:12:36.000Z</time></trkpt>
        <trkpt lat="29.5981742" lon="103.29831"><ele>1346.61</ele><time>2026-05-28T22:12:38.000Z</time></trkpt>
        <trkpt lat="29.5982242" lon="103.2984769"><ele>1348.64</ele><time>2026-05-28T22:12:40.000Z</time></trkpt>
        <trkpt lat="29.5982815" lon="103.2986546"><ele>1350.31</ele><time>2026-05-28T22:12:42.000Z</time></trkpt>
        <trkpt lat="29.5983581" lon="103.2988861"><ele>1351.83</ele><time>2026-05-28T22:12:44.000Z</time></trkpt>
        <trkpt lat="29.5984809" lon="103.2990729"><ele>1353.34</ele><time>2026-05-28T22:12:46.000Z</time></trkpt>
        <trkpt lat="29.5986862" lon="103.2992395"><ele>1354.84</ele><time>2026-05-28T22:12:48.000Z</time></trkpt>
        <trkpt lat="29.5988705" lon="103.2993982"><ele>1356.63</ele><time>2026-05-28T22:12:50.000Z</time></trkpt>
        <trkpt lat="29.5989973" lon="103.2995437"><ele>1361.19</ele><time>2026-05-28T22:12:52.000Z</time></trkpt>
        <trkpt lat="29.5990895" lon="103.2997145"><ele>1363.63</ele><time>2026-05-28T22:12:54.000Z</time></trkpt>
        <trkpt lat="29.5991604" lon="103.2999159"><ele>1364.46</ele><time>2026-05-28T22:12:56.000Z</time></trkpt>
        <trkpt lat="29.5992366" lon="103.3001212"><ele>1364.77</ele><time>2026-05-28T22:12:58.000Z</time></trkpt>
        <trkpt lat="29.5993252" lon="103.3003263"><ele>1364.95</ele><time>2026-05-28T22:13:00.000Z</time></trkpt>
        <trkpt lat="29.5994299" lon="103.3005179"><ele>1365.14</ele><time>2026-05-28T22:13:02.000Z</time></trkpt>
        <trkpt lat="29.5995411" lon="103.3006862"><ele>1365.14</ele><time>2026-05-28T22:13:04.000Z</time></trkpt>
        <trkpt lat="29.5996609" lon="103.3008478"><ele>1365.24</ele><time>2026-05-28T22:13:06.000Z</time></trkpt>
        <trkpt lat="29.5998147" lon="103.3010093"><ele>1365.43</ele><time>2026-05-28T22:13:08.000Z</time></trkpt>
        <trkpt lat="29.5999595" lon="103.3010942"><ele>1365.52</ele><time>2026-05-28T22:13:10.000Z</time></trkpt>
        <trkpt lat="29.6000914" lon="103.3011242"><ele>1364.89</ele><time>2026-05-28T22:13:12.000Z</time></trkpt>
        <trkpt lat="29.6002097" lon="103.301103"><ele>1364.75</ele><time>2026-05-28T22:13:14.000Z</time></trkpt>
        <trkpt lat="29.6003381" lon="103.3010559"><ele>1364.71</ele><time>2026-05-28T22:13:16.000Z</time></trkpt>
        <trkpt lat="29.6005495" lon="103.300985"><ele>1365.06</ele><time>2026-05-28T22:13:18.000Z</time></trkpt>
        <trkpt lat="29.6007509" lon="103.3008683"><ele>1365.09</ele><time>2026-05-28T22:13:20.000Z</time></trkpt>
        <trkpt lat="29.6008968" lon="103.3007623"><ele>1365.03</ele><time>2026-05-28T22:13:22.000Z</time></trkpt>
        <trkpt lat="29.6010518" lon="103.3006412"><ele>1364.97</ele><time>2026-05-28T22:13:24.000Z</time></trkpt>
        <trkpt lat="29.6012126" lon="103.3005193"><ele>1364.87</ele><time>2026-05-28T22:13:26.000Z</time></trkpt>
        <trkpt lat="29.6013497" lon="103.3004259"><ele>1364.45</ele><time>2026-05-28T22:13:28.000Z</time></trkpt>
        <trkpt lat="29.6014956" lon="103.3003739"><ele>1364.14</ele><time>2026-05-28T22:13:30.000Z</time></trkpt>
        <trkpt lat="29.6016775" lon="103.3003183"><ele>1363.99</ele><time>2026-05-28T22:13:32.000Z</time></trkpt>
        <trkpt lat="29.6016724" lon="103.3004002"><ele>1363.43</ele><time>2026-05-28T22:13:36.000Z</time></trkpt>
        <trkpt lat="29.6015794" lon="103.3005795"><ele>1362.22</ele><time>2026-05-28T22:13:38.000Z</time></trkpt>
        <trkpt lat="29.6014953" lon="103.3007568"><ele>1360.62</ele><time>2026-05-28T22:13:40.000Z</time></trkpt>
        <trkpt lat="29.601412" lon="103.3008808"><ele>1357.83</ele><time>2026-05-28T22:13:42.000Z</time></trkpt>
        <trkpt lat="29.6011401" lon="103.3012598"><ele>1355.98</ele><time>2026-05-28T22:13:46.000Z</time></trkpt>
        <trkpt lat="29.6009861" lon="103.301577"><ele>1351.01</ele><time>2026-05-28T22:13:48.000Z</time></trkpt>
        <trkpt lat="29.6007311" lon="103.3019128"><ele>1349.64</ele><time>2026-05-28T22:13:53.000Z</time></trkpt>
        <trkpt lat="29.6004587" lon="103.3021306"><ele>1347.7</ele><time>2026-05-28T22:13:55.000Z</time></trkpt>
        <trkpt lat="29.6002197" lon="103.3022381"><ele>1344.51</ele><time>2026-05-28T22:13:57.000Z</time></trkpt>
        <trkpt lat="29.6000536" lon="103.3023193"><ele>1341.41</ele><time>2026-05-28T22:13:59.000Z</time></trkpt>
        <trkpt lat="29.5999207" lon="103.3022686"><ele>1339.14</ele><time>2026-05-28T22:14:03.000Z</time></trkpt>
        <trkpt lat="29.599823" lon="103.302126"><ele>1338.4</ele><time>2026-05-28T22:14:05.000Z</time></trkpt>
        <trkpt lat="29.5997421" lon="103.3019828"><ele>1337.48</ele><time>2026-05-28T22:14:07.000Z</time></trkpt>
        <trkpt lat="29.5995819" lon="103.301911"><ele>1336.93</ele><time>2026-05-28T22:14:11.000Z</time></trkpt>
        <trkpt lat="29.5994095" lon="103.3018712"><ele>1334.94</ele><time>2026-05-28T22:14:13.000Z</time></trkpt>
        <trkpt lat="29.599241" lon="103.301793"><ele>1334.05</ele><time>2026-05-28T22:14:15.000Z</time></trkpt>
        <trkpt lat="29.599052" lon="103.3017174"><ele>1332.07</ele><time>2026-05-28T22:14:17.000Z</time></trkpt>
        <trkpt lat="29.5988801" lon="103.3016357"><ele>1331.33</ele><time>2026-05-28T22:14:19.000Z</time></trkpt>
        <trkpt lat="29.5987262" lon="103.301551"><ele>1330.75</ele><time>2026-05-28T22:14:21.000Z</time></trkpt>
        <trkpt lat="29.5985679" lon="103.3014524"><ele>1330.09</ele><time>2026-05-28T22:14:23.000Z</time></trkpt>
        <trkpt lat="29.5984348" lon="103.3013451"><ele>1330.19</ele><time>2026-05-28T22:14:25.000Z</time></trkpt>
        <trkpt lat="29.59832" lon="103.3012445"><ele>1330.08</ele><time>2026-05-28T22:14:27.000Z</time></trkpt>
        <trkpt lat="29.5982144" lon="103.3010979"><ele>1329.84</ele><time>2026-05-28T22:14:31.000Z</time></trkpt>
        <trkpt lat="29.5980341" lon="103.3011784"><ele>1325.62</ele><time>2026-05-28T22:14:35.000Z</time></trkpt>
        <trkpt lat="29.5981508" lon="103.3014419"><ele>1321.23</ele><time>2026-05-28T22:14:37.000Z</time></trkpt>
        <trkpt lat="29.598333" lon="103.3016922"><ele>1319.12</ele><time>2026-05-28T22:14:39.000Z</time></trkpt>
        <trkpt lat="29.5985095" lon="103.301915"><ele>1318.24</ele><time>2026-05-28T22:14:41.000Z</time></trkpt>
        <trkpt lat="29.5986648" lon="103.3020982"><ele>1317.64</ele><time>2026-05-28T22:14:43.000Z</time></trkpt>
        <trkpt lat="29.5987998" lon="103.3022436"><ele>1317.56</ele><time>2026-05-28T22:14:45.000Z</time></trkpt>
        <trkpt lat="29.5989213" lon="103.3023049"><ele>1317.46</ele><time>2026-05-28T22:14:47.000Z</time></trkpt>
        <trkpt lat="29.5990702" lon="103.3024315"><ele>1315.57</ele><time>2026-05-28T22:14:49.000Z</time></trkpt>
        <trkpt lat="29.5992212" lon="103.3025333"><ele>1313.92</ele><time>2026-05-28T22:14:51.000Z</time></trkpt>
        <trkpt lat="29.5993676" lon="103.3025961"><ele>1312.72</ele><time>2026-05-28T22:14:53.000Z</time></trkpt>
        <trkpt lat="29.5994876" lon="103.3027174"><ele>1311.98</ele><time>2026-05-28T22:14:55.000Z</time></trkpt>
        <trkpt lat="29.5995938" lon="103.3028881"><ele>1311.72</ele><time>2026-05-28T22:14:57.000Z</time></trkpt>
        <trkpt lat="29.5996656" lon="103.303076"><ele>1311.55</ele><time>2026-05-28T22:14:59.000Z</time></trkpt>
        <trkpt lat="29.5997447" lon="103.3032764"><ele>1311.01</ele><time>2026-05-28T22:15:01.000Z</time></trkpt>
        <trkpt lat="29.5998301" lon="103.303482"><ele>1310.66</ele><time>2026-05-28T22:15:03.000Z</time></trkpt>
        <trkpt lat="29.5999944" lon="103.3037311"><ele>1310.45</ele><time>2026-05-28T22:15:13.000Z</time></trkpt>
        <trkpt lat="29.600188" lon="103.3038476"><ele>1310.06</ele><time>2026-05-28T22:15:15.000Z</time></trkpt>
        <trkpt lat="29.6004131" lon="103.3039082"><ele>1309.19</ele><time>2026-05-28T22:15:17.000Z</time></trkpt>
        <trkpt lat="29.6005724" lon="103.3040046"><ele>1308.59</ele><time>2026-05-28T22:15:19.000Z</time></trkpt>
        <trkpt lat="29.6008422" lon="103.3042036"><ele>1307.92</ele><time>2026-05-28T22:15:23.000Z</time></trkpt>
        <trkpt lat="29.6009418" lon="103.3043379"><ele>1302.73</ele><time>2026-05-28T22:15:25.000Z</time></trkpt>
        <trkpt lat="29.6008078" lon="103.3044318"><ele>1298.04</ele><time>2026-05-28T22:15:27.000Z</time></trkpt>
        <trkpt lat="29.6006615" lon="103.3044818"><ele>1295.37</ele><time>2026-05-28T22:15:29.000Z</time></trkpt>
        <trkpt lat="29.6004836" lon="103.3045417"><ele>1293.88</ele><time>2026-05-28T22:15:31.000Z</time></trkpt>
        <trkpt lat="29.6003534" lon="103.3045861"><ele>1292.78</ele><time>2026-05-28T22:15:33.000Z</time></trkpt>
        <trkpt lat="29.6001906" lon="103.3046393"><ele>1291.78</ele><time>2026-05-28T22:15:35.000Z</time></trkpt>
        <trkpt lat="29.6000732" lon="103.3046797"><ele>1291.61</ele><time>2026-05-28T22:15:37.000Z</time></trkpt>
        <trkpt lat="29.6000398" lon="103.3047664"><ele>1291.81</ele><time>2026-05-28T22:15:43.000Z</time></trkpt>
        <trkpt lat="29.5998825" lon="103.304809"><ele>1291.22</ele><time>2026-05-28T22:15:45.000Z</time></trkpt>
        <trkpt lat="29.5999305" lon="103.3048898"><ele>1290.16</ele><time>2026-05-28T22:15:47.000Z</time></trkpt>
        <trkpt lat="29.6001025" lon="103.3050173"><ele>1289.63</ele><time>2026-05-28T22:15:49.000Z</time></trkpt>
        <trkpt lat="29.6005743" lon="103.3053251"><ele>1288.05</ele><time>2026-05-28T22:15:58.000Z</time></trkpt>
        <trkpt lat="29.6007869" lon="103.3055278"><ele>1284.78</ele><time>2026-05-28T22:16:00.000Z</time></trkpt>
        <trkpt lat="29.6008403" lon="103.3056688"><ele>1282.59</ele><time>2026-05-28T22:16:04.000Z</time></trkpt>
        <trkpt lat="29.6009203" lon="103.3063019"><ele>1280.17</ele><time>2026-05-28T22:16:08.000Z</time></trkpt>
        <trkpt lat="29.6007759" lon="103.3065636"><ele>1267.88</ele><time>2026-05-28T22:16:12.000Z</time></trkpt>
        <trkpt lat="29.6004592" lon="103.3065728"><ele>1258.45</ele><time>2026-05-28T22:16:16.000Z</time></trkpt>
        <trkpt lat="29.6003094" lon="103.3064263"><ele>1250.5</ele><time>2026-05-28T22:16:18.000Z</time></trkpt>
        <trkpt lat="29.6002519" lon="103.3062676"><ele>1243.38</ele><time>2026-05-28T22:16:20.000Z</time></trkpt>
        <trkpt lat="29.6001861" lon="103.3061101"><ele>1239.48</ele><time>2026-05-28T22:16:24.000Z</time></trkpt>
        <trkpt lat="29.6000943" lon="103.3060385"><ele>1237.35</ele><time>2026-05-28T22:16:30.000Z</time></trkpt>
        <trkpt lat="29.5999791" lon="103.3059381"><ele>1235.94</ele><time>2026-05-28T22:16:34.000Z</time></trkpt>
        <trkpt lat="29.5998745" lon="103.3057696"><ele>1236.43</ele><time>2026-05-28T22:16:36.000Z</time></trkpt>
        <trkpt lat="29.5994605" lon="103.3053531"><ele>1237.06</ele><time>2026-05-28T22:16:38.000Z</time></trkpt>
        <trkpt lat="29.5992161" lon="103.3049394"><ele>1235.41</ele><time>2026-05-28T22:16:40.000Z</time></trkpt>
        <trkpt lat="29.59894" lon="103.3047212"><ele>1236.01</ele><time>2026-05-28T22:16:42.000Z</time></trkpt>
        <trkpt lat="29.5987762" lon="103.3046907"><ele>1236.86</ele><time>2026-05-28T22:16:44.000Z</time></trkpt>
        <trkpt lat="29.5986457" lon="103.3047298"><ele>1236.97</ele><time>2026-05-28T22:16:46.000Z</time></trkpt>
        <trkpt lat="29.5984982" lon="103.3047492"><ele>1236.72</ele><time>2026-05-28T22:16:48.000Z</time></trkpt>
        <trkpt lat="29.5983539" lon="103.3048785"><ele>1234.94</ele><time>2026-05-28T22:16:52.000Z</time></trkpt>
        <trkpt lat="29.5982579" lon="103.3050343"><ele>1232.74</ele><time>2026-05-28T22:16:54.000Z</time></trkpt>
        <trkpt lat="29.5982032" lon="103.3051692"><ele>1232.01</ele><time>2026-05-28T22:16:58.000Z</time></trkpt>
        <trkpt lat="29.5981569" lon="103.3053383"><ele>1231.64</ele><time>2026-05-28T22:17:02.000Z</time></trkpt>
        <trkpt lat="29.598071" lon="103.3056579"><ele>1231.72</ele><time>2026-05-28T22:17:04.000Z</time></trkpt>
        <trkpt lat="29.5980934" lon="103.305837"><ele>1229.42</ele><time>2026-05-28T22:17:06.000Z</time></trkpt>
        <trkpt lat="29.598248" lon="103.3059486"><ele>1228.14</ele><time>2026-05-28T22:17:08.000Z</time></trkpt>
        <trkpt lat="29.5984032" lon="103.3060185"><ele>1228.59</ele><time>2026-05-28T22:17:10.000Z</time></trkpt>
        <trkpt lat="29.5985189" lon="103.3059589"><ele>1229.69</ele><time>2026-05-28T22:17:12.000Z</time></trkpt>
        <trkpt lat="29.5986614" lon="103.3058684"><ele>1230.08</ele><time>2026-05-28T22:17:14.000Z</time></trkpt>
        <trkpt lat="29.5988188" lon="103.3058444"><ele>1226.97</ele><time>2026-05-28T22:17:18.000Z</time></trkpt>
        <trkpt lat="29.599007" lon="103.3059097"><ele>1223.54</ele><time>2026-05-28T22:17:20.000Z</time></trkpt>
        <trkpt lat="29.5991349" lon="103.3060415"><ele>1220.69</ele><time>2026-05-28T22:17:22.000Z</time></trkpt>
        <trkpt lat="29.5992411" lon="103.3061082"><ele>1220.23</ele><time>2026-05-28T22:17:24.000Z</time></trkpt>
        <trkpt lat="29.5992939" lon="103.3063269"><ele>1213.5</ele><time>2026-05-28T22:17:26.000Z</time></trkpt>
        <trkpt lat="29.599343" lon="103.3065628"><ele>1205.07</ele><time>2026-05-28T22:17:28.000Z</time></trkpt>
        <trkpt lat="29.5993964" lon="103.3067855"><ele>1198.9</ele><time>2026-05-28T22:17:30.000Z</time></trkpt>
        <trkpt lat="29.5994934" lon="103.3069721"><ele>1195.08</ele><time>2026-05-28T22:17:32.000Z</time></trkpt>
        <trkpt lat="29.5995765" lon="103.3071814"><ele>1192.71</ele><time>2026-05-28T22:17:34.000Z</time></trkpt>
        <trkpt lat="29.5996156" lon="103.3073744"><ele>1190.92</ele><time>2026-05-28T22:17:36.000Z</time></trkpt>
        <trkpt lat="29.5995345" lon="103.3075258"><ele>1189.56</ele><time>2026-05-28T22:17:38.000Z</time></trkpt>
        <trkpt lat="29.5994432" lon="103.3077061"><ele>1185.94</ele><time>2026-05-28T22:17:40.000Z</time></trkpt>
        <trkpt lat="29.5993605" lon="103.3079231"><ele>1183.33</ele><time>2026-05-28T22:17:42.000Z</time></trkpt>
        <trkpt lat="29.5993152" lon="103.3081528"><ele>1181.74</ele><time>2026-05-28T22:17:44.000Z</time></trkpt>
        <trkpt lat="29.5993161" lon="103.3083796"><ele>1180.34</ele><time>2026-05-28T22:17:46.000Z</time></trkpt>
        <trkpt lat="29.5993252" lon="103.3085995"><ele>1179.44</ele><time>2026-05-28T22:17:48.000Z</time></trkpt>
        <trkpt lat="29.599351" lon="103.3087788"><ele>1178.54</ele><time>2026-05-28T22:17:50.000Z</time></trkpt>
        <trkpt lat="29.5993249" lon="103.3089147"><ele>1176.85</ele><time>2026-05-28T22:17:52.000Z</time></trkpt>
        <trkpt lat="29.599326" lon="103.3090923"><ele>1175.64</ele><time>2026-05-28T22:17:54.000Z</time></trkpt>
        <trkpt lat="29.5993634" lon="103.3093181"><ele>1174.97</ele><time>2026-05-28T22:17:56.000Z</time></trkpt>
        <trkpt lat="29.5994226" lon="103.309505"><ele>1174.45</ele><time>2026-05-28T22:17:58.000Z</time></trkpt>
        <trkpt lat="29.5995065" lon="103.3098027"><ele>1174.32</ele><time>2026-05-28T22:18:00.000Z</time></trkpt>
        <trkpt lat="29.5995488" lon="103.3100338"><ele>1173.31</ele><time>2026-05-28T22:18:02.000Z</time></trkpt>
        <trkpt lat="29.5995547" lon="103.3103312"><ele>1172.38</ele><time>2026-05-28T22:18:04.000Z</time></trkpt>
        <trkpt lat="29.5995485" lon="103.3105483"><ele>1172.06</ele><time>2026-05-28T22:18:06.000Z</time></trkpt>
        <trkpt lat="29.599594" lon="103.3107253"><ele>1171.67</ele><time>2026-05-28T22:18:08.000Z</time></trkpt>
        <trkpt lat="29.599648" lon="103.3108967"><ele>1171.58</ele><time>2026-05-28T22:18:10.000Z</time></trkpt>
        <trkpt lat="29.5997115" lon="103.3110694"><ele>1171.47</ele><time>2026-05-28T22:18:12.000Z</time></trkpt>
        <trkpt lat="29.5997772" lon="103.311289"><ele>1171.33</ele><time>2026-05-28T22:18:14.000Z</time></trkpt>
        <trkpt lat="29.5998459" lon="103.3114472"><ele>1170.62</ele><time>2026-05-28T22:18:16.000Z</time></trkpt>
        <trkpt lat="29.5999144" lon="103.3116128"><ele>1170.44</ele><time>2026-05-28T22:18:18.000Z</time></trkpt>
        <trkpt lat="29.5999761" lon="103.3117191"><ele>1170.3</ele><time>2026-05-28T22:18:20.000Z</time></trkpt>
        <trkpt lat="29.6000705" lon="103.3118028"><ele>1170.13</ele><time>2026-05-28T22:18:22.000Z</time></trkpt>
        <trkpt lat="29.6001901" lon="103.311857"><ele>1169.71</ele><time>2026-05-28T22:18:24.000Z</time></trkpt>
        <trkpt lat="29.600348" lon="103.3119426"><ele>1169.82</ele><time>2026-05-28T22:18:26.000Z</time></trkpt>
        <trkpt lat="29.6005374" lon="103.3119445"><ele>1169.61</ele><time>2026-05-28T22:18:28.000Z</time></trkpt>
        <trkpt lat="29.6006436" lon="103.3118543"><ele>1169.62</ele><time>2026-05-28T22:18:30.000Z</time></trkpt>
        <trkpt lat="29.6007173" lon="103.3116078"><ele>1169.62</ele><time>2026-05-28T22:18:34.000Z</time></trkpt>
        <trkpt lat="29.6008059" lon="103.3112433"><ele>1169.83</ele><time>2026-05-28T22:18:36.000Z</time></trkpt>
        <trkpt lat="29.6008538" lon="103.3110095"><ele>1167.44</ele><time>2026-05-28T22:18:38.000Z</time></trkpt>
        <trkpt lat="29.6009033" lon="103.3107852"><ele>1166.32</ele><time>2026-05-28T22:18:40.000Z</time></trkpt>
        <trkpt lat="29.6009523" lon="103.3105701"><ele>1165.16</ele><time>2026-05-28T22:18:42.000Z</time></trkpt>
        <trkpt lat="29.6010275" lon="103.3103661"><ele>1162.25</ele><time>2026-05-28T22:18:44.000Z</time></trkpt>
        <trkpt lat="29.6011074" lon="103.3101917"><ele>1160.01</ele><time>2026-05-28T22:18:46.000Z</time></trkpt>
        <trkpt lat="29.6011965" lon="103.3100236"><ele>1158.19</ele><time>2026-05-28T22:18:48.000Z</time></trkpt>
        <trkpt lat="29.6012876" lon="103.3098517"><ele>1156.52</ele><time>2026-05-28T22:18:50.000Z</time></trkpt>
        <trkpt lat="29.6014077" lon="103.3096196"><ele>1155.68</ele><time>2026-05-28T22:18:52.000Z</time></trkpt>
        <trkpt lat="29.601493" lon="103.3094367"><ele>1155.57</ele><time>2026-05-28T22:18:54.000Z</time></trkpt>
        <trkpt lat="29.6015946" lon="103.3092664"><ele>1155.42</ele><time>2026-05-28T22:18:56.000Z</time></trkpt>
        <trkpt lat="29.6017082" lon="103.309016"><ele>1155.13</ele><time>2026-05-28T22:18:58.000Z</time></trkpt>
        <trkpt lat="29.6018332" lon="103.3087378"><ele>1154.35</ele><time>2026-05-28T22:19:00.000Z</time></trkpt>
        <trkpt lat="29.6019466" lon="103.3085886"><ele>1153.43</ele><time>2026-05-28T22:19:02.000Z</time></trkpt>
        <trkpt lat="29.6020783" lon="103.3084293"><ele>1152.73</ele><time>2026-05-28T22:19:04.000Z</time></trkpt>
        <trkpt lat="29.6021514" lon="103.308232"><ele>1151.7</ele><time>2026-05-28T22:19:06.000Z</time></trkpt>
        <trkpt lat="29.6021954" lon="103.3080361"><ele>1151.05</ele><time>2026-05-28T22:19:08.000Z</time></trkpt>
        <trkpt lat="29.6022322" lon="103.3078283"><ele>1150.87</ele><time>2026-05-28T22:19:10.000Z</time></trkpt>
        <trkpt lat="29.6022918" lon="103.3076856"><ele>1150.51</ele><time>2026-05-28T22:19:12.000Z</time></trkpt>
        <trkpt lat="29.6023665" lon="103.3076041"><ele>1150.27</ele><time>2026-05-28T22:19:14.000Z</time></trkpt>
        <trkpt lat="29.602455" lon="103.307637"><ele>1149.26</ele><time>2026-05-28T22:19:16.000Z</time></trkpt>
        <trkpt lat="29.6024763" lon="103.3077925"><ele>1147.9</ele><time>2026-05-28T22:19:18.000Z</time></trkpt>
        <trkpt lat="29.6024759" lon="103.3080469"><ele>1146.32</ele><time>2026-05-28T22:19:22.000Z</time></trkpt>
        <trkpt lat="29.6024915" lon="103.3083251"><ele>1138.68</ele><time>2026-05-28T22:19:24.000Z</time></trkpt>
        <trkpt lat="29.6025413" lon="103.3085316"><ele>1132.48</ele><time>2026-05-28T22:19:26.000Z</time></trkpt>
        <trkpt lat="29.6025099" lon="103.3087404"><ele>1128.81</ele><time>2026-05-28T22:19:30.000Z</time></trkpt>
        <trkpt lat="29.6023279" lon="103.3090832"><ele>1124.34</ele><time>2026-05-28T22:19:32.000Z</time></trkpt>
        <trkpt lat="29.6021969" lon="103.3093695"><ele>1119.35</ele><time>2026-05-28T22:19:34.000Z</time></trkpt>
        <trkpt lat="29.6020796" lon="103.3095954"><ele>1116.28</ele><time>2026-05-28T22:19:36.000Z</time></trkpt>
        <trkpt lat="29.6019918" lon="103.3098187"><ele>1113.75</ele><time>2026-05-28T22:19:38.000Z</time></trkpt>
        <trkpt lat="29.6019281" lon="103.3099979"><ele>1112.45</ele><time>2026-05-28T22:19:40.000Z</time></trkpt>
        <trkpt lat="29.6018559" lon="103.3101321"><ele>1112.19</ele><time>2026-05-28T22:19:42.000Z</time></trkpt>
        <trkpt lat="29.601775" lon="103.3102897"><ele>1111.07</ele><time>2026-05-28T22:19:44.000Z</time></trkpt>
        <trkpt lat="29.6016696" lon="103.3104484"><ele>1110.62</ele><time>2026-05-28T22:19:46.000Z</time></trkpt>
        <trkpt lat="29.6016374" lon="103.3106362"><ele>1110.62</ele><time>2026-05-28T22:19:48.000Z</time></trkpt>
        <trkpt lat="29.6016438" lon="103.3108306"><ele>1110.51</ele><time>2026-05-28T22:19:50.000Z</time></trkpt>
        <trkpt lat="29.6016605" lon="103.3110321"><ele>1109.99</ele><time>2026-05-28T22:19:52.000Z</time></trkpt>
        <trkpt lat="29.6017187" lon="103.3113017"><ele>1109.6</ele><time>2026-05-28T22:19:54.000Z</time></trkpt>
        <trkpt lat="29.6016884" lon="103.3115129"><ele>1108.95</ele><time>2026-05-28T22:19:56.000Z</time></trkpt>
        <trkpt lat="29.6016779" lon="103.3117158"><ele>1107.44</ele><time>2026-05-28T22:19:58.000Z</time></trkpt>
        <trkpt lat="29.6016972" lon="103.3119006"><ele>1106.35</ele><time>2026-05-28T22:20:00.000Z</time></trkpt>
        <trkpt lat="29.6016861" lon="103.3120741"><ele>1105.14</ele><time>2026-05-28T22:20:02.000Z</time></trkpt>
        <trkpt lat="29.6016217" lon="103.3122435"><ele>1104.2</ele><time>2026-05-28T22:20:04.000Z</time></trkpt>
        <trkpt lat="29.6015297" lon="103.3123848"><ele>1102.09</ele><time>2026-05-28T22:20:06.000Z</time></trkpt>
        <trkpt lat="29.6014416" lon="103.312578"><ele>1101.25</ele><time>2026-05-28T22:20:08.000Z</time></trkpt>
        <trkpt lat="29.6013581" lon="103.3127761"><ele>1099.69</ele><time>2026-05-28T22:20:10.000Z</time></trkpt>
        <trkpt lat="29.6012908" lon="103.3129786"><ele>1098.89</ele><time>2026-05-28T22:20:12.000Z</time></trkpt>
        <trkpt lat="29.6012293" lon="103.313167"><ele>1098.69</ele><time>2026-05-28T22:20:14.000Z</time></trkpt>
        <trkpt lat="29.6011801" lon="103.3133642"><ele>1098.48</ele><time>2026-05-28T22:20:16.000Z</time></trkpt>
        <trkpt lat="29.6011556" lon="103.3135467"><ele>1098.25</ele><time>2026-05-28T22:20:18.000Z</time></trkpt>
        <trkpt lat="29.6011499" lon="103.3137319"><ele>1097.9</ele><time>2026-05-28T22:20:20.000Z</time></trkpt>
        <trkpt lat="29.6011557" lon="103.3139661"><ele>1097.68</ele><time>2026-05-28T22:20:22.000Z</time></trkpt>
        <trkpt lat="29.6011708" lon="103.3141719"><ele>1097.21</ele><time>2026-05-28T22:20:24.000Z</time></trkpt>
        <trkpt lat="29.6011801" lon="103.3143592"><ele>1097.02</ele><time>2026-05-28T22:20:26.000Z</time></trkpt>
        <trkpt lat="29.6011764" lon="103.3146057"><ele>1096.94</ele><time>2026-05-28T22:20:28.000Z</time></trkpt>
        <trkpt lat="29.6012119" lon="103.314856"><ele>1096.76</ele><time>2026-05-28T22:20:30.000Z</time></trkpt>
        <trkpt lat="29.6012458" lon="103.3150659"><ele>1096.47</ele><time>2026-05-28T22:20:32.000Z</time></trkpt>
        <trkpt lat="29.6012365" lon="103.3152484"><ele>1095.38</ele><time>2026-05-28T22:20:34.000Z</time></trkpt>
        <trkpt lat="29.6011588" lon="103.3154334"><ele>1094.29</ele><time>2026-05-28T22:20:36.000Z</time></trkpt>
        <trkpt lat="29.60098" lon="103.3155928"><ele>1093.54</ele><time>2026-05-28T22:20:38.000Z</time></trkpt>
        <trkpt lat="29.6008484" lon="103.315844"><ele>1090.43</ele><time>2026-05-28T22:20:40.000Z</time></trkpt>
        <trkpt lat="29.6007137" lon="103.3160185"><ele>1083.65</ele><time>2026-05-28T22:20:42.000Z</time></trkpt>
        <trkpt lat="29.6006041" lon="103.3161823"><ele>1078.79</ele><time>2026-05-28T22:20:44.000Z</time></trkpt>
        <trkpt lat="29.6005495" lon="103.3163671"><ele>1075.98</ele><time>2026-05-28T22:20:46.000Z</time></trkpt>
        <trkpt lat="29.6005682" lon="103.3165247"><ele>1073.65</ele><time>2026-05-28T22:20:48.000Z</time></trkpt>
        <trkpt lat="29.6011517" lon="103.3171718"><ele>1072.37</ele><time>2026-05-28T22:20:59.000Z</time></trkpt>
        <trkpt lat="29.6015049" lon="103.3174561"><ele>1070.5</ele><time>2026-05-28T22:21:01.000Z</time></trkpt>
        <trkpt lat="29.6016925" lon="103.3175427"><ele>1069.1</ele><time>2026-05-28T22:21:03.000Z</time></trkpt>
        <trkpt lat="29.6018931" lon="103.3175596"><ele>1067.7</ele><time>2026-05-28T22:21:05.000Z</time></trkpt>
        <trkpt lat="29.60204" lon="103.3176366"><ele>1067.53</ele><time>2026-05-28T22:21:07.000Z</time></trkpt>
        <trkpt lat="29.602106" lon="103.3177721"><ele>1066.48</ele><time>2026-05-28T22:21:09.000Z</time></trkpt>
        <trkpt lat="29.6021273" lon="103.317927"><ele>1066.02</ele><time>2026-05-28T22:21:11.000Z</time></trkpt>
        <trkpt lat="29.6021845" lon="103.3180359"><ele>1065.86</ele><time>2026-05-28T22:21:13.000Z</time></trkpt>
        <trkpt lat="29.6022758" lon="103.3181036"><ele>1065.68</ele><time>2026-05-28T22:21:15.000Z</time></trkpt>
        <trkpt lat="29.6023225" lon="103.3183056"><ele>1065.23</ele><time>2026-05-28T22:21:17.000Z</time></trkpt>
        <trkpt lat="29.6023123" lon="103.3185566"><ele>1065.39</ele><time>2026-05-28T22:21:19.000Z</time></trkpt>
        <trkpt lat="29.60234" lon="103.3188349"><ele>1065.2</ele><time>2026-05-28T22:21:23.000Z</time></trkpt>
        <trkpt lat="29.6023006" lon="103.3190595"><ele>1060.38</ele><time>2026-05-28T22:21:25.000Z</time></trkpt>
        <trkpt lat="29.6021957" lon="103.3192406"><ele>1057.55</ele><time>2026-05-28T22:21:27.000Z</time></trkpt>
        <trkpt lat="29.6020711" lon="103.3194432"><ele>1055.75</ele><time>2026-05-28T22:21:29.000Z</time></trkpt>
        <trkpt lat="29.6019686" lon="103.3196398"><ele>1054.67</ele><time>2026-05-28T22:21:31.000Z</time></trkpt>
        <trkpt lat="29.601822" lon="103.3198394"><ele>1052.88</ele><time>2026-05-28T22:21:33.000Z</time></trkpt>
        <trkpt lat="29.6016805" lon="103.3200632"><ele>1051.99</ele><time>2026-05-28T22:21:35.000Z</time></trkpt>
        <trkpt lat="29.6015933" lon="103.320211"><ele>1049.81</ele><time>2026-05-28T22:21:37.000Z</time></trkpt>
        <trkpt lat="29.6014992" lon="103.3203669"><ele>1047.53</ele><time>2026-05-28T22:21:39.000Z</time></trkpt>
        <trkpt lat="29.6013718" lon="103.3205277"><ele>1045.64</ele><time>2026-05-28T22:21:41.000Z</time></trkpt>
        <trkpt lat="29.6012594" lon="103.3207217"><ele>1043.67</ele><time>2026-05-28T22:21:43.000Z</time></trkpt>
        <trkpt lat="29.601155" lon="103.3209027"><ele>1041.37</ele><time>2026-05-28T22:21:45.000Z</time></trkpt>
        <trkpt lat="29.6010346" lon="103.3210917"><ele>1040.08</ele><time>2026-05-28T22:21:47.000Z</time></trkpt>
        <trkpt lat="29.6009291" lon="103.3212656"><ele>1039.61</ele><time>2026-05-28T22:21:49.000Z</time></trkpt>
        <trkpt lat="29.600841" lon="103.3214331"><ele>1039.2</ele><time>2026-05-28T22:21:51.000Z</time></trkpt>
        <trkpt lat="29.6007718" lon="103.3216001"><ele>1039.23</ele><time>2026-05-28T22:21:53.000Z</time></trkpt>
        <trkpt lat="29.6007057" lon="103.3217626"><ele>1038.35</ele><time>2026-05-28T22:21:55.000Z</time></trkpt>
        <trkpt lat="29.6006453" lon="103.3219002"><ele>1037.44</ele><time>2026-05-28T22:21:57.000Z</time></trkpt>
        <trkpt lat="29.6005649" lon="103.3220557"><ele>1036.52</ele><time>2026-05-28T22:21:59.000Z</time></trkpt>
        <trkpt lat="29.6004864" lon="103.3222324"><ele>1035.8</ele><time>2026-05-28T22:22:01.000Z</time></trkpt>
        <trkpt lat="29.6004301" lon="103.3224205"><ele>1035.42</ele><time>2026-05-28T22:22:03.000Z</time></trkpt>
        <trkpt lat="29.6003972" lon="103.3226306"><ele>1034.99</ele><time>2026-05-28T22:22:05.000Z</time></trkpt>
        <trkpt lat="29.6004257" lon="103.3229715"><ele>1034.6</ele><time>2026-05-28T22:22:09.000Z</time></trkpt>
        <trkpt lat="29.6004615" lon="103.3232817"><ele>1034.3</ele><time>2026-05-28T22:22:11.000Z</time></trkpt>
        <trkpt lat="29.6004499" lon="103.323503"><ele>1034.23</ele><time>2026-05-28T22:22:13.000Z</time></trkpt>
        <trkpt lat="29.6003959" lon="103.3237101"><ele>1033.82</ele><time>2026-05-28T22:22:15.000Z</time></trkpt>
        <trkpt lat="29.6003241" lon="103.323919"><ele>1033.27</ele><time>2026-05-28T22:22:17.000Z</time></trkpt>
        <trkpt lat="29.6002459" lon="103.3241289"><ele>1032.87</ele><time>2026-05-28T22:22:19.000Z</time></trkpt>
        <trkpt lat="29.600199" lon="103.3243291"><ele>1032.18</ele><time>2026-05-28T22:22:21.000Z</time></trkpt>
        <trkpt lat="29.6001402" lon="103.3245131"><ele>1031.46</ele><time>2026-05-28T22:22:23.000Z</time></trkpt>
        <trkpt lat="29.6001173" lon="103.3246712"><ele>1030.68</ele><time>2026-05-28T22:22:25.000Z</time></trkpt>
        <trkpt lat="29.6001339" lon="103.3248337"><ele>1029.99</ele><time>2026-05-28T22:22:27.000Z</time></trkpt>
        <trkpt lat="29.6001531" lon="103.3249914"><ele>1029.02</ele><time>2026-05-28T22:22:29.000Z</time></trkpt>
        <trkpt lat="29.6001702" lon="103.3251222"><ele>1028.39</ele><time>2026-05-28T22:22:31.000Z</time></trkpt>
        <trkpt lat="29.6002157" lon="103.325394"><ele>1028.19</ele><time>2026-05-28T22:22:33.000Z</time></trkpt>
        <trkpt lat="29.6003293" lon="103.3257054"><ele>1027.76</ele><time>2026-05-28T22:22:35.000Z</time></trkpt>
        <trkpt lat="29.6004249" lon="103.3259606"><ele>1027.79</ele><time>2026-05-28T22:22:37.000Z</time></trkpt>
        <trkpt lat="29.600441" lon="103.3261618"><ele>1027.76</ele><time>2026-05-28T22:22:39.000Z</time></trkpt>
        <trkpt lat="29.6004164" lon="103.3263127"><ele>1027.3</ele><time>2026-05-28T22:22:41.000Z</time></trkpt>
        <trkpt lat="29.6004027" lon="103.326452"><ele>1026.99</ele><time>2026-05-28T22:22:43.000Z</time></trkpt>
        <trkpt lat="29.6004219" lon="103.3266899"><ele>1026.64</ele><time>2026-05-28T22:22:45.000Z</time></trkpt>
        <trkpt lat="29.6004723" lon="103.32702"><ele>1026.02</ele><time>2026-05-28T22:22:47.000Z</time></trkpt>
        <trkpt lat="29.6005288" lon="103.3272993"><ele>1024.86</ele><time>2026-05-28T22:22:49.000Z</time></trkpt>
        <trkpt lat="29.6005441" lon="103.327539"><ele>1024.02</ele><time>2026-05-28T22:22:51.000Z</time></trkpt>
        <trkpt lat="29.6005859" lon="103.3277742"><ele>1023.48</ele><time>2026-05-28T22:22:53.000Z</time></trkpt>
        <trkpt lat="29.600612" lon="103.3279724"><ele>1023.03</ele><time>2026-05-28T22:22:55.000Z</time></trkpt>
        <trkpt lat="29.6006723" lon="103.328197"><ele>1022.57</ele><time>2026-05-28T22:22:57.000Z</time></trkpt>
        <trkpt lat="29.6007642" lon="103.3285241"><ele>1022.09</ele><time>2026-05-28T22:22:59.000Z</time></trkpt>
        <trkpt lat="29.6007816" lon="103.3287408"><ele>1021.77</ele><time>2026-05-28T22:23:01.000Z</time></trkpt>
        <trkpt lat="29.6008335" lon="103.3289863"><ele>1021.4</ele><time>2026-05-28T22:23:03.000Z</time></trkpt>
        <trkpt lat="29.6008558" lon="103.3291514"><ele>1021.22</ele><time>2026-05-28T22:23:05.000Z</time></trkpt>
        <trkpt lat="29.6008589" lon="103.3292999"><ele>1018.9</ele><time>2026-05-28T22:23:07.000Z</time></trkpt>
        <trkpt lat="29.6008535" lon="103.3294931"><ele>1016.35</ele><time>2026-05-28T22:23:09.000Z</time></trkpt>
        <trkpt lat="29.6008208" lon="103.3297255"><ele>1013.69</ele><time>2026-05-28T22:23:11.000Z</time></trkpt>
        <trkpt lat="29.6008386" lon="103.3299609"><ele>1011.01</ele><time>2026-05-28T22:23:13.000Z</time></trkpt>
        <trkpt lat="29.6009056" lon="103.3301664"><ele>1008.75</ele><time>2026-05-28T22:23:15.000Z</time></trkpt>
        <trkpt lat="29.6009893" lon="103.3303387"><ele>1006.96</ele><time>2026-05-28T22:23:17.000Z</time></trkpt>
        <trkpt lat="29.6011219" lon="103.330553"><ele>1004.93</ele><time>2026-05-28T22:23:19.000Z</time></trkpt>
        <trkpt lat="29.6012298" lon="103.3307492"><ele>1001.84</ele><time>2026-05-28T22:23:21.000Z</time></trkpt>
        <trkpt lat="29.601337" lon="103.3309219"><ele>999.21</ele><time>2026-05-28T22:23:23.000Z</time></trkpt>
        <trkpt lat="29.6014303" lon="103.3311033"><ele>998.24</ele><time>2026-05-28T22:23:25.000Z</time></trkpt>
        <trkpt lat="29.601531" lon="103.3313009"><ele>996.45</ele><time>2026-05-28T22:23:27.000Z</time></trkpt>
        <trkpt lat="29.6016212" lon="103.3314855"><ele>993.19</ele><time>2026-05-28T22:23:29.000Z</time></trkpt>
        <trkpt lat="29.6017157" lon="103.3316656"><ele>990.98</ele><time>2026-05-28T22:23:31.000Z</time></trkpt>
        <trkpt lat="29.6018103" lon="103.3318438"><ele>989.23</ele><time>2026-05-28T22:23:33.000Z</time></trkpt>
        <trkpt lat="29.601906" lon="103.3320207"><ele>986.93</ele><time>2026-05-28T22:23:35.000Z</time></trkpt>
        <trkpt lat="29.6019877" lon="103.3322061"><ele>985.53</ele><time>2026-05-28T22:23:37.000Z</time></trkpt>
        <trkpt lat="29.6020699" lon="103.3323849"><ele>984.49</ele><time>2026-05-28T22:23:39.000Z</time></trkpt>
        <trkpt lat="29.602147" lon="103.3325619"><ele>983.49</ele><time>2026-05-28T22:23:41.000Z</time></trkpt>
        <trkpt lat="29.6022256" lon="103.3327264"><ele>983.14</ele><time>2026-05-28T22:23:43.000Z</time></trkpt>
        <trkpt lat="29.602324" lon="103.332911"><ele>982.66</ele><time>2026-05-28T22:23:45.000Z</time></trkpt>
        <trkpt lat="29.6024163" lon="103.333074"><ele>982.7</ele><time>2026-05-28T22:23:47.000Z</time></trkpt>
        <trkpt lat="29.6025184" lon="103.3332501"><ele>982.87</ele><time>2026-05-28T22:23:49.000Z</time></trkpt>
        <trkpt lat="29.6026295" lon="103.3334062"><ele>982.82</ele><time>2026-05-28T22:23:51.000Z</time></trkpt>
        <trkpt lat="29.6027346" lon="103.3335371"><ele>982.46</ele><time>2026-05-28T22:23:53.000Z</time></trkpt>
        <trkpt lat="29.6028508" lon="103.3336777"><ele>982.02</ele><time>2026-05-28T22:23:55.000Z</time></trkpt>
        <trkpt lat="29.60301" lon="103.3338318"><ele>981.86</ele><time>2026-05-28T22:23:57.000Z</time></trkpt>
        <trkpt lat="29.6030792" lon="103.3339879"><ele>981.71</ele><time>2026-05-28T22:23:59.000Z</time></trkpt>
        <trkpt lat="29.6031255" lon="103.334171"><ele>981.07</ele><time>2026-05-28T22:24:01.000Z</time></trkpt>
        <trkpt lat="29.6031411" lon="103.3343487"><ele>981.28</ele><time>2026-05-28T22:24:03.000Z</time></trkpt>
        <trkpt lat="29.603152" lon="103.3346009"><ele>980.01</ele><time>2026-05-28T22:24:05.000Z</time></trkpt>
        <trkpt lat="29.6031629" lon="103.334819"><ele>979.12</ele><time>2026-05-28T22:24:07.000Z</time></trkpt>
        <trkpt lat="29.603203" lon="103.3350017"><ele>977.81</ele><time>2026-05-28T22:24:09.000Z</time></trkpt>
        <trkpt lat="29.6032721" lon="103.3351356"><ele>976.82</ele><time>2026-05-28T22:24:11.000Z</time></trkpt>
        <trkpt lat="29.6033899" lon="103.3352601"><ele>976.35</ele><time>2026-05-28T22:24:13.000Z</time></trkpt>
        <trkpt lat="29.6035417" lon="103.3353937"><ele>975.89</ele><time>2026-05-28T22:24:15.000Z</time></trkpt>
        <trkpt lat="29.6036954" lon="103.335494"><ele>975.29</ele><time>2026-05-28T22:24:17.000Z</time></trkpt>
        <trkpt lat="29.6038624" lon="103.3356097"><ele>974.94</ele><time>2026-05-28T22:24:19.000Z</time></trkpt>
        <trkpt lat="29.6040117" lon="103.3357728"><ele>974.76</ele><time>2026-05-28T22:24:23.000Z</time></trkpt>
        <trkpt lat="29.6041165" lon="103.3359198"><ele>974.48</ele><time>2026-05-28T22:24:25.000Z</time></trkpt>
        <trkpt lat="29.6041535" lon="103.3362075"><ele>974.74</ele><time>2026-05-28T22:24:27.000Z</time></trkpt>
        <trkpt lat="29.6041566" lon="103.3364842"><ele>974.62</ele><time>2026-05-28T22:24:29.000Z</time></trkpt>
        <trkpt lat="29.6041393" lon="103.3366984"><ele>973.87</ele><time>2026-05-28T22:24:31.000Z</time></trkpt>
        <trkpt lat="29.6040765" lon="103.3368697"><ele>973.02</ele><time>2026-05-28T22:24:33.000Z</time></trkpt>
        <trkpt lat="29.6040105" lon="103.3370369"><ele>972.56</ele><time>2026-05-28T22:24:35.000Z</time></trkpt>
        <trkpt lat="29.6039372" lon="103.3371884"><ele>972.27</ele><time>2026-05-28T22:24:37.000Z</time></trkpt>
        <trkpt lat="29.6038382" lon="103.3373167"><ele>972.04</ele><time>2026-05-28T22:24:39.000Z</time></trkpt>
        <trkpt lat="29.6037155" lon="103.3374343"><ele>972.5</ele><time>2026-05-28T22:24:41.000Z</time></trkpt>
        <trkpt lat="29.6033796" lon="103.3376002"><ele>972.53</ele><time>2026-05-28T22:24:43.000Z</time></trkpt>
        <trkpt lat="29.6031595" lon="103.3376962"><ele>966.69</ele><time>2026-05-28T22:24:45.000Z</time></trkpt>
        <trkpt lat="29.6030031" lon="103.3377691"><ele>962.19</ele><time>2026-05-28T22:24:47.000Z</time></trkpt>
        <trkpt lat="29.6028657" lon="103.3378081"><ele>959.29</ele><time>2026-05-28T22:24:49.000Z</time></trkpt>
        <trkpt lat="29.602759" lon="103.3377809"><ele>957.78</ele><time>2026-05-28T22:24:51.000Z</time></trkpt>
        <trkpt lat="29.6026305" lon="103.3377116"><ele>957.55</ele><time>2026-05-28T22:24:53.000Z</time></trkpt>
        <trkpt lat="29.6025178" lon="103.3376386"><ele>957.32</ele><time>2026-05-28T22:24:55.000Z</time></trkpt>
        <trkpt lat="29.6023659" lon="103.3376146"><ele>957.3</ele><time>2026-05-28T22:24:57.000Z</time></trkpt>
        <trkpt lat="29.6022068" lon="103.3376379"><ele>957.27</ele><time>2026-05-28T22:24:59.000Z</time></trkpt>
        <trkpt lat="29.602015" lon="103.3376777"><ele>957.15</ele><time>2026-05-28T22:25:01.000Z</time></trkpt>
        <trkpt lat="29.6018702" lon="103.3375537"><ele>957.12</ele><time>2026-05-28T22:25:03.000Z</time></trkpt>
        <trkpt lat="29.6017339" lon="103.3375256"><ele>955.68</ele><time>2026-05-28T22:25:05.000Z</time></trkpt>
        <trkpt lat="29.6016214" lon="103.3375607"><ele>955.11</ele><time>2026-05-28T22:25:07.000Z</time></trkpt>
        <trkpt lat="29.601422" lon="103.3377112"><ele>954.96</ele><time>2026-05-28T22:25:09.000Z</time></trkpt>
        <trkpt lat="29.6012271" lon="103.3379161"><ele>954.99</ele><time>2026-05-28T22:25:11.000Z</time></trkpt>
        <trkpt lat="29.601021" lon="103.3381158"><ele>955.9</ele><time>2026-05-28T22:25:13.000Z</time></trkpt>
        <trkpt lat="29.6008642" lon="103.3382734"><ele>955.83</ele><time>2026-05-28T22:25:15.000Z</time></trkpt>
        <trkpt lat="29.600761" lon="103.3384422"><ele>954.69</ele><time>2026-05-28T22:25:17.000Z</time></trkpt>
        <trkpt lat="29.6006907" lon="103.3386184"><ele>953.15</ele><time>2026-05-28T22:25:19.000Z</time></trkpt>
        <trkpt lat="29.6006454" lon="103.3388149"><ele>952.16</ele><time>2026-05-28T22:25:21.000Z</time></trkpt>
        <trkpt lat="29.6006154" lon="103.3390017"><ele>951.65</ele><time>2026-05-28T22:25:23.000Z</time></trkpt>
        <trkpt lat="29.6005836" lon="103.3391831"><ele>950.87</ele><time>2026-05-28T22:25:25.000Z</time></trkpt>
        <trkpt lat="29.6005353" lon="103.3393778"><ele>950.35</ele><time>2026-05-28T22:25:27.000Z</time></trkpt>
        <trkpt lat="29.6004946" lon="103.3395716"><ele>949.96</ele><time>2026-05-28T22:25:29.000Z</time></trkpt>
        <trkpt lat="29.6005112" lon="103.3398176"><ele>949.37</ele><time>2026-05-28T22:25:31.000Z</time></trkpt>
        <trkpt lat="29.6005603" lon="103.3400272"><ele>948.61</ele><time>2026-05-28T22:25:33.000Z</time></trkpt>
        <trkpt lat="29.6005722" lon="103.3401959"><ele>947.91</ele><time>2026-05-28T22:25:35.000Z</time></trkpt>
        <trkpt lat="29.6006548" lon="103.3403749"><ele>947.62</ele><time>2026-05-28T22:25:37.000Z</time></trkpt>
        <trkpt lat="29.6007186" lon="103.3406746"><ele>948.42</ele><time>2026-05-28T22:25:39.000Z</time></trkpt>
        <trkpt lat="29.6007873" lon="103.3409074"><ele>948.87</ele><time>2026-05-28T22:25:41.000Z</time></trkpt>
        <trkpt lat="29.6008717" lon="103.3410993"><ele>948.97</ele><time>2026-05-28T22:25:43.000Z</time></trkpt>
        <trkpt lat="29.6010742" lon="103.3412998"><ele>948.92</ele><time>2026-05-28T22:25:45.000Z</time></trkpt>
        <trkpt lat="29.6013516" lon="103.341515"><ele>949.64</ele><time>2026-05-28T22:25:47.000Z</time></trkpt>
        <trkpt lat="29.6015576" lon="103.3416309"><ele>949.95</ele><time>2026-05-28T22:25:49.000Z</time></trkpt>
        <trkpt lat="29.6017014" lon="103.3417687"><ele>950.76</ele><time>2026-05-28T22:25:51.000Z</time></trkpt>
        <trkpt lat="29.6017788" lon="103.3419239"><ele>950.86</ele><time>2026-05-28T22:25:53.000Z</time></trkpt>
        <trkpt lat="29.6018023" lon="103.3420565"><ele>951.01</ele><time>2026-05-28T22:25:55.000Z</time></trkpt>
        <trkpt lat="29.6017587" lon="103.3422148"><ele>951.89</ele><time>2026-05-28T22:25:57.000Z</time></trkpt>
        <trkpt lat="29.601655" lon="103.3424084"><ele>952.12</ele><time>2026-05-28T22:25:59.000Z</time></trkpt>
        <trkpt lat="29.6015686" lon="103.3425676"><ele>949.87</ele><time>2026-05-28T22:26:01.000Z</time></trkpt>
        <trkpt lat="29.6014623" lon="103.3427328"><ele>947.51</ele><time>2026-05-28T22:26:03.000Z</time></trkpt>
        <trkpt lat="29.6013513" lon="103.3429032"><ele>945.9</ele><time>2026-05-28T22:26:05.000Z</time></trkpt>
        <trkpt lat="29.6012409" lon="103.3430526"><ele>945.67</ele><time>2026-05-28T22:26:07.000Z</time></trkpt>
        <trkpt lat="29.601129" lon="103.3431939"><ele>944.59</ele><time>2026-05-28T22:26:09.000Z</time></trkpt>
        <trkpt lat="29.601016" lon="103.3433254"><ele>944.19</ele><time>2026-05-28T22:26:11.000Z</time></trkpt>
        <trkpt lat="29.6008832" lon="103.3434543"><ele>943.86</ele><time>2026-05-28T22:26:13.000Z</time></trkpt>
        <trkpt lat="29.6007094" lon="103.3436159"><ele>943.49</ele><time>2026-05-28T22:26:15.000Z</time></trkpt>
        <trkpt lat="29.60056" lon="103.3437214"><ele>943.04</ele><time>2026-05-28T22:26:17.000Z</time></trkpt>
        <trkpt lat="29.6003175" lon="103.3439086"><ele>942.81</ele><time>2026-05-28T22:26:19.000Z</time></trkpt>
        <trkpt lat="29.6000924" lon="103.3439104"><ele>942.3</ele><time>2026-05-28T22:26:21.000Z</time></trkpt>
        <trkpt lat="29.5999195" lon="103.3439246"><ele>943.9</ele><time>2026-05-28T22:26:23.000Z</time></trkpt>
        <trkpt lat="29.5997202" lon="103.3439782"><ele>944.82</ele><time>2026-05-28T22:26:25.000Z</time></trkpt>
        <trkpt lat="29.5995179" lon="103.3440097"><ele>945.17</ele><time>2026-05-28T22:26:27.000Z</time></trkpt>
        <trkpt lat="29.5994027" lon="103.3440767"><ele>946.08</ele><time>2026-05-28T22:26:29.000Z</time></trkpt>
        <trkpt lat="29.5993545" lon="103.3442004"><ele>945.45</ele><time>2026-05-28T22:26:31.000Z</time></trkpt>
        <trkpt lat="29.5993312" lon="103.3443912"><ele>943.1</ele><time>2026-05-28T22:26:33.000Z</time></trkpt>
        <trkpt lat="29.5992934" lon="103.3446"><ele>941.4</ele><time>2026-05-28T22:26:35.000Z</time></trkpt>
        <trkpt lat="29.5992474" lon="103.3448071"><ele>940.4</ele><time>2026-05-28T22:26:37.000Z</time></trkpt>
        <trkpt lat="29.5991578" lon="103.3450285"><ele>939.79</ele><time>2026-05-28T22:26:39.000Z</time></trkpt>
        <trkpt lat="29.5990518" lon="103.3452827"><ele>938.49</ele><time>2026-05-28T22:26:41.000Z</time></trkpt>
        <trkpt lat="29.598964" lon="103.3454858"><ele>934.89</ele><time>2026-05-28T22:26:43.000Z</time></trkpt>
        <trkpt lat="29.5989084" lon="103.3457008"><ele>931.37</ele><time>2026-05-28T22:26:45.000Z</time></trkpt>
        <trkpt lat="29.5988771" lon="103.3459163"><ele>928.79</ele><time>2026-05-28T22:26:47.000Z</time></trkpt>
        <trkpt lat="29.5988174" lon="103.3460994"><ele>925.5</ele><time>2026-05-28T22:26:49.000Z</time></trkpt>
        <trkpt lat="29.5987477" lon="103.3462972"><ele>922.79</ele><time>2026-05-28T22:26:51.000Z</time></trkpt>
        <trkpt lat="29.5986471" lon="103.3464565"><ele>920.71</ele><time>2026-05-28T22:26:53.000Z</time></trkpt>
        <trkpt lat="29.5985335" lon="103.3466142"><ele>919.54</ele><time>2026-05-28T22:26:55.000Z</time></trkpt>
        <trkpt lat="29.5983877" lon="103.3467606"><ele>919.59</ele><time>2026-05-28T22:26:57.000Z</time></trkpt>
        <trkpt lat="29.5982655" lon="103.3469293"><ele>919.54</ele><time>2026-05-28T22:26:59.000Z</time></trkpt>
        <trkpt lat="29.5981684" lon="103.3471435"><ele>919.26</ele><time>2026-05-28T22:27:01.000Z</time></trkpt>
        <trkpt lat="29.5980741" lon="103.3473335"><ele>919.24</ele><time>2026-05-28T22:27:03.000Z</time></trkpt>
        <trkpt lat="29.5979613" lon="103.3475092"><ele>919.26</ele><time>2026-05-28T22:27:05.000Z</time></trkpt>
        <trkpt lat="29.5978244" lon="103.3476336"><ele>918.12</ele><time>2026-05-28T22:27:07.000Z</time></trkpt>
        <trkpt lat="29.5977017" lon="103.347662"><ele>917.77</ele><time>2026-05-28T22:27:09.000Z</time></trkpt>
        <trkpt lat="29.5975651" lon="103.3476002"><ele>918.6</ele><time>2026-05-28T22:27:11.000Z</time></trkpt>
        <trkpt lat="29.5974417" lon="103.3475029"><ele>919.18</ele><time>2026-05-28T22:27:13.000Z</time></trkpt>
        <trkpt lat="29.5973196" lon="103.3474274"><ele>920.29</ele><time>2026-05-28T22:27:15.000Z</time></trkpt>
        <trkpt lat="29.5970948" lon="103.3473968"><ele>920.87</ele><time>2026-05-28T22:27:19.000Z</time></trkpt>
        <trkpt lat="29.5968952" lon="103.3474065"><ele>921.72</ele><time>2026-05-28T22:27:21.000Z</time></trkpt>
        <trkpt lat="29.5967072" lon="103.3474261"><ele>922.32</ele><time>2026-05-28T22:27:23.000Z</time></trkpt>
        <trkpt lat="29.5965266" lon="103.3474732"><ele>922.86</ele><time>2026-05-28T22:27:27.000Z</time></trkpt>
        <trkpt lat="29.5964009" lon="103.3475086"><ele>923.35</ele><time>2026-05-28T22:27:29.000Z</time></trkpt>
        <trkpt lat="29.5962589" lon="103.3475016"><ele>923.94</ele><time>2026-05-28T22:27:31.000Z</time></trkpt>
        <trkpt lat="29.5960983" lon="103.3476061"><ele>924.65</ele><time>2026-05-28T22:27:33.000Z</time></trkpt>
        <trkpt lat="29.5959696" lon="103.347722"><ele>925.48</ele><time>2026-05-28T22:27:35.000Z</time></trkpt>
        <trkpt lat="29.5959157" lon="103.3478523"><ele>926.07</ele><time>2026-05-28T22:27:39.000Z</time></trkpt>
        <trkpt lat="29.5958992" lon="103.3480121"><ele>923.33</ele><time>2026-05-28T22:27:41.000Z</time></trkpt>
        <trkpt lat="29.5958853" lon="103.3481916"><ele>921.5</ele><time>2026-05-28T22:27:43.000Z</time></trkpt>
        <trkpt lat="29.5958492" lon="103.3483832"><ele>920.23</ele><time>2026-05-28T22:27:45.000Z</time></trkpt>
        <trkpt lat="29.595816" lon="103.3486061"><ele>919.29</ele><time>2026-05-28T22:27:47.000Z</time></trkpt>
        <trkpt lat="29.5957892" lon="103.3488373"><ele>918.93</ele><time>2026-05-28T22:27:49.000Z</time></trkpt>
        <trkpt lat="29.5957445" lon="103.3490967"><ele>917.65</ele><time>2026-05-28T22:27:51.000Z</time></trkpt>
        <trkpt lat="29.5956867" lon="103.34931"><ele>915.98</ele><time>2026-05-28T22:27:53.000Z</time></trkpt>
        <trkpt lat="29.5956439" lon="103.3495493"><ele>914</ele><time>2026-05-28T22:27:55.000Z</time></trkpt>
        <trkpt lat="29.5955219" lon="103.3497099"><ele>912.55</ele><time>2026-05-28T22:27:57.000Z</time></trkpt>
        <trkpt lat="29.5954807" lon="103.349912"><ele>912.19</ele><time>2026-05-28T22:27:59.000Z</time></trkpt>
        <trkpt lat="29.5954433" lon="103.3501069"><ele>911.8</ele><time>2026-05-28T22:28:01.000Z</time></trkpt>
        <trkpt lat="29.5953858" lon="103.3502997"><ele>911.53</ele><time>2026-05-28T22:28:03.000Z</time></trkpt>
        <trkpt lat="29.5953768" lon="103.3505359"><ele>910.18</ele><time>2026-05-28T22:28:05.000Z</time></trkpt>
        <trkpt lat="29.5953596" lon="103.3507591"><ele>907.89</ele><time>2026-05-28T22:28:07.000Z</time></trkpt>
        <trkpt lat="29.5953228" lon="103.3510055"><ele>905.34</ele><time>2026-05-28T22:28:09.000Z</time></trkpt>
        <trkpt lat="29.595307" lon="103.3512202"><ele>901.89</ele><time>2026-05-28T22:28:11.000Z</time></trkpt>
        <trkpt lat="29.5953192" lon="103.3513934"><ele>900.2</ele><time>2026-05-28T22:28:13.000Z</time></trkpt>
        <trkpt lat="29.5953708" lon="103.3515804"><ele>899.16</ele><time>2026-05-28T22:28:15.000Z</time></trkpt>
        <trkpt lat="29.5954217" lon="103.3517854"><ele>898.94</ele><time>2026-05-28T22:28:17.000Z</time></trkpt>
        <trkpt lat="29.595469" lon="103.3520032"><ele>898.89</ele><time>2026-05-28T22:28:19.000Z</time></trkpt>
        <trkpt lat="29.5954869" lon="103.3522165"><ele>898.93</ele><time>2026-05-28T22:28:21.000Z</time></trkpt>
        <trkpt lat="29.5954858" lon="103.3524326"><ele>898.96</ele><time>2026-05-28T22:28:23.000Z</time></trkpt>
        <trkpt lat="29.5955217" lon="103.3526473"><ele>898.21</ele><time>2026-05-28T22:28:25.000Z</time></trkpt>
        <trkpt lat="29.5955775" lon="103.3528568"><ele>896.62</ele><time>2026-05-28T22:28:27.000Z</time></trkpt>
        <trkpt lat="29.5956667" lon="103.3530582"><ele>896</ele><time>2026-05-28T22:28:29.000Z</time></trkpt>
        <trkpt lat="29.5957563" lon="103.3532375"><ele>895.5</ele><time>2026-05-28T22:28:31.000Z</time></trkpt>
        <trkpt lat="29.595861" lon="103.3534135"><ele>895.21</ele><time>2026-05-28T22:28:33.000Z</time></trkpt>
        <trkpt lat="29.5959734" lon="103.3535645"><ele>894.85</ele><time>2026-05-28T22:28:35.000Z</time></trkpt>
        <trkpt lat="29.5961574" lon="103.3536685"><ele>894.83</ele><time>2026-05-28T22:28:37.000Z</time></trkpt>
        <trkpt lat="29.5963632" lon="103.3537391"><ele>894.4</ele><time>2026-05-28T22:28:39.000Z</time></trkpt>
        <trkpt lat="29.5964808" lon="103.3538103"><ele>894.24</ele><time>2026-05-28T22:28:41.000Z</time></trkpt>
        <trkpt lat="29.5965413" lon="103.3539032"><ele>894.2</ele><time>2026-05-28T22:28:43.000Z</time></trkpt>
        <trkpt lat="29.5965751" lon="103.3540837"><ele>893.87</ele><time>2026-05-28T22:28:45.000Z</time></trkpt>
        <trkpt lat="29.5965559" lon="103.3542975"><ele>893.61</ele><time>2026-05-28T22:28:47.000Z</time></trkpt>
        <trkpt lat="29.5965135" lon="103.3544926"><ele>893.63</ele><time>2026-05-28T22:28:49.000Z</time></trkpt>
        <trkpt lat="29.596473" lon="103.3546625"><ele>893.33</ele><time>2026-05-28T22:28:51.000Z</time></trkpt>
        <trkpt lat="29.5963967" lon="103.3548099"><ele>892.28</ele><time>2026-05-28T22:28:53.000Z</time></trkpt>
        <trkpt lat="29.5962597" lon="103.3549769"><ele>892.16</ele><time>2026-05-28T22:28:55.000Z</time></trkpt>
        <trkpt lat="29.596213" lon="103.3551477"><ele>889.68</ele><time>2026-05-28T22:28:57.000Z</time></trkpt>
        <trkpt lat="29.5962196" lon="103.3553552"><ele>887.84</ele><time>2026-05-28T22:28:59.000Z</time></trkpt>
        <trkpt lat="29.596217" lon="103.3556093"><ele>885.83</ele><time>2026-05-28T22:29:01.000Z</time></trkpt>
        <trkpt lat="29.5962651" lon="103.3558568"><ele>882.9</ele><time>2026-05-28T22:29:03.000Z</time></trkpt>
        <trkpt lat="29.596321" lon="103.3560778"><ele>880.42</ele><time>2026-05-28T22:29:05.000Z</time></trkpt>
        <trkpt lat="29.5963802" lon="103.3563074"><ele>879.31</ele><time>2026-05-28T22:29:07.000Z</time></trkpt>
        <trkpt lat="29.5964506" lon="103.3565274"><ele>879.27</ele><time>2026-05-28T22:29:09.000Z</time></trkpt>
        <trkpt lat="29.5965433" lon="103.3567507"><ele>879.85</ele><time>2026-05-28T22:29:11.000Z</time></trkpt>
        <trkpt lat="29.596564" lon="103.3569449"><ele>879.3</ele><time>2026-05-28T22:29:13.000Z</time></trkpt>
        <trkpt lat="29.5965556" lon="103.3571271"><ele>877.68</ele><time>2026-05-28T22:29:15.000Z</time></trkpt>
        <trkpt lat="29.5965982" lon="103.3573111"><ele>876.15</ele><time>2026-05-28T22:29:17.000Z</time></trkpt>
        <trkpt lat="29.5966578" lon="103.3575083"><ele>874.42</ele><time>2026-05-28T22:29:19.000Z</time></trkpt>
        <trkpt lat="29.5966868" lon="103.3576885"><ele>872.23</ele><time>2026-05-28T22:29:21.000Z</time></trkpt>
        <trkpt lat="29.5966587" lon="103.3578473"><ele>870.27</ele><time>2026-05-28T22:29:23.000Z</time></trkpt>
        <trkpt lat="29.5965667" lon="103.3580144"><ele>868.53</ele><time>2026-05-28T22:29:25.000Z</time></trkpt>
        <trkpt lat="29.5964849" lon="103.3581857"><ele>867.82</ele><time>2026-05-28T22:29:27.000Z</time></trkpt>
        <trkpt lat="29.5964566" lon="103.3583872"><ele>866.81</ele><time>2026-05-28T22:29:29.000Z</time></trkpt>
        <trkpt lat="29.5964591" lon="103.3585852"><ele>865.51</ele><time>2026-05-28T22:29:31.000Z</time></trkpt>
        <trkpt lat="29.5965029" lon="103.3588019"><ele>864.64</ele><time>2026-05-28T22:29:33.000Z</time></trkpt>
        <trkpt lat="29.5965803" lon="103.3589797"><ele>864.09</ele><time>2026-05-28T22:29:35.000Z</time></trkpt>
        <trkpt lat="29.5966809" lon="103.3591331"><ele>863.8</ele><time>2026-05-28T22:29:37.000Z</time></trkpt>
        <trkpt lat="29.5967523" lon="103.359291"><ele>863.55</ele><time>2026-05-28T22:29:39.000Z</time></trkpt>
        <trkpt lat="29.5968915" lon="103.3594959"><ele>862.88</ele><time>2026-05-28T22:29:41.000Z</time></trkpt>
        <trkpt lat="29.597047" lon="103.3596343"><ele>861.83</ele><time>2026-05-28T22:29:43.000Z</time></trkpt>
        <trkpt lat="29.5972102" lon="103.3597188"><ele>862.07</ele><time>2026-05-28T22:29:45.000Z</time></trkpt>
        <trkpt lat="29.5973602" lon="103.3597465"><ele>862.86</ele><time>2026-05-28T22:29:47.000Z</time></trkpt>
        <trkpt lat="29.5975741" lon="103.3597021"><ele>863.64</ele><time>2026-05-28T22:29:49.000Z</time></trkpt>
        <trkpt lat="29.5977807" lon="103.3596651"><ele>863.72</ele><time>2026-05-28T22:29:51.000Z</time></trkpt>
        <trkpt lat="29.5979703" lon="103.3596463"><ele>863.72</ele><time>2026-05-28T22:29:53.000Z</time></trkpt>
        <trkpt lat="29.5981976" lon="103.3596547"><ele>863.74</ele><time>2026-05-28T22:29:55.000Z</time></trkpt>
        <trkpt lat="29.5984281" lon="103.359672"><ele>863.4</ele><time>2026-05-28T22:29:57.000Z</time></trkpt>
        <trkpt lat="29.5986206" lon="103.3596206"><ele>863.27</ele><time>2026-05-28T22:29:59.000Z</time></trkpt>
        <trkpt lat="29.5988344" lon="103.3595706"><ele>862.77</ele><time>2026-05-28T22:30:01.000Z</time></trkpt>
        <trkpt lat="29.599135" lon="103.3594976"><ele>862.35</ele><time>2026-05-28T22:30:03.000Z</time></trkpt>
        <trkpt lat="29.5993496" lon="103.3595378"><ele>862.23</ele><time>2026-05-28T22:30:05.000Z</time></trkpt>
        <trkpt lat="29.5995339" lon="103.3596801"><ele>862.33</ele><time>2026-05-28T22:30:07.000Z</time></trkpt>
        <trkpt lat="29.5996706" lon="103.3597848"><ele>859.9</ele><time>2026-05-28T22:30:09.000Z</time></trkpt>
        <trkpt lat="29.5998376" lon="103.3598812"><ele>856.05</ele><time>2026-05-28T22:30:11.000Z</time></trkpt>
        <trkpt lat="29.6000082" lon="103.3599366"><ele>853.39</ele><time>2026-05-28T22:30:13.000Z</time></trkpt>
        <trkpt lat="29.6001814" lon="103.3600003"><ele>850.54</ele><time>2026-05-28T22:30:15.000Z</time></trkpt>
        <trkpt lat="29.6003601" lon="103.360036"><ele>847.32</ele><time>2026-05-28T22:30:17.000Z</time></trkpt>
        <trkpt lat="29.600536" lon="103.3600574"><ele>844.77</ele><time>2026-05-28T22:30:19.000Z</time></trkpt>
        <trkpt lat="29.600678" lon="103.3601348"><ele>842.28</ele><time>2026-05-28T22:30:21.000Z</time></trkpt>
        <trkpt lat="29.6007522" lon="103.3602859"><ele>839.74</ele><time>2026-05-28T22:30:23.000Z</time></trkpt>
        <trkpt lat="29.6007927" lon="103.3604895"><ele>837.98</ele><time>2026-05-28T22:30:25.000Z</time></trkpt>
        <trkpt lat="29.6007958" lon="103.3607209"><ele>837.12</ele><time>2026-05-28T22:30:27.000Z</time></trkpt>
        <trkpt lat="29.6008033" lon="103.3609592"><ele>836.29</ele><time>2026-05-28T22:30:29.000Z</time></trkpt>
        <trkpt lat="29.600813" lon="103.3612006"><ele>835.26</ele><time>2026-05-28T22:30:31.000Z</time></trkpt>
        <trkpt lat="29.600847" lon="103.3614416"><ele>833.9</ele><time>2026-05-28T22:30:33.000Z</time></trkpt>
        <trkpt lat="29.600859" lon="103.3616693"><ele>832.5</ele><time>2026-05-28T22:30:35.000Z</time></trkpt>
        <trkpt lat="29.6008814" lon="103.3618657"><ele>831.52</ele><time>2026-05-28T22:30:37.000Z</time></trkpt>
        <trkpt lat="29.6009279" lon="103.3620681"><ele>830.67</ele><time>2026-05-28T22:30:39.000Z</time></trkpt>
        <trkpt lat="29.6009786" lon="103.3622699"><ele>829.79</ele><time>2026-05-28T22:30:41.000Z</time></trkpt>
        <trkpt lat="29.6010333" lon="103.3624638"><ele>829.4</ele><time>2026-05-28T22:30:43.000Z</time></trkpt>
        <trkpt lat="29.6010497" lon="103.3626755"><ele>829.16</ele><time>2026-05-28T22:30:45.000Z</time></trkpt>
        <trkpt lat="29.6010682" lon="103.3628823"><ele>828.73</ele><time>2026-05-28T22:30:47.000Z</time></trkpt>
        <trkpt lat="29.6011173" lon="103.3630354"><ele>828.49</ele><time>2026-05-28T22:30:49.000Z</time></trkpt>
        <trkpt lat="29.6011664" lon="103.3632244"><ele>828.27</ele><time>2026-05-28T22:30:51.000Z</time></trkpt>
        <trkpt lat="29.6011986" lon="103.3633956"><ele>828.1</ele><time>2026-05-28T22:30:53.000Z</time></trkpt>
        <trkpt lat="29.6012444" lon="103.3637234"><ele>828.02</ele><time>2026-05-28T22:30:55.000Z</time></trkpt>
        <trkpt lat="29.6012744" lon="103.3639276"><ele>827.29</ele><time>2026-05-28T22:30:57.000Z</time></trkpt>
        <trkpt lat="29.6012596" lon="103.3640683"><ele>826.94</ele><time>2026-05-28T22:30:59.000Z</time></trkpt>
        <trkpt lat="29.6012308" lon="103.3642297"><ele>825.87</ele><time>2026-05-28T22:31:01.000Z</time></trkpt>
        <trkpt lat="29.6012172" lon="103.3643559"><ele>825.2</ele><time>2026-05-28T22:31:03.000Z</time></trkpt>
        <trkpt lat="29.6011745" lon="103.364504"><ele>823.38</ele><time>2026-05-28T22:31:05.000Z</time></trkpt>
        <trkpt lat="29.6011173" lon="103.3648229"><ele>822.61</ele><time>2026-05-28T22:31:07.000Z</time></trkpt>
        <trkpt lat="29.6010704" lon="103.3650499"><ele>820.87</ele><time>2026-05-28T22:31:09.000Z</time></trkpt>
        <trkpt lat="29.6009868" lon="103.3652704"><ele>818.17</ele><time>2026-05-28T22:31:11.000Z</time></trkpt>
        <trkpt lat="29.6008909" lon="103.3654841"><ele>816.41</ele><time>2026-05-28T22:31:13.000Z</time></trkpt>
        <trkpt lat="29.600817" lon="103.3656648"><ele>815.85</ele><time>2026-05-28T22:31:15.000Z</time></trkpt>
        <trkpt lat="29.6007301" lon="103.3658375"><ele>815.47</ele><time>2026-05-28T22:31:17.000Z</time></trkpt>
        <trkpt lat="29.6006212" lon="103.3660471"><ele>815.68</ele><time>2026-05-28T22:31:19.000Z</time></trkpt>
        <trkpt lat="29.6005026" lon="103.3662591"><ele>814.93</ele><time>2026-05-28T22:31:21.000Z</time></trkpt>
        <trkpt lat="29.6003686" lon="103.3663923"><ele>813.85</ele><time>2026-05-28T22:31:23.000Z</time></trkpt>
        <trkpt lat="29.6002579" lon="103.3665565"><ele>811.64</ele><time>2026-05-28T22:31:25.000Z</time></trkpt>
        <trkpt lat="29.6001217" lon="103.3666919"><ele>809.38</ele><time>2026-05-28T22:31:27.000Z</time></trkpt>
        <trkpt lat="29.5999401" lon="103.3667623"><ele>808.05</ele><time>2026-05-28T22:31:29.000Z</time></trkpt>
        <trkpt lat="29.5997653" lon="103.3668196"><ele>807.43</ele><time>2026-05-28T22:31:31.000Z</time></trkpt>
        <trkpt lat="29.5996216" lon="103.3668046"><ele>806.61</ele><time>2026-05-28T22:31:33.000Z</time></trkpt>
        <trkpt lat="29.5994202" lon="103.3667388"><ele>806.05</ele><time>2026-05-28T22:31:35.000Z</time></trkpt>
        <trkpt lat="29.5991957" lon="103.3666069"><ele>805.52</ele><time>2026-05-28T22:31:37.000Z</time></trkpt>
        <trkpt lat="29.5990142" lon="103.3665434"><ele>804.59</ele><time>2026-05-28T22:31:39.000Z</time></trkpt>
        <trkpt lat="29.5988372" lon="103.3664998"><ele>803.65</ele><time>2026-05-28T22:31:41.000Z</time></trkpt>
        <trkpt lat="29.5986546" lon="103.3664634"><ele>803.01</ele><time>2026-05-28T22:31:43.000Z</time></trkpt>
        <trkpt lat="29.5985262" lon="103.36646"><ele>802.59</ele><time>2026-05-28T22:31:45.000Z</time></trkpt>
        <trkpt lat="29.5983849" lon="103.3664396"><ele>800.88</ele><time>2026-05-28T22:31:47.000Z</time></trkpt>
        <trkpt lat="29.5982383" lon="103.3664609"><ele>799.73</ele><time>2026-05-28T22:31:49.000Z</time></trkpt>
        <trkpt lat="29.5980281" lon="103.3665462"><ele>798.76</ele><time>2026-05-28T22:31:51.000Z</time></trkpt>
        <trkpt lat="29.5978641" lon="103.3666915"><ele>797.51</ele><time>2026-05-28T22:31:53.000Z</time></trkpt>
        <trkpt lat="29.5977952" lon="103.3668585"><ele>796.73</ele><time>2026-05-28T22:31:55.000Z</time></trkpt>
        <trkpt lat="29.5977666" lon="103.3670258"><ele>796.04</ele><time>2026-05-28T22:31:57.000Z</time></trkpt>
        <trkpt lat="29.597764" lon="103.3672673"><ele>795.66</ele><time>2026-05-28T22:32:01.000Z</time></trkpt>
        <trkpt lat="29.597824" lon="103.3674573"><ele>794.69</ele><time>2026-05-28T22:32:03.000Z</time></trkpt>
        <trkpt lat="29.5978558" lon="103.3676083"><ele>795.2</ele><time>2026-05-28T22:32:05.000Z</time></trkpt>
        <trkpt lat="29.5978481" lon="103.367755"><ele>795.43</ele><time>2026-05-28T22:32:07.000Z</time></trkpt>
        <trkpt lat="29.5977929" lon="103.3680311"><ele>795.54</ele><time>2026-05-28T22:32:09.000Z</time></trkpt>
        <trkpt lat="29.5977179" lon="103.3682504"><ele>794.64</ele><time>2026-05-28T22:32:11.000Z</time></trkpt>
        <trkpt lat="29.59762" lon="103.3684256"><ele>794.18</ele><time>2026-05-28T22:32:13.000Z</time></trkpt>
        <trkpt lat="29.5975403" lon="103.3685981"><ele>791.5</ele><time>2026-05-28T22:32:15.000Z</time></trkpt>
        <trkpt lat="29.5974369" lon="103.3687637"><ele>788.84</ele><time>2026-05-28T22:32:17.000Z</time></trkpt>
        <trkpt lat="29.5973347" lon="103.3689559"><ele>784.6</ele><time>2026-05-28T22:32:19.000Z</time></trkpt>
        <trkpt lat="29.597208" lon="103.3690983"><ele>780.78</ele><time>2026-05-28T22:32:21.000Z</time></trkpt>
        <trkpt lat="29.5971618" lon="103.3693161"><ele>778</ele><time>2026-05-28T22:32:23.000Z</time></trkpt>
        <trkpt lat="29.5971078" lon="103.3695033"><ele>774.13</ele><time>2026-05-28T22:32:25.000Z</time></trkpt>
        <trkpt lat="29.5970016" lon="103.3696729"><ele>771.69</ele><time>2026-05-28T22:32:27.000Z</time></trkpt>
        <trkpt lat="29.596989" lon="103.3699349"><ele>768.48</ele><time>2026-05-28T22:32:29.000Z</time></trkpt>
        <trkpt lat="29.5969685" lon="103.3701586"><ele>764.58</ele><time>2026-05-28T22:32:31.000Z</time></trkpt>
        <trkpt lat="29.5969363" lon="103.3703616"><ele>762.39</ele><time>2026-05-28T22:32:33.000Z</time></trkpt>
        <trkpt lat="29.5968844" lon="103.3705461"><ele>761.32</ele><time>2026-05-28T22:32:35.000Z</time></trkpt>
        <trkpt lat="29.5968234" lon="103.3707195"><ele>761.06</ele><time>2026-05-28T22:32:37.000Z</time></trkpt>
        <trkpt lat="29.596744" lon="103.3709324"><ele>761.66</ele><time>2026-05-28T22:32:39.000Z</time></trkpt>
        <trkpt lat="29.596701" lon="103.3711534"><ele>761.72</ele><time>2026-05-28T22:32:41.000Z</time></trkpt>
        <trkpt lat="29.5966745" lon="103.371352"><ele>762.22</ele><time>2026-05-28T22:32:43.000Z</time></trkpt>
        <trkpt lat="29.5966569" lon="103.3715552"><ele>762.11</ele><time>2026-05-28T22:32:45.000Z</time></trkpt>
        <trkpt lat="29.5966275" lon="103.3717649"><ele>761.5</ele><time>2026-05-28T22:32:47.000Z</time></trkpt>
        <trkpt lat="29.5965892" lon="103.3719556"><ele>759.75</ele><time>2026-05-28T22:32:49.000Z</time></trkpt>
        <trkpt lat="29.5965434" lon="103.3721538"><ele>759.32</ele><time>2026-05-28T22:32:51.000Z</time></trkpt>
        <trkpt lat="29.5964897" lon="103.372348"><ele>759.33</ele><time>2026-05-28T22:32:53.000Z</time></trkpt>
        <trkpt lat="29.59646" lon="103.3725356"><ele>760.53</ele><time>2026-05-28T22:32:55.000Z</time></trkpt>
        <trkpt lat="29.5964378" lon="103.3727187"><ele>760.96</ele><time>2026-05-28T22:32:57.000Z</time></trkpt>
        <trkpt lat="29.5964148" lon="103.3728883"><ele>761.8</ele><time>2026-05-28T22:32:59.000Z</time></trkpt>
        <trkpt lat="29.5963837" lon="103.3730598"><ele>763.93</ele><time>2026-05-28T22:33:01.000Z</time></trkpt>
        <trkpt lat="29.5963497" lon="103.3732331"><ele>764.98</ele><time>2026-05-28T22:33:03.000Z</time></trkpt>
        <trkpt lat="29.5963049" lon="103.3734077"><ele>766.39</ele><time>2026-05-28T22:33:05.000Z</time></trkpt>
        <trkpt lat="29.59625" lon="103.3736013"><ele>767.26</ele><time>2026-05-28T22:33:07.000Z</time></trkpt>
        <trkpt lat="29.5961864" lon="103.37377"><ele>768.43</ele><time>2026-05-28T22:33:09.000Z</time></trkpt>
        <trkpt lat="29.596103" lon="103.3739439"><ele>768.8</ele><time>2026-05-28T22:33:11.000Z</time></trkpt>
        <trkpt lat="29.5960127" lon="103.3741289"><ele>768.92</ele><time>2026-05-28T22:33:13.000Z</time></trkpt>
        <trkpt lat="29.5958854" lon="103.3743064"><ele>769.5</ele><time>2026-05-28T22:33:16.000Z</time></trkpt>
        <trkpt lat="29.5957619" lon="103.3744808"><ele>770.92</ele><time>2026-05-28T22:33:17.000Z</time></trkpt>
        <trkpt lat="29.5956443" lon="103.3746561"><ele>771.44</ele><time>2026-05-28T22:33:19.000Z</time></trkpt>
        <trkpt lat="29.5955344" lon="103.3748209"><ele>771.23</ele><time>2026-05-28T22:33:21.000Z</time></trkpt>
        <trkpt lat="29.5953709" lon="103.3749398"><ele>771.62</ele><time>2026-05-28T22:33:23.000Z</time></trkpt>
        <trkpt lat="29.5952018" lon="103.3750291"><ele>771.53</ele><time>2026-05-28T22:33:25.000Z</time></trkpt>
        <trkpt lat="29.5950552" lon="103.37514"><ele>771.33</ele><time>2026-05-28T22:33:27.000Z</time></trkpt>
        <trkpt lat="29.5949471" lon="103.3752741"><ele>771.83</ele><time>2026-05-28T22:33:29.000Z</time></trkpt>
        <trkpt lat="29.5948848" lon="103.3754345"><ele>772.16</ele><time>2026-05-28T22:33:31.000Z</time></trkpt>
        <trkpt lat="29.5948486" lon="103.375558"><ele>773.08</ele><time>2026-05-28T22:33:33.000Z</time></trkpt>
        <trkpt lat="29.5948387" lon="103.3756865"><ele>773.76</ele><time>2026-05-28T22:33:37.000Z</time></trkpt>
        <trkpt lat="29.5948579" lon="103.3757091"><ele>774.36</ele><time>2026-05-28T22:33:41.000Z</time></trkpt>
        <trkpt lat="29.5947878" lon="103.3757438"><ele>775.7</ele><time>2026-05-28T22:36:19.000Z</time></trkpt>
        <trkpt lat="29.5947157" lon="103.3758118"><ele>775.45</ele><time>2026-05-28T22:36:27.000Z</time></trkpt>
        <trkpt lat="29.5946252" lon="103.3758485"><ele>775.29</ele><time>2026-05-28T22:36:35.000Z</time></trkpt>
        <trkpt lat="29.5945327" lon="103.3758866"><ele>775.19</ele><time>2026-05-28T22:36:43.000Z</time></trkpt>
        <trkpt lat="29.594428" lon="103.3759183"><ele>775.11</ele><time>2026-05-28T22:36:51.000Z</time></trkpt>
        <trkpt lat="29.5943321" lon="103.375929"><ele>775.87</ele><time>2026-05-28T22:36:57.000Z</time></trkpt>
        <trkpt lat="29.5942521" lon="103.3759795"><ele>778.37</ele><time>2026-05-28T22:37:03.000Z</time></trkpt>
        <trkpt lat="29.5941641" lon="103.3760451"><ele>782.33</ele><time>2026-05-28T22:37:11.000Z</time></trkpt>
        <trkpt lat="29.5940904" lon="103.3761382"><ele>782.28</ele><time>2026-05-28T22:37:19.000Z</time></trkpt>
        <trkpt lat="29.5940218" lon="103.3761987"><ele>780.55</ele><time>2026-05-28T22:37:27.000Z</time></trkpt>
        <trkpt lat="29.5939599" lon="103.376279"><ele>779.34</ele><time>2026-05-28T22:37:39.000Z</time></trkpt>
        <trkpt lat="29.5939187" lon="103.3763773"><ele>776.65</ele><time>2026-05-28T22:37:47.000Z</time></trkpt>
        <trkpt lat="29.5939246" lon="103.3764944"><ele>774.12</ele><time>2026-05-28T22:37:53.000Z</time></trkpt>
        <trkpt lat="29.5939568" lon="103.376604"><ele>773.39</ele><time>2026-05-28T22:37:59.000Z</time></trkpt>
        <trkpt lat="29.5939426" lon="103.3767147"><ele>771.85</ele><time>2026-05-28T22:38:07.000Z</time></trkpt>
        <trkpt lat="29.5938687" lon="103.3767913"><ele>771.24</ele><time>2026-05-28T22:38:15.000Z</time></trkpt>
        <trkpt lat="29.5937754" lon="103.3768622"><ele>771.57</ele><time>2026-05-28T22:38:23.000Z</time></trkpt>
        <trkpt lat="29.5937078" lon="103.3769483"><ele>772.27</ele><time>2026-05-28T22:38:31.000Z</time></trkpt>
        <trkpt lat="29.5936866" lon="103.3770294"><ele>772.58</ele><time>2026-05-28T22:38:39.000Z</time></trkpt>
        <trkpt lat="29.5937503" lon="103.3769835"><ele>772.83</ele><time>2026-05-28T22:38:59.000Z</time></trkpt>
        <trkpt lat="29.5938161" lon="103.3768923"><ele>780.43</ele><time>2026-05-28T22:39:07.000Z</time></trkpt>
        <trkpt lat="29.5939094" lon="103.3768243"><ele>784.55</ele><time>2026-05-28T22:39:23.000Z</time></trkpt>
        <trkpt lat="29.5939913" lon="103.3767379"><ele>779.6</ele><time>2026-05-28T22:39:31.000Z</time></trkpt>
        <trkpt lat="29.5940442" lon="103.3766337"><ele>777</ele><time>2026-05-28T22:39:39.000Z</time></trkpt>
        <trkpt lat="29.5940579" lon="103.3765115"><ele>775.83</ele><time>2026-05-28T22:39:47.000Z</time></trkpt>
        <trkpt lat="29.5940348" lon="103.3763863"><ele>774.93</ele><time>2026-05-28T22:39:55.000Z</time></trkpt>
        <trkpt lat="29.5940011" lon="103.3762714"><ele>774.64</ele><time>2026-05-28T22:40:03.000Z</time></trkpt>
        <trkpt lat="29.594042" lon="103.3761928"><ele>774.93</ele><time>2026-05-28T22:40:13.000Z</time></trkpt>
        <trkpt lat="29.5940663" lon="103.3762199"><ele>774.92</ele><time>2026-05-28T22:40:21.000Z</time></trkpt>
        <trkpt lat="29.5941168" lon="103.3761814"><ele>777</ele><time>2026-05-28T22:40:29.000Z</time></trkpt>
        <trkpt lat="29.5941906" lon="103.3761249"><ele>775.76</ele><time>2026-05-28T22:40:35.000Z</time></trkpt>
        <trkpt lat="29.5942751" lon="103.3760452"><ele>775.44</ele><time>2026-05-28T22:40:43.000Z</time></trkpt>
        <trkpt lat="29.5942969" lon="103.375982"><ele>774.99</ele><time>2026-05-28T22:40:49.000Z</time></trkpt>
        <trkpt lat="29.5942643" lon="103.3760845"><ele>775.05</ele><time>2026-05-28T22:43:27.000Z</time></trkpt>
        <trkpt lat="29.5941705" lon="103.3760791"><ele>778.52</ele><time>2026-05-28T22:49:27.000Z</time></trkpt>
        <trkpt lat="29.5942711" lon="103.3760626"><ele>780.15</ele><time>2026-05-28T22:49:47.000Z</time></trkpt>
        <trkpt lat="29.5942777" lon="103.3759515"><ele>782.93</ele><time>2026-05-28T22:50:11.000Z</time></trkpt>
        <trkpt lat="29.5943481" lon="103.3758974"><ele>782.16</ele><time>2026-05-28T22:50:31.000Z</time></trkpt>
        <trkpt lat="29.5943713" lon="103.3757922"><ele>782.49</ele><time>2026-05-28T22:51:01.000Z</time></trkpt>
        <trkpt lat="29.5944174" lon="103.3756972"><ele>781.38</ele><time>2026-05-28T22:51:11.000Z</time></trkpt>
        <trkpt lat="29.5942824" lon="103.3757568"><ele>781.35</ele><time>2026-05-28T22:52:15.000Z</time></trkpt>
        <trkpt lat="29.5941616" lon="103.3758266"><ele>783.67</ele><time>2026-05-28T22:52:19.000Z</time></trkpt>
        <trkpt lat="29.5941385" lon="103.3758638"><ele>786.96</ele><time>2026-05-28T22:52:27.000Z</time></trkpt>
        <trkpt lat="29.5940507" lon="103.3758241"><ele>791.11</ele><time>2026-05-28T22:53:41.000Z</time></trkpt>
        <trkpt lat="29.5938705" lon="103.3759297"><ele>792.24</ele><time>2026-05-28T22:53:45.000Z</time></trkpt>
        <trkpt lat="29.5937506" lon="103.3759848"><ele>790.03</ele><time>2026-05-28T22:53:49.000Z</time></trkpt>
        <trkpt lat="29.5936535" lon="103.3760394"><ele>789.56</ele><time>2026-05-28T22:53:53.000Z</time></trkpt>
        <trkpt lat="29.5935635" lon="103.3760933"><ele>790.72</ele><time>2026-05-28T22:53:57.000Z</time></trkpt>
        <trkpt lat="29.5934773" lon="103.3761464"><ele>792.47</ele><time>2026-05-28T22:54:01.000Z</time></trkpt>
        <trkpt lat="29.5933888" lon="103.3761989"><ele>794.84</ele><time>2026-05-28T22:54:05.000Z</time></trkpt>
        <trkpt lat="29.5932991" lon="103.3762493"><ele>797.52</ele><time>2026-05-28T22:54:09.000Z</time></trkpt>
        <trkpt lat="29.5932074" lon="103.3762997"><ele>800.19</ele><time>2026-05-28T22:54:13.000Z</time></trkpt>
        <trkpt lat="29.5931123" lon="103.3763552"><ele>802.88</ele><time>2026-05-28T22:54:17.000Z</time></trkpt>
        <trkpt lat="29.5930207" lon="103.3764089"><ele>805.66</ele><time>2026-05-28T22:54:21.000Z</time></trkpt>
        <trkpt lat="29.5929256" lon="103.3764599"><ele>808.27</ele><time>2026-05-28T22:54:25.000Z</time></trkpt>
        <trkpt lat="29.5928266" lon="103.3765071"><ele>810.19</ele><time>2026-05-28T22:54:29.000Z</time></trkpt>
        <trkpt lat="29.5927222" lon="103.3765557"><ele>811.97</ele><time>2026-05-28T22:54:33.000Z</time></trkpt>
        <trkpt lat="29.5926223" lon="103.3765997"><ele>813.95</ele><time>2026-05-28T22:54:37.000Z</time></trkpt>
        <trkpt lat="29.5925221" lon="103.376646"><ele>815.59</ele><time>2026-05-28T22:54:41.000Z</time></trkpt>
        <trkpt lat="29.5924259" lon="103.3766972"><ele>817.22</ele><time>2026-05-28T22:54:45.000Z</time></trkpt>
        <trkpt lat="29.5923284" lon="103.3767501"><ele>818.96</ele><time>2026-05-28T22:54:49.000Z</time></trkpt>
        <trkpt lat="29.5922344" lon="103.3768048"><ele>820.66</ele><time>2026-05-28T22:54:53.000Z</time></trkpt>
        <trkpt lat="29.5921393" lon="103.3768603"><ele>822.46</ele><time>2026-05-28T22:54:57.000Z</time></trkpt>
        <trkpt lat="29.5920519" lon="103.3769224"><ele>824.13</ele><time>2026-05-28T22:55:01.000Z</time></trkpt>
        <trkpt lat="29.5919651" lon="103.3769802"><ele>826.06</ele><time>2026-05-28T22:55:05.000Z</time></trkpt>
        <trkpt lat="29.5918555" lon="103.3770111"><ele>828.19</ele><time>2026-05-28T22:55:09.000Z</time></trkpt>
        <trkpt lat="29.5917443" lon="103.3770416"><ele>829.62</ele><time>2026-05-28T22:55:13.000Z</time></trkpt>
        <trkpt lat="29.5916435" lon="103.3770853"><ele>829.84</ele><time>2026-05-28T22:55:17.000Z</time></trkpt>
        <trkpt lat="29.5915528" lon="103.3771334"><ele>829.86</ele><time>2026-05-28T22:55:21.000Z</time></trkpt>
        <trkpt lat="29.591468" lon="103.3771754"><ele>829.71</ele><time>2026-05-28T22:55:25.000Z</time></trkpt>
        <trkpt lat="29.5913687" lon="103.3772289"><ele>829.93</ele><time>2026-05-28T22:55:29.000Z</time></trkpt>
        <trkpt lat="29.5912672" lon="103.3772922"><ele>829.89</ele><time>2026-05-28T22:55:33.000Z</time></trkpt>
        <trkpt lat="29.591163" lon="103.3773541"><ele>830.88</ele><time>2026-05-28T22:55:37.000Z</time></trkpt>
        <trkpt lat="29.5910623" lon="103.3774122"><ele>832.48</ele><time>2026-05-28T22:55:41.000Z</time></trkpt>
        <trkpt lat="29.5909646" lon="103.3774657"><ele>834.21</ele><time>2026-05-28T22:55:45.000Z</time></trkpt>
        <trkpt lat="29.5908694" lon="103.3775131"><ele>835.67</ele><time>2026-05-28T22:55:49.000Z</time></trkpt>
        <trkpt lat="29.5907749" lon="103.3775565"><ele>836.11</ele><time>2026-05-28T22:55:53.000Z</time></trkpt>
        <trkpt lat="29.590672" lon="103.3776041"><ele>835.06</ele><time>2026-05-28T22:55:57.000Z</time></trkpt>
        <trkpt lat="29.5905735" lon="103.3776547"><ele>834.84</ele><time>2026-05-28T22:56:01.000Z</time></trkpt>
        <trkpt lat="29.5904752" lon="103.3777031"><ele>834.27</ele><time>2026-05-28T22:56:05.000Z</time></trkpt>
        <trkpt lat="29.590374" lon="103.3777533"><ele>834.73</ele><time>2026-05-28T22:56:09.000Z</time></trkpt>
        <trkpt lat="29.5902754" lon="103.3778086"><ele>835.36</ele><time>2026-05-28T22:56:13.000Z</time></trkpt>
        <trkpt lat="29.5901768" lon="103.3778642"><ele>837.18</ele><time>2026-05-28T22:56:17.000Z</time></trkpt>
        <trkpt lat="29.5900768" lon="103.3779165"><ele>839.6</ele><time>2026-05-28T22:56:21.000Z</time></trkpt>
        <trkpt lat="29.5899772" lon="103.3779676"><ele>842.04</ele><time>2026-05-28T22:56:25.000Z</time></trkpt>
        <trkpt lat="29.5898796" lon="103.3780193"><ele>844.62</ele><time>2026-05-28T22:56:29.000Z</time></trkpt>
        <trkpt lat="29.5897845" lon="103.3780734"><ele>847.3</ele><time>2026-05-28T22:56:33.000Z</time></trkpt>
        <trkpt lat="29.5896865" lon="103.3781289"><ele>849.14</ele><time>2026-05-28T22:56:37.000Z</time></trkpt>
        <trkpt lat="29.5895878" lon="103.3781821"><ele>850.46</ele><time>2026-05-28T22:56:41.000Z</time></trkpt>
        <trkpt lat="29.5894875" lon="103.3782328"><ele>851.37</ele><time>2026-05-28T22:56:45.000Z</time></trkpt>
        <trkpt lat="29.5893879" lon="103.3782848"><ele>852.27</ele><time>2026-05-28T22:56:49.000Z</time></trkpt>
        <trkpt lat="29.5892894" lon="103.3783384"><ele>853.19</ele><time>2026-05-28T22:56:53.000Z</time></trkpt>
        <trkpt lat="29.5891908" lon="103.3783928"><ele>853.9</ele><time>2026-05-28T22:56:57.000Z</time></trkpt>
        <trkpt lat="29.5890934" lon="103.3784467"><ele>854.78</ele><time>2026-05-28T22:57:01.000Z</time></trkpt>
        <trkpt lat="29.5889948" lon="103.3785007"><ele>855.72</ele><time>2026-05-28T22:57:05.000Z</time></trkpt>
        <trkpt lat="29.588897" lon="103.3785538"><ele>857.09</ele><time>2026-05-28T22:57:09.000Z</time></trkpt>
        <trkpt lat="29.5888018" lon="103.3785998"><ele>858.02</ele><time>2026-05-28T22:57:13.000Z</time></trkpt>
        <trkpt lat="29.5887079" lon="103.3786543"><ele>858.59</ele><time>2026-05-28T22:57:17.000Z</time></trkpt>
        <trkpt lat="29.5886082" lon="103.3787066"><ele>859.51</ele><time>2026-05-28T22:57:21.000Z</time></trkpt>
        <trkpt lat="29.5885076" lon="103.3787582"><ele>860.53</ele><time>2026-05-28T22:57:25.000Z</time></trkpt>
        <trkpt lat="29.5884074" lon="103.3788071"><ele>861.82</ele><time>2026-05-28T22:57:29.000Z</time></trkpt>
        <trkpt lat="29.5883102" lon="103.3788585"><ele>863.15</ele><time>2026-05-28T22:57:33.000Z</time></trkpt>
        <trkpt lat="29.5882117" lon="103.378909"><ele>864.7</ele><time>2026-05-28T22:57:37.000Z</time></trkpt>
        <trkpt lat="29.5881125" lon="103.3789634"><ele>866.31</ele><time>2026-05-28T22:57:41.000Z</time></trkpt>
        <trkpt lat="29.5880136" lon="103.3790202"><ele>868.03</ele><time>2026-05-28T22:57:45.000Z</time></trkpt>
        <trkpt lat="29.5879166" lon="103.379073"><ele>869.13</ele><time>2026-05-28T22:57:49.000Z</time></trkpt>
        <trkpt lat="29.5878223" lon="103.3791244"><ele>870.26</ele><time>2026-05-28T22:57:53.000Z</time></trkpt>
        <trkpt lat="29.5877068" lon="103.3791832"><ele>872.36</ele><time>2026-05-28T22:57:59.000Z</time></trkpt>
        <trkpt lat="29.5876055" lon="103.3792327"><ele>874.26</ele><time>2026-05-28T22:58:03.000Z</time></trkpt>
        <trkpt lat="29.587513" lon="103.3792956"><ele>875.79</ele><time>2026-05-28T22:58:09.000Z</time></trkpt>
        <trkpt lat="29.5874261" lon="103.379368"><ele>877.7</ele><time>2026-05-28T22:58:13.000Z</time></trkpt>
        <trkpt lat="29.5873191" lon="103.3794224"><ele>878.56</ele><time>2026-05-28T22:58:17.000Z</time></trkpt>
        <trkpt lat="29.5872048" lon="103.3794593"><ele>879.8</ele><time>2026-05-28T22:58:21.000Z</time></trkpt>
        <trkpt lat="29.5870893" lon="103.379507"><ele>880.68</ele><time>2026-05-28T22:58:25.000Z</time></trkpt>
        <trkpt lat="29.5869755" lon="103.3795651"><ele>881.88</ele><time>2026-05-28T22:58:29.000Z</time></trkpt>
        <trkpt lat="29.5868685" lon="103.3796242"><ele>883.53</ele><time>2026-05-28T22:58:33.000Z</time></trkpt>
        <trkpt lat="29.586778" lon="103.3796829"><ele>885.73</ele><time>2026-05-28T22:58:37.000Z</time></trkpt>
        <trkpt lat="29.5866957" lon="103.3797381"><ele>887.51</ele><time>2026-05-28T22:58:41.000Z</time></trkpt>
        <trkpt lat="29.586612" lon="103.3797943"><ele>888.79</ele><time>2026-05-28T22:58:45.000Z</time></trkpt>
        <trkpt lat="29.5865233" lon="103.37985"><ele>889.75</ele><time>2026-05-28T22:58:49.000Z</time></trkpt>
        <trkpt lat="29.5864049" lon="103.3799034"><ele>889.86</ele><time>2026-05-28T22:58:53.000Z</time></trkpt>
        <trkpt lat="29.5862919" lon="103.3799525"><ele>889.91</ele><time>2026-05-28T22:58:57.000Z</time></trkpt>
        <trkpt lat="29.5861925" lon="103.3800068"><ele>890.07</ele><time>2026-05-28T22:59:01.000Z</time></trkpt>
        <trkpt lat="29.5860989" lon="103.3800586"><ele>890.71</ele><time>2026-05-28T22:59:05.000Z</time></trkpt>
        <trkpt lat="29.5860001" lon="103.3801108"><ele>891.8</ele><time>2026-05-28T22:59:09.000Z</time></trkpt>
        <trkpt lat="29.5859004" lon="103.3801619"><ele>893.58</ele><time>2026-05-28T22:59:13.000Z</time></trkpt>
        <trkpt lat="29.5857998" lon="103.3802112"><ele>895.46</ele><time>2026-05-28T22:59:17.000Z</time></trkpt>
        <trkpt lat="29.5857026" lon="103.3802619"><ele>897.38</ele><time>2026-05-28T22:59:21.000Z</time></trkpt>
        <trkpt lat="29.585602" lon="103.3803134"><ele>899.24</ele><time>2026-05-28T22:59:25.000Z</time></trkpt>
        <trkpt lat="29.5855016" lon="103.3803625"><ele>901.25</ele><time>2026-05-28T22:59:29.000Z</time></trkpt>
        <trkpt lat="29.585405" lon="103.3804158"><ele>903.16</ele><time>2026-05-28T22:59:33.000Z</time></trkpt>
        <trkpt lat="29.5853129" lon="103.3804682"><ele>904.81</ele><time>2026-05-28T22:59:37.000Z</time></trkpt>
        <trkpt lat="29.5852199" lon="103.3805219"><ele>906.23</ele><time>2026-05-28T22:59:41.000Z</time></trkpt>
        <trkpt lat="29.5851227" lon="103.3805774"><ele>907.15</ele><time>2026-05-28T22:59:45.000Z</time></trkpt>
        <trkpt lat="29.5850264" lon="103.3806314"><ele>908.19</ele><time>2026-05-28T22:59:49.000Z</time></trkpt>
        <trkpt lat="29.5849288" lon="103.3806795"><ele>908.95</ele><time>2026-05-28T22:59:53.000Z</time></trkpt>
        <trkpt lat="29.5848308" lon="103.3807293"><ele>909.27</ele><time>2026-05-28T22:59:57.000Z</time></trkpt>
        <trkpt lat="29.5847349" lon="103.3807816"><ele>909.92</ele><time>2026-05-28T23:00:01.000Z</time></trkpt>
        <trkpt lat="29.5846373" lon="103.3808303"><ele>910.8</ele><time>2026-05-28T23:00:05.000Z</time></trkpt>
        <trkpt lat="29.5845412" lon="103.3808829"><ele>911.73</ele><time>2026-05-28T23:00:09.000Z</time></trkpt>
        <trkpt lat="29.5844472" lon="103.3809402"><ele>912.82</ele><time>2026-05-28T23:00:13.000Z</time></trkpt>
        <trkpt lat="29.5843494" lon="103.3809972"><ele>914.11</ele><time>2026-05-28T23:00:17.000Z</time></trkpt>
        <trkpt lat="29.5842501" lon="103.3810503"><ele>915.98</ele><time>2026-05-28T23:00:21.000Z</time></trkpt>
        <trkpt lat="29.5841515" lon="103.381104"><ele>918.03</ele><time>2026-05-28T23:00:25.000Z</time></trkpt>
        <trkpt lat="29.5840516" lon="103.3811558"><ele>920.31</ele><time>2026-05-28T23:00:29.000Z</time></trkpt>
        <trkpt lat="29.5839541" lon="103.3812073"><ele>922.7</ele><time>2026-05-28T23:00:33.000Z</time></trkpt>
        <trkpt lat="29.5838557" lon="103.3812606"><ele>925.12</ele><time>2026-05-28T23:00:37.000Z</time></trkpt>
        <trkpt lat="29.5837571" lon="103.3813144"><ele>927.34</ele><time>2026-05-28T23:00:41.000Z</time></trkpt>
        <trkpt lat="29.583657" lon="103.3813655"><ele>929.36</ele><time>2026-05-28T23:00:45.000Z</time></trkpt>
        <trkpt lat="29.5835611" lon="103.3814149"><ele>930.93</ele><time>2026-05-28T23:00:49.000Z</time></trkpt>
        <trkpt lat="29.5834677" lon="103.3814638"><ele>932.39</ele><time>2026-05-28T23:00:53.000Z</time></trkpt>
        <trkpt lat="29.5833781" lon="103.3815121"><ele>934</ele><time>2026-05-28T23:00:57.000Z</time></trkpt>
        <trkpt lat="29.5832862" lon="103.3815665"><ele>935.98</ele><time>2026-05-28T23:01:01.000Z</time></trkpt>
        <trkpt lat="29.5831923" lon="103.3816141"><ele>938.38</ele><time>2026-05-28T23:01:05.000Z</time></trkpt>
        <trkpt lat="29.5830973" lon="103.3816596"><ele>940.27</ele><time>2026-05-28T23:01:09.000Z</time></trkpt>
        <trkpt lat="29.5830011" lon="103.3817083"><ele>941.95</ele><time>2026-05-28T23:01:13.000Z</time></trkpt>
        <trkpt lat="29.582905" lon="103.3817589"><ele>943.65</ele><time>2026-05-28T23:01:17.000Z</time></trkpt>
        <trkpt lat="29.5828011" lon="103.3818123"><ele>944.47</ele><time>2026-05-28T23:01:21.000Z</time></trkpt>
        <trkpt lat="29.5826987" lon="103.3818657"><ele>943.7</ele><time>2026-05-28T23:01:25.000Z</time></trkpt>
        <trkpt lat="29.5826146" lon="103.3819231"><ele>943.42</ele><time>2026-05-28T23:01:29.000Z</time></trkpt>
        <trkpt lat="29.5825275" lon="103.3819332"><ele>943.2</ele><time>2026-05-28T23:01:43.000Z</time></trkpt>
        <trkpt lat="29.5823959" lon="103.3820103"><ele>945.83</ele><time>2026-05-28T23:02:09.000Z</time></trkpt>
        <trkpt lat="29.5822904" lon="103.382091"><ele>948.35</ele><time>2026-05-28T23:02:13.000Z</time></trkpt>
        <trkpt lat="29.5822007" lon="103.3821193"><ele>949.49</ele><time>2026-05-28T23:04:49.000Z</time></trkpt>
        <trkpt lat="29.582138" lon="103.3821961"><ele>950.9</ele><time>2026-05-28T23:06:03.000Z</time></trkpt>
        <trkpt lat="29.5820869" lon="103.3822895"><ele>952.22</ele><time>2026-05-28T23:06:11.000Z</time></trkpt>
        <trkpt lat="29.5820665" lon="103.3824016"><ele>953.94</ele><time>2026-05-28T23:06:27.000Z</time></trkpt>
        <trkpt lat="29.5820091" lon="103.3824869"><ele>954.32</ele><time>2026-05-28T23:06:41.000Z</time></trkpt>
        <trkpt lat="29.5819685" lon="103.3825801"><ele>953.66</ele><time>2026-05-28T23:07:01.000Z</time></trkpt>
        <trkpt lat="29.5819455" lon="103.3826855"><ele>953.81</ele><time>2026-05-28T23:07:19.000Z</time></trkpt>
        <trkpt lat="29.5818805" lon="103.3827495"><ele>951.45</ele><time>2026-05-28T23:07:27.000Z</time></trkpt>
        <trkpt lat="29.5818576" lon="103.382864"><ele>949.81</ele><time>2026-05-28T23:07:37.000Z</time></trkpt>
        <trkpt lat="29.5818793" lon="103.3829849"><ele>952.67</ele><time>2026-05-28T23:07:43.000Z</time></trkpt>
        <trkpt lat="29.581879" lon="103.3831025"><ele>956.47</ele><time>2026-05-28T23:07:53.000Z</time></trkpt>
        <trkpt lat="29.5818968" lon="103.383229"><ele>959.66</ele><time>2026-05-28T23:08:05.000Z</time></trkpt>
        <trkpt lat="29.5819331" lon="103.3833354"><ele>960.29</ele><time>2026-05-28T23:08:19.000Z</time></trkpt>
        <trkpt lat="29.5818797" lon="103.3833903"><ele>957.24</ele><time>2026-05-28T23:08:31.000Z</time></trkpt>
        <trkpt lat="29.5818043" lon="103.3834482"><ele>950.21</ele><time>2026-05-28T23:08:39.000Z</time></trkpt>
        <trkpt lat="29.5817218" lon="103.3835281"><ele>946.3</ele><time>2026-05-28T23:08:47.000Z</time></trkpt>
        <trkpt lat="29.5816429" lon="103.3836177"><ele>946.43</ele><time>2026-05-28T23:08:55.000Z</time></trkpt>
        <trkpt lat="29.5815579" lon="103.3837115"><ele>946.57</ele><time>2026-05-28T23:09:03.000Z</time></trkpt>
        <trkpt lat="29.581457" lon="103.3837598"><ele>947.19</ele><time>2026-05-28T23:09:11.000Z</time></trkpt>
        <trkpt lat="29.5814175" lon="103.3836878"><ele>947.61</ele><time>2026-05-28T23:09:19.000Z</time></trkpt>
        <trkpt lat="29.5814323" lon="103.3835699"><ele>947.89</ele><time>2026-05-28T23:09:35.000Z</time></trkpt>
        <trkpt lat="29.5814236" lon="103.3834489"><ele>945.88</ele><time>2026-05-28T23:09:55.000Z</time></trkpt>
        <trkpt lat="29.5814011" lon="103.3833296"><ele>944.67</ele><time>2026-05-28T23:10:17.000Z</time></trkpt>
        <trkpt lat="29.5813674" lon="103.383221"><ele>946.28</ele><time>2026-05-28T23:10:31.000Z</time></trkpt>
        <trkpt lat="29.5813331" lon="103.3831193"><ele>948.17</ele><time>2026-05-28T23:10:51.000Z</time></trkpt>
        <trkpt lat="29.5813034" lon="103.3830159"><ele>953.23</ele><time>2026-05-28T23:11:11.000Z</time></trkpt>
        <trkpt lat="29.5813256" lon="103.3829098"><ele>959.73</ele><time>2026-05-28T23:12:25.000Z</time></trkpt>
        <trkpt lat="29.5813022" lon="103.3828097"><ele>963.04</ele><time>2026-05-28T23:12:51.000Z</time></trkpt>
        <trkpt lat="29.5813242" lon="103.3828906"><ele>965.21</ele><time>2026-05-28T23:13:05.000Z</time></trkpt>
        <trkpt lat="29.5813547" lon="103.3829907"><ele>965.78</ele><time>2026-05-28T23:13:21.000Z</time></trkpt>
        <trkpt lat="29.5813658" lon="103.3829343"><ele>965.71</ele><time>2026-05-28T23:13:29.000Z</time></trkpt>
        <trkpt lat="29.5813671" lon="103.3829994"><ele>964.07</ele><time>2026-05-28T23:13:59.000Z</time></trkpt>
        <trkpt lat="29.5813882" lon="103.3830968"><ele>963.6</ele><time>2026-05-28T23:14:11.000Z</time></trkpt>
        <trkpt lat="29.5813677" lon="103.3832105"><ele>963.78</ele><time>2026-05-28T23:14:45.000Z</time></trkpt>
        <trkpt lat="29.5813718" lon="103.3833416"><ele>964.53</ele><time>2026-05-28T23:14:57.000Z</time></trkpt>
        <trkpt lat="29.5813813" lon="103.3834621"><ele>964.3</ele><time>2026-05-28T23:15:09.000Z</time></trkpt>
        <trkpt lat="29.581389" lon="103.3835731"><ele>962.63</ele><time>2026-05-28T23:15:23.000Z</time></trkpt>
        <trkpt lat="29.5814148" lon="103.3836861"><ele>959.85</ele><time>2026-05-28T23:15:35.000Z</time></trkpt>
        <trkpt lat="29.5814319" lon="103.3837945"><ele>955.59</ele><time>2026-05-28T23:15:47.000Z</time></trkpt>
        <trkpt lat="29.5814619" lon="103.383901"><ele>950.7</ele><time>2026-05-28T23:15:57.000Z</time></trkpt>
        <trkpt lat="29.5814984" lon="103.3840129"><ele>948.23</ele><time>2026-05-28T23:16:09.000Z</time></trkpt>
        <trkpt lat="29.5815364" lon="103.3841195"><ele>945.38</ele><time>2026-05-28T23:16:21.000Z</time></trkpt>
        <trkpt lat="29.5815784" lon="103.384217"><ele>942.81</ele><time>2026-05-28T23:16:33.000Z</time></trkpt>
        <trkpt lat="29.5816447" lon="103.384288"><ele>938.23</ele><time>2026-05-28T23:16:47.000Z</time></trkpt>
        <trkpt lat="29.5816756" lon="103.3843001"><ele>933.85</ele><time>2026-05-28T23:16:55.000Z</time></trkpt>
        <trkpt lat="29.5816091" lon="103.3843417"><ele>931.24</ele><time>2026-05-28T23:17:13.000Z</time></trkpt>
        <trkpt lat="29.5815394" lon="103.3843854"><ele>927.89</ele><time>2026-05-28T23:17:25.000Z</time></trkpt>
        <trkpt lat="29.5814592" lon="103.3843421"><ele>926.27</ele><time>2026-05-28T23:17:59.000Z</time></trkpt>
        <trkpt lat="29.5813521" lon="103.3843017"><ele>927.39</ele><time>2026-05-28T23:18:11.000Z</time></trkpt>
        <trkpt lat="29.5812656" lon="103.3842328"><ele>927.26</ele><time>2026-05-28T23:18:29.000Z</time></trkpt>
        <trkpt lat="29.5811612" lon="103.3841887"><ele>928</ele><time>2026-05-28T23:18:41.000Z</time></trkpt>
        <trkpt lat="29.5810646" lon="103.3841635"><ele>927.22</ele><time>2026-05-28T23:18:53.000Z</time></trkpt>
        <trkpt lat="29.5809637" lon="103.3841267"><ele>925.4</ele><time>2026-05-28T23:19:07.000Z</time></trkpt>
        <trkpt lat="29.5808696" lon="103.3841207"><ele>922.45</ele><time>2026-05-28T23:19:17.000Z</time></trkpt>
        <trkpt lat="29.5807925" lon="103.3841795"><ele>921.09</ele><time>2026-05-28T23:19:27.000Z</time></trkpt>
        <trkpt lat="29.5807342" lon="103.3842787"><ele>918.4</ele><time>2026-05-28T23:19:43.000Z</time></trkpt>
        <trkpt lat="29.5806699" lon="103.3843721"><ele>914.5</ele><time>2026-05-28T23:19:55.000Z</time></trkpt>
        <trkpt lat="29.5805996" lon="103.3844552"><ele>911.02</ele><time>2026-05-28T23:20:09.000Z</time></trkpt>
        <trkpt lat="29.5805165" lon="103.3845249"><ele>910.44</ele><time>2026-05-28T23:20:23.000Z</time></trkpt>
        <trkpt lat="29.5804419" lon="103.3846142"><ele>909.77</ele><time>2026-05-28T23:20:35.000Z</time></trkpt>
        <trkpt lat="29.5804007" lon="103.3847161"><ele>907.78</ele><time>2026-05-28T23:20:51.000Z</time></trkpt>
        <trkpt lat="29.5803377" lon="103.3847993"><ele>902.7</ele><time>2026-05-28T23:21:07.000Z</time></trkpt>
        <trkpt lat="29.5802751" lon="103.384882"><ele>896.52</ele><time>2026-05-28T23:21:15.000Z</time></trkpt>
        <trkpt lat="29.5802053" lon="103.3849712"><ele>893.29</ele><time>2026-05-28T23:21:29.000Z</time></trkpt>
        <trkpt lat="29.5801506" lon="103.3850775"><ele>891.29</ele><time>2026-05-28T23:21:39.000Z</time></trkpt>
        <trkpt lat="29.5801009" lon="103.3851766"><ele>888.86</ele><time>2026-05-28T23:21:47.000Z</time></trkpt>
        <trkpt lat="29.5800142" lon="103.3852589"><ele>884.79</ele><time>2026-05-28T23:22:05.000Z</time></trkpt>
        <trkpt lat="29.5799166" lon="103.3852984"><ele>882.63</ele><time>2026-05-28T23:22:13.000Z</time></trkpt>
        <trkpt lat="29.57983" lon="103.3853422"><ele>881.5</ele><time>2026-05-28T23:22:23.000Z</time></trkpt>
        <trkpt lat="29.5797773" lon="103.3854306"><ele>881.52</ele><time>2026-05-28T23:22:33.000Z</time></trkpt>
        <trkpt lat="29.5797009" lon="103.3854984"><ele>879.05</ele><time>2026-05-28T23:22:51.000Z</time></trkpt>
        <trkpt lat="29.5796178" lon="103.3855759"><ele>874.35</ele><time>2026-05-28T23:23:05.000Z</time></trkpt>
        <trkpt lat="29.5795576" lon="103.3856787"><ele>868.81</ele><time>2026-05-28T23:23:15.000Z</time></trkpt>
        <trkpt lat="29.5794943" lon="103.3857726"><ele>865.63</ele><time>2026-05-28T23:23:25.000Z</time></trkpt>
        <trkpt lat="29.5794421" lon="103.3858738"><ele>864.95</ele><time>2026-05-28T23:23:39.000Z</time></trkpt>
        <trkpt lat="29.5794005" lon="103.385983"><ele>862.7</ele><time>2026-05-28T23:24:01.000Z</time></trkpt>
        <trkpt lat="29.5794026" lon="103.3861005"><ele>856.63</ele><time>2026-05-28T23:24:13.000Z</time></trkpt>
        <trkpt lat="29.5794075" lon="103.386214"><ele>850.83</ele><time>2026-05-28T23:24:27.000Z</time></trkpt>
        <trkpt lat="29.5794025" lon="103.3863303"><ele>845.9</ele><time>2026-05-28T23:24:39.000Z</time></trkpt>
        <trkpt lat="29.5793865" lon="103.3864511"><ele>841.74</ele><time>2026-05-28T23:24:53.000Z</time></trkpt>
        <trkpt lat="29.5793586" lon="103.3865589"><ele>838.99</ele><time>2026-05-28T23:25:07.000Z</time></trkpt>
        <trkpt lat="29.5792931" lon="103.3866639"><ele>837.68</ele><time>2026-05-28T23:25:19.000Z</time></trkpt>
        <trkpt lat="29.5792463" lon="103.386765"><ele>839.95</ele><time>2026-05-28T23:25:29.000Z</time></trkpt>
        <trkpt lat="29.5791726" lon="103.3868482"><ele>840.48</ele><time>2026-05-28T23:25:45.000Z</time></trkpt>
        <trkpt lat="29.5790928" lon="103.3869167"><ele>839.91</ele><time>2026-05-28T23:26:03.000Z</time></trkpt>
        <trkpt lat="29.5790205" lon="103.386987"><ele>840.56</ele><time>2026-05-28T23:26:13.000Z</time></trkpt>
        <trkpt lat="29.5789832" lon="103.3870814"><ele>839.49</ele><time>2026-05-28T23:26:27.000Z</time></trkpt>
        <trkpt lat="29.5789358" lon="103.3871773"><ele>834.14</ele><time>2026-05-28T23:26:39.000Z</time></trkpt>
        <trkpt lat="29.5789154" lon="103.3872869"><ele>828.77</ele><time>2026-05-28T23:26:47.000Z</time></trkpt>
        <trkpt lat="29.5789027" lon="103.3873972"><ele>823.49</ele><time>2026-05-28T23:26:55.000Z</time></trkpt>
        <trkpt lat="29.5789097" lon="103.3875217"><ele>819.52</ele><time>2026-05-28T23:27:05.000Z</time></trkpt>
        <trkpt lat="29.5789274" lon="103.3876558"><ele>815.11</ele><time>2026-05-28T23:27:13.000Z</time></trkpt>
        <trkpt lat="29.5789462" lon="103.3877951"><ele>811.63</ele><time>2026-05-28T23:27:23.000Z</time></trkpt>
        <trkpt lat="29.5789522" lon="103.387928"><ele>809.82</ele><time>2026-05-28T23:27:31.000Z</time></trkpt>
        <trkpt lat="29.5789476" lon="103.3880464"><ele>808.81</ele><time>2026-05-28T23:27:39.000Z</time></trkpt>
        <trkpt lat="29.5789499" lon="103.3881546"><ele>809.45</ele><time>2026-05-28T23:27:49.000Z</time></trkpt>
        <trkpt lat="29.5789514" lon="103.3882712"><ele>808.52</ele><time>2026-05-28T23:27:59.000Z</time></trkpt>
        <trkpt lat="29.5789349" lon="103.3883824"><ele>808.03</ele><time>2026-05-28T23:28:15.000Z</time></trkpt>
        <trkpt lat="29.5789419" lon="103.3884879"><ele>807.96</ele><time>2026-05-28T23:28:27.000Z</time></trkpt>
        <trkpt lat="29.578954" lon="103.3885914"><ele>807.58</ele><time>2026-05-28T23:28:39.000Z</time></trkpt>
        <trkpt lat="29.5789474" lon="103.3887001"><ele>806.82</ele><time>2026-05-28T23:28:53.000Z</time></trkpt>
        <trkpt lat="29.5788743" lon="103.3887484"><ele>803.7</ele><time>2026-05-28T23:29:07.000Z</time></trkpt>
        <trkpt lat="29.5787758" lon="103.3888045"><ele>801.57</ele><time>2026-05-28T23:29:17.000Z</time></trkpt>
        <trkpt lat="29.5786662" lon="103.3888359"><ele>801.23</ele><time>2026-05-28T23:29:25.000Z</time></trkpt>
        <trkpt lat="29.5785564" lon="103.3888352"><ele>802.42</ele><time>2026-05-28T23:29:37.000Z</time></trkpt>
        <trkpt lat="29.5784619" lon="103.3888607"><ele>799.48</ele><time>2026-05-28T23:29:49.000Z</time></trkpt>
        <trkpt lat="29.5783978" lon="103.3889313"><ele>795.64</ele><time>2026-05-28T23:30:07.000Z</time></trkpt>
        <trkpt lat="29.5783587" lon="103.389042"><ele>790.52</ele><time>2026-05-28T23:30:17.000Z</time></trkpt>
        <trkpt lat="29.5783707" lon="103.3890778"><ele>786.79</ele><time>2026-05-28T23:30:19.000Z</time></trkpt>
        <trkpt lat="29.5783359" lon="103.3891629"><ele>784</ele><time>2026-05-28T23:30:45.000Z</time></trkpt>
        <trkpt lat="29.5783459" lon="103.3892804"><ele>782.75</ele><time>2026-05-28T23:30:51.000Z</time></trkpt>
        <trkpt lat="29.5784067" lon="103.3893828"><ele>783.59</ele><time>2026-05-28T23:31:01.000Z</time></trkpt>
        <trkpt lat="29.5784576" lon="103.3894864"><ele>785.25</ele><time>2026-05-28T23:31:09.000Z</time></trkpt>
        <trkpt lat="29.5784748" lon="103.3896024"><ele>786.43</ele><time>2026-05-28T23:31:17.000Z</time></trkpt>
        <trkpt lat="29.5784783" lon="103.3897134"><ele>788.17</ele><time>2026-05-28T23:31:27.000Z</time></trkpt>
        <trkpt lat="29.5784681" lon="103.389839"><ele>788.6</ele><time>2026-05-28T23:31:55.000Z</time></trkpt>
        <trkpt lat="29.5784218" lon="103.3899415"><ele>787.61</ele><time>2026-05-28T23:32:05.000Z</time></trkpt>
        <trkpt lat="29.5783606" lon="103.3900435"><ele>788.57</ele><time>2026-05-28T23:32:15.000Z</time></trkpt>
        <trkpt lat="29.5783248" lon="103.3901675"><ele>790.9</ele><time>2026-05-28T23:32:23.000Z</time></trkpt>
        <trkpt lat="29.5783007" lon="103.3902885"><ele>791.82</ele><time>2026-05-28T23:32:33.000Z</time></trkpt>
        <trkpt lat="29.5782568" lon="103.3903896"><ele>788.98</ele><time>2026-05-28T23:32:41.000Z</time></trkpt>
        <trkpt lat="29.5782062" lon="103.3904815"><ele>785.61</ele><time>2026-05-28T23:32:53.000Z</time></trkpt>
        <trkpt lat="29.5781664" lon="103.390582"><ele>781.8</ele><time>2026-05-28T23:33:01.000Z</time></trkpt>
        <trkpt lat="29.5781119" lon="103.3906891"><ele>778.07</ele><time>2026-05-28T23:33:11.000Z</time></trkpt>
        <trkpt lat="29.5780585" lon="103.3907916"><ele>775.47</ele><time>2026-05-28T23:33:19.000Z</time></trkpt>
        <trkpt lat="29.5780036" lon="103.3908842"><ele>774.2</ele><time>2026-05-28T23:33:27.000Z</time></trkpt>
        <trkpt lat="29.577943" lon="103.3909685"><ele>774.14</ele><time>2026-05-28T23:33:35.000Z</time></trkpt>
        <trkpt lat="29.5778882" lon="103.3910616"><ele>771.4</ele><time>2026-05-28T23:33:43.000Z</time></trkpt>
        <trkpt lat="29.5777994" lon="103.3911106"><ele>769.84</ele><time>2026-05-28T23:34:03.000Z</time></trkpt>
        <trkpt lat="29.5777041" lon="103.3911022"><ele>768.97</ele><time>2026-05-28T23:34:17.000Z</time></trkpt>
        <trkpt lat="29.5776066" lon="103.3910676"><ele>768.69</ele><time>2026-05-28T23:34:31.000Z</time></trkpt>
        <trkpt lat="29.5775044" lon="103.3910276"><ele>767.2</ele><time>2026-05-28T23:34:45.000Z</time></trkpt>
        <trkpt lat="29.5774239" lon="103.3909566"><ele>765.06</ele><time>2026-05-28T23:34:55.000Z</time></trkpt>
        <trkpt lat="29.5773286" lon="103.3909069"><ele>760.46</ele><time>2026-05-28T23:35:05.000Z</time></trkpt>
        <trkpt lat="29.5772514" lon="103.3909485"><ele>756.83</ele><time>2026-05-28T23:35:15.000Z</time></trkpt>
        <trkpt lat="29.57716" lon="103.390989"><ele>754.84</ele><time>2026-05-28T23:35:25.000Z</time></trkpt>
        <trkpt lat="29.5770976" lon="103.3910878"><ele>754.27</ele><time>2026-05-28T23:35:35.000Z</time></trkpt>
        <trkpt lat="29.5770605" lon="103.3912008"><ele>752.29</ele><time>2026-05-28T23:35:43.000Z</time></trkpt>
        <trkpt lat="29.5770117" lon="103.3913105"><ele>749.24</ele><time>2026-05-28T23:35:53.000Z</time></trkpt>
        <trkpt lat="29.576958" lon="103.3914216"><ele>747.04</ele><time>2026-05-28T23:36:03.000Z</time></trkpt>
        <trkpt lat="29.5769086" lon="103.3915416"><ele>744.62</ele><time>2026-05-28T23:36:13.000Z</time></trkpt>
        <trkpt lat="29.5768567" lon="103.3916602"><ele>742.3</ele><time>2026-05-28T23:36:23.000Z</time></trkpt>
        <trkpt lat="29.5768103" lon="103.3917647"><ele>741.09</ele><time>2026-05-28T23:36:33.000Z</time></trkpt>
        <trkpt lat="29.5767499" lon="103.3918523"><ele>740.31</ele><time>2026-05-28T23:36:43.000Z</time></trkpt>
        <trkpt lat="29.5766672" lon="103.3919252"><ele>738.64</ele><time>2026-05-28T23:36:53.000Z</time></trkpt>
        <trkpt lat="29.5765647" lon="103.3919728"><ele>737.28</ele><time>2026-05-28T23:37:09.000Z</time></trkpt>
        <trkpt lat="29.5764664" lon="103.3919722"><ele>736.84</ele><time>2026-05-28T23:37:19.000Z</time></trkpt>
        <trkpt lat="29.5763657" lon="103.3919775"><ele>736.41</ele><time>2026-05-28T23:37:29.000Z</time></trkpt>
        <trkpt lat="29.5762587" lon="103.3919702"><ele>736.59</ele><time>2026-05-28T23:37:41.000Z</time></trkpt>
        <trkpt lat="29.5761648" lon="103.3919386"><ele>737.49</ele><time>2026-05-28T23:37:51.000Z</time></trkpt>
        <trkpt lat="29.5760695" lon="103.3919178"><ele>733.79</ele><time>2026-05-28T23:38:05.000Z</time></trkpt>
        <trkpt lat="29.5759853" lon="103.391876"><ele>729.62</ele><time>2026-05-28T23:38:17.000Z</time></trkpt>
        <trkpt lat="29.5758845" lon="103.3918582"><ele>724.8</ele><time>2026-05-28T23:38:27.000Z</time></trkpt>
        <trkpt lat="29.5757906" lon="103.3918825"><ele>722.18</ele><time>2026-05-28T23:38:44.000Z</time></trkpt>
        <trkpt lat="29.5757168" lon="103.3919008"><ele>718.74</ele><time>2026-05-28T23:38:57.000Z</time></trkpt>
        <trkpt lat="29.5756296" lon="103.3918911"><ele>716.08</ele><time>2026-05-28T23:39:11.000Z</time></trkpt>
        <trkpt lat="29.5755454" lon="103.3918542"><ele>713.12</ele><time>2026-05-28T23:39:25.000Z</time></trkpt>
        <trkpt lat="29.5754549" lon="103.3918456"><ele>710.76</ele><time>2026-05-28T23:39:43.000Z</time></trkpt>
        <trkpt lat="29.5753576" lon="103.391857"><ele>707.28</ele><time>2026-05-28T23:39:53.000Z</time></trkpt>
        <trkpt lat="29.5752655" lon="103.3918898"><ele>705</ele><time>2026-05-28T23:40:07.000Z</time></trkpt>
        <trkpt lat="29.575182" lon="103.3919495"><ele>703.09</ele><time>2026-05-28T23:40:19.000Z</time></trkpt>
        <trkpt lat="29.5751028" lon="103.3920227"><ele>701.85</ele><time>2026-05-28T23:40:31.000Z</time></trkpt>
        <trkpt lat="29.5750156" lon="103.3920714"><ele>700.42</ele><time>2026-05-28T23:40:47.000Z</time></trkpt>
        <trkpt lat="29.5749202" lon="103.3920971"><ele>697.79</ele><time>2026-05-28T23:40:57.000Z</time></trkpt>
        <trkpt lat="29.574828" lon="103.3921514"><ele>696.87</ele><time>2026-05-28T23:41:11.000Z</time></trkpt>
        <trkpt lat="29.5747326" lon="103.3921972"><ele>696.11</ele><time>2026-05-28T23:41:21.000Z</time></trkpt>
        <trkpt lat="29.5746323" lon="103.3921896"><ele>694.59</ele><time>2026-05-28T23:41:35.000Z</time></trkpt>
        <trkpt lat="29.5745276" lon="103.3921636"><ele>691.54</ele><time>2026-05-28T23:41:51.000Z</time></trkpt>
        <trkpt lat="29.5744252" lon="103.3921481"><ele>687.4</ele><time>2026-05-28T23:42:03.000Z</time></trkpt>
        <trkpt lat="29.5743465" lon="103.3922076"><ele>683.09</ele><time>2026-05-28T23:42:21.000Z</time></trkpt>
        <trkpt lat="29.574267" lon="103.3922818"><ele>673.95</ele><time>2026-05-28T23:43:01.000Z</time></trkpt>
        <trkpt lat="29.5742494" lon="103.3923473"><ele>666.04</ele><time>2026-05-28T23:43:07.000Z</time></trkpt>
        <trkpt lat="29.5742196" lon="103.3922955"><ele>661.02</ele><time>2026-05-28T23:43:41.000Z</time></trkpt>
        <trkpt lat="29.5741535" lon="103.3923043"><ele>654.71</ele><time>2026-05-28T23:43:53.000Z</time></trkpt>
        <trkpt lat="29.5741181" lon="103.3922167"><ele>650.45</ele><time>2026-05-28T23:44:17.000Z</time></trkpt>
        <trkpt lat="29.5741877" lon="103.3921808"><ele>648.72</ele><time>2026-05-28T23:44:25.000Z</time></trkpt>
        <trkpt lat="29.5741533" lon="103.3921408"><ele>647.93</ele><time>2026-05-28T23:45:07.000Z</time></trkpt>
        <trkpt lat="29.5741066" lon="103.39207"><ele>653.99</ele><time>2026-05-28T23:45:23.000Z</time></trkpt>
        <trkpt lat="29.5740075" lon="103.3920593"><ele>655.25</ele><time>2026-05-28T23:45:39.000Z</time></trkpt>
        <trkpt lat="29.5739313" lon="103.3920935"><ele>655.03</ele><time>2026-05-28T23:45:49.000Z</time></trkpt>
        <trkpt lat="29.5739777" lon="103.3920746"><ele>654.48</ele><time>2026-05-28T23:46:19.000Z</time></trkpt>
        <trkpt lat="29.573932" lon="103.3920891"><ele>654.39</ele><time>2026-05-28T23:46:51.000Z</time></trkpt>
        <trkpt lat="29.5738555" lon="103.3921381"><ele>654.81</ele><time>2026-05-28T23:47:01.000Z</time></trkpt>
        <trkpt lat="29.5737695" lon="103.3921108"><ele>656.7</ele><time>2026-05-28T23:47:09.000Z</time></trkpt>
        <trkpt lat="29.5736812" lon="103.3920542"><ele>657.75</ele><time>2026-05-28T23:47:17.000Z</time></trkpt>
        <trkpt lat="29.5736032" lon="103.3919835"><ele>655.18</ele><time>2026-05-28T23:47:25.000Z</time></trkpt>
        <trkpt lat="29.5735163" lon="103.3919352"><ele>653.27</ele><time>2026-05-28T23:47:35.000Z</time></trkpt>
        <trkpt lat="29.573461" lon="103.3918358"><ele>655.59</ele><time>2026-05-28T23:47:43.000Z</time></trkpt>
        <trkpt lat="29.5734182" lon="103.3917332"><ele>656.89</ele><time>2026-05-28T23:47:55.000Z</time></trkpt>
        <trkpt lat="29.5733312" lon="103.3917434"><ele>658.4</ele><time>2026-05-28T23:48:05.000Z</time></trkpt>
        <trkpt lat="29.5732301" lon="103.3917768"><ele>660.19</ele><time>2026-05-28T23:48:19.000Z</time></trkpt>
        <trkpt lat="29.5731373" lon="103.391769"><ele>662.17</ele><time>2026-05-28T23:48:33.000Z</time></trkpt>
        <trkpt lat="29.5730349" lon="103.3917888"><ele>665.3</ele><time>2026-05-28T23:48:45.000Z</time></trkpt>
        <trkpt lat="29.57294" lon="103.3918368"><ele>668.91</ele><time>2026-05-28T23:48:55.000Z</time></trkpt>
        <trkpt lat="29.5728435" lon="103.3918777"><ele>671.64</ele><time>2026-05-28T23:49:05.000Z</time></trkpt>
        <trkpt lat="29.5727408" lon="103.3919092"><ele>671.69</ele><time>2026-05-28T23:49:15.000Z</time></trkpt>
        <trkpt lat="29.5726477" lon="103.3918991"><ele>672.28</ele><time>2026-05-28T23:49:25.000Z</time></trkpt>
        <trkpt lat="29.5725606" lon="103.3919169"><ele>673.06</ele><time>2026-05-28T23:49:35.000Z</time></trkpt>
        <trkpt lat="29.572468" lon="103.3919196"><ele>675.17</ele><time>2026-05-28T23:49:45.000Z</time></trkpt>
        <trkpt lat="29.5723837" lon="103.3918859"><ele>676.25</ele><time>2026-05-28T23:49:53.000Z</time></trkpt>
        <trkpt lat="29.5723589" lon="103.3918571"><ele>677.77</ele><time>2026-05-28T23:49:55.000Z</time></trkpt>
        <trkpt lat="29.5723029" lon="103.3918026"><ele>677.61</ele><time>2026-05-28T23:50:05.000Z</time></trkpt>
        <trkpt lat="29.572219" lon="103.3917702"><ele>678.17</ele><time>2026-05-28T23:50:15.000Z</time></trkpt>
        <trkpt lat="29.5721265" lon="103.3917238"><ele>678.56</ele><time>2026-05-28T23:50:25.000Z</time></trkpt>
        <trkpt lat="29.5720302" lon="103.3917326"><ele>678.59</ele><time>2026-05-28T23:50:33.000Z</time></trkpt>
        <trkpt lat="29.5719187" lon="103.3917252"><ele>679.11</ele><time>2026-05-28T23:50:41.000Z</time></trkpt>
        <trkpt lat="29.5718214" lon="103.3917422"><ele>680.3</ele><time>2026-05-28T23:50:47.000Z</time></trkpt>
        <trkpt lat="29.5717313" lon="103.3917229"><ele>679.31</ele><time>2026-05-28T23:50:55.000Z</time></trkpt>
        <trkpt lat="29.5716333" lon="103.3917222"><ele>678.39</ele><time>2026-05-28T23:51:03.000Z</time></trkpt>
        <trkpt lat="29.5715283" lon="103.3917473"><ele>678.36</ele><time>2026-05-28T23:51:11.000Z</time></trkpt>
        <trkpt lat="29.5714223" lon="103.3917638"><ele>678.12</ele><time>2026-05-28T23:51:19.000Z</time></trkpt>
        <trkpt lat="29.5713184" lon="103.3917505"><ele>676.86</ele><time>2026-05-28T23:51:27.000Z</time></trkpt>
        <trkpt lat="29.57127" lon="103.3917138"><ele>675.8</ele><time>2026-05-28T23:51:33.000Z</time></trkpt>
        <trkpt lat="29.5711798" lon="103.3917084"><ele>674.88</ele><time>2026-05-28T23:51:45.000Z</time></trkpt>
        <trkpt lat="29.5710858" lon="103.3917037"><ele>672.04</ele><time>2026-05-28T23:51:53.000Z</time></trkpt>
        <trkpt lat="29.5709753" lon="103.3917075"><ele>669.96</ele><time>2026-05-28T23:52:03.000Z</time></trkpt>
        <trkpt lat="29.5708748" lon="103.3916898"><ele>666.45</ele><time>2026-05-28T23:52:11.000Z</time></trkpt>
        <trkpt lat="29.5707829" lon="103.3916272"><ele>665.9</ele><time>2026-05-28T23:52:21.000Z</time></trkpt>
        <trkpt lat="29.5706937" lon="103.391556"><ele>665.1</ele><time>2026-05-28T23:52:33.000Z</time></trkpt>
        <trkpt lat="29.570604" lon="103.3914925"><ele>666.08</ele><time>2026-05-28T23:52:43.000Z</time></trkpt>
        <trkpt lat="29.5705389" lon="103.3914054"><ele>667.93</ele><time>2026-05-28T23:52:55.000Z</time></trkpt>
        <trkpt lat="29.5704532" lon="103.3913509"><ele>669.63</ele><time>2026-05-28T23:53:05.000Z</time></trkpt>
        <trkpt lat="29.5703579" lon="103.3913276"><ele>671.82</ele><time>2026-05-28T23:53:17.000Z</time></trkpt>
        <trkpt lat="29.5703081" lon="103.3912522"><ele>677.92</ele><time>2026-05-28T23:53:35.000Z</time></trkpt>
        <trkpt lat="29.5702289" lon="103.3912358"><ele>681.82</ele><time>2026-05-28T23:54:05.000Z</time></trkpt>
        <trkpt lat="29.57016" lon="103.3911713"><ele>685.39</ele><time>2026-05-28T23:54:17.000Z</time></trkpt>
        <trkpt lat="29.5701048" lon="103.3910827"><ele>688.14</ele><time>2026-05-28T23:54:27.000Z</time></trkpt>
        <trkpt lat="29.5701144" lon="103.3909752"><ele>688.79</ele><time>2026-05-28T23:54:51.000Z</time></trkpt>
        <trkpt lat="29.570043" lon="103.3909318"><ele>689.96</ele><time>2026-05-28T23:55:01.000Z</time></trkpt>
        <trkpt lat="29.5699481" lon="103.3909465"><ele>692.75</ele><time>2026-05-28T23:55:11.000Z</time></trkpt>
        <trkpt lat="29.5698373" lon="103.3909901"><ele>695.13</ele><time>2026-05-28T23:55:21.000Z</time></trkpt>
        <trkpt lat="29.5697366" lon="103.3909912"><ele>695.64</ele><time>2026-05-28T23:55:33.000Z</time></trkpt>
        <trkpt lat="29.5696336" lon="103.3909727"><ele>694.68</ele><time>2026-05-28T23:55:47.000Z</time></trkpt>
        <trkpt lat="29.5695381" lon="103.3910153"><ele>692.63</ele><time>2026-05-28T23:55:57.000Z</time></trkpt>
        <trkpt lat="29.5694483" lon="103.3910087"><ele>690.48</ele><time>2026-05-28T23:56:07.000Z</time></trkpt>
        <trkpt lat="29.5693488" lon="103.3909814"><ele>686.6</ele><time>2026-05-28T23:56:33.000Z</time></trkpt>
        <trkpt lat="29.5693188" lon="103.3908883"><ele>681.91</ele><time>2026-05-28T23:56:41.000Z</time></trkpt>
        <trkpt lat="29.5692519" lon="103.390847"><ele>677.45</ele><time>2026-05-28T23:56:49.000Z</time></trkpt>
        <trkpt lat="29.5691635" lon="103.3908623"><ele>674.65</ele><time>2026-05-28T23:56:55.000Z</time></trkpt>
        <trkpt lat="29.5690708" lon="103.390909"><ele>674.15</ele><time>2026-05-28T23:57:03.000Z</time></trkpt>
        <trkpt lat="29.5690391" lon="103.3909354"><ele>672.8</ele><time>2026-05-28T23:57:09.000Z</time></trkpt>
        <trkpt lat="29.5689466" lon="103.3910069"><ele>673.11</ele><time>2026-05-28T23:58:39.000Z</time></trkpt>
        <trkpt lat="29.5688697" lon="103.3910883"><ele>671.62</ele><time>2026-05-28T23:58:47.000Z</time></trkpt>
        <trkpt lat="29.568831" lon="103.3911845"><ele>670.28</ele><time>2026-05-28T23:58:57.000Z</time></trkpt>
        <trkpt lat="29.5687484" lon="103.3912304"><ele>671.43</ele><time>2026-05-28T23:59:07.000Z</time></trkpt>
        <trkpt lat="29.5686569" lon="103.3912565"><ele>669.58</ele><time>2026-05-28T23:59:13.000Z</time></trkpt>
        <trkpt lat="29.5685668" lon="103.3912114"><ele>668.78</ele><time>2026-05-28T23:59:21.000Z</time></trkpt>
        <trkpt lat="29.5685286" lon="103.3910964"><ele>667.28</ele><time>2026-05-28T23:59:27.000Z</time></trkpt>
        <trkpt lat="29.5684767" lon="103.3909813"><ele>667.05</ele><time>2026-05-28T23:59:35.000Z</time></trkpt>
        <trkpt lat="29.5684789" lon="103.3908611"><ele>668.8</ele><time>2026-05-28T23:59:41.000Z</time></trkpt>
        <trkpt lat="29.568402" lon="103.3908054"><ele>671.22</ele><time>2026-05-28T23:59:49.000Z</time></trkpt>
        <trkpt lat="29.5683304" lon="103.3908528"><ele>677.22</ele><time>2026-05-29T00:00:27.000Z</time></trkpt>
        <trkpt lat="29.5682504" lon="103.3909405"><ele>683.36</ele><time>2026-05-29T00:00:55.000Z</time></trkpt>
        <trkpt lat="29.5682895" lon="103.3909315"><ele>689.6</ele><time>2026-05-29T00:01:05.000Z</time></trkpt>
        <trkpt lat="29.5683834" lon="103.390936"><ele>694.94</ele><time>2026-05-29T00:01:19.000Z</time></trkpt>
        <trkpt lat="29.5684305" lon="103.390946"><ele>694.69</ele><time>2026-05-29T00:01:25.000Z</time></trkpt>
        <trkpt lat="29.5685275" lon="103.390979"><ele>691.21</ele><time>2026-05-29T00:01:39.000Z</time></trkpt>
        <trkpt lat="29.5686021" lon="103.3910581"><ele>686.27</ele><time>2026-05-29T00:01:49.000Z</time></trkpt>
        <trkpt lat="29.5686842" lon="103.3911456"><ele>682.59</ele><time>2026-05-29T00:01:59.000Z</time></trkpt>
        <trkpt lat="29.5687646" lon="103.3912111"><ele>678.53</ele><time>2026-05-29T00:02:07.000Z</time></trkpt>
        <trkpt lat="29.5688593" lon="103.391194"><ele>677.19</ele><time>2026-05-29T00:02:19.000Z</time></trkpt>
        <trkpt lat="29.5689634" lon="103.3912175"><ele>677.95</ele><time>2026-05-29T00:03:55.000Z</time></trkpt>
        <trkpt lat="29.5689707" lon="103.3912013"><ele>678.75</ele><time>2026-05-29T00:03:57.000Z</time></trkpt>
        <trkpt lat="29.5690534" lon="103.3911868"><ele>678.97</ele><time>2026-05-29T00:04:11.000Z</time></trkpt>
        <trkpt lat="29.5691232" lon="103.391111"><ele>677.19</ele><time>2026-05-29T00:04:19.000Z</time></trkpt>
        <trkpt lat="29.5692161" lon="103.3910223"><ele>676.26</ele><time>2026-05-29T00:04:27.000Z</time></trkpt>
        <trkpt lat="29.5693223" lon="103.3910266"><ele>674.74</ele><time>2026-05-29T00:04:35.000Z</time></trkpt>
        <trkpt lat="29.569422" lon="103.3910362"><ele>673.47</ele><time>2026-05-29T00:04:43.000Z</time></trkpt>
        <trkpt lat="29.5694705" lon="103.3910166"><ele>674.76</ele><time>2026-05-29T00:04:51.000Z</time></trkpt>
        <trkpt lat="29.5695533" lon="103.3910468"><ele>677.52</ele><time>2026-05-29T00:05:01.000Z</time></trkpt>
        <trkpt lat="29.569621" lon="103.391125"><ele>677.18</ele><time>2026-05-29T00:05:09.000Z</time></trkpt>
        <trkpt lat="29.5697173" lon="103.3911608"><ele>676.24</ele><time>2026-05-29T00:05:15.000Z</time></trkpt>
        <trkpt lat="29.5698147" lon="103.3911804"><ele>676.64</ele><time>2026-05-29T00:05:21.000Z</time></trkpt>
        <trkpt lat="29.5699151" lon="103.3911995"><ele>676.39</ele><time>2026-05-29T00:05:27.000Z</time></trkpt>
        <trkpt lat="29.5700245" lon="103.3912211"><ele>676.08</ele><time>2026-05-29T00:05:35.000Z</time></trkpt>
        <trkpt lat="29.5701301" lon="103.391253"><ele>676.44</ele><time>2026-05-29T00:05:43.000Z</time></trkpt>
        <trkpt lat="29.5702245" lon="103.3912626"><ele>677.89</ele><time>2026-05-29T00:05:49.000Z</time></trkpt>
        <trkpt lat="29.5703212" lon="103.3912868"><ele>677.7</ele><time>2026-05-29T00:05:55.000Z</time></trkpt>
        <trkpt lat="29.5704172" lon="103.3913193"><ele>674.85</ele><time>2026-05-29T00:06:01.000Z</time></trkpt>
        <trkpt lat="29.5704995" lon="103.3913885"><ele>671.68</ele><time>2026-05-29T00:06:07.000Z</time></trkpt>
        <trkpt lat="29.5705674" lon="103.3914823"><ele>669.76</ele><time>2026-05-29T00:06:13.000Z</time></trkpt>
        <trkpt lat="29.570635" lon="103.3915634"><ele>670.27</ele><time>2026-05-29T00:06:19.000Z</time></trkpt>
        <trkpt lat="29.570729" lon="103.3915735"><ele>671.03</ele><time>2026-05-29T00:06:27.000Z</time></trkpt>
        <trkpt lat="29.5708093" lon="103.3916181"><ele>671.12</ele><time>2026-05-29T00:06:35.000Z</time></trkpt>
        <trkpt lat="29.5708923" lon="103.3916726"><ele>672.53</ele><time>2026-05-29T00:06:47.000Z</time></trkpt>
        <trkpt lat="29.5709759" lon="103.3917191"><ele>676.16</ele><time>2026-05-29T00:06:55.000Z</time></trkpt>
        <trkpt lat="29.5710779" lon="103.3917314"><ele>677.13</ele><time>2026-05-29T00:07:03.000Z</time></trkpt>
        <trkpt lat="29.5711772" lon="103.3917733"><ele>676.71</ele><time>2026-05-29T00:07:11.000Z</time></trkpt>
        <trkpt lat="29.5712812" lon="103.3917626"><ele>676.31</ele><time>2026-05-29T00:07:19.000Z</time></trkpt>
        <trkpt lat="29.5713782" lon="103.3917297"><ele>673.36</ele><time>2026-05-29T00:07:27.000Z</time></trkpt>
        <trkpt lat="29.5714741" lon="103.3917166"><ele>672.63</ele><time>2026-05-29T00:07:35.000Z</time></trkpt>
        <trkpt lat="29.5715719" lon="103.3917303"><ele>672.49</ele><time>2026-05-29T00:07:43.000Z</time></trkpt>
        <trkpt lat="29.5716684" lon="103.3917425"><ele>673.7</ele><time>2026-05-29T00:07:51.000Z</time></trkpt>
        <trkpt lat="29.5717673" lon="103.3917748"><ele>673.28</ele><time>2026-05-29T00:07:59.000Z</time></trkpt>
        <trkpt lat="29.571856" lon="103.3918141"><ele>673.75</ele><time>2026-05-29T00:08:09.000Z</time></trkpt>
        <trkpt lat="29.5719462" lon="103.3918275"><ele>674.71</ele><time>2026-05-29T00:08:17.000Z</time></trkpt>
        <trkpt lat="29.5720475" lon="103.3918298"><ele>676.03</ele><time>2026-05-29T00:08:25.000Z</time></trkpt>
        <trkpt lat="29.5721566" lon="103.3918204"><ele>678.2</ele><time>2026-05-29T00:08:33.000Z</time></trkpt>
        <trkpt lat="29.5722668" lon="103.3918373"><ele>679.7</ele><time>2026-05-29T00:08:43.000Z</time></trkpt>
        <trkpt lat="29.5723697" lon="103.3918379"><ele>680.88</ele><time>2026-05-29T00:08:51.000Z</time></trkpt>
        <trkpt lat="29.5724492" lon="103.3918844"><ele>681.42</ele><time>2026-05-29T00:08:59.000Z</time></trkpt>
        <trkpt lat="29.5725418" lon="103.3919251"><ele>681.79</ele><time>2026-05-29T00:09:09.000Z</time></trkpt>
        <trkpt lat="29.5726466" lon="103.3919219"><ele>681.2</ele><time>2026-05-29T00:09:19.000Z</time></trkpt>
        <trkpt lat="29.5727403" lon="103.3919723"><ele>679.59</ele><time>2026-05-29T00:09:27.000Z</time></trkpt>
        <trkpt lat="29.5728385" lon="103.391967"><ele>678.07</ele><time>2026-05-29T00:09:35.000Z</time></trkpt>
        <trkpt lat="29.5729345" lon="103.3919092"><ele>675.59</ele><time>2026-05-29T00:09:41.000Z</time></trkpt>
        <trkpt lat="29.5730136" lon="103.3918418"><ele>671.78</ele><time>2026-05-29T00:09:47.000Z</time></trkpt>
        <trkpt lat="29.5731033" lon="103.3917899"><ele>668.84</ele><time>2026-05-29T00:09:57.000Z</time></trkpt>
        <trkpt lat="29.5732024" lon="103.3918344"><ele>666.2</ele><time>2026-05-29T00:10:05.000Z</time></trkpt>
        <trkpt lat="29.5733065" lon="103.3918846"><ele>666.63</ele><time>2026-05-29T00:10:13.000Z</time></trkpt>
        <trkpt lat="29.5734154" lon="103.3919104"><ele>669.34</ele><time>2026-05-29T00:10:25.000Z</time></trkpt>
        <trkpt lat="29.5735051" lon="103.3919806"><ele>670.39</ele><time>2026-05-29T00:10:37.000Z</time></trkpt>
        <trkpt lat="29.5735797" lon="103.3920599"><ele>669.8</ele><time>2026-05-29T00:10:45.000Z</time></trkpt>
        <trkpt lat="29.573664" lon="103.3921363"><ele>668.3</ele><time>2026-05-29T00:10:55.000Z</time></trkpt>
        <trkpt lat="29.5737533" lon="103.3921934"><ele>666.24</ele><time>2026-05-29T00:11:03.000Z</time></trkpt>
        <trkpt lat="29.5738613" lon="103.3922088"><ele>661.83</ele><time>2026-05-29T00:11:11.000Z</time></trkpt>
        <trkpt lat="29.5739614" lon="103.392189"><ele>659.99</ele><time>2026-05-29T00:11:17.000Z</time></trkpt>
        <trkpt lat="29.5740445" lon="103.3921176"><ele>659.48</ele><time>2026-05-29T00:11:23.000Z</time></trkpt>
        <trkpt lat="29.5741286" lon="103.3921297"><ele>658.78</ele><time>2026-05-29T00:11:31.000Z</time></trkpt>
        <trkpt lat="29.5742025" lon="103.3922029"><ele>658.97</ele><time>2026-05-29T00:11:41.000Z</time></trkpt>
        <trkpt lat="29.5742873" lon="103.3922744"><ele>660.48</ele><time>2026-05-29T00:12:01.000Z</time></trkpt>
        <trkpt lat="29.5743575" lon="103.3923573"><ele>657.93</ele><time>2026-05-29T00:12:13.000Z</time></trkpt>
        <trkpt lat="29.5744105" lon="103.3924312"><ele>655.93</ele><time>2026-05-29T00:12:27.000Z</time></trkpt>
        <trkpt lat="29.5744336" lon="103.3925339"><ele>655.01</ele><time>2026-05-29T00:12:39.000Z</time></trkpt>
        <trkpt lat="29.5744622" lon="103.3926398"><ele>653.47</ele><time>2026-05-29T00:12:49.000Z</time></trkpt>
        <trkpt lat="29.5745396" lon="103.3926573"><ele>651.94</ele><time>2026-05-29T00:13:05.000Z</time></trkpt>
        <trkpt lat="29.5745751" lon="103.3926142"><ele>649.26</ele><time>2026-05-29T00:13:13.000Z</time></trkpt>
        <trkpt lat="29.5746495" lon="103.3926167"><ele>647.75</ele><time>2026-05-29T00:13:29.000Z</time></trkpt>
        <trkpt lat="29.5747103" lon="103.3926892"><ele>646.17</ele><time>2026-05-29T00:13:37.000Z</time></trkpt>
        <trkpt lat="29.5747556" lon="103.3928022"><ele>645.8</ele><time>2026-05-29T00:13:45.000Z</time></trkpt>
        <trkpt lat="29.5748235" lon="103.3929098"><ele>645.13</ele><time>2026-05-29T00:13:53.000Z</time></trkpt>
        <trkpt lat="29.5749114" lon="103.3929593"><ele>645.45</ele><time>2026-05-29T00:14:01.000Z</time></trkpt>
        <trkpt lat="29.5749915" lon="103.3930333"><ele>644.13</ele><time>2026-05-29T00:14:13.000Z</time></trkpt>
        <trkpt lat="29.5750815" lon="103.3930685"><ele>641.48</ele><time>2026-05-29T00:14:19.000Z</time></trkpt>
        <trkpt lat="29.575175" lon="103.3930444"><ele>638.79</ele><time>2026-05-29T00:14:25.000Z</time></trkpt>
        <trkpt lat="29.5752734" lon="103.3929875"><ele>638.31</ele><time>2026-05-29T00:14:31.000Z</time></trkpt>
        <trkpt lat="29.575359" lon="103.3929266"><ele>637.68</ele><time>2026-05-29T00:14:37.000Z</time></trkpt>
        <trkpt lat="29.5754458" lon="103.3928844"><ele>636.55</ele><time>2026-05-29T00:14:43.000Z</time></trkpt>
        <trkpt lat="29.5755438" lon="103.3928468"><ele>636.35</ele><time>2026-05-29T00:14:51.000Z</time></trkpt>
        <trkpt lat="29.5756282" lon="103.3927783"><ele>636.68</ele><time>2026-05-29T00:14:59.000Z</time></trkpt>
        <trkpt lat="29.5757157" lon="103.3927925"><ele>636.75</ele><time>2026-05-29T00:15:07.000Z</time></trkpt>
        <trkpt lat="29.5757569" lon="103.3928824"><ele>638.4</ele><time>2026-05-29T00:15:15.000Z</time></trkpt>
        <trkpt lat="29.575748" lon="103.3929366"><ele>641.44</ele><time>2026-05-29T00:15:21.000Z</time></trkpt>
        <trkpt lat="29.575778" lon="103.3930259"><ele>644.69</ele><time>2026-05-29T00:15:31.000Z</time></trkpt>
        <trkpt lat="29.5758243" lon="103.3931397"><ele>644.99</ele><time>2026-05-29T00:15:37.000Z</time></trkpt>
        <trkpt lat="29.5758944" lon="103.3932387"><ele>643.62</ele><time>2026-05-29T00:15:49.000Z</time></trkpt>
        <trkpt lat="29.5759625" lon="103.3933419"><ele>640.3</ele><time>2026-05-29T00:15:57.000Z</time></trkpt>
        <trkpt lat="29.5760084" lon="103.3934452"><ele>636.33</ele><time>2026-05-29T00:16:03.000Z</time></trkpt>
        <trkpt lat="29.576001" lon="103.3935609"><ele>634.33</ele><time>2026-05-29T00:16:11.000Z</time></trkpt>
        <trkpt lat="29.5759758" lon="103.3936766"><ele>633.47</ele><time>2026-05-29T00:16:17.000Z</time></trkpt>
        <trkpt lat="29.5759521" lon="103.3937966"><ele>633.86</ele><time>2026-05-29T00:16:23.000Z</time></trkpt>
        <trkpt lat="29.5759309" lon="103.3939099"><ele>636.72</ele><time>2026-05-29T00:16:29.000Z</time></trkpt>
        <trkpt lat="29.5758713" lon="103.3939989"><ele>639.83</ele><time>2026-05-29T00:16:35.000Z</time></trkpt>
        <trkpt lat="29.5758163" lon="103.3940883"><ele>643.75</ele><time>2026-05-29T00:16:41.000Z</time></trkpt>
        <trkpt lat="29.5757344" lon="103.3941553"><ele>644.98</ele><time>2026-05-29T00:16:51.000Z</time></trkpt>
        <trkpt lat="29.5756314" lon="103.3942111"><ele>642.73</ele><time>2026-05-29T00:17:01.000Z</time></trkpt>
        <trkpt lat="29.5755248" lon="103.3942727"><ele>640.68</ele><time>2026-05-29T00:17:09.000Z</time></trkpt>
        <trkpt lat="29.5754205" lon="103.3943461"><ele>639.74</ele><time>2026-05-29T00:17:17.000Z</time></trkpt>
        <trkpt lat="29.575312" lon="103.3943893"><ele>640.54</ele><time>2026-05-29T00:17:25.000Z</time></trkpt>
        <trkpt lat="29.5752072" lon="103.3944407"><ele>639.49</ele><time>2026-05-29T00:17:33.000Z</time></trkpt>
        <trkpt lat="29.5751053" lon="103.3944896"><ele>639.42</ele><time>2026-05-29T00:17:41.000Z</time></trkpt>
        <trkpt lat="29.5750018" lon="103.3945364"><ele>639.98</ele><time>2026-05-29T00:17:49.000Z</time></trkpt>
        <trkpt lat="29.5749201" lon="103.3945917"><ele>639.89</ele><time>2026-05-29T00:17:55.000Z</time></trkpt>
        <trkpt lat="29.5748242" lon="103.394668"><ele>638.29</ele><time>2026-05-29T00:18:03.000Z</time></trkpt>
        <trkpt lat="29.5747208" lon="103.3947349"><ele>635.91</ele><time>2026-05-29T00:18:11.000Z</time></trkpt>
        <trkpt lat="29.5746356" lon="103.3948259"><ele>635.16</ele><time>2026-05-29T00:18:19.000Z</time></trkpt>
        <trkpt lat="29.5746086" lon="103.3949311"><ele>634.91</ele><time>2026-05-29T00:18:25.000Z</time></trkpt>
        <trkpt lat="29.5746092" lon="103.3950522"><ele>635.21</ele><time>2026-05-29T00:18:33.000Z</time></trkpt>
        <trkpt lat="29.5746281" lon="103.3951652"><ele>634.27</ele><time>2026-05-29T00:18:39.000Z</time></trkpt>
        <trkpt lat="29.5746595" lon="103.3952869"><ele>632.76</ele><time>2026-05-29T00:18:47.000Z</time></trkpt>
        <trkpt lat="29.5746702" lon="103.3954123"><ele>632.47</ele><time>2026-05-29T00:18:55.000Z</time></trkpt>
        <trkpt lat="29.574697" lon="103.3955402"><ele>631.38</ele><time>2026-05-29T00:19:03.000Z</time></trkpt>
        <trkpt lat="29.5747537" lon="103.3956345"><ele>630.1</ele><time>2026-05-29T00:19:09.000Z</time></trkpt>
        <trkpt lat="29.574827" lon="103.3957225"><ele>628.63</ele><time>2026-05-29T00:19:17.000Z</time></trkpt>
        <trkpt lat="29.5749017" lon="103.3958259"><ele>627.74</ele><time>2026-05-29T00:19:25.000Z</time></trkpt>
        <trkpt lat="29.5749683" lon="103.3959291"><ele>627.63</ele><time>2026-05-29T00:19:33.000Z</time></trkpt>
        <trkpt lat="29.575036" lon="103.3960093"><ele>627.52</ele><time>2026-05-29T00:19:39.000Z</time></trkpt>
        <trkpt lat="29.5750956" lon="103.3961149"><ele>628.78</ele><time>2026-05-29T00:19:47.000Z</time></trkpt>
        <trkpt lat="29.5751474" lon="103.3962239"><ele>630.01</ele><time>2026-05-29T00:19:55.000Z</time></trkpt>
        <trkpt lat="29.5752197" lon="103.3963127"><ele>630.66</ele><time>2026-05-29T00:20:03.000Z</time></trkpt>
        <trkpt lat="29.5753128" lon="103.3963847"><ele>631.59</ele><time>2026-05-29T00:20:11.000Z</time></trkpt>
        <trkpt lat="29.5754146" lon="103.3964581"><ele>631.85</ele><time>2026-05-29T00:20:19.000Z</time></trkpt>
        <trkpt lat="29.5755148" lon="103.3965221"><ele>631.41</ele><time>2026-05-29T00:20:27.000Z</time></trkpt>
        <trkpt lat="29.5756012" lon="103.3965988"><ele>631.15</ele><time>2026-05-29T00:20:35.000Z</time></trkpt>
        <trkpt lat="29.5756989" lon="103.396659"><ele>630.72</ele><time>2026-05-29T00:20:43.000Z</time></trkpt>
        <trkpt lat="29.5757957" lon="103.3967239"><ele>631.38</ele><time>2026-05-29T00:20:51.000Z</time></trkpt>
        <trkpt lat="29.5758996" lon="103.3967765"><ele>631.63</ele><time>2026-05-29T00:20:59.000Z</time></trkpt>
        <trkpt lat="29.576014" lon="103.3967773"><ele>634.54</ele><time>2026-05-29T00:21:07.000Z</time></trkpt>
        <trkpt lat="29.5761222" lon="103.3968007"><ele>635.53</ele><time>2026-05-29T00:21:15.000Z</time></trkpt>
        <trkpt lat="29.5761689" lon="103.3967591"><ele>635.48</ele><time>2026-05-29T00:21:23.000Z</time></trkpt>
        <trkpt lat="29.5761963" lon="103.3968375"><ele>636.25</ele><time>2026-05-29T00:21:47.000Z</time></trkpt>
        <trkpt lat="29.5762016" lon="103.39695"><ele>635.98</ele><time>2026-05-29T00:21:53.000Z</time></trkpt>
        <trkpt lat="29.5762156" lon="103.3970759"><ele>635.8</ele><time>2026-05-29T00:22:01.000Z</time></trkpt>
        <trkpt lat="29.576242" lon="103.3972017"><ele>635.58</ele><time>2026-05-29T00:22:09.000Z</time></trkpt>
        <trkpt lat="29.5762792" lon="103.3973137"><ele>635.27</ele><time>2026-05-29T00:22:15.000Z</time></trkpt>
        <trkpt lat="29.5763239" lon="103.3974091"><ele>635.4</ele><time>2026-05-29T00:22:21.000Z</time></trkpt>
        <trkpt lat="29.5763333" lon="103.3975306"><ele>635.25</ele><time>2026-05-29T00:22:29.000Z</time></trkpt>
        <trkpt lat="29.5763111" lon="103.3976486"><ele>635.13</ele><time>2026-05-29T00:22:37.000Z</time></trkpt>
        <trkpt lat="29.5762831" lon="103.3977712"><ele>633.8</ele><time>2026-05-29T00:22:45.000Z</time></trkpt>
        <trkpt lat="29.5762578" lon="103.3979022"><ele>633.39</ele><time>2026-05-29T00:22:53.000Z</time></trkpt>
        <trkpt lat="29.5762597" lon="103.3980419"><ele>632.79</ele><time>2026-05-29T00:23:01.000Z</time></trkpt>
        <trkpt lat="29.5762789" lon="103.3981722"><ele>632.86</ele><time>2026-05-29T00:23:09.000Z</time></trkpt>
        <trkpt lat="29.5763185" lon="103.3982885"><ele>632.42</ele><time>2026-05-29T00:23:17.000Z</time></trkpt>
        <trkpt lat="29.5763502" lon="103.3984145"><ele>632.25</ele><time>2026-05-29T00:23:25.000Z</time></trkpt>
        <trkpt lat="29.5764098" lon="103.3985254"><ele>632</ele><time>2026-05-29T00:23:33.000Z</time></trkpt>
        <trkpt lat="29.5764686" lon="103.3986425"><ele>632.21</ele><time>2026-05-29T00:23:41.000Z</time></trkpt>
        <trkpt lat="29.5765311" lon="103.3987499"><ele>631.87</ele><time>2026-05-29T00:23:49.000Z</time></trkpt>
        <trkpt lat="29.5765958" lon="103.3988516"><ele>631.7</ele><time>2026-05-29T00:23:57.000Z</time></trkpt>
        <trkpt lat="29.5766323" lon="103.3989671"><ele>631.73</ele><time>2026-05-29T00:24:05.000Z</time></trkpt>
        <trkpt lat="29.5766473" lon="103.3990869"><ele>630.52</ele><time>2026-05-29T00:24:13.000Z</time></trkpt>
        <trkpt lat="29.5766514" lon="103.3992226"><ele>628.73</ele><time>2026-05-29T00:24:21.000Z</time></trkpt>
        <trkpt lat="29.5766584" lon="103.3993586"><ele>627.47</ele><time>2026-05-29T00:24:27.000Z</time></trkpt>
        <trkpt lat="29.5766642" lon="103.3994984"><ele>626.09</ele><time>2026-05-29T00:24:33.000Z</time></trkpt>
        <trkpt lat="29.5766556" lon="103.3995707"><ele>626.02</ele><time>2026-05-29T00:24:37.000Z</time></trkpt>
        <trkpt lat="29.5766355" lon="103.3996686"><ele>625.55</ele><time>2026-05-29T00:24:51.000Z</time></trkpt>
        <trkpt lat="29.5767605" lon="103.3997047"><ele>626.5</ele><time>2026-05-29T00:25:13.000Z</time></trkpt>
        <trkpt lat="29.5769074" lon="103.3997272"><ele>628.75</ele><time>2026-05-29T00:25:17.000Z</time></trkpt>
        <trkpt lat="29.5770407" lon="103.3997682"><ele>631.57</ele><time>2026-05-29T00:25:25.000Z</time></trkpt>
        <trkpt lat="29.5771351" lon="103.3998244"><ele>633.5</ele><time>2026-05-29T00:25:29.000Z</time></trkpt>
        <trkpt lat="29.5772419" lon="103.3998709"><ele>633.56</ele><time>2026-05-29T00:25:37.000Z</time></trkpt>
        <trkpt lat="29.577335" lon="103.3999151"><ele>633.26</ele><time>2026-05-29T00:25:47.000Z</time></trkpt>
        <trkpt lat="29.5773981" lon="103.4000247"><ele>635.09</ele><time>2026-05-29T00:25:49.000Z</time></trkpt>
        <trkpt lat="29.577486" lon="103.4001054"><ele>628.93</ele><time>2026-05-29T00:25:53.000Z</time></trkpt>
        <trkpt lat="29.5775099" lon="103.4001327"><ele>627.23</ele><time>2026-05-29T00:25:59.000Z</time></trkpt>
        <trkpt lat="29.5775701" lon="103.400177"><ele>627.44</ele><time>2026-05-29T00:26:09.000Z</time></trkpt>
        <trkpt lat="29.5776563" lon="103.400205"><ele>627.6</ele><time>2026-05-29T00:26:15.000Z</time></trkpt>
        <trkpt lat="29.5777518" lon="103.4002554"><ele>627.64</ele><time>2026-05-29T00:26:21.000Z</time></trkpt>
        <trkpt lat="29.577833" lon="103.4003433"><ele>627.5</ele><time>2026-05-29T00:26:29.000Z</time></trkpt>
        <trkpt lat="29.5778655" lon="103.4004703"><ele>628.3</ele><time>2026-05-29T00:26:37.000Z</time></trkpt>
        <trkpt lat="29.5778445" lon="103.4006035"><ele>628.97</ele><time>2026-05-29T00:26:45.000Z</time></trkpt>
        <trkpt lat="29.5778123" lon="103.4007364"><ele>629.52</ele><time>2026-05-29T00:26:53.000Z</time></trkpt>
        <trkpt lat="29.5778255" lon="103.4008492"><ele>630</ele><time>2026-05-29T00:26:59.000Z</time></trkpt>
        <trkpt lat="29.5778365" lon="103.4009663"><ele>631.7</ele><time>2026-05-29T00:27:07.000Z</time></trkpt>
        <trkpt lat="29.5778389" lon="103.4010919"><ele>632.95</ele><time>2026-05-29T00:27:15.000Z</time></trkpt>
        <trkpt lat="29.5778451" lon="103.4012194"><ele>633.3</ele><time>2026-05-29T00:27:23.000Z</time></trkpt>
        <trkpt lat="29.5778305" lon="103.4013343"><ele>632.99</ele><time>2026-05-29T00:27:31.000Z</time></trkpt>
        <trkpt lat="29.5777566" lon="103.4014143"><ele>633.41</ele><time>2026-05-29T00:27:39.000Z</time></trkpt>
        <trkpt lat="29.5776781" lon="103.4014796"><ele>633.16</ele><time>2026-05-29T00:27:45.000Z</time></trkpt>
        <trkpt lat="29.5775949" lon="103.4015481"><ele>632.03</ele><time>2026-05-29T00:27:53.000Z</time></trkpt>
        <trkpt lat="29.5775047" lon="103.4016053"><ele>630.76</ele><time>2026-05-29T00:28:01.000Z</time></trkpt>
        <trkpt lat="29.5774104" lon="103.4016593"><ele>630.91</ele><time>2026-05-29T00:28:09.000Z</time></trkpt>
        <trkpt lat="29.5773673" lon="103.4017653"><ele>630.72</ele><time>2026-05-29T00:28:17.000Z</time></trkpt>
        <trkpt lat="29.577346" lon="103.401893"><ele>630.5</ele><time>2026-05-29T00:28:25.000Z</time></trkpt>
        <trkpt lat="29.577289" lon="103.401996"><ele>628.77</ele><time>2026-05-29T00:28:33.000Z</time></trkpt>
        <trkpt lat="29.5772261" lon="103.4020968"><ele>628.74</ele><time>2026-05-29T00:28:41.000Z</time></trkpt>
        <trkpt lat="29.5771714" lon="103.4022136"><ele>628.89</ele><time>2026-05-29T00:28:49.000Z</time></trkpt>
        <trkpt lat="29.5771434" lon="103.402321"><ele>628.79</ele><time>2026-05-29T00:28:55.000Z</time></trkpt>
        <trkpt lat="29.5771524" lon="103.402428"><ele>628.58</ele><time>2026-05-29T00:29:01.000Z</time></trkpt>
        <trkpt lat="29.5771976" lon="103.4025423"><ele>627.08</ele><time>2026-05-29T00:29:09.000Z</time></trkpt>
        <trkpt lat="29.5772465" lon="103.4026598"><ele>624.58</ele><time>2026-05-29T00:29:15.000Z</time></trkpt>
        <trkpt lat="29.5772795" lon="103.4027836"><ele>623.64</ele><time>2026-05-29T00:29:21.000Z</time></trkpt>
        <trkpt lat="29.5773339" lon="103.4028754"><ele>625.28</ele><time>2026-05-29T00:29:27.000Z</time></trkpt>
        <trkpt lat="29.5773684" lon="103.4029823"><ele>627.28</ele><time>2026-05-29T00:29:35.000Z</time></trkpt>
        <trkpt lat="29.5773811" lon="103.4030961"><ele>628.56</ele><time>2026-05-29T00:29:43.000Z</time></trkpt>
        <trkpt lat="29.5774179" lon="103.4032113"><ele>630.06</ele><time>2026-05-29T00:29:51.000Z</time></trkpt>
        <trkpt lat="29.5774874" lon="103.4033175"><ele>630.6</ele><time>2026-05-29T00:29:59.000Z</time></trkpt>
        <trkpt lat="29.5775743" lon="103.4034069"><ele>632.31</ele><time>2026-05-29T00:30:07.000Z</time></trkpt>
        <trkpt lat="29.5776658" lon="103.4034503"><ele>631.38</ele><time>2026-05-29T00:30:13.000Z</time></trkpt>
        <trkpt lat="29.5777771" lon="103.4034725"><ele>630.34</ele><time>2026-05-29T00:30:21.000Z</time></trkpt>
        <trkpt lat="29.5778845" lon="103.40351"><ele>629.21</ele><time>2026-05-29T00:30:29.000Z</time></trkpt>
        <trkpt lat="29.5779596" lon="103.4035455"><ele>627.99</ele><time>2026-05-29T00:30:41.000Z</time></trkpt>
        <trkpt lat="29.5780475" lon="103.4035764"><ele>628.91</ele><time>2026-05-29T00:30:57.000Z</time></trkpt>
        <trkpt lat="29.5781326" lon="103.4036243"><ele>629.16</ele><time>2026-05-29T00:31:05.000Z</time></trkpt>
        <trkpt lat="29.5781609" lon="103.4036784"><ele>628.21</ele><time>2026-05-29T00:31:13.000Z</time></trkpt>
        <trkpt lat="29.578133" lon="103.4037695"><ele>629.39</ele><time>2026-05-29T00:31:27.000Z</time></trkpt>
        <trkpt lat="29.5781203" lon="103.4038826"><ele>630.74</ele><time>2026-05-29T00:31:37.000Z</time></trkpt>
        <trkpt lat="29.5780949" lon="103.4040053"><ele>632.33</ele><time>2026-05-29T00:31:45.000Z</time></trkpt>
        <trkpt lat="29.5780816" lon="103.4041349"><ele>632.75</ele><time>2026-05-29T00:31:53.000Z</time></trkpt>
        <trkpt lat="29.5780886" lon="103.4042615"><ele>631.95</ele><time>2026-05-29T00:32:01.000Z</time></trkpt>
        <trkpt lat="29.5781031" lon="103.4043781"><ele>630.59</ele><time>2026-05-29T00:32:09.000Z</time></trkpt>
        <trkpt lat="29.5781132" lon="103.4045025"><ele>629.89</ele><time>2026-05-29T00:32:17.000Z</time></trkpt>
        <trkpt lat="29.578137" lon="103.4046014"><ele>629.72</ele><time>2026-05-29T00:32:29.000Z</time></trkpt>
        <trkpt lat="29.5781585" lon="103.404723"><ele>629.81</ele><time>2026-05-29T00:32:41.000Z</time></trkpt>
        <trkpt lat="29.5781931" lon="103.404829"><ele>629.76</ele><time>2026-05-29T00:32:47.000Z</time></trkpt>
        <trkpt lat="29.5782317" lon="103.4049338"><ele>629.76</ele><time>2026-05-29T00:32:55.000Z</time></trkpt>
        <trkpt lat="29.5783044" lon="103.4050245"><ele>628.98</ele><time>2026-05-29T00:33:05.000Z</time></trkpt>
        <trkpt lat="29.5783827" lon="103.4051014"><ele>628.79</ele><time>2026-05-29T00:33:13.000Z</time></trkpt>
        <trkpt lat="29.5784291" lon="103.4051981"><ele>628.69</ele><time>2026-05-29T00:33:21.000Z</time></trkpt>
        <trkpt lat="29.5784868" lon="103.4052973"><ele>628.42</ele><time>2026-05-29T00:33:31.000Z</time></trkpt>
        <trkpt lat="29.5784733" lon="103.4054001"><ele>627.79</ele><time>2026-05-29T00:33:41.000Z</time></trkpt>
        <trkpt lat="29.5783967" lon="103.4054736"><ele>627.68</ele><time>2026-05-29T00:33:51.000Z</time></trkpt>
        <trkpt lat="29.5783752" lon="103.4053987"><ele>627.87</ele><time>2026-05-29T00:34:09.000Z</time></trkpt>
        <trkpt lat="29.5783036" lon="103.4053338"><ele>626.06</ele><time>2026-05-29T00:34:21.000Z</time></trkpt>
        <trkpt lat="29.5782324" lon="103.4053643"><ele>624.22</ele><time>2026-05-29T00:34:35.000Z</time></trkpt>
        <trkpt lat="29.5781574" lon="103.4054499"><ele>622.17</ele><time>2026-05-29T00:35:24.000Z</time></trkpt>
        <trkpt lat="29.57822" lon="103.4055262"><ele>618.65</ele><time>2026-05-29T00:35:30.000Z</time></trkpt>
        <trkpt lat="29.5782858" lon="103.4056161"><ele>621.81</ele><time>2026-05-29T00:35:34.000Z</time></trkpt>
        <trkpt lat="29.578358" lon="103.4057381"><ele>625.78</ele><time>2026-05-29T00:35:38.000Z</time></trkpt>
        <trkpt lat="29.5783699" lon="103.4056663"><ele>630.76</ele><time>2026-05-29T00:35:44.000Z</time></trkpt>
        <trkpt lat="29.5783381" lon="103.4055549"><ele>631.09</ele><time>2026-05-29T00:35:52.000Z</time></trkpt>
        <trkpt lat="29.5783381" lon="103.4055549"><ele>631.09</ele><time>2026-05-29T00:36:42.000Z</time></trkpt>
      </trkseg>
  </trk>
</gpx>